# Wetter Temperatur Luftdruck Luftfeuchtigkeit Sichtweite Windgeschwindigkeit Windrichtung Zeit
1 Clear 16 1006 31 10000 3.78 290 12:51 22.04.2021
2 Clear 16 1006 31 10000 3.78 290 12:30 22.04.2021
3 Clear 17 1006 29 10000 2.06 180 11:49 22.04.2021
4 Clear 17 1006 29 10000 2.06 180 11:25 22.04.2021
5 Clear 17 1006 27 10000 3.09 300 10:47 22.04.2021
6 Clear 17 1006 27 10000 3.09 300 10:29 22.04.2021
7 Clouds 18 1006 26 10000 2.57 0 09:58 22.04.2021
8 Clouds 18 1006 26 10000 2.57 0 09:33 22.04.2021
9 Clouds 19 1005 23 10000 2.57 260 08:47 22.04.2021
10 Clouds 19 1005 23 10000 2.57 260 08:23 22.04.2021
11 Clouds 19 1005 24 10000 6.69 330 07:47 22.04.2021
12 Clouds 20 1005 24 10000 6.69 330 07:29 22.04.2021
13 Clouds 20 1004 23 10000 7.2 340 06:41 22.04.2021
14 Clouds 21 1003 20 10000 5.14 330 05:53 22.04.2021
15 Clouds 21 1003 20 10000 5.14 330 05:20 22.04.2021
16 Clouds 25 1002 11 10000 8.23 240 01:41 22.04.2021
17 Clouds 25 1003 13 10000 6.17 210 23:54 21.04.2021
18 Clouds 25 1003 13 10000 6.17 210 23:35 21.04.2021
19 Clouds 24 1004 14 10000 7.72 210 22:45 21.04.2021
20 Clouds 23 1004 14 10000 7.72 210 22:25 21.04.2021
21 Clouds 23 1004 13 10000 8.75 230 21:57 21.04.2021
22 Clouds 23 1004 13 10000 8.75 230 21:38 21.04.2021
23 Clouds 23 1004 13 10000 8.75 230 21:18 21.04.2021
24 Clouds 22 1004 13 10000 9.26 210 20:23 21.04.2021
25 Clouds 22 1004 12 10000 9.26 200 19:45 21.04.2021
26 Clouds 22 1004 12 10000 9.26 200 19:26 21.04.2021
27 Clouds 21 1004 11 10000 4.63 210 18:49 21.04.2021
28 Clouds 21 1004 11 10000 4.63 210 18:30 21.04.2021
29 Clouds 20 1004 15 10000 6.69 180 17:49 21.04.2021
30 Clouds 20 1004 15 10000 6.69 180 17:25 21.04.2021
31 Clouds 19 1003 13 10000 6.69 210 16:57 21.04.2021
32 Clouds 19 1003 13 10000 6.69 210 16:30 21.04.2021
33 Clouds 18 1003 15 10000 8.23 210 15:42 21.04.2021
34 Clouds 18 1003 15 10000 8.23 210 15:42 21.04.2021
35 Clouds 18 1003 15 10000 8.23 210 15:18 21.04.2021
36 Clouds 19 1003 18 10000 4.63 200 14:44 21.04.2021
37 Clouds 19 1003 18 10000 4.63 200 14:23 21.04.2021
38 Clouds 19 1003 26 10000 5.14 160 13:45 21.04.2021
39 Clouds 19 1003 26 10000 5.14 160 13:21 21.04.2021
40 Clouds 20 1003 22 10000 2.57 160 12:32 21.04.2021
41 Clouds 20 1004 21 10000 4.63 180 11:58 21.04.2021
42 Clouds 20 1004 21 10000 4.63 180 11:39 21.04.2021
43 Clouds 20 1004 21 10000 4.63 180 11:21 21.04.2021
44 Clouds 21 1005 18 10000 4.63 170 10:36 21.04.2021
45 Clouds 23 1005 16 10000 5.66 180 09:56 21.04.2021
46 Clouds 23 1005 16 10000 5.66 180 09:20 21.04.2021
47 Clouds 24 1004 13 10000 3.09 210 08:41 21.04.2021
48 Clouds 24 1004 13 10000 3.09 210 08:22 21.04.2021
49 Clouds 25 1005 8 10000 5.66 200 07:32 21.04.2021
50 Clouds 26 1004 7 10000 3.09 170 06:59 21.04.2021
51 Clouds 26 1004 9 10000 1.54 200 05:45 21.04.2021
52 Clouds 29 1007 8 10000 3.6 80 01:34 21.04.2021
53 Clouds 28 1010 9 10000 2.06 0 23:59 20.04.2021
54 Clouds 27 1010 9 10000 2.06 0 23:32 20.04.2021
55 Clouds 26 1011 10 10000 2.57 0 22:42 20.04.2021
56 Clouds 26 1011 10 10000 2.57 0 22:23 20.04.2021
57 Clouds 25 1013 11 10000 1.54 50 21:47 20.04.2021
58 Clouds 24 1013 11 10000 1.54 50 21:27 20.04.2021
59 Clouds 24 1014 13 10000 2.57 40 20:57 20.04.2021
60 Clouds 24 1014 13 10000 2.57 40 20:38 20.04.2021
61 Clouds 24 1014 13 10000 2.57 40 20:18 20.04.2021
62 Clouds 23 1014 14 10000 4.63 60 19:42 20.04.2021
63 Clouds 22 1014 14 10000 4.63 60 19:24 20.04.2021
64 Clouds 21 1014 16 10000 7.2 60 18:39 20.04.2021
65 Clouds 20 1014 15 10000 5.14 60 17:55 20.04.2021
66 Clouds 19 1014 15 10000 5.14 60 17:37 20.04.2021
67 Clouds 18 1014 17 10000 2.06 110 16:50 20.04.2021
68 Clouds 17 1013 17 10000 3.09 70 15:53 20.04.2021
69 Clouds 16 1013 17 10000 3.09 70 15:29 20.04.2021
70 Clouds 16 1013 15 10000 2.57 40 14:58 20.04.2021
71 Clouds 17 1013 15 10000 2.57 40 14:35 20.04.2021
72 Clouds 17 1013 13 10000 6.69 60 13:52 20.04.2021
73 Clouds 18 1013 13 10000 6.69 60 13:22 20.04.2021
74 Clouds 18 1012 12 10000 2.06 70 12:44 20.04.2021
75 Clouds 18 1012 12 10000 2.06 70 12:22 20.04.2021
76 Clouds 20 1012 10 10000 2.06 180 11:45 20.04.2021
77 Clouds 20 1012 10 10000 2.06 180 11:21 20.04.2021
78 Clouds 21 1011 8 10000 2.06 200 10:44 20.04.2021
79 Clouds 21 1011 8 10000 2.06 200 10:23 20.04.2021
80 Clear 22 1011 7 10000 2.06 240 09:36 20.04.2021
81 Clear 24 1011 5 10000 2.57 170 08:56 20.04.2021
82 Clear 24 1011 5 10000 2.57 170 08:25 20.04.2021
83 Clear 24 1010 5 10000 7.72 270 07:49 20.04.2021
84 Clear 25 1010 4 10000 5.14 250 06:47 20.04.2021
85 Clear 26 1009 4 10000 7.2 260 05:40 20.04.2021
86 Clouds 27 1009 4 10000 8.23 250 04:42 20.04.2021
87 Clouds 30 1011 4 10000 5.14 230 01:48 20.04.2021
88 Clouds 30 1012 4 10000 5.66 240 00:37 20.04.2021
89 Clouds 29 1014 5 10000 2.57 30 23:37 19.04.2021
90 Clouds 28 1015 5 10000 2.06 0 22:57 19.04.2021
91 Clouds 28 1015 5 10000 2.06 0 22:36 19.04.2021
92 Clear 27 1016 7 10000 2.06 60 21:51 19.04.2021
93 Clear 27 1016 7 10000 2.06 60 21:33 19.04.2021
94 Clouds 25 1017 8 10000 2.06 30 20:46 19.04.2021
95 Clouds 25 1017 8 10000 2.06 30 20:25 19.04.2021
96 Clear 24 1018 8 10000 1.21 136 20:01 19.04.2021
97 Clear 23 1018 8 10000 1.3 134 19:40 19.04.2021
98 Clear 23 1018 8 10000 1.13 128 19:21 19.04.2021
99 Clear 21 1018 12 10000 1.54 20 18:45 19.04.2021
100 Clear 20 1018 12 10000 1.54 20 18:22 19.04.2021
101 Clear 19 1018 12 10000 0.93 123 17:54 19.04.2021
102 Clear 19 1018 12 10000 0.38 131 17:27 19.04.2021
103 Clear 15 1018 13 10000 2.06 220 16:49 19.04.2021
104 Clear 15 1018 13 10000 2.06 220 16:31 19.04.2021
105 Clear 13 1018 15 10000 1.54 220 15:44 19.04.2021
106 Clear 13 1018 15 10000 1.54 220 15:25 19.04.2021
107 Clear 13 1018 13 10000 0.66 291 14:52 19.04.2021
108 Clear 13 1018 13 10000 0.66 291 14:34 19.04.2021
109 Clear 13 1018 11 10000 1.54 200 13:53 19.04.2021
110 Clear 14 1018 11 10000 1.54 200 13:30 19.04.2021
111 Clear 14 1018 11 10000 2.57 210 12:55 19.04.2021
112 Clear 14 1018 11 10000 2.57 210 12:36 19.04.2021
113 Clear 14 1018 11 10000 2.57 210 12:18 19.04.2021
114 Clear 15 1018 11 10000 2.06 220 11:43 19.04.2021
115 Clear 15 1018 11 10000 2.06 220 11:20 19.04.2021
116 Clear 15 1018 11 10000 1.25 307 10:44 19.04.2021
117 Clear 15 1018 11 10000 1.36 347 10:19 19.04.2021
118 Clear 16 1018 9 10000 3.09 250 09:43 19.04.2021
119 Clear 16 1018 9 10000 3.09 250 09:24 19.04.2021
120 Clear 17 1018 10 10000 2.06 170 08:34 19.04.2021
121 Clear 18 1018 9 10000 3.09 250 07:50 19.04.2021
122 Clear 17 1018 9 10000 3.09 250 07:24 19.04.2021
123 Clear 19 1017 8 10000 1.54 210 06:52 19.04.2021
124 Clear 22 1016 7 10000 3.09 100 04:47 19.04.2021
125 Clear 25 1017 6 10000 4.12 30 01:49 19.04.2021
126 Clear 25 1018 7 10000 4.63 360 00:41 19.04.2021
127 Clear 24 1019 8 10000 4.63 60 23:21 18.04.2021
128 Clear 23 1020 9 10000 6.69 40 22:58 18.04.2021
129 Clear 23 1020 9 10000 6.69 40 22:33 18.04.2021
130 Clouds 22 1020 9 10000 5.66 40 21:53 18.04.2021
131 Clouds 22 1020 9 10000 5.66 40 21:28 18.04.2021
132 Clouds 21 1021 11 10000 8.75 50 20:44 18.04.2021
133 Clouds 21 1021 11 10000 8.75 50 20:25 18.04.2021
134 Clouds 20 1022 15 10000 4.63 330 19:57 18.04.2021
135 Clouds 19 1022 15 10000 4.63 330 19:38 18.04.2021
136 Clouds 19 1022 15 10000 4.63 330 19:18 18.04.2021
137 Clouds 18 1022 15 10000 7.72 10 18:44 18.04.2021
138 Clouds 18 1022 15 10000 7.72 10 18:25 18.04.2021
139 Clouds 17 1022 16 10000 5.14 360 17:45 18.04.2021
140 Clouds 16 1022 16 10000 5.14 360 17:27 18.04.2021
141 Clouds 15 1021 17 10000 6.69 350 16:45 18.04.2021
142 Clouds 15 1021 17 10000 6.69 350 16:24 18.04.2021
143 Clouds 14 1020 19 10000 4.12 290 15:43 18.04.2021
144 Clouds 14 1020 19 10000 4.12 290 15:25 18.04.2021
145 Clear 14 1020 17 10000 6.69 360 14:46 18.04.2021
146 Clear 14 1020 17 10000 6.69 360 14:21 18.04.2021
147 Clear 14 1020 17 10000 4.12 40 13:55 18.04.2021
148 Clear 15 1020 17 10000 4.12 40 13:33 18.04.2021
149 Clear 14 1020 17 10000 5.14 30 12:50 18.04.2021
150 Clear 15 1020 17 10000 5.14 30 12:24 18.04.2021
151 Clear 15 1019 16 10000 2.57 0 11:41 18.04.2021
152 Clear 15 1019 16 10000 2.57 0 11:20 18.04.2021
153 Clear 15 1019 16 10000 8.23 20 10:47 18.04.2021
154 Clear 16 1019 16 10000 8.23 20 10:22 18.04.2021
155 Clouds 16 1019 16 10000 7.2 20 09:47 18.04.2021
156 Clouds 16 1019 16 10000 7.2 20 09:28 18.04.2021
157 Clear 17 1019 16 10000 5.66 30 08:56 18.04.2021
158 Clear 17 1019 16 10000 5.66 30 08:34 18.04.2021
159 Clear 17 1018 15 10000 5.14 40 07:55 18.04.2021
160 Clear 17 1018 15 10000 5.14 40 07:55 18.04.2021
161 Clear 17 1018 15 10000 5.14 40 07:36 18.04.2021
162 Clouds 19 1016 15 10000 7.72 20 05:41 18.04.2021
163 Clouds 19 1016 15 10000 7.72 20 05:22 18.04.2021
164 Clouds 22 1015 14 10000 8.75 10 02:27 18.04.2021
165 Clouds 22 1015 14 10000 6.69 40 01:48 18.04.2021
166 Clouds 22 1016 14 10000 7.72 60 00:36 18.04.2021
167 Clouds 22 1017 18 10000 4.12 80 23:31 17.04.2021
168 Clouds 21 1017 18 10000 5.66 50 22:50 17.04.2021
169 Clouds 21 1017 18 10000 5.66 50 22:30 17.04.2021
170 Clouds 20 1018 20 10000 5.66 30 21:46 17.04.2021
171 Clouds 20 1018 20 10000 5.66 30 21:28 17.04.2021
172 Clouds 19 1018 20 10000 7.72 70 20:46 17.04.2021
173 Clouds 19 1018 20 10000 7.72 70 20:25 17.04.2021
174 Clouds 18 1019 25 10000 5.66 20 19:44 17.04.2021
175 Clouds 17 1019 25 10000 5.66 20 19:20 17.04.2021
176 Clouds 17 1018 27 10000 5.66 20 18:55 17.04.2021
177 Clouds 16 1018 27 10000 5.66 20 18:26 17.04.2021
178 Clouds 16 1019 27 10000 4.12 10 17:49 17.04.2021
179 Clouds 15 1019 27 10000 4.12 10 17:30 17.04.2021
180 Clouds 14 1018 30 10000 5.14 40 16:42 17.04.2021
181 Clouds 13 1018 30 10000 5.14 40 16:23 17.04.2021
182 Clouds 13 1017 33 10000 4.63 30 15:38 17.04.2021
183 Clouds 14 1017 29 10000 6.17 60 14:44 17.04.2021
184 Clouds 14 1017 29 10000 6.17 60 14:20 17.04.2021
185 Clouds 14 1017 31 10000 5.14 50 13:44 17.04.2021
186 Clouds 14 1016 29 10000 6.69 50 12:55 17.04.2021
187 Clouds 14 1016 29 10000 6.69 50 12:34 17.04.2021
188 Clouds 15 1016 31 10000 8.75 50 11:52 17.04.2021
189 Clouds 15 1016 31 10000 8.75 50 11:33 17.04.2021
190 Clouds 15 1016 31 10000 8.75 50 11:33 17.04.2021
191 Clouds 15 1016 27 10000 6.69 60 10:56 17.04.2021
192 Clouds 16 1016 27 10000 6.69 60 10:38 17.04.2021
193 Clouds 16 1016 27 10000 7.2 60 09:51 17.04.2021
194 Clouds 17 1015 25 10000 5.14 60 08:55 17.04.2021
195 Clouds 17 1015 25 10000 5.14 60 08:33 17.04.2021
196 Clouds 18 1014 24 10000 7.2 60 07:51 17.04.2021
197 Clouds 19 1014 24 10000 7.72 50 06:26 17.04.2021
198 Clouds 22 1011 12 10000 3.09 310 03:47 17.04.2021
199 Clouds 24 1011 13 10000 5.14 90 01:35 17.04.2021
200 Clouds 23 1012 13 10000 2.06 0 00:40 17.04.2021
201 Clouds 23 1012 13 10000 2.06 0 00:19 17.04.2021
202 Clouds 23 1013 13 10000 1.17 122 23:35 16.04.2021
203 Clouds 22 1013 15 10000 2.06 130 22:52 16.04.2021
204 Clouds 22 1013 15 10000 2.06 130 22:25 16.04.2021
205 Clouds 21 1014 17 10000 3.09 40 21:57 16.04.2021
206 Clouds 22 1014 17 10000 3.09 40 21:39 16.04.2021
207 Clouds 20 1015 19 10000 3.6 80 20:57 16.04.2021
208 Clouds 20 1015 19 10000 3.6 80 20:38 16.04.2021
209 Clouds 20 1015 19 10000 3.6 80 20:18 16.04.2021
210 Clouds 19 1015 20 10000 4.12 60 19:43 16.04.2021
211 Clouds 18 1015 20 10000 4.12 60 19:19 16.04.2021
212 Clouds 18 1015 20 10000 2.57 100 18:27 16.04.2021
213 Clouds 16 1015 23 10000 1.63 55 17:51 16.04.2021
214 Clouds 15 1015 23 10000 1.31 38 17:20 16.04.2021
215 Clouds 15 1015 23 10000 1.31 38 17:20 16.04.2021
216 Clouds 14 1015 24 10000 1.54 170 16:45 16.04.2021
217 Clouds 13 1015 24 10000 1.54 170 16:26 16.04.2021
218 Clouds 12 1014 24 10000 1.41 32 15:56 16.04.2021
219 Clouds 12 1014 24 10000 1.41 32 15:36 16.04.2021
220 Clear 12 1014 21 10000 2.06 80 14:46 16.04.2021
221 Clear 12 1014 21 10000 2.06 80 14:28 16.04.2021
222 Clear 12 1014 20 10000 5.66 40 13:56 16.04.2021
223 Clear 12 1014 20 10000 5.66 40 13:23 16.04.2021
224 Clear 13 1014 21 10000 5.14 50 12:58 16.04.2021
225 Clear 13 1014 21 10000 5.14 50 12:39 16.04.2021
226 Clear 13 1014 21 10000 5.14 50 12:21 16.04.2021
227 Clear 14 1014 17 10000 4.12 40 11:41 16.04.2021
228 Clear 14 1014 17 10000 4.12 40 11:20 16.04.2021
229 Clear 14 1014 17 10000 2.57 360 10:41 16.04.2021
230 Clear 14 1014 17 10000 2.57 360 10:21 16.04.2021
231 Clear 15 1014 16 10000 4.12 60 09:44 16.04.2021
232 Clear 15 1014 16 10000 4.12 60 09:22 16.04.2021
233 Clouds 16 1013 13 10000 1.54 130 08:45 16.04.2021
234 Clouds 17 1013 13 10000 1.54 130 08:19 16.04.2021
235 Clouds 17 1013 11 10000 1.54 0 07:43 16.04.2021
236 Clouds 17 1013 11 10000 1.54 0 07:25 16.04.2021
237 Clouds 18 1013 11 10000 1.54 210 06:39 16.04.2021
238 Clouds 19 1012 10 10000 2.57 310 05:32 16.04.2021
239 Clouds 23 1012 11 10000 5.14 280 01:47 16.04.2021
240 Clouds 23 1013 14 10000 3.09 210 00:45 16.04.2021
241 Clouds 22 1013 14 10000 3.09 210 00:21 16.04.2021
242 Clouds 22 1014 13 10000 4.12 70 23:52 15.04.2021
243 Clouds 22 1014 13 10000 4.12 70 23:32 15.04.2021
244 Clouds 22 1014 13 10000 4.63 320 22:50 15.04.2021
245 Clouds 21 1014 13 10000 2.57 0 22:23 15.04.2021
246 Clouds 21 1014 15 10000 6.17 360 21:43 15.04.2021
247 Clouds 20 1014 15 10000 6.17 360 21:25 15.04.2021
248 Clouds 20 1014 15 10000 5.14 350 20:49 15.04.2021
249 Clouds 20 1014 15 10000 5.14 350 20:25 15.04.2021
250 Clouds 20 1014 15 10000 5.14 350 20:25 15.04.2021
251 Clouds 19 1014 24 10000 6.17 20 19:48 15.04.2021
252 Clouds 18 1014 24 10000 6.17 20 19:28 15.04.2021
253 Clouds 17 1014 27 10000 6.17 360 18:59 15.04.2021
254 Clouds 17 1014 27 10000 6.17 360 18:37 15.04.2021
255 Clouds 17 1014 27 10000 6.17 360 18:18 15.04.2021
256 Clear 16 1014 29 10000 6.17 310 17:51 15.04.2021
257 Clear 15 1014 29 10000 6.17 310 17:29 15.04.2021
258 Clear 13 1013 35 10000 4.63 320 16:44 15.04.2021
259 Clear 12 1013 35 10000 4.63 320 16:24 15.04.2021
260 Clouds 12 1012 33 10000 2.06 310 15:50 15.04.2021
261 Clouds 11 1012 33 10000 2.06 310 15:27 15.04.2021
262 Clouds 12 1011 30 10000 1.54 0 14:44 15.04.2021
263 Clouds 12 1011 30 10000 1.54 0 14:25 15.04.2021
264 Clouds 13 1011 29 10000 3.6 300 13:49 15.04.2021
265 Clouds 13 1011 29 10000 3.6 300 13:25 15.04.2021
266 Clouds 14 1011 27 10000 6.17 330 12:50 15.04.2021
267 Clouds 14 1011 27 10000 6.17 330 12:27 15.04.2021
268 Clouds 15 1010 25 10000 5.66 330 11:48 15.04.2021
269 Clouds 15 1010 25 10000 5.66 330 11:29 15.04.2021
270 Clouds 15 1010 22 10000 7.2 340 10:58 15.04.2021
271 Clouds 15 1010 22 10000 7.2 340 10:40 15.04.2021
272 Clouds 15 1010 22 10000 7.2 340 10:22 15.04.2021
273 Clouds 16 1009 20 10000 6.17 320 09:30 15.04.2021
274 Clouds 16 1008 19 10000 4.63 240 08:53 15.04.2021
275 Clouds 16 1008 19 10000 4.63 240 08:34 15.04.2021
276 Clouds 17 1007 22 10000 6.69 220 07:37 15.04.2021
277 Clouds 18 1007 16 10000 7.72 230 06:57 15.04.2021
278 Clouds 18 1007 16 10000 7.72 230 06:36 15.04.2021
279 Clouds 21 1005 9 10000 5.66 230 04:55 15.04.2021
280 Clouds 22 1005 9 10000 3.09 290 03:59 15.04.2021
281 Clouds 24 1006 10 10000 6.17 220 00:18 15.04.2021
282 Clouds 23 1007 9 10000 5.66 230 23:34 14.04.2021
283 Clouds 22 1007 12 10000 6.17 220 22:58 14.04.2021
284 Clouds 22 1007 12 10000 6.17 220 22:37 14.04.2021
285 Clouds 22 1007 12 10000 6.17 220 22:19 14.04.2021
286 Clouds 22 1008 16 10000 2.57 210 21:41 14.04.2021
287 Clouds 21 1008 16 10000 2.57 210 21:22 14.04.2021
288 Clouds 20 1009 20 10000 3.93 236 20:45 14.04.2021
289 Clouds 20 1009 20 10000 3.33 252 20:27 14.04.2021
290 Clouds 19 1008 24 10000 5.66 180 19:46 14.04.2021
291 Clouds 19 1008 24 10000 5.66 180 19:19 14.04.2021
292 Clear 18 1008 27 10000 5.14 180 18:54 14.04.2021
293 Clear 17 1008 27 10000 5.14 180 18:20 14.04.2021
294 Clear 17 1007 29 10000 5.66 210 17:57 14.04.2021
295 Clear 16 1007 29 10000 5.66 210 17:24 14.04.2021
296 Clear 15 1006 33 10000 4.12 210 16:48 14.04.2021
297 Clear 14 1006 33 10000 4.12 210 16:24 14.04.2021
298 Clear 14 1005 33 10000 7.2 200 15:41 14.04.2021
299 Clear 14 1005 33 10000 7.2 200 15:22 14.04.2021
300 Clear 14 1004 31 10000 5.66 200 14:44 14.04.2021
301 Clear 14 1004 31 10000 5.66 200 14:44 14.04.2021
302 Clear 14 1004 31 10000 5.66 200 14:22 14.04.2021
303 Clear 15 1003 29 10000 11.83 170 13:49 14.04.2021
304 Clear 15 1003 29 10000 6.69 190 12:59 14.04.2021
305 Clear 16 1003 29 10000 6.69 190 12:36 14.04.2021
306 Clear 17 1002 24 10000 7.72 200 11:43 14.04.2021
307 Clear 17 1002 24 10000 7.72 200 11:24 14.04.2021
308 Dust 18 1002 24 10000 7.72 200 10:35 14.04.2021
309 Dust 18 1001 22 10000 9.26 180 09:59 14.04.2021
310 Dust 18 1001 22 10000 9.26 180 09:41 14.04.2021
311 Dust 18 1001 22 10000 9.26 180 09:19 14.04.2021
312 Dust 19 1002 21 10000 4.12 190 08:34 14.04.2021
313 Dust 20 1002 17 10000 8.75 220 07:56 14.04.2021
314 Clear 22 1001 16 10000 6.69 170 06:46 14.04.2021
315 Clear 22 1001 16 10000 6.69 170 06:23 14.04.2021
316 Clouds 26 1000 11 10000 8.75 200 03:59 14.04.2021
317 Clear 28 1000 10 10000 11.32 230 01:41 14.04.2021
318 Clear 29 1001 10 10000 7.2 220 00:34 14.04.2021
319 Clear 28 1002 12 10000 7.72 230 23:39 13.04.2021
320 Clear 28 1003 11 10000 6.69 200 22:59 13.04.2021
321 Clear 28 1003 11 10000 6.69 200 22:40 13.04.2021
322 Clear 28 1003 11 10000 6.69 200 22:18 13.04.2021
323 Clear 27 1004 12 10000 6.17 200 21:44 13.04.2021
324 Clear 26 1004 12 10000 6.17 200 21:24 13.04.2021
325 Clear 25 1005 14 10000 4.63 200 20:41 13.04.2021
326 Clear 25 1005 14 10000 4.63 200 20:20 13.04.2021
327 Clear 24 1005 14 10000 3.6 230 19:40 13.04.2021
328 Clear 24 1005 14 10000 3.6 230 19:22 13.04.2021
329 Clear 22 1006 15 10000 1.54 0 18:36 13.04.2021
330 Clouds 20 1006 14 10000 2.55 179 17:45 13.04.2021
331 Clouds 20 1006 14 10000 1.32 166 17:23 13.04.2021
332 Clouds 19 1005 16 10000 1.54 190 16:57 13.04.2021
333 Clouds 19 1005 16 10000 1.54 190 16:39 13.04.2021
334 Clouds 18 1005 16 10000 1.54 190 16:19 13.04.2021
335 Clouds 18 1005 15 10000 1.54 290 15:40 13.04.2021
336 Clouds 19 1004 19 10000 2.57 170 14:59 13.04.2021
337 Clouds 19 1004 19 10000 2.57 170 14:41 13.04.2021
338 Clouds 19 1004 19 10000 2.57 170 14:18 13.04.2021
339 Clouds 19 1004 12 10000 1.54 10 13:41 13.04.2021
340 Clouds 20 1004 12 10000 1.54 10 13:22 13.04.2021
341 Clouds 20 1004 14 10000 2.06 40 12:53 13.04.2021
342 Clouds 20 1004 14 10000 2.06 40 12:23 13.04.2021
343 Clouds 20 1005 14 10000 3.6 220 11:48 13.04.2021
344 Clouds 21 1005 14 10000 3.6 220 11:28 13.04.2021
345 Clouds 22 1005 10 10000 2.57 230 10:44 13.04.2021
346 Clouds 21 1005 10 10000 2.57 230 10:20 13.04.2021
347 Clouds 21 1005 12 10000 1.54 260 09:52 13.04.2021
348 Clouds 21 1005 12 10000 1.54 260 09:27 13.04.2021
349 Clouds 21 1005 9 10000 2.06 210 08:51 13.04.2021
350 Clouds 21 1005 9 10000 2.06 210 08:24 13.04.2021
351 Clouds 22 1005 8 10000 2.57 230 07:52 13.04.2021
352 Clouds 22 1005 8 10000 2.57 230 07:32 13.04.2021
353 Clouds 23 1005 8 10000 1.54 40 06:28 13.04.2021
354 Clouds 28 1005 6 10000 5.66 90 03:55 13.04.2021
355 Clouds 29 1005 6 10000 3.6 60 01:35 13.04.2021
356 Clouds 28 1007 7 10000 1.54 0 23:58 12.04.2021
357 Clouds 28 1007 7 10000 1.54 0 23:33 12.04.2021
358 Clouds 27 1008 8 10000 2.06 0 22:59 12.04.2021
359 Clouds 27 1008 8 10000 2.06 0 22:37 12.04.2021
360 Clouds 25 1009 9 10000 2.57 0 21:55 12.04.2021
361 Clouds 26 1009 9 10000 2.57 0 21:36 12.04.2021
362 Clouds 25 1009 9 10000 2.57 0 21:18 12.04.2021
363 Clouds 24 1009 9 10000 4.12 80 20:36 12.04.2021
364 Clouds 24 1009 9 10000 5.66 80 20:18 12.04.2021
365 Clouds 24 1009 9 10000 5.14 60 19:41 12.04.2021
366 Clouds 23 1009 9 10000 5.14 60 19:21 12.04.2021
367 Clouds 23 1009 10 10000 4.63 50 18:52 12.04.2021
368 Clouds 22 1009 10 10000 4.63 50 18:34 12.04.2021
369 Clouds 21 1009 13 10000 3.09 40 17:59 12.04.2021
370 Clouds 20 1009 13 10000 3.09 40 17:41 12.04.2021
371 Clouds 20 1009 13 10000 3.09 40 17:19 12.04.2021
372 Clouds 18 1008 13 10000 3.6 70 16:41 12.04.2021
373 Clouds 18 1008 13 10000 3.6 70 16:23 12.04.2021
374 Clouds 17 1007 13 10000 2.57 360 15:45 12.04.2021
375 Clouds 17 1006 12 10000 4.12 70 14:59 12.04.2021
376 Clouds 17 1006 12 10000 4.12 70 14:40 12.04.2021
377 Clouds 18 1006 12 10000 4.12 70 14:22 12.04.2021
378 Clouds 19 1006 10 10000 1.54 0 13:41 12.04.2021
379 Clouds 19 1006 10 10000 1.54 0 13:20 12.04.2021
380 Clouds 19 1005 11 10000 2.06 350 12:44 12.04.2021
381 Clouds 19 1005 11 10000 2.06 350 12:23 12.04.2021
382 Clouds 19 1005 11 10000 2.06 220 11:43 12.04.2021
383 Clouds 20 1005 8 10000 2.57 210 10:51 12.04.2021
384 Clouds 21 1005 8 10000 2.57 210 10:28 12.04.2021
385 Clouds 21 1005 9 10000 2.57 210 09:53 12.04.2021
386 Clouds 21 1005 9 10000 2.57 210 09:31 12.04.2021
387 Clouds 22 1005 7 10000 1.54 200 08:58 12.04.2021
388 Clouds 23 1005 7 10000 1.54 200 08:22 12.04.2021
389 Clouds 24 1005 7 10000 2.57 310 07:30 12.04.2021
390 Clouds 24 1005 6 10000 2.57 240 06:47 12.04.2021
391 Clouds 26 1004 6 10000 2.57 220 05:48 12.04.2021
392 Clouds 29 1004 5 10000 2.06 20 03:33 12.04.2021
393 Clouds 30 1006 5 10000 2.06 0 00:43 12.04.2021
394 Clouds 30 1006 5 10000 2.06 0 00:22 12.04.2021
395 Clouds 30 1007 6 10000 1.54 0 23:44 11.04.2021
396 Clouds 29 1007 6 10000 1.54 0 23:22 11.04.2021
397 Clouds 29 1008 6 10000 2.06 20 22:39 11.04.2021
398 Clouds 29 1008 6 10000 2.06 20 22:39 11.04.2021
399 Clouds 28 1008 6 10000 2.06 20 22:19 11.04.2021
400 Clouds 28 1009 7 10000 0.82 159 21:44 11.04.2021
401 Clouds 27 1009 7 10000 0.56 90 21:24 11.04.2021
402 Clouds 27 1009 7 10000 0.56 90 21:24 11.04.2021
403 Clouds 27 1009 7 10000 0.8 109 20:46 11.04.2021
404 Clouds 27 1009 7 10000 1.34 52 20:25 11.04.2021
405 Clouds 26 1010 8 10000 1.54 0 19:44 11.04.2021
406 Clouds 25 1010 8 10000 1.54 0 19:21 11.04.2021
407 Clouds 24 1010 8 10000 1.59 28 18:58 11.04.2021
408 Clouds 24 1010 8 10000 1.59 28 18:40 11.04.2021
409 Clouds 23 1010 8 10000 1.5 352 18:22 11.04.2021
410 Clouds 21 1009 12 10000 1.5 352 17:41 11.04.2021
411 Clouds 21 1009 12 10000 1.37 335 17:22 11.04.2021
412 Clouds 20 1009 11 10000 1.54 150 16:46 11.04.2021
413 Clouds 18 1009 11 10000 1.54 150 16:22 11.04.2021
414 Clouds 17 1008 13 10000 1.54 290 15:47 11.04.2021
415 Clouds 17 1008 13 10000 1.54 290 15:26 11.04.2021
416 Clouds 17 1008 13 10000 1.54 290 15:26 11.04.2021
417 Clear 17 1007 12 10000 2.57 190 14:52 11.04.2021
418 Clear 17 1007 12 10000 2.57 190 14:27 11.04.2021
419 Clear 18 1007 10 10000 2.57 200 13:45 11.04.2021
420 Clear 18 1007 10 10000 2.57 200 13:27 11.04.2021
421 Clear 19 1007 9 10000 3.09 190 12:41 11.04.2021
422 Clear 19 1007 9 10000 3.09 190 12:20 11.04.2021
423 Clear 20 1007 8 10000 3.09 210 11:48 11.04.2021
424 Clear 20 1007 8 10000 3.09 210 11:21 11.04.2021
425 Clear 20 1007 7 10000 3.09 220 10:47 11.04.2021
426 Clear 20 1007 7 10000 3.09 220 10:23 11.04.2021
427 Clear 21 1008 8 10000 2.06 210 09:51 11.04.2021
428 Clear 21 1008 8 10000 2.06 210 09:30 11.04.2021
429 Clear 21 1008 8 10000 2.57 290 08:40 11.04.2021
430 Clear 23 1008 5 10000 3.09 270 07:57 11.04.2021
431 Clear 23 1008 5 10000 3.09 270 07:21 11.04.2021
432 Clouds 25 1007 4 10000 3.6 260 05:55 11.04.2021
433 Clouds 26 1007 4 10000 3.6 260 05:23 11.04.2021
434 Clouds 27 1007 6 10000 3.6 290 04:51 11.04.2021
435 Clouds 27 1007 6 10000 3.6 290 04:33 11.04.2021
436 Clouds 30 1008 6 10000 1.54 0 01:27 11.04.2021
437 Clouds 29 1009 7 10000 1 186 00:32 11.04.2021
438 Clouds 29 1010 6 10000 2.06 50 23:46 10.04.2021
439 Clouds 28 1011 7 10000 0.87 119 22:57 10.04.2021
440 Clouds 27 1011 7 10000 0.87 119 22:30 10.04.2021
441 Clouds 27 1012 8 10000 1.54 90 21:54 10.04.2021
442 Clouds 27 1012 8 10000 1.54 90 21:32 10.04.2021
443 Clouds 25 1012 9 10000 0.87 78 20:57 10.04.2021
444 Clouds 25 1012 9 10000 0.87 78 20:38 10.04.2021
445 Clouds 25 1012 9 10000 1.19 56 20:19 10.04.2021
446 Clouds 24 1013 11 10000 1.19 56 19:42 10.04.2021
447 Clouds 23 1013 11 10000 0.97 54 19:24 10.04.2021
448 Clouds 22 1013 11 10000 0.98 51 18:42 10.04.2021
449 Clouds 21 1013 11 10000 0.63 32 18:24 10.04.2021
450 Clouds 20 1013 16 10000 0.63 32 17:36 10.04.2021
451 Clouds 17 1012 20 10000 2.06 210 16:54 10.04.2021
452 Clouds 15 1012 20 10000 2.06 210 16:26 10.04.2021
453 Clear 15 1011 20 10000 1.54 230 15:53 10.04.2021
454 Clear 15 1011 20 10000 2.06 210 14:57 10.04.2021
455 Clear 15 1011 20 10000 2.06 210 14:37 10.04.2021
456 Clear 15 1011 17 10000 1.54 230 13:59 10.04.2021
457 Clear 15 1011 17 10000 1.54 230 13:39 10.04.2021
458 Clear 15 1011 17 10000 1.54 300 12:48 10.04.2021
459 Clear 16 1011 17 10000 1.54 300 12:26 10.04.2021
460 Clear 17 1012 14 10000 0.23 113 11:46 10.04.2021
461 Clear 17 1012 14 10000 0.86 241 11:23 10.04.2021
462 Clear 17 1012 13 10000 0.86 241 10:52 10.04.2021
463 Clear 17 1012 13 10000 0.86 241 10:31 10.04.2021
464 Clear 18 1012 12 10000 2.57 200 09:45 10.04.2021
465 Clear 18 1012 12 10000 2.57 200 09:19 10.04.2021
466 Clear 18 1012 12 10000 2.57 200 09:19 10.04.2021
467 Clear 18 1012 11 10000 3.09 240 08:38 10.04.2021
468 Clear 19 1012 11 10000 3.09 240 08:18 10.04.2021
469 Clear 20 1012 14 10000 1.54 260 07:27 10.04.2021
470 Clouds 21 1012 9 10000 0.15 355 06:46 10.04.2021
471 Clouds 22 1012 7 10000 2.57 70 05:36 10.04.2021
472 Clouds 26 1012 7 10000 3.09 90 03:46 10.04.2021
473 Clouds 27 1013 6 10000 2.06 80 02:49 10.04.2021
474 Clouds 27 1014 6 10000 1.54 90 01:43 10.04.2021
475 Clouds 27 1015 6 10000 1.84 135 00:37 10.04.2021
476 Clouds 26 1015 7 10000 1.86 121 23:58 09.04.2021
477 Clouds 26 1015 7 10000 1.86 121 23:34 09.04.2021
478 Clouds 25 1016 7 10000 2.57 50 22:56 09.04.2021
479 Clouds 25 1016 7 10000 2.57 50 22:36 09.04.2021
480 Clouds 25 1017 8 10000 5.14 50 21:41 09.04.2021
481 Clouds 25 1017 8 10000 5.14 50 21:22 09.04.2021
482 Clouds 24 1017 9 10000 7.72 70 20:57 09.04.2021
483 Clouds 24 1017 9 10000 7.72 70 20:39 09.04.2021
484 Clouds 24 1017 9 10000 7.72 70 20:20 09.04.2021
485 Clouds 23 1017 11 10000 5.66 60 19:43 09.04.2021
486 Clouds 23 1017 11 10000 5.66 60 19:22 09.04.2021
487 Clouds 22 1017 12 10000 4.63 50 18:44 09.04.2021
488 Clouds 22 1017 12 10000 4.63 50 18:25 09.04.2021
489 Clouds 20 1017 13 10000 3.24 12 17:49 09.04.2021
490 Clouds 20 1017 13 10000 3.24 12 17:30 09.04.2021
491 Clouds 18 1016 12 10000 6.69 340 16:48 09.04.2021
492 Clouds 17 1016 12 10000 6.69 340 16:29 09.04.2021
493 Clouds 17 1015 13 10000 6.17 40 15:47 09.04.2021
494 Clouds 16 1015 13 10000 6.17 40 15:24 09.04.2021
495 Clouds 17 1014 12 10000 4.12 30 14:46 09.04.2021
496 Clouds 17 1014 12 10000 4.12 30 14:28 09.04.2021
497 Clouds 18 1014 11 10000 2.57 30 13:45 09.04.2021
498 Clouds 18 1014 11 10000 2.57 30 13:22 09.04.2021
499 Clear 18 1013 12 10000 4.12 90 12:47 09.04.2021
500 Clear 18 1013 12 10000 4.12 90 12:47 09.04.2021
501 Clear 18 1013 12 10000 4.12 90 12:24 09.04.2021
502 Clear 18 1011 10 10000 6.69 330 11:43 09.04.2021
503 Clear 20 1012 8 10000 7.72 350 11:20 09.04.2021
504 Clear 20 1012 9 10000 3.6 10 10:37 09.04.2021
505 Clear 21 1012 7 10000 5.14 310 09:59 09.04.2021
506 Clear 21 1012 7 10000 5.14 310 09:28 09.04.2021
507 Clear 21 1010 7 10000 7.2 300 08:56 09.04.2021
508 Clear 21 1011 6 10000 7.2 310 08:33 09.04.2021
509 Clear 22 1011 4 10000 7.2 330 07:32 09.04.2021
510 Clear 23 1011 3 10000 5.66 330 06:30 09.04.2021
511 Clear 23 1011 3 10000 5.66 330 06:30 09.04.2021
512 Clear 24 1011 3 10000 7.2 340 05:36 09.04.2021
513 Clouds 28 1009 2 10000 9.26 340 03:43 09.04.2021
514 Clouds 30 1011 8 10000 3.6 340 00:39 09.04.2021
515 Clouds 30 1011 8 10000 3.6 340 00:21 09.04.2021
516 Clouds 29 1012 9 10000 1.54 0 23:38 08.04.2021
517 Clouds 29 1012 9 10000 2.06 30 22:56 08.04.2021
518 Clouds 28 1012 9 10000 2.06 30 22:36 08.04.2021
519 Clouds 28 1012 9 10000 2.06 30 22:18 08.04.2021
520 Clouds 28 1013 9 10000 3.6 350 21:41 08.04.2021
521 Clouds 28 1013 9 10000 3.6 350 21:22 08.04.2021
522 Clouds 27 1013 13 10000 3.2 350 20:59 08.04.2021
523 Clouds 27 1013 13 10000 3.2 350 20:40 08.04.2021
524 Clouds 27 1013 13 10000 2.04 347 20:19 08.04.2021
525 Clouds 25 1013 15 10000 2.04 347 19:40 08.04.2021
526 Clouds 25 1013 15 10000 1.12 337 19:19 08.04.2021
527 Clouds 23 1013 17 10000 2.06 350 18:42 08.04.2021
528 Clouds 23 1013 17 10000 2.06 350 18:42 08.04.2021
529 Clouds 23 1013 17 10000 2.06 350 18:19 08.04.2021
530 Clouds 22 1013 23 10000 1.54 360 17:42 08.04.2021
531 Clouds 21 1013 23 10000 1.54 360 17:20 08.04.2021
532 Clouds 19 1012 26 10000 1.64 261 16:45 08.04.2021
533 Clouds 18 1012 26 10000 2.16 260 16:22 08.04.2021
534 Clouds 18 1011 24 10000 3.09 240 15:46 08.04.2021
535 Clouds 18 1011 24 10000 3.09 240 15:26 08.04.2021
536 Clouds 18 1011 14 10000 2.05 256 14:43 08.04.2021
537 Clouds 18 1011 14 10000 2.02 268 14:21 08.04.2021
538 Clouds 18 1011 19 10000 2.25 256 13:49 08.04.2021
539 Clouds 19 1011 19 10000 2.46 258 13:24 08.04.2021
540 Clouds 19 1011 20 10000 4.63 200 12:57 08.04.2021
541 Clouds 19 1011 20 10000 4.63 200 12:33 08.04.2021
542 Clouds 19 1010 18 10000 5.14 210 11:57 08.04.2021
543 Clouds 20 1010 18 10000 5.14 210 11:26 08.04.2021
544 Clouds 21 1010 17 10000 5.66 220 10:55 08.04.2021
545 Clouds 21 1010 17 10000 5.66 220 10:25 08.04.2021
546 Clouds 22 1011 15 10000 4.63 210 09:46 08.04.2021
547 Clouds 22 1011 15 10000 4.63 210 09:26 08.04.2021
548 Clouds 23 1011 14 10000 5.66 230 08:44 08.04.2021
549 Clouds 23 1011 14 10000 5.66 230 08:22 08.04.2021
550 Clouds 24 1010 12 10000 6.17 210 07:45 08.04.2021
551 Clouds 25 1011 9 10000 5.14 220 05:45 08.04.2021
552 Clouds 29 1013 6 10000 4.26 212 01:27 08.04.2021
553 Clouds 28 1014 6 10000 2.06 90 00:32 08.04.2021
554 Clouds 27 1016 7 10000 3.09 150 23:48 07.04.2021
555 Clouds 27 1016 7 10000 3.09 150 23:25 07.04.2021
556 Clouds 26 1017 6 10000 2.57 90 22:57 07.04.2021
557 Clouds 26 1017 6 10000 2.57 90 22:38 07.04.2021
558 Clouds 25 1017 6 10000 2.57 90 22:20 07.04.2021
559 Clouds 25 1018 7 10000 3.09 70 21:34 07.04.2021
560 Clouds 24 1019 8 10000 1.54 0 20:54 07.04.2021
561 Clouds 23 1019 8 10000 1.54 0 20:30 07.04.2021
562 Clouds 22 1019 8 10000 1.23 101 19:52 07.04.2021
563 Clouds 22 1019 8 10000 1.23 101 19:34 07.04.2021
564 Clouds 20 1019 9 10000 1.54 320 18:59 07.04.2021
565 Clouds 19 1019 9 10000 1.54 320 18:41 07.04.2021
566 Clouds 19 1019 9 10000 1.54 320 18:18 07.04.2021
567 Clouds 18 1018 11 10000 1.54 250 17:45 07.04.2021
568 Clouds 17 1018 11 10000 1.54 250 17:26 07.04.2021
569 Clouds 15 1018 15 10000 1.47 35 16:45 07.04.2021
570 Clouds 14 1018 15 10000 1.27 32 16:21 07.04.2021
571 Clouds 13 1017 19 10000 1.54 270 15:53 07.04.2021
572 Clouds 13 1017 19 10000 1.54 270 15:32 07.04.2021
573 Clouds 13 1017 21 10000 2.57 290 14:43 07.04.2021
574 Clouds 13 1017 21 10000 2.57 290 14:20 07.04.2021
575 Clouds 14 1016 15 10000 2.06 260 13:39 07.04.2021
576 Clouds 14 1016 15 10000 2.06 260 13:20 07.04.2021
577 Clouds 14 1016 14 10000 1.54 200 12:43 07.04.2021
578 Clouds 15 1016 14 10000 1.54 200 12:18 07.04.2021
579 Clouds 15 1016 16 10000 1.54 280 11:43 07.04.2021
580 Clouds 15 1016 16 10000 1.54 280 11:22 07.04.2021
581 Clouds 15 1016 12 10000 2.57 230 10:47 07.04.2021
582 Clouds 16 1016 11 10000 2.06 230 09:47 07.04.2021
583 Clouds 17 1016 11 10000 2.06 230 09:28 07.04.2021
584 Clear 17 1016 10 10000 3.09 230 08:52 07.04.2021
585 Clear 17 1016 10 10000 3.09 230 08:31 07.04.2021
586 Clear 18 1016 10 10000 1.54 220 07:52 07.04.2021
587 Clear 18 1016 10 10000 1.54 220 07:28 07.04.2021
588 Clouds 19 1015 8 10000 2.06 110 06:42 07.04.2021
589 Clouds 20 1015 7 10000 2.06 90 05:42 07.04.2021
590 Clouds 24 1014 7 10000 2.06 0 01:52 07.04.2021
591 Clouds 24 1015 7 10000 3.6 100 23:48 06.04.2021
592 Clouds 24 1015 7 10000 3.6 100 23:22 06.04.2021
593 Clouds 23 1016 7 10000 3.6 70 22:55 06.04.2021
594 Clouds 22 1016 7 10000 3.6 70 22:21 06.04.2021
595 Clouds 22 1016 8 10000 3.6 100 21:44 06.04.2021
596 Clouds 22 1016 8 10000 3.6 100 21:25 06.04.2021
597 Clouds 22 1016 8 10000 3.6 60 20:58 06.04.2021
598 Clouds 21 1016 8 10000 3.6 60 20:39 06.04.2021
599 Clouds 21 1016 8 10000 3.6 60 20:19 06.04.2021
600 Dust 20 1016 8 10000 7.2 80 19:42 06.04.2021
601 Dust 19 1016 8 10000 7.2 80 19:24 06.04.2021
602 Dust 18 1015 9 10000 6.69 70 18:43 06.04.2021
603 Dust 18 1015 9 10000 6.69 70 18:20 06.04.2021
604 Dust 17 1015 11 10000 7.2 70 17:45 06.04.2021
605 Dust 16 1015 11 10000 7.2 70 17:20 06.04.2021
606 Dust 16 1013 11 10000 8.75 60 16:49 06.04.2021
607 Dust 16 1013 11 10000 8.75 60 16:27 06.04.2021
608 Dust 16 1012 12 10000 7.72 60 15:27 06.04.2021
609 Clouds 17 1010 11 10000 5.66 40 14:50 06.04.2021
610 Clouds 17 1010 11 10000 5.66 40 14:31 06.04.2021
611 Clouds 19 1009 10 10000 8.75 350 13:55 06.04.2021
612 Clouds 19 1009 10 10000 8.75 350 13:37 06.04.2021
613 Clouds 19 1009 10 10000 8.75 350 13:18 06.04.2021
614 Clouds 20 1008 10 10000 5.14 350 12:38 06.04.2021
615 Clouds 20 1008 10 10000 5.14 350 12:19 06.04.2021
616 Clouds 20 1008 9 10000 4.63 310 11:45 06.04.2021
617 Clouds 20 1008 9 10000 4.63 310 11:20 06.04.2021
618 Clouds 21 1008 9 10000 7.72 300 10:46 06.04.2021
619 Clouds 21 1008 9 10000 7.72 300 10:22 06.04.2021
620 Clouds 22 1007 8 10000 7.2 310 09:47 06.04.2021
621 Clouds 22 1007 8 10000 7.2 310 09:26 06.04.2021
622 Clouds 22 1006 9 10000 4.63 270 08:34 06.04.2021
623 Clouds 23 1006 10 10000 5.66 320 07:33 06.04.2021
624 Clear 24 1005 11 10000 5.14 290 06:55 06.04.2021
625 Clouds 27 1002 9 10000 8.23 220 04:53 06.04.2021
626 Clouds 31 1003 4 10000 8.75 260 01:34 06.04.2021
627 Clouds 32 1003 5 10000 8.75 260 00:42 06.04.2021
628 Clouds 32 1003 5 10000 8.75 260 00:20 06.04.2021
629 Clouds 31 1005 5 10000 10.8 260 23:42 05.04.2021
630 Clouds 31 1005 5 10000 10.8 260 23:18 05.04.2021
631 Clouds 30 1006 5 10000 6.69 240 22:41 05.04.2021
632 Clouds 30 1006 5 10000 6.69 240 22:22 05.04.2021
633 Clouds 29 1006 6 10000 5.14 240 21:39 05.04.2021
634 Clouds 29 1007 6 10000 3.6 240 21:19 05.04.2021
635 Clear 28 1008 7 10000 1.54 10 20:42 05.04.2021
636 Clear 28 1008 7 10000 1.54 10 20:22 05.04.2021
637 Clear 26 1008 9 10000 3.09 230 19:39 05.04.2021
638 Clear 25 1008 9 10000 3.09 230 19:19 05.04.2021
639 Clear 24 1009 11 10000 3.09 190 18:42 05.04.2021
640 Clear 23 1009 11 10000 3.09 190 18:20 05.04.2021
641 Clouds 22 1009 14 10000 2.06 190 17:47 05.04.2021
642 Clouds 21 1009 14 10000 2.06 190 17:24 05.04.2021
643 Clouds 19 1009 14 10000 1.61 213 16:56 05.04.2021
644 Clouds 20 1009 14 10000 1.61 213 16:37 05.04.2021
645 Clouds 18 1009 14 10000 2.12 216 16:18 05.04.2021
646 Clouds 18 1008 13 10000 3.09 240 15:38 05.04.2021
647 Clouds 18 1008 13 10000 3.09 240 15:20 05.04.2021
648 Clouds 18 1008 14 10000 2.02 212 14:36 05.04.2021
649 Clouds 18 1008 14 10000 2.03 215 14:36 05.04.2021
650 Clouds 20 1008 11 10000 2.06 240 13:52 05.04.2021
651 Clouds 20 1008 11 10000 2.06 240 13:27 05.04.2021
652 Clouds 21 1008 9 10000 4.63 200 12:47 05.04.2021
653 Clouds 21 1008 9 10000 4.63 200 12:47 05.04.2021
654 Clouds 21 1008 9 10000 4.63 200 12:25 05.04.2021
655 Clouds 21 1009 9 10000 4.63 190 11:48 05.04.2021
656 Clouds 22 1009 9 10000 4.63 190 11:30 05.04.2021
657 Clouds 22 1009 9 10000 2.57 170 10:56 05.04.2021
658 Clouds 22 1009 9 10000 2.57 170 10:56 05.04.2021
659 Clouds 22 1009 9 10000 2.57 170 10:35 05.04.2021
660 Clouds 23 1010 8 10000 4.12 210 09:49 05.04.2021
661 Clouds 23 1010 8 10000 4.12 210 09:26 05.04.2021
662 Clouds 24 1011 8 10000 2.06 220 08:50 05.04.2021
663 Clouds 24 1011 8 10000 2.06 220 08:27 05.04.2021
664 Clouds 25 1011 7 10000 2.57 230 07:58 05.04.2021
665 Clouds 25 1011 7 10000 2.57 230 07:33 05.04.2021
666 Clouds 29 1011 4 10000 5.14 250 03:42 05.04.2021
667 Clouds 32 1013 5 10000 3.6 150 00:54 05.04.2021
668 Clouds 32 1014 5 10000 2.06 50 23:53 04.04.2021
669 Clouds 32 1014 5 10000 2.06 50 23:31 04.04.2021
670 Clouds 31 1015 6 10000 1.54 0 22:57 04.04.2021
671 Clouds 30 1015 6 10000 1.54 0 22:34 04.04.2021
672 Clouds 29 1016 6 10000 2.06 20 21:56 04.04.2021
673 Clouds 29 1016 6 10000 2.06 20 21:21 04.04.2021
674 Clouds 27 1017 7 10000 1.47 178 20:43 04.04.2021
675 Clouds 27 1017 7 10000 1.08 168 20:21 04.04.2021
676 Clouds 26 1017 9 10000 3.6 340 19:40 04.04.2021
677 Clouds 25 1017 9 10000 3.6 340 19:19 04.04.2021
678 Clouds 24 1017 11 10000 1.54 10 18:50 04.04.2021
679 Clouds 23 1017 11 10000 1.54 10 18:24 04.04.2021
680 Clouds 22 1016 13 10000 0.71 193 17:57 04.04.2021
681 Clouds 21 1016 13 10000 0.92 217 17:25 04.04.2021
682 Clouds 19 1016 12 10000 0.92 217 16:54 04.04.2021
683 Clouds 18 1016 12 10000 0.92 217 16:33 04.04.2021
684 Clouds 18 1015 13 10000 1.33 213 15:46 04.04.2021
685 Clouds 17 1015 13 10000 1.6 212 15:28 04.04.2021
686 Clouds 17 1015 13 10000 1.6 212 14:38 04.04.2021
687 Clouds 18 1015 13 10000 1.65 211 14:19 04.04.2021
688 Clouds 18 1015 13 10000 1.65 211 14:19 04.04.2021
689 Clouds 18 1015 13 10000 1.54 0 13:26 04.04.2021
690 Clouds 19 1015 11 10000 1.54 300 12:51 04.04.2021
691 Clouds 20 1015 11 10000 1.54 300 12:27 04.04.2021
692 Clouds 21 1015 8 10000 3.09 190 11:49 04.04.2021
693 Clouds 21 1015 8 10000 3.09 190 11:30 04.04.2021
694 Clouds 21 1016 8 10000 3.09 200 10:46 04.04.2021
695 Clouds 22 1016 8 10000 3.09 200 10:20 04.04.2021
696 Clouds 22 1016 7 10000 2.57 210 09:37 04.04.2021
697 Clouds 22 1016 7 10000 2.57 210 09:18 04.04.2021
698 Clouds 22 1016 7 10000 2.06 210 08:42 04.04.2021
699 Clouds 23 1016 7 10000 2.06 210 08:24 04.04.2021
700 Clouds 25 1015 6 10000 3.09 220 06:39 04.04.2021
701 Clouds 27 1015 5 10000 4.12 230 05:43 04.04.2021
702 Clouds 32 1015 3 10000 5.14 230 01:49 04.04.2021
703 Clouds 33 1015 3 10000 3.6 220 00:44 04.04.2021
704 Clouds 32 1016 6 10000 2.57 0 23:59 03.04.2021
705 Clouds 32 1016 6 10000 2.57 0 23:39 03.04.2021
706 Clouds 31 1017 8 10000 3.09 30 22:54 03.04.2021
707 Clouds 30 1017 8 10000 3.09 30 22:24 03.04.2021
708 Clouds 29 1018 9 10000 2.78 199 21:59 03.04.2021
709 Clouds 29 1018 9 10000 2.8 197 21:39 03.04.2021
710 Clouds 29 1018 9 10000 1.79 166 21:19 03.04.2021
711 Clouds 27 1018 11 10000 2.06 0 20:38 03.04.2021
712 Clouds 27 1018 11 10000 2.06 0 20:18 03.04.2021
713 Clear 26 1019 14 10000 2.06 20 19:43 03.04.2021
714 Clear 25 1019 14 10000 2.06 20 19:18 03.04.2021
715 Clouds 24 1018 15 10000 0.77 153 18:44 03.04.2021
716 Clouds 22 1018 16 10000 1.54 200 17:58 03.04.2021
717 Clouds 21 1018 16 10000 1.54 200 17:28 03.04.2021
718 Clouds 17 1017 23 10000 2.06 210 16:58 03.04.2021
719 Clouds 16 1017 23 10000 2.06 210 16:32 03.04.2021
720 Clear 16 1017 21 10000 2.06 180 15:53 03.04.2021
721 Clear 16 1017 21 10000 2.06 180 15:32 03.04.2021
722 Clear 16 1016 20 10000 1.54 230 14:59 03.04.2021
723 Clear 16 1016 20 10000 1.54 230 14:37 03.04.2021
724 Clear 16 1016 20 10000 1.54 230 14:18 03.04.2021
725 Clear 17 1015 17 10000 2.06 260 13:40 03.04.2021
726 Clear 17 1015 17 10000 2.06 260 13:20 03.04.2021
727 Clear 18 1015 17 10000 2.06 240 12:40 03.04.2021
728 Clear 19 1015 17 10000 2.06 240 12:19 03.04.2021
729 Clear 19 1016 16 10000 1.72 246 11:32 03.04.2021
730 Clear 20 1016 13 10000 2.06 250 10:49 03.04.2021
731 Clear 20 1016 13 10000 2.06 250 10:29 03.04.2021
732 Clear 20 1015 14 10000 1.83 244 09:50 03.04.2021
733 Clear 20 1015 14 10000 1.62 243 09:27 03.04.2021
734 Clear 21 1015 13 10000 2.06 230 08:38 03.04.2021
735 Clear 21 1015 13 10000 2.06 230 08:19 03.04.2021
736 Clear 22 1015 16 10000 2.57 210 07:27 03.04.2021
737 Clear 26 1014 10 10000 3.09 60 04:27 03.04.2021
738 Clear 29 1013 8 10000 1.54 80 02:58 03.04.2021
739 Clear 29 1013 8 10000 1.54 80 02:34 03.04.2021
740 Clear 30 1014 8 10000 3.09 350 01:31 03.04.2021
741 Clear 30 1014 9 10000 2.57 70 00:19 03.04.2021
742 Clear 29 1015 8 10000 1.13 135 23:46 02.04.2021
743 Clear 29 1015 8 10000 0.87 116 23:19 02.04.2021
744 Clear 28 1016 6 10000 0.87 116 22:45 02.04.2021
745 Clear 28 1016 6 10000 0.46 76 22:26 02.04.2021
746 Clear 27 1016 7 10000 2.06 0 21:42 02.04.2021
747 Clear 27 1016 7 10000 2.06 0 21:19 02.04.2021
748 Clear 25 1017 7 10000 1.54 10 20:47 02.04.2021
749 Clear 25 1017 7 10000 1.54 10 20:25 02.04.2021
750 Clouds 23 1017 10 10000 0.41 6 19:42 02.04.2021
751 Clouds 23 1017 10 10000 0.61 17 19:24 02.04.2021
752 Clouds 21 1017 14 10000 0.61 17 18:50 02.04.2021
753 Clouds 21 1017 14 10000 0.61 17 18:30 02.04.2021
754 Clouds 19 1016 19 10000 0.62 355 17:59 02.04.2021
755 Clouds 18 1016 19 10000 0.62 355 17:34 02.04.2021
756 Clouds 14 1016 21 10000 0.45 61 16:43 02.04.2021
757 Clouds 14 1014 19 10000 2.06 220 15:50 02.04.2021
758 Clouds 14 1014 19 10000 2.06 220 15:28 02.04.2021
759 Clouds 14 1014 15 10000 1.36 310 14:41 02.04.2021
760 Clouds 15 1014 15 10000 1.3 323 14:21 02.04.2021
761 Clouds 15 1014 13 10000 2.57 210 13:39 02.04.2021
762 Clouds 15 1014 13 10000 2.57 210 13:19 02.04.2021
763 Clouds 16 1014 13 10000 1.54 110 12:38 02.04.2021
764 Clouds 16 1014 13 10000 1.54 110 12:19 02.04.2021
765 Clouds 16 1014 13 10000 2.06 290 11:48 02.04.2021
766 Clouds 16 1014 13 10000 2.06 290 11:19 02.04.2021
767 Clouds 17 1015 11 10000 3.09 230 10:43 02.04.2021
768 Clouds 17 1015 11 10000 3.09 230 10:23 02.04.2021
769 Clouds 17 1014 11 10000 2.57 140 09:51 02.04.2021
770 Clouds 18 1014 11 10000 2.57 140 09:24 02.04.2021
771 Clear 18 1013 14 10000 2.06 310 08:46 02.04.2021
772 Clear 18 1013 14 10000 2.06 310 08:46 02.04.2021
773 Clear 18 1013 14 10000 2.06 310 08:26 02.04.2021
774 Clouds 19 1015 10 10000 2.06 220 07:22 02.04.2021
775 Clouds 19 1014 10 10000 1.54 10 06:34 02.04.2021
776 Clouds 23 1014 6 10000 1.54 20 03:40 02.04.2021
777 Clouds 24 1015 5 10000 1.29 26 01:40 02.04.2021
778 Clouds 24 1016 6 10000 1.37 37 00:43 02.04.2021
779 Clouds 24 1017 6 10000 1.77 59 23:47 01.04.2021
780 Clouds 23 1017 6 10000 1.77 60 23:27 01.04.2021
781 Clouds 23 1018 6 10000 4.12 80 22:41 01.04.2021
782 Clouds 23 1018 6 10000 4.12 80 22:18 01.04.2021
783 Clouds 22 1019 7 10000 3.6 30 21:42 01.04.2021
784 Clouds 22 1019 7 10000 3.6 30 21:22 01.04.2021
785 Clouds 21 1020 8 10000 3.6 50 20:41 01.04.2021
786 Clouds 21 1020 8 10000 3.6 50 20:21 01.04.2021
787 Clouds 19 1021 9 10000 2.11 45 19:41 01.04.2021
788 Clouds 19 1021 9 10000 1.95 43 19:20 01.04.2021
789 Clouds 17 1021 11 10000 1.54 170 18:44 01.04.2021
790 Clouds 17 1021 11 10000 1.54 170 18:18 01.04.2021
791 Clouds 15 1021 13 10000 1.24 42 17:41 01.04.2021
792 Clouds 14 1021 13 10000 0.61 2 17:23 01.04.2021
793 Clouds 11 1021 15 10000 1.54 250 16:48 01.04.2021
794 Clouds 11 1021 15 10000 1.54 250 16:18 01.04.2021
795 Clouds 10 1020 13 10000 2.06 200 15:40 01.04.2021
796 Clouds 10 1020 13 10000 2.06 200 15:19 01.04.2021
797 Clouds 11 1020 13 10000 2.57 210 14:39 01.04.2021
798 Clouds 11 1020 13 10000 2.57 210 14:39 01.04.2021
799 Clouds 11 1020 13 10000 2.57 210 14:20 01.04.2021
800 Clear 11 1020 15 10000 2.06 220 13:49 01.04.2021
801 Clear 11 1020 15 10000 2.06 220 13:28 01.04.2021
802 Clear 12 1021 16 10000 1.54 230 12:47 01.04.2021
803 Clear 12 1021 16 10000 1.54 230 12:29 01.04.2021
804 Clear 12 1022 13 10000 1.54 210 11:45 01.04.2021
805 Clear 12 1022 13 10000 1.54 210 11:20 01.04.2021
806 Clear 13 1022 12 10000 2.57 200 10:50 01.04.2021
807 Clear 13 1022 12 10000 2.57 200 10:29 01.04.2021
808 Clear 13 1022 11 10000 1.24 350 09:52 01.04.2021
809 Clear 14 1022 11 10000 1.46 339 09:23 01.04.2021
810 Clear 14 1022 11 10000 2.57 220 08:33 01.04.2021
811 Clear 15 1023 17 10000 2.57 290 07:24 01.04.2021
812 Clear 15 1023 9 10000 2.57 280 06:58 01.04.2021
813 Clear 15 1023 9 10000 2.57 280 06:30 01.04.2021
814 Clear 21 1023 4 10000 4.63 20 03:26 01.04.2021
815 Clear 22 1024 5 10000 4.12 60 00:38 01.04.2021
816 Clear 21 1025 5 10000 5.14 20 23:44 31.03.2021
817 Clear 20 1026 7 10000 5.66 70 22:58 31.03.2021
818 Clear 20 1026 7 10000 5.66 70 22:39 31.03.2021
819 Clear 19 1026 7 10000 5.66 70 22:20 31.03.2021
820 Clear 19 1027 8 10000 6.69 80 21:44 31.03.2021
821 Clear 18 1027 8 10000 6.69 80 21:20 31.03.2021
822 Clear 18 1027 8 10000 6.69 80 21:20 31.03.2021
823 Clear 18 1028 8 10000 5.66 50 20:42 31.03.2021
824 Clear 17 1028 8 10000 5.66 50 20:23 31.03.2021
825 Clear 16 1028 11 10000 5.66 50 19:46 31.03.2021
826 Clear 16 1028 11 10000 5.66 50 19:25 31.03.2021
827 Clear 15 1028 14 10000 1.54 70 18:59 31.03.2021
828 Clear 14 1028 14 10000 1.54 70 18:41 31.03.2021
829 Clear 13 1028 15 10000 3.6 50 17:53 31.03.2021
830 Clear 12 1028 15 10000 3.6 50 17:34 31.03.2021
831 Clear 10 1027 17 10000 2.71 16 16:57 31.03.2021
832 Clear 10 1027 17 10000 2.71 16 16:37 31.03.2021
833 Clear 10 1027 17 10000 2.72 10 16:19 31.03.2021
834 Clear 9 1026 18 10000 2.72 10 15:48 31.03.2021
835 Clear 10 1026 18 10000 2.97 13 15:19 31.03.2021
836 Clear 10 1026 17 10000 2.97 13 14:42 31.03.2021
837 Clear 11 1026 17 10000 3.2 13 14:20 31.03.2021
838 Clear 10 1025 15 10000 3.11 15 13:40 31.03.2021
839 Clear 11 1025 15 10000 1.54 0 12:42 31.03.2021
840 Clear 11 1025 15 10000 1.54 0 12:20 31.03.2021
841 Clear 11 1025 15 10000 2.57 120 11:47 31.03.2021
842 Clear 11 1025 15 10000 2.57 120 11:20 31.03.2021
843 Clear 11 1025 13 10000 3.07 12 10:46 31.03.2021
844 Clear 11 1025 13 10000 2.99 8 10:24 31.03.2021
845 Clear 12 1024 11 10000 4.12 50 09:38 31.03.2021
846 Clear 12 1023 11 10000 5.14 60 08:55 31.03.2021
847 Clear 13 1023 11 10000 5.14 60 08:34 31.03.2021
848 Clear 13 1022 10 10000 7.2 30 07:52 31.03.2021
849 Clear 15 1021 9 10000 5.14 30 06:39 31.03.2021
850 Clear 18 1019 5 10000 6.69 60 03:51 31.03.2021
851 Clear 20 1019 5 10000 7.2 50 01:38 31.03.2021
852 Clear 19 1019 7 10000 2.57 350 00:48 31.03.2021
853 Clear 20 1019 7 10000 2.57 350 00:19 31.03.2021
854 Clear 19 1020 7 10000 3.09 70 23:33 30.03.2021
855 Clear 18 1020 8 10000 5.14 30 22:58 30.03.2021
856 Clear 18 1020 8 10000 5.14 30 22:39 30.03.2021
857 Clear 18 1020 8 10000 5.14 30 22:21 30.03.2021
858 Clear 17 1020 8 10000 5.66 30 21:46 30.03.2021
859 Clear 17 1020 8 10000 5.66 30 21:20 30.03.2021
860 Clear 16 1021 9 10000 7.72 40 20:51 30.03.2021
861 Clear 15 1021 9 10000 7.72 40 20:28 30.03.2021
862 Clear 15 1020 10 10000 7.2 40 19:50 30.03.2021
863 Clear 14 1020 10 10000 7.2 40 19:27 30.03.2021
864 Clear 13 1020 9 10000 10.8 20 18:38 30.03.2021
865 Clear 12 1019 12 10000 8.75 50 17:52 30.03.2021
866 Clear 12 1019 12 10000 8.75 50 17:34 30.03.2021
867 Clear 11 1018 14 10000 6.69 40 16:49 30.03.2021
868 Clear 11 1018 14 10000 6.69 40 16:29 30.03.2021
869 Clear 11 1016 15 10000 7.72 40 15:43 30.03.2021
870 Clear 11 1016 15 10000 7.72 40 15:20 30.03.2021
871 Clear 12 1015 16 10000 7.72 50 14:55 30.03.2021
872 Clear 12 1015 16 10000 7.72 50 14:22 30.03.2021
873 Clear 13 1013 17 10000 6.69 50 13:57 30.03.2021
874 Clear 13 1013 17 10000 6.69 50 13:36 30.03.2021
875 Clear 14 1012 18 10000 9.77 50 12:45 30.03.2021
876 Clear 15 1012 18 10000 9.77 50 12:27 30.03.2021
877 Dust 16 1011 17 10000 8.75 40 11:52 30.03.2021
878 Dust 16 1011 17 10000 8.75 40 11:23 30.03.2021
879 Clear 17 1009 16 10000 8.23 40 10:46 30.03.2021
880 Clear 18 1009 16 10000 8.23 40 10:20 30.03.2021
881 Clear 20 1008 10 10000 4.63 60 09:43 30.03.2021
882 Clear 20 1008 10 10000 4.63 60 09:25 30.03.2021
883 Clear 21 1006 8 10000 1.54 270 08:53 30.03.2021
884 Clear 21 1006 8 10000 1.54 270 08:35 30.03.2021
885 Clear 21 1005 10 10000 3.6 230 07:50 30.03.2021
886 Clear 21 1005 10 10000 3.6 230 07:22 30.03.2021
887 Clear 23 1004 8 10000 3.6 250 05:25 30.03.2021
888 Clear 24 1004 5 10000 5.66 250 04:45 30.03.2021
889 Clear 28 1006 6 10000 2.06 0 00:28 30.03.2021
890 Clear 27 1008 9 10000 2.06 0 23:31 29.03.2021
891 Clear 26 1010 10 10000 1.54 0 22:44 29.03.2021
892 Clear 25 1010 10 10000 1.54 0 22:18 29.03.2021
893 Clear 25 1012 12 10000 1.54 0 21:43 29.03.2021
894 Clear 24 1012 12 10000 1.54 0 21:22 29.03.2021
895 Clear 23 1013 13 10000 2.04 213 20:44 29.03.2021
896 Clear 23 1013 13 10000 1.33 194 20:26 29.03.2021
897 Clear 21 1013 14 10000 2.06 50 19:46 29.03.2021
898 Clear 21 1013 14 10000 2.06 50 19:20 29.03.2021
899 Clear 19 1013 17 10000 1.54 20 18:40 29.03.2021
900 Clear 18 1013 17 10000 1.54 20 18:20 29.03.2021
901 Clouds 16 1013 23 10000 0.33 80 17:45 29.03.2021
902 Clouds 14 1013 24 10000 2.06 290 16:59 29.03.2021
903 Clouds 13 1013 24 10000 2.06 290 16:35 29.03.2021
904 Clouds 13 1013 26 10000 3.09 270 15:52 29.03.2021
905 Clouds 13 1013 26 10000 3.09 270 15:34 29.03.2021
906 Clouds 14 1014 26 10000 1.54 230 14:55 29.03.2021
907 Clouds 14 1014 26 10000 1.54 230 14:33 29.03.2021
908 Clouds 14 1015 24 10000 1.12 232 13:52 29.03.2021
909 Clouds 14 1015 24 10000 1.66 224 13:26 29.03.2021
910 Clear 14 1016 20 10000 1.54 290 12:50 29.03.2021
911 Clear 15 1016 20 10000 1.54 290 12:21 29.03.2021
912 Clear 16 1017 18 10000 1.8 222 11:40 29.03.2021
913 Clear 16 1017 18 10000 1.55 228 11:22 29.03.2021
914 Clear 16 1017 17 10000 2.06 200 10:36 29.03.2021
915 Clear 16 1018 17 10000 2.57 210 09:44 29.03.2021
916 Clear 17 1018 19 10000 2.06 300 08:58 29.03.2021
917 Clear 17 1018 19 10000 2.06 300 08:28 29.03.2021
918 Clear 17 1018 18 10000 2.57 260 07:41 29.03.2021
919 Clear 19 1018 16 10000 2.06 300 06:27 29.03.2021
920 Clear 23 1019 11 10000 4.12 80 03:51 29.03.2021
921 Clear 25 1021 11 10000 2.06 30 01:43 29.03.2021
922 Clear 24 1022 13 10000 3.6 100 00:22 29.03.2021
923 Clear 24 1023 14 10000 4.12 70 23:42 28.03.2021
924 Clear 23 1023 14 10000 4.12 70 23:19 28.03.2021
925 Clear 23 1025 15 10000 2.06 80 22:39 28.03.2021
926 Clear 22 1025 15 10000 2.06 80 22:20 28.03.2021
927 Clear 22 1026 17 10000 1.54 0 21:41 28.03.2021
928 Clear 21 1026 17 10000 1.54 0 21:22 28.03.2021
929 Clear 20 1027 20 10000 1.49 77 20:48 28.03.2021
930 Clear 20 1027 20 10000 1.32 72 20:29 28.03.2021
931 Clear 19 1027 20 10000 1.32 72 19:44 28.03.2021
932 Clear 19 1027 20 10000 1 55 19:23 28.03.2021
933 Clear 17 1027 23 10000 1 55 18:58 28.03.2021
934 Clear 17 1027 23 10000 0.69 35 18:27 28.03.2021
935 Clear 15 1027 30 10000 0.69 35 17:47 28.03.2021
936 Clear 13 1027 30 10000 0.49 18 17:27 28.03.2021
937 Clear 11 1027 32 10000 0.49 18 16:46 28.03.2021
938 Clear 10 1027 32 10000 0.6 42 16:23 28.03.2021
939 Clear 10 1026 32 10000 1.12 37 15:27 28.03.2021
940 Clear 11 1026 30 10000 1.54 230 14:57 28.03.2021
941 Clear 11 1026 30 10000 1.54 230 14:31 28.03.2021
942 Clear 11 1026 28 10000 1.54 250 13:46 28.03.2021
943 Clear 11 1026 28 10000 1.54 250 13:21 28.03.2021
944 Clear 11 1026 28 10000 2.57 220 12:50 28.03.2021
945 Clear 12 1026 28 10000 2.57 220 12:32 28.03.2021
946 Clear 13 1026 26 10000 3.09 220 11:43 28.03.2021
947 Clear 13 1026 26 10000 3.09 220 11:24 28.03.2021
948 Clear 13 1026 24 10000 1.06 336 10:44 28.03.2021
949 Clear 13 1026 24 10000 1.31 350 10:24 28.03.2021
950 Clear 13 1026 24 10000 3.09 270 09:46 28.03.2021
951 Clear 13 1026 24 10000 3.09 270 09:24 28.03.2021
952 Clear 14 1026 21 10000 1.54 356 08:45 28.03.2021
953 Clear 15 1025 20 10000 1.54 260 07:49 28.03.2021
954 Clear 16 1025 18 10000 2.57 230 06:30 28.03.2021
955 Clear 21 1024 14 10000 3.6 80 03:55 28.03.2021
956 Clear 22 1024 14 10000 4.63 30 00:53 28.03.2021
957 Clear 22 1024 14 10000 4.63 30 00:20 28.03.2021
958 Clouds 22 1024 14 10000 3.6 360 23:40 27.03.2021
959 Clouds 21 1025 14 10000 3.6 360 22:57 27.03.2021
960 Clouds 21 1025 14 10000 3.6 360 22:36 27.03.2021
961 Clouds 20 1025 16 10000 5.14 10 21:55 27.03.2021
962 Clouds 20 1025 16 10000 5.14 10 21:36 27.03.2021
963 Clouds 20 1025 16 10000 5.14 10 21:18 27.03.2021
964 Clear 19 1026 17 10000 3.09 350 20:38 27.03.2021
965 Clear 18 1026 17 10000 3.09 350 20:19 27.03.2021
966 Clear 18 1026 19 10000 5.14 360 19:42 27.03.2021
967 Clear 18 1026 19 10000 5.14 360 19:23 27.03.2021
968 Clear 17 1026 20 10000 5.66 10 18:48 27.03.2021
969 Clear 16 1026 20 10000 5.66 10 18:27 27.03.2021
970 Clear 15 1025 23 10000 4.12 330 17:45 27.03.2021
971 Clear 14 1025 23 10000 4.12 330 17:23 27.03.2021
972 Clear 13 1025 26 10000 5.14 340 16:48 27.03.2021
973 Clear 12 1025 26 10000 5.14 340 16:28 27.03.2021
974 Clear 11 1024 28 10000 7.72 340 15:48 27.03.2021
975 Clear 10 1024 28 10000 7.72 340 15:22 27.03.2021
976 Clear 10 1022 28 10000 6.17 330 14:45 27.03.2021
977 Clear 11 1022 26 10000 5.66 350 13:44 27.03.2021
978 Clear 11 1022 26 10000 5.66 350 13:22 27.03.2021
979 Clear 11 1022 26 10000 7.2 350 12:50 27.03.2021
980 Clear 11 1022 26 10000 5.14 350 11:59 27.03.2021
981 Clear 11 1022 26 10000 5.14 350 11:39 27.03.2021
982 Clear 11 1022 26 10000 5.14 350 11:19 27.03.2021
983 Clear 11 1021 28 10000 2.57 340 10:42 27.03.2021
984 Clear 11 1021 28 10000 2.57 340 10:22 27.03.2021
985 Clear 11 1021 28 10000 3.09 60 09:28 27.03.2021
986 Clear 12 1021 28 10000 2.57 20 08:42 27.03.2021
987 Clear 12 1021 28 10000 2.57 20 08:18 27.03.2021
988 Clear 13 1020 24 10000 6.17 30 07:31 27.03.2021
989 Clear 14 1019 21 10000 4.63 30 06:43 27.03.2021
990 Clouds 15 1016 15 10000 4.63 10 04:42 27.03.2021
991 Clouds 16 1016 15 10000 6.69 50 03:29 27.03.2021
992 Clouds 18 1014 16 10000 2.57 80 00:48 27.03.2021
993 Clouds 18 1014 16 10000 2.57 80 00:26 27.03.2021
994 Clouds 18 1014 17 10000 1.54 0 23:43 26.03.2021
995 Clouds 17 1014 17 10000 3.09 350 22:45 26.03.2021
996 Clouds 17 1014 17 10000 3.09 350 22:25 26.03.2021
997 Clouds 17 1015 20 10000 4.12 30 21:25 26.03.2021
998 Clouds 16 1014 21 10000 5.66 320 20:58 26.03.2021
999 Clouds 16 1014 21 10000 5.66 320 20:32 26.03.2021
1000 Clouds 15 1014 24 10000 6.17 320 19:53 26.03.2021
1001 Clouds 15 1014 24 10000 6.17 320 19:35 26.03.2021
1002 Clouds 14 1013 26 10000 8.23 360 18:59 26.03.2021
1003 Clouds 14 1013 26 10000 8.23 360 18:36 26.03.2021
1004 Clouds 14 1013 26 10000 8.23 360 18:18 26.03.2021
1005 Clouds 13 1012 30 10000 6.17 340 17:43 26.03.2021
1006 Clouds 11 1011 37 10000 6.17 350 16:53 26.03.2021
1007 Clouds 10 1011 37 10000 6.17 350 16:30 26.03.2021
1008 Clouds 10 1010 50 10000 1.54 0 15:43 26.03.2021
1009 Clouds 9 1009 57 10000 2.57 170 14:54 26.03.2021
1010 Clouds 9 1009 57 10000 2.57 170 14:20 26.03.2021
1011 Clouds 9 1008 62 10000 1.54 0 13:33 26.03.2021
1012 Clouds 9 1008 57 10000 2.06 70 12:46 26.03.2021
1013 Clouds 10 1007 54 10000 7.2 30 11:50 26.03.2021
1014 Clouds 10 1007 54 10000 7.2 30 11:31 26.03.2021
1015 Rain 10 1007 50 10000 6.69 350 10:45 26.03.2021
1016 Rain 10 1007 50 10000 6.69 350 10:24 26.03.2021
1017 Rain 11 1006 47 10000 9.77 340 09:41 26.03.2021
1018 Clouds 11 1006 47 10000 10.29 350 08:51 26.03.2021
1019 Clouds 11 1006 47 10000 10.29 350 08:31 26.03.2021
1020 Clouds 12 1004 35 10000 6.17 310 07:58 26.03.2021
1021 Clouds 13 1004 35 10000 6.17 310 07:22 26.03.2021
1022 Clouds 13 1003 35 10000 3.6 240 06:57 26.03.2021
1023 Clouds 13 1003 35 10000 3.6 240 06:26 26.03.2021
1024 Clouds 14 1003 35 10000 5.66 250 05:21 26.03.2021
1025 Clouds 18 1000 16 10000 5.14 240 01:36 26.03.2021
1026 Clouds 19 1000 16 10000 7.72 230 00:23 26.03.2021
1027 Clouds 19 1000 14 10000 6.69 230 23:44 25.03.2021
1028 Clouds 18 1001 15 10000 7.72 210 22:50 25.03.2021
1029 Clouds 18 1001 15 10000 7.72 210 22:27 25.03.2021
1030 Clouds 18 1002 15 10000 8.23 230 21:49 25.03.2021
1031 Clouds 18 1002 15 10000 8.23 230 21:49 25.03.2021
1032 Clouds 18 1002 15 10000 8.23 230 21:31 25.03.2021
1033 Clouds 17 1003 16 10000 8.23 230 20:42 25.03.2021
1034 Clouds 17 1003 16 10000 8.23 230 20:24 25.03.2021
1035 Clouds 16 1004 17 10000 6.69 220 19:43 25.03.2021
1036 Clouds 16 1004 17 10000 6.69 220 19:25 25.03.2021
1037 Clouds 15 1004 19 10000 7.2 210 18:46 25.03.2021
1038 Clouds 15 1004 19 10000 7.2 210 18:26 25.03.2021
1039 Clouds 14 1004 18 10000 8.23 220 17:43 25.03.2021
1040 Clouds 14 1004 18 10000 8.23 220 17:43 25.03.2021
1041 Clouds 13 1004 18 10000 8.23 220 17:24 25.03.2021
1042 Clouds 13 1004 22 10000 3.6 200 16:47 25.03.2021
1043 Clouds 13 1004 22 10000 3.6 200 16:28 25.03.2021
1044 Clouds 13 1003 21 10000 4.12 210 15:43 25.03.2021
1045 Clouds 13 1003 21 10000 4.12 210 15:19 25.03.2021
1046 Clouds 13 1004 21 10000 4.12 200 14:43 25.03.2021
1047 Clouds 12 1004 19 10000 5.14 210 13:48 25.03.2021
1048 Clouds 12 1004 19 10000 5.14 210 13:23 25.03.2021
1049 Clouds 12 1005 18 10000 3.09 220 12:42 25.03.2021
1050 Clouds 12 1005 18 10000 3.09 220 12:20 25.03.2021
1051 Clouds 12 1005 15 10000 5.14 200 11:52 25.03.2021
1052 Clouds 13 1005 15 10000 5.14 200 11:26 25.03.2021
1053 Clouds 13 1006 14 10000 3.6 210 10:54 25.03.2021
1054 Clouds 13 1006 14 10000 3.6 210 10:24 25.03.2021
1055 Clouds 13 1007 15 10000 3.6 180 09:56 25.03.2021
1056 Clouds 13 1007 15 10000 3.6 180 09:38 25.03.2021
1057 Clouds 13 1007 14 10000 4.63 200 08:54 25.03.2021
1058 Clouds 14 1007 14 10000 4.63 200 08:21 25.03.2021
1059 Clouds 14 1008 13 10000 4.12 200 07:19 25.03.2021
1060 Clouds 15 1008 13 10000 2.57 210 06:25 25.03.2021
1061 Clouds 15 1009 13 10000 3.6 240 05:49 25.03.2021
1062 Clouds 17 1009 12 10000 1.2 319 02:48 25.03.2021
1063 Clouds 18 1010 13 10000 1.54 60 00:24 25.03.2021
1064 Clouds 18 1011 13 10000 2.57 70 23:53 24.03.2021
1065 Clouds 18 1011 13 10000 2.57 70 23:29 24.03.2021
1066 Clouds 18 1012 16 10000 2.06 340 22:49 24.03.2021
1067 Clouds 18 1012 16 10000 2.06 340 22:28 24.03.2021
1068 Clouds 17 1013 16 10000 4.63 360 21:44 24.03.2021
1069 Clouds 17 1013 16 10000 4.63 360 21:24 24.03.2021
1070 Clouds 17 1014 18 10000 4.63 320 20:43 24.03.2021
1071 Clouds 16 1014 18 10000 4.63 320 20:20 24.03.2021
1072 Clouds 15 1015 21 10000 5.66 340 19:48 24.03.2021
1073 Clouds 15 1015 21 10000 5.66 340 19:28 24.03.2021
1074 Clear 14 1016 22 10000 8.23 350 18:49 24.03.2021
1075 Clear 13 1016 22 10000 8.23 350 18:23 24.03.2021
1076 Clouds 13 1016 24 10000 10.29 340 17:49 24.03.2021
1077 Clouds 12 1016 24 10000 10.29 340 17:29 24.03.2021
1078 Clouds 11 1015 25 10000 7.2 340 16:51 24.03.2021
1079 Clouds 11 1015 25 10000 7.2 340 16:29 24.03.2021
1080 Clouds 10 1015 29 10000 9.26 340 15:49 24.03.2021
1081 Clouds 10 1015 29 10000 9.26 340 15:30 24.03.2021
1082 Clear 9 1014 29 10000 7.72 340 14:47 24.03.2021
1083 Clear 9 1014 29 10000 7.72 340 14:25 24.03.2021
1084 Clear 9 1014 29 10000 7.72 340 14:25 24.03.2021
1085 Clouds 10 1014 28 10000 7.2 330 13:53 24.03.2021
1086 Clouds 10 1014 28 10000 7.2 330 13:27 24.03.2021
1087 Clouds 10 1014 28 10000 8.75 350 12:42 24.03.2021
1088 Clouds 10 1014 28 10000 8.75 350 12:22 24.03.2021
1089 Clouds 10 1014 28 10000 9.26 350 11:43 24.03.2021
1090 Clouds 11 1014 28 10000 9.26 350 10:58 24.03.2021
1091 Clouds 10 1014 28 10000 9.26 350 10:38 24.03.2021
1092 Clouds 10 1014 28 10000 9.26 350 10:20 24.03.2021
1093 Clouds 11 1013 26 10000 13.38 330 09:51 24.03.2021
1094 Clouds 11 1013 26 10000 13.38 330 09:20 24.03.2021
1095 Clouds 11 1014 26 10000 8.75 340 08:49 24.03.2021
1096 Clouds 11 1014 26 10000 8.75 340 08:25 24.03.2021
1097 Clouds 11 1013 28 10000 8.75 350 07:37 24.03.2021
1098 Clouds 12 1013 26 10000 8.75 360 06:52 24.03.2021
1099 Clouds 13 1009 30 10000 8.75 340 03:56 24.03.2021
1100 Clouds 16 1007 22 10000 6.17 10 00:47 24.03.2021
1101 Clouds 16 1007 25 10000 8.23 330 23:57 23.03.2021
1102 Clouds 16 1007 25 10000 8.23 330 23:21 23.03.2021
1103 Clouds 16 1007 26 10000 3.6 30 22:52 23.03.2021
1104 Clouds 16 1007 26 10000 3.6 30 22:31 23.03.2021
1105 Clouds 16 1006 20 10000 6.17 10 21:52 23.03.2021
1106 Clouds 16 1008 44 10000 2.57 340 21:33 23.03.2021
1107 Clouds 15 1008 29 10000 4.12 10 20:47 23.03.2021
1108 Clouds 15 1008 29 10000 4.12 10 20:29 23.03.2021
1109 Clouds 15 1008 33 10000 4.12 50 19:57 23.03.2021
1110 Clouds 15 1008 33 10000 4.12 50 19:27 23.03.2021
1111 Clouds 15 1008 33 10000 7.2 350 18:59 23.03.2021
1112 Clouds 14 1008 33 10000 7.2 350 18:37 23.03.2021
1113 Clouds 14 1008 33 10000 7.2 350 18:18 23.03.2021
1114 Clouds 13 1008 41 10000 6.69 10 17:43 23.03.2021
1115 Clouds 13 1008 41 10000 6.69 10 17:21 23.03.2021
1116 Clouds 11 1008 47 10000 6.17 340 16:25 23.03.2021
1117 Clouds 10 1008 54 10000 4.12 330 15:50 23.03.2021
1118 Clouds 10 1008 54 10000 4.12 330 15:23 23.03.2021
1119 Clouds 10 1007 54 10000 2.06 270 14:48 23.03.2021
1120 Clouds 10 1007 54 10000 2.06 270 14:19 23.03.2021
1121 Clouds 10 1008 54 10000 10.29 350 13:47 23.03.2021
1122 Clouds 10 1008 54 10000 10.29 350 13:24 23.03.2021
1123 Clouds 12 1007 38 10000 7.72 340 12:44 23.03.2021
1124 Clouds 12 1007 38 10000 7.72 340 12:24 23.03.2021
1125 Clouds 13 1007 30 10000 7.2 20 11:48 23.03.2021
1126 Clouds 14 1007 30 10000 7.2 20 11:18 23.03.2021
1127 Clouds 14 1008 24 10000 4.63 50 10:42 23.03.2021
1128 Clouds 14 1008 24 10000 4.63 50 10:20 23.03.2021
1129 Clouds 14 1008 31 10000 3.6 10 09:49 23.03.2021
1130 Clouds 14 1008 31 10000 3.6 10 09:22 23.03.2021
1131 Clouds 14 1008 23 10000 1.54 310 08:54 23.03.2021
1132 Clouds 14 1008 23 10000 1.54 310 08:36 23.03.2021
1133 Clouds 14 1008 23 10000 1.54 310 08:18 23.03.2021
1134 Clouds 14 1009 18 10000 4.63 300 07:26 23.03.2021
1135 Clouds 14 1009 17 10000 2.57 210 06:52 23.03.2021
1136 Clouds 17 1010 14 10000 4.12 260 03:24 23.03.2021
1137 Clouds 18 1011 13 10000 4.63 250 02:29 23.03.2021
1138 Clouds 18 1014 13 10000 1.54 0 23:47 22.03.2021
1139 Clouds 18 1015 15 10000 0.76 186 22:59 22.03.2021
1140 Clouds 18 1015 15 10000 0.76 186 22:40 22.03.2021
1141 Clouds 17 1015 15 10000 1.82 168 22:20 22.03.2021
1142 Clouds 17 1016 16 10000 2.57 0 21:46 22.03.2021
1143 Clouds 16 1016 16 10000 2.57 0 21:26 22.03.2021
1144 Clouds 15 1018 18 10000 1.54 0 20:42 22.03.2021
1145 Clouds 15 1018 18 10000 1.54 0 20:24 22.03.2021
1146 Clouds 15 1018 17 10000 2.06 0 19:57 22.03.2021
1147 Clouds 15 1018 17 10000 2.06 0 19:37 22.03.2021
1148 Clouds 15 1018 17 10000 2.06 0 19:19 22.03.2021
1149 Clouds 14 1019 19 10000 3.09 20 18:40 22.03.2021
1150 Clouds 14 1019 19 10000 3.09 20 18:21 22.03.2021
1151 Clouds 13 1019 21 10000 4.63 360 17:48 22.03.2021
1152 Clouds 12 1019 21 10000 4.63 360 17:22 22.03.2021
1153 Clouds 10 1019 24 10000 5.14 350 16:47 22.03.2021
1154 Clouds 10 1019 24 10000 5.14 350 16:22 22.03.2021
1155 Clouds 9 1019 25 10000 5.66 350 15:39 22.03.2021
1156 Clouds 8 1019 25 10000 5.66 350 15:20 22.03.2021
1157 Clear 8 1019 25 10000 5.14 330 14:57 22.03.2021
1158 Clear 8 1019 25 10000 5.14 330 14:34 22.03.2021
1159 Clear 9 1018 24 10000 6.17 340 13:49 22.03.2021
1160 Clear 9 1018 24 10000 6.17 340 13:28 22.03.2021
1161 Clear 8 1018 24 10000 5.66 350 12:56 22.03.2021
1162 Clear 9 1018 24 10000 5.66 350 12:26 22.03.2021
1163 Clear 9 1019 24 10000 5.66 350 11:50 22.03.2021
1164 Clear 9 1019 24 10000 5.66 350 11:29 22.03.2021
1165 Clear 10 1019 24 10000 5.14 340 10:46 22.03.2021
1166 Clear 10 1019 24 10000 5.14 340 10:26 22.03.2021
1167 Clear 9 1018 27 10000 0.45 128 09:53 22.03.2021
1168 Clear 11 1018 19 10000 2.57 10 09:32 22.03.2021
1169 Clear 11 1018 19 10000 2.57 10 08:47 22.03.2021
1170 Clear 11 1018 19 10000 2.57 10 08:28 22.03.2021
1171 Clear 11 1018 16 10000 7.72 10 07:50 22.03.2021
1172 Clear 12 1018 16 10000 7.72 10 07:31 22.03.2021
1173 Clear 12 1017 14 10000 6.17 20 06:51 22.03.2021
1174 Clouds 16 1015 9 10000 7.72 340 02:47 22.03.2021
1175 Clouds 18 1015 13 10000 5.66 360 00:48 22.03.2021
1176 Clouds 18 1015 13 10000 7.2 350 23:59 21.03.2021
1177 Clouds 18 1015 13 10000 7.2 350 23:20 21.03.2021
1178 Clouds 18 1016 17 10000 5.14 30 22:59 21.03.2021
1179 Clouds 17 1016 17 10000 5.14 30 22:41 21.03.2021
1180 Clouds 17 1017 19 10000 3.09 330 21:43 21.03.2021
1181 Clouds 17 1017 19 10000 3.09 330 21:24 21.03.2021
1182 Clouds 16 1018 20 10000 7.2 360 20:56 21.03.2021
1183 Clouds 16 1018 20 10000 7.2 360 20:38 21.03.2021
1184 Clouds 16 1018 20 10000 7.2 360 20:19 21.03.2021
1185 Clouds 15 1019 23 10000 6.17 20 19:39 21.03.2021
1186 Clouds 15 1019 23 10000 6.17 20 19:19 21.03.2021
1187 Clear 14 1019 24 10000 8.23 340 18:41 21.03.2021
1188 Clear 14 1019 24 10000 8.23 340 18:18 21.03.2021
1189 Clear 13 1019 26 10000 7.72 360 17:41 21.03.2021
1190 Clear 13 1019 26 10000 7.72 360 17:18 21.03.2021
1191 Clear 12 1019 28 10000 10.29 350 16:49 21.03.2021
1192 Clear 11 1019 28 10000 10.29 350 16:23 21.03.2021
1193 Clear 10 1018 30 10000 7.2 360 15:42 21.03.2021
1194 Clear 10 1018 30 10000 7.2 360 15:21 21.03.2021
1195 Clear 10 1018 32 10000 5.66 350 14:47 21.03.2021
1196 Clear 10 1018 32 10000 5.66 350 14:27 21.03.2021
1197 Clear 11 1017 32 10000 8.23 340 13:57 21.03.2021
1198 Clear 11 1017 32 10000 8.23 340 13:38 21.03.2021
1199 Clear 11 1016 30 10000 9.26 340 12:43 21.03.2021
1200 Clear 11 1016 30 10000 9.26 340 12:25 21.03.2021
1201 Clear 11 1016 30 10000 9.26 340 12:25 21.03.2021
1202 Clear 11 1016 28 10000 9.77 340 11:41 21.03.2021
1203 Clear 11 1016 28 10000 9.77 340 11:20 21.03.2021
1204 Clear 12 1016 28 10000 7.72 350 10:44 21.03.2021
1205 Clear 12 1016 28 10000 7.72 350 10:26 21.03.2021
1206 Clouds 12 1016 21 10000 5.66 330 09:47 21.03.2021
1207 Clouds 12 1016 21 10000 5.66 330 09:29 21.03.2021
1208 Clouds 13 1016 12 10000 3.6 310 08:54 21.03.2021
1209 Clouds 14 1016 12 10000 3.6 310 08:28 21.03.2021
1210 Clouds 14 1015 14 10000 3.6 280 07:41 21.03.2021
1211 Clouds 14 1015 14 10000 3.6 280 07:21 21.03.2021
1212 Clouds 15 1014 13 10000 4.12 240 05:59 21.03.2021
1213 Clouds 18 1012 9 10000 7.2 240 02:48 21.03.2021
1214 Clouds 21 1013 11 10000 8.23 240 00:56 21.03.2021
1215 Clouds 21 1013 11 10000 8.23 240 00:36 21.03.2021
1216 Clouds 21 1013 11 10000 8.23 240 00:18 21.03.2021
1217 Clouds 21 1013 14 10000 8.75 240 23:40 20.03.2021
1218 Clouds 21 1014 21 10000 7.72 220 22:57 20.03.2021
1219 Clouds 21 1014 21 10000 7.72 220 22:24 20.03.2021
1220 Clouds 21 1014 23 10000 8.23 230 21:48 20.03.2021
1221 Clouds 21 1014 23 10000 8.23 230 21:25 20.03.2021
1222 Clouds 20 1015 30 10000 9.26 230 20:49 20.03.2021
1223 Clouds 20 1015 30 10000 9.26 230 20:24 20.03.2021
1224 Clouds 19 1015 34 10000 10.29 220 19:52 20.03.2021
1225 Clouds 19 1015 34 10000 10.29 220 19:29 20.03.2021
1226 Clouds 19 1015 34 10000 10.29 220 19:29 20.03.2021
1227 Clouds 18 1016 39 10000 8.75 230 18:52 20.03.2021
1228 Clouds 18 1016 39 10000 8.75 230 18:28 20.03.2021
1229 Clouds 18 1015 45 10000 6.69 220 17:58 20.03.2021
1230 Clouds 17 1015 45 10000 6.69 220 17:40 20.03.2021
1231 Clouds 17 1015 45 10000 6.69 220 17:20 20.03.2021
1232 Clouds 16 1015 45 10000 6.69 230 16:40 20.03.2021
1233 Clouds 16 1015 45 10000 6.69 230 16:18 20.03.2021
1234 Clouds 15 1014 55 10000 6.69 200 15:42 20.03.2021
1235 Clouds 16 1014 55 10000 6.69 200 15:24 20.03.2021
1236 Clouds 16 1014 48 10000 6.69 210 14:32 20.03.2021
1237 Clouds 17 1014 45 10000 6.17 230 13:59 20.03.2021
1238 Clouds 17 1014 45 10000 6.17 230 13:30 20.03.2021
1239 Clouds 17 1014 45 10000 6.17 230 13:30 20.03.2021
1240 Clouds 17 1014 45 10000 6.17 230 13:30 20.03.2021
1241 Clouds 17 1014 48 10000 5.66 200 12:37 20.03.2021
1242 Clouds 17 1014 48 10000 5.66 200 12:18 20.03.2021
1243 Clouds 17 1014 48 10000 7.2 220 11:41 20.03.2021
1244 Clouds 17 1014 48 10000 7.2 220 11:21 20.03.2021
1245 Clouds 17 1014 39 10000 7.2 220 10:39 20.03.2021
1246 Clouds 17 1014 39 10000 7.2 220 10:39 20.03.2021
1247 Clouds 17 1014 39 10000 7.2 220 10:21 20.03.2021
1248 Clouds 18 1015 37 10000 3.09 0 09:44 20.03.2021
1249 Clouds 18 1015 37 10000 3.09 0 09:22 20.03.2021
1250 Clouds 18 1015 34 10000 5.14 180 08:51 20.03.2021
1251 Clouds 19 1015 34 10000 5.14 180 08:18 20.03.2021
1252 Clouds 20 1014 30 10000 3.6 210 07:41 20.03.2021
1253 Clouds 20 1014 30 10000 3.6 210 07:20 20.03.2021
1254 Clouds 20 1014 24 10000 3.09 210 06:38 20.03.2021
1255 Clouds 22 1014 25 10000 5.14 200 05:28 20.03.2021
1256 Clouds 22 1014 23 10000 5.14 200 03:43 20.03.2021
1257 Clouds 25 1014 19 10000 5.14 240 01:31 20.03.2021
1258 Clouds 27 1015 19 10000 3.09 230 23:46 19.03.2021
1259 Clouds 26 1015 19 10000 3.09 230 23:19 19.03.2021
1260 Clouds 25 1016 22 10000 4.63 190 22:42 19.03.2021
1261 Clouds 25 1016 22 10000 4.63 190 22:22 19.03.2021
1262 Clouds 24 1017 17 10000 4.63 100 21:39 19.03.2021
1263 Clouds 24 1017 17 10000 4.63 100 21:20 19.03.2021
1264 Clouds 23 1018 17 10000 3.6 80 20:45 19.03.2021
1265 Clouds 22 1018 17 10000 3.6 80 20:26 19.03.2021
1266 Clouds 21 1019 20 10000 3.6 70 19:48 19.03.2021
1267 Clouds 20 1019 20 10000 3.6 70 19:22 19.03.2021
1268 Clear 18 1019 23 10000 4.12 90 18:49 19.03.2021
1269 Clear 18 1019 23 10000 4.12 90 18:49 19.03.2021
1270 Clear 18 1019 23 10000 4.12 90 18:27 19.03.2021
1271 Clear 16 1020 29 10000 1.54 120 17:58 19.03.2021
1272 Clear 16 1020 29 10000 1.54 120 17:38 19.03.2021
1273 Clear 16 1020 29 10000 1.54 120 17:38 19.03.2021
1274 Clear 15 1020 29 10000 1.54 120 17:18 19.03.2021
1275 Clear 14 1019 35 10000 0.91 137 16:43 19.03.2021
1276 Clear 13 1019 35 10000 0.36 154 16:23 19.03.2021
1277 Clear 11 1019 37 10000 1.54 200 15:33 19.03.2021
1278 Clear 11 1019 37 10000 1.54 320 14:51 19.03.2021
1279 Clear 10 1019 37 10000 1.54 320 14:33 19.03.2021
1280 Clear 10 1018 37 10000 2.06 230 13:50 19.03.2021
1281 Clear 11 1018 37 10000 2.06 230 13:19 19.03.2021
1282 Clear 11 1018 35 10000 2.06 200 12:42 19.03.2021
1283 Clear 12 1018 35 10000 2.06 200 12:18 19.03.2021
1284 Clear 12 1018 30 10000 2.06 210 11:26 19.03.2021
1285 Clear 13 1019 30 10000 1.54 240 10:43 19.03.2021
1286 Clear 13 1019 30 10000 1.54 240 10:21 19.03.2021
1287 Clouds 13 1019 33 10000 2.57 200 09:44 19.03.2021
1288 Clouds 13 1019 33 10000 2.57 200 09:24 19.03.2021
1289 Clouds 13 1018 31 10000 2.06 270 08:51 19.03.2021
1290 Clouds 14 1018 31 10000 2.06 270 08:26 19.03.2021
1291 Clouds 15 1018 29 10000 2.57 270 07:44 19.03.2021
1292 Clouds 15 1018 29 10000 2.57 270 07:24 19.03.2021
1293 Clouds 17 1018 15 10000 0.59 32 05:27 19.03.2021
1294 Clouds 22 1018 18 10000 2.57 110 00:59 19.03.2021
1295 Clouds 21 1018 19 10000 2.06 90 23:54 18.03.2021
1296 Clouds 21 1018 19 10000 2.06 90 23:28 18.03.2021
1297 Clouds 21 1019 21 10000 1.54 0 22:46 18.03.2021
1298 Clouds 21 1019 21 10000 1.54 0 22:25 18.03.2021
1299 Clouds 20 1020 26 10000 3.09 80 21:43 18.03.2021
1300 Clouds 20 1020 26 10000 3.09 80 21:25 18.03.2021
1301 Clouds 19 1021 27 10000 2.57 70 20:39 18.03.2021
1302 Clouds 18 1021 27 10000 2.57 70 20:20 18.03.2021
1303 Clouds 17 1021 31 10000 2.06 70 19:42 18.03.2021
1304 Clouds 17 1021 31 10000 2.06 70 19:22 18.03.2021
1305 Clouds 15 1021 38 10000 1.54 60 18:41 18.03.2021
1306 Clouds 14 1021 44 10000 0.57 36 17:54 18.03.2021
1307 Clouds 13 1021 44 10000 0.74 15 17:26 18.03.2021
1308 Clouds 13 1020 43 10000 1.54 270 16:52 18.03.2021
1309 Clouds 12 1020 43 10000 1.54 270 16:32 18.03.2021
1310 Clouds 11 1020 46 10000 1.54 200 15:58 18.03.2021
1311 Clouds 11 1020 46 10000 1.54 200 15:58 18.03.2021
1312 Clouds 11 1020 46 10000 1.54 200 15:40 18.03.2021
1313 Clouds 10 1020 46 10000 1.54 200 15:18 18.03.2021
1314 Clouds 10 1019 46 10000 1.54 260 14:41 18.03.2021
1315 Clouds 10 1019 46 10000 1.54 260 14:18 18.03.2021
1316 Clouds 10 1019 46 10000 1.54 210 13:37 18.03.2021
1317 Clouds 10 1019 46 10000 1.54 210 13:19 18.03.2021
1318 Clouds 10 1018 43 10000 0.97 31 12:37 18.03.2021
1319 Clouds 11 1018 43 10000 0.72 29 12:18 18.03.2021
1320 Clouds 11 1019 40 10000 2.06 270 11:44 18.03.2021
1321 Clouds 11 1019 43 10000 3.09 290 10:58 18.03.2021
1322 Clouds 11 1019 43 10000 3.09 290 10:39 18.03.2021
1323 Clouds 11 1019 43 10000 3.09 290 10:20 18.03.2021
1324 Clouds 11 1019 43 10000 2.06 310 09:38 18.03.2021
1325 Clouds 11 1019 43 10000 2.06 310 09:20 18.03.2021
1326 Clouds 12 1019 35 10000 1.17 49 08:43 18.03.2021
1327 Clouds 12 1019 35 10000 0.94 49 08:23 18.03.2021
1328 Clouds 13 1019 31 10000 0.94 49 07:45 18.03.2021
1329 Clouds 14 1019 27 10000 1.54 50 06:43 18.03.2021
1330 Clouds 14 1019 27 10000 1.54 50 06:23 18.03.2021
1331 Clouds 15 1018 27 10000 2.06 50 05:26 18.03.2021
1332 Clouds 18 1018 25 10000 2.57 60 00:44 18.03.2021
1333 Clouds 18 1019 27 10000 1.41 104 23:25 17.03.2021
1334 Clouds 17 1020 27 10000 2.57 60 22:39 17.03.2021
1335 Clouds 16 1020 27 10000 2.57 60 22:21 17.03.2021
1336 Clouds 16 1021 29 10000 2.06 40 21:51 17.03.2021
1337 Clouds 15 1021 29 10000 2.06 40 21:31 17.03.2021
1338 Clouds 15 1021 35 10000 1.53 99 20:49 17.03.2021
1339 Clouds 14 1021 35 10000 1.47 91 20:27 17.03.2021
1340 Clouds 13 1022 38 10000 1.54 0 19:59 17.03.2021
1341 Clouds 14 1022 38 10000 1.54 0 19:39 17.03.2021
1342 Clouds 13 1022 38 10000 1.54 0 19:19 17.03.2021
1343 Clouds 12 1022 46 10000 3.09 90 18:49 17.03.2021
1344 Clouds 12 1022 46 10000 3.09 90 18:31 17.03.2021
1345 Clouds 11 1022 46 10000 2.06 50 17:33 17.03.2021
1346 Clouds 9 1021 61 10000 1.54 270 16:59 17.03.2021
1347 Clouds 8 1021 61 10000 1.54 270 16:39 17.03.2021
1348 Clouds 8 1021 61 10000 1.54 270 16:20 17.03.2021
1349 Clouds 7 1020 70 10000 2.06 290 15:45 17.03.2021
1350 Clouds 6 1020 70 10000 2.06 290 15:26 17.03.2021
1351 Clouds 6 1019 65 10000 2.06 270 14:40 17.03.2021
1352 Clouds 6 1019 65 10000 2.06 270 14:19 17.03.2021
1353 Clouds 6 1019 65 10000 0.95 50 13:54 17.03.2021
1354 Clouds 6 1019 65 10000 1.04 48 13:24 17.03.2021
1355 Clouds 7 1019 57 10000 1.54 260 12:43 17.03.2021
1356 Clouds 7 1019 57 10000 1.54 260 12:25 17.03.2021
1357 Clear 7 1018 57 10000 2.06 300 11:40 17.03.2021
1358 Clear 7 1018 57 10000 2.06 300 11:20 17.03.2021
1359 Clear 7 1018 53 10000 2.57 360 10:50 17.03.2021
1360 Clear 8 1018 53 10000 2.57 360 10:23 17.03.2021
1361 Clear 8 1018 49 10000 1.54 310 09:46 17.03.2021
1362 Clear 8 1018 49 10000 1.54 310 09:20 17.03.2021
1363 Clear 9 1017 40 10000 3.09 20 08:47 17.03.2021
1364 Clear 9 1017 40 10000 3.09 20 08:27 17.03.2021
1365 Clouds 10 1017 43 10000 2.57 360 07:43 17.03.2021
1366 Clouds 10 1016 40 10000 3.09 80 06:57 17.03.2021
1367 Clouds 10 1016 40 10000 3.09 80 06:29 17.03.2021
1368 Clouds 13 1015 33 10000 2.57 150 04:18 17.03.2021
1369 Clouds 14 1014 33 10000 5.66 90 02:41 17.03.2021
1370 Clouds 16 1013 33 10000 3.09 0 00:39 17.03.2021
1371 Clouds 14 1013 33 10000 2.57 30 23:27 16.03.2021
1372 Clouds 13 1013 38 10000 1.54 0 22:46 16.03.2021
1373 Clouds 13 1013 38 10000 1.54 0 22:28 16.03.2021
1374 Clouds 13 1014 37 10000 1.67 192 21:45 16.03.2021
1375 Clouds 12 1014 37 10000 1.72 204 21:26 16.03.2021
1376 Clouds 12 1014 37 10000 3.6 190 20:58 16.03.2021
1377 Clouds 11 1014 37 10000 3.6 190 20:20 16.03.2021
1378 Clouds 10 1014 46 10000 1.54 0 19:52 16.03.2021
1379 Clouds 10 1014 46 10000 1.54 0 19:34 16.03.2021
1380 Clouds 9 1013 49 10000 2.06 0 18:58 16.03.2021
1381 Clouds 8 1013 49 10000 2.06 0 18:39 16.03.2021
1382 Clouds 8 1013 49 10000 2.06 0 18:20 16.03.2021
1383 Clouds 7 1012 61 10000 2.06 230 17:41 16.03.2021
1384 Clouds 6 1012 61 10000 2.06 230 17:22 16.03.2021
1385 Clouds 5 1012 65 10000 1.54 210 16:49 16.03.2021
1386 Clouds 4 1012 65 10000 1.54 210 16:25 16.03.2021
1387 Clouds 4 1011 65 10000 1.54 280 15:46 16.03.2021
1388 Clouds 3 1011 65 10000 1.54 280 15:21 16.03.2021
1389 Clouds 3 1010 65 10000 2.06 200 14:57 16.03.2021
1390 Clouds 3 1010 65 10000 2.06 200 14:39 16.03.2021
1391 Clouds 3 1010 65 10000 2.06 200 14:19 16.03.2021
1392 Clouds 3 1010 65 10000 2.06 200 14:19 16.03.2021
1393 Clouds 3 1009 65 10000 2.57 200 13:45 16.03.2021
1394 Clouds 3 1009 65 10000 2.57 200 13:21 16.03.2021
1395 Clouds 3 1008 65 10000 1.54 230 12:48 16.03.2021
1396 Clouds 3 1008 65 10000 1.54 230 12:29 16.03.2021
1397 Clouds 3 1007 70 10000 3.6 260 11:38 16.03.2021
1398 Clouds 4 1007 70 10000 5.66 250 10:59 16.03.2021
1399 Clouds 4 1007 70 10000 5.66 250 10:27 16.03.2021
1400 Clouds 4 1006 56 10000 5.14 200 09:48 16.03.2021
1401 Clouds 4 1006 56 10000 5.14 200 09:29 16.03.2021
1402 Clouds 4 1006 56 10000 5.14 200 09:29 16.03.2021
1403 Clouds 4 1006 56 10000 3.09 130 08:58 16.03.2021
1404 Clouds 5 1006 56 10000 3.09 130 08:40 16.03.2021
1405 Clouds 5 1006 56 10000 3.09 130 08:19 16.03.2021
1406 Clouds 4 1006 70 10000 4.12 340 07:35 16.03.2021
1407 Dust 5 1005 33 10000 4.12 230 06:39 16.03.2021
1408 Clouds 6 1005 33 10000 6.17 210 05:40 16.03.2021
1409 Clouds 6 1005 33 10000 6.17 210 05:21 16.03.2021
1410 Clouds 9 1003 37 10000 7.2 280 02:45 16.03.2021
1411 Clouds 10 1003 37 10000 7.2 280 02:23 16.03.2021
1412 Clouds 18 1002 34 10000 4.63 190 23:56 15.03.2021
1413 Clouds 17 1002 32 10000 5.14 200 23:28 15.03.2021
1414 Clouds 18 1004 29 10000 4.63 210 22:51 15.03.2021
1415 Clouds 18 1004 29 10000 4.63 210 22:33 15.03.2021
1416 Clouds 18 1006 34 10000 7.72 240 21:54 15.03.2021
1417 Clouds 18 1006 34 10000 7.72 240 21:34 15.03.2021
1418 Clouds 18 1007 34 10000 5.14 210 20:58 15.03.2021
1419 Clouds 17 1007 34 10000 5.14 210 20:39 15.03.2021
1420 Clouds 17 1007 34 10000 5.14 210 20:21 15.03.2021
1421 Clouds 17 1008 36 10000 4.63 220 19:49 15.03.2021
1422 Clouds 17 1008 36 10000 4.63 220 19:49 15.03.2021
1423 Clouds 16 1008 36 10000 4.63 220 19:31 15.03.2021
1424 Clouds 15 1009 41 10000 8.23 190 18:50 15.03.2021
1425 Clouds 15 1009 41 10000 8.23 190 18:26 15.03.2021
1426 Clouds 15 1008 35 10000 6.17 200 17:56 15.03.2021
1427 Clouds 14 1008 35 10000 6.17 200 17:32 15.03.2021
1428 Clouds 13 1009 35 10000 8.23 190 16:50 15.03.2021
1429 Clouds 13 1009 35 10000 8.23 190 16:32 15.03.2021
1430 Clouds 12 1008 28 10000 6.17 190 15:45 15.03.2021
1431 Clouds 12 1008 28 10000 6.17 190 15:26 15.03.2021
1432 Clouds 12 1008 24 10000 8.23 200 14:44 15.03.2021
1433 Clouds 12 1008 24 10000 8.23 200 14:23 15.03.2021
1434 Clouds 12 1009 24 10000 6.17 200 13:47 15.03.2021
1435 Clouds 12 1009 24 10000 6.17 200 13:25 15.03.2021
1436 Clouds 12 1009 23 10000 4.63 160 12:49 15.03.2021
1437 Clouds 12 1009 23 10000 4.63 160 12:20 15.03.2021
1438 Clouds 12 1010 21 10000 3.6 190 11:52 15.03.2021
1439 Clouds 13 1010 21 10000 3.6 190 11:33 15.03.2021
1440 Clouds 12 1011 24 10000 2.57 160 10:55 15.03.2021
1441 Clouds 13 1011 24 10000 2.57 160 10:31 15.03.2021
1442 Clouds 12 1011 26 10000 2.57 150 09:52 15.03.2021
1443 Clouds 13 1011 26 10000 2.57 150 09:34 15.03.2021
1444 Clouds 14 1012 30 10000 2.23 200 08:54 15.03.2021
1445 Clouds 14 1012 30 10000 2.23 200 08:32 15.03.2021
1446 Clouds 13 1013 33 10000 1.54 240 07:53 15.03.2021
1447 Clouds 13 1013 33 10000 1.54 240 07:32 15.03.2021
1448 Clouds 14 1013 29 10000 2.57 290 06:40 15.03.2021
1449 Clouds 15 1013 27 10000 1.97 205 05:32 15.03.2021
1450 Clouds 20 1014 15 10000 3.09 70 01:36 15.03.2021
1451 Clouds 20 1015 14 10000 1.54 0 23:56 14.03.2021
1452 Clouds 19 1015 14 10000 1.54 0 23:20 14.03.2021
1453 Clouds 19 1017 16 10000 1.54 0 22:46 14.03.2021
1454 Clouds 19 1017 16 10000 1.54 0 22:23 14.03.2021
1455 Clouds 18 1018 19 10000 3.09 0 21:45 14.03.2021
1456 Clouds 17 1018 19 10000 3.09 0 21:19 14.03.2021
1457 Clouds 16 1019 24 10000 2.06 80 20:43 14.03.2021
1458 Clouds 16 1019 24 10000 2.06 80 20:25 14.03.2021
1459 Clouds 15 1020 35 10000 2.57 230 19:43 14.03.2021
1460 Clouds 14 1020 35 10000 2.57 230 19:23 14.03.2021
1461 Clouds 12 1020 37 10000 1.54 340 18:48 14.03.2021
1462 Clouds 11 1020 37 10000 1.54 340 18:23 14.03.2021
1463 Clouds 10 1020 46 10000 1.54 340 17:40 14.03.2021
1464 Clouds 9 1020 46 10000 1.54 340 17:22 14.03.2021
1465 Clear 7 1019 61 10000 2.06 340 16:46 14.03.2021
1466 Clear 7 1019 61 10000 2.06 340 16:46 14.03.2021
1467 Clear 7 1019 61 10000 2.06 340 16:27 14.03.2021
1468 Clear 5 1019 60 10000 1.12 239 15:52 14.03.2021
1469 Clear 5 1019 60 10000 1.12 239 15:33 14.03.2021
1470 Clear 5 1019 60 10000 2.06 190 14:41 14.03.2021
1471 Clear 5 1019 60 10000 2.06 190 14:20 14.03.2021
1472 Clear 5 1019 52 10000 2.57 220 13:49 14.03.2021
1473 Clear 5 1019 52 10000 2.57 220 13:28 14.03.2021
1474 Clear 6 1019 49 10000 3.6 270 12:45 14.03.2021
1475 Clear 6 1019 49 10000 3.6 270 12:27 14.03.2021
1476 Clear 6 1019 56 10000 1.54 230 11:47 14.03.2021
1477 Clear 7 1019 56 10000 1.54 230 11:29 14.03.2021
1478 Clear 6 1019 53 10000 2.06 200 10:56 14.03.2021
1479 Clear 6 1019 53 10000 2.06 200 10:36 14.03.2021
1480 Clear 7 1019 53 10000 2.06 200 10:18 14.03.2021
1481 Clear 7 1019 46 10000 2.26 267 09:42 14.03.2021
1482 Clear 8 1019 46 10000 2.69 259 09:21 14.03.2021
1483 Clear 8 1019 46 10000 2.57 240 08:41 14.03.2021
1484 Clear 8 1019 46 10000 2.57 240 08:18 14.03.2021
1485 Clear 9 1019 49 10000 1.9 249 07:35 14.03.2021
1486 Clear 9 1019 49 10000 1.9 249 07:35 14.03.2021
1487 Clouds 9 1019 37 10000 2.06 220 06:27 14.03.2021
1488 Clouds 13 1019 24 10000 4.12 20 02:21 14.03.2021
1489 Clouds 14 1019 24 10000 5.66 10 00:50 14.03.2021
1490 Clouds 14 1019 24 10000 5.66 10 00:19 14.03.2021
1491 Clouds 14 1019 26 10000 8.75 340 23:42 13.03.2021
1492 Clouds 14 1019 26 10000 8.75 340 23:22 13.03.2021
1493 Clouds 13 1019 26 10000 7.72 350 22:50 13.03.2021
1494 Clouds 13 1019 26 10000 7.72 350 22:25 13.03.2021
1495 Clouds 12 1020 28 10000 8.75 360 21:41 13.03.2021
1496 Clouds 12 1020 28 10000 8.75 360 21:20 13.03.2021
1497 Clouds 11 1019 40 10000 3.6 320 20:48 13.03.2021
1498 Clouds 12 1019 40 10000 3.6 320 20:28 13.03.2021
1499 Clouds 11 1019 40 10000 4.63 330 19:45 13.03.2021
1500 Clouds 11 1019 40 10000 4.63 330 19:27 13.03.2021
1501 Clouds 9 1019 49 10000 5.14 340 18:43 13.03.2021
1502 Clouds 9 1019 49 10000 5.14 340 18:21 13.03.2021
1503 Clouds 8 1018 70 10000 3.09 240 17:56 13.03.2021
1504 Clouds 7 1018 70 10000 3.09 240 17:34 13.03.2021
1505 Clouds 7 1018 65 10000 3.09 300 16:57 13.03.2021
1506 Clouds 6 1018 65 10000 3.09 300 16:39 13.03.2021
1507 Clouds 5 1017 81 10000 2.06 320 15:58 13.03.2021
1508 Clouds 5 1017 81 10000 2.06 320 15:22 13.03.2021
1509 Clouds 5 1017 81 10000 1.54 230 14:43 13.03.2021
1510 Clouds 5 1017 81 10000 1.54 230 14:24 13.03.2021
1511 Clouds 5 1016 81 10000 2.06 240 13:45 13.03.2021
1512 Clouds 5 1016 81 10000 2.06 240 13:21 13.03.2021
1513 Clouds 5 1016 81 10000 3.09 200 12:42 13.03.2021
1514 Rain 5 1017 87 10000 3.09 200 11:59 13.03.2021
1515 Clouds 6 1017 87 10000 3.09 200 11:40 13.03.2021
1516 Clouds 5 1017 87 10000 3.09 200 11:22 13.03.2021
1517 Rain 5 1018 81 10000 1.4 304 10:46 13.03.2021
1518 Rain 5 1018 81 10000 2.24 319 10:24 13.03.2021
1519 Clouds 5 1018 76 10000 2.24 319 09:34 13.03.2021
1520 Clouds 5 1018 76 10000 2.46 331 08:55 13.03.2021
1521 Clouds 5 1018 76 10000 2.46 331 08:36 13.03.2021
1522 Clouds 6 1018 76 10000 2.55 355 08:18 13.03.2021
1523 Clouds 6 1018 76 10000 2.55 355 07:39 13.03.2021
1524 Rain 6 1018 76 10000 3.6 300 05:31 13.03.2021
1525 Clouds 7 1018 70 10000 1.54 160 02:42 13.03.2021
1526 Snow 8 1018 65 10000 3.61 264 00:37 13.03.2021
1527 Snow 9 1018 70 10000 3.09 0 23:48 12.03.2021
1528 Clouds 9 1017 57 10000 2.06 0 23:30 12.03.2021
1529 Clouds 9 1018 66 10000 4.33 254 22:41 12.03.2021
1530 Clouds 9 1018 66 10000 3.2 244 22:21 12.03.2021
1531 Clouds 8 1018 70 10000 1.54 0 21:39 12.03.2021
1532 Clouds 8 1018 70 10000 1.54 0 21:20 12.03.2021
1533 Clouds 7 1019 87 10000 3.6 190 20:54 12.03.2021
1534 Clouds 7 1019 87 10000 3.6 190 20:31 12.03.2021
1535 Clouds 5 1019 93 10000 3.6 180 19:48 12.03.2021
1536 Clouds 5 1019 93 10000 3.6 180 19:30 12.03.2021
1537 Clouds 4 1019 93 10000 4.12 190 18:54 12.03.2021
1538 Clouds 5 1019 93 10000 4.12 190 18:32 12.03.2021
1539 Clouds 4 1018 93 10000 1.13 218 17:46 12.03.2021
1540 Rain 4 1018 93 10000 1.7 225 17:27 12.03.2021
1541 Rain 4 1018 93 10000 1.54 200 16:51 12.03.2021
1542 Rain 4 1018 93 10000 1.54 200 16:29 12.03.2021
1543 Rain 4 1017 87 10000 1.54 200 15:45 12.03.2021
1544 Rain 4 1017 87 10000 1.54 200 15:21 12.03.2021
1545 Clouds 4 1017 93 10000 2.17 241 14:42 12.03.2021
1546 Clouds 4 1017 87 10000 1.54 140 14:19 12.03.2021
1547 Rain 4 1017 81 10000 2.57 70 13:40 12.03.2021
1548 Rain 4 1017 81 10000 2.57 70 13:20 12.03.2021
1549 Clouds 5 1017 81 10000 2.06 60 12:50 12.03.2021
1550 Clouds 5 1017 81 10000 2.06 60 12:30 12.03.2021
1551 Clouds 5 1017 81 10000 2.06 60 12:30 12.03.2021
1552 Clouds 5 1017 75 10000 2.06 100 11:57 12.03.2021
1553 Clouds 5 1017 75 10000 2.06 100 11:38 12.03.2021
1554 Clouds 5 1017 75 10000 2.57 50 10:59 12.03.2021
1555 Clouds 5 1017 75 10000 2.57 50 10:41 12.03.2021
1556 Clouds 5 1017 75 10000 2.57 50 10:20 12.03.2021
1557 Clouds 5 1017 75 10000 3.6 50 09:29 12.03.2021
1558 Clouds 5 1017 75 10000 2.06 260 08:57 12.03.2021
1559 Clouds 5 1017 75 10000 2.06 260 08:38 12.03.2021
1560 Clouds 6 1018 75 10000 2.09 353 07:41 12.03.2021
1561 Clouds 5 1018 75 10000 2.06 290 07:19 12.03.2021
1562 Clouds 5 1018 81 10000 2.06 290 06:40 12.03.2021
1563 Rain 7 1016 65 10000 4.63 60 03:29 12.03.2021
1564 Clouds 10 1015 46 10000 4.63 110 00:52 12.03.2021
1565 Clouds 10 1015 50 10000 4.63 140 23:40 11.03.2021
1566 Clouds 10 1015 40 10000 3.09 150 22:58 11.03.2021
1567 Clouds 10 1015 40 10000 3.09 150 22:38 11.03.2021
1568 Clouds 10 1015 40 10000 3.09 150 22:18 11.03.2021
1569 Clouds 10 1016 40 10000 3.09 230 21:42 11.03.2021
1570 Clouds 10 1016 40 10000 3.09 230 21:21 11.03.2021
1571 Clouds 9 1016 49 10000 3.6 150 20:49 11.03.2021
1572 Clouds 8 1016 49 10000 3.6 150 20:22 11.03.2021
1573 Clouds 8 1016 57 10000 5.14 170 19:48 11.03.2021
1574 Clouds 7 1016 57 10000 5.14 170 19:30 11.03.2021
1575 Clouds 7 1016 46 10000 6.17 190 18:51 11.03.2021
1576 Clouds 7 1016 46 10000 6.17 190 18:33 11.03.2021
1577 Clouds 7 1015 42 10000 4.12 200 17:50 11.03.2021
1578 Clouds 7 1015 42 10000 4.12 200 17:30 11.03.2021
1579 Clouds 6 1015 45 10000 3.09 190 16:31 11.03.2021
1580 Clouds 6 1014 42 10000 4.63 200 15:50 11.03.2021
1581 Clouds 6 1014 42 10000 4.63 200 15:31 11.03.2021
1582 Clouds 6 1013 42 10000 3.09 200 14:58 11.03.2021
1583 Clouds 6 1013 42 10000 3.09 200 14:38 11.03.2021
1584 Clouds 6 1013 42 10000 3.09 200 14:18 11.03.2021
1585 Clouds 6 1013 42 10000 4.63 140 13:43 11.03.2021
1586 Clouds 6 1013 42 10000 4.63 140 13:21 11.03.2021
1587 Clouds 6 1013 45 10000 4.63 190 12:49 11.03.2021
1588 Clouds 6 1013 45 10000 4.63 190 12:27 11.03.2021
1589 Clouds 6 1013 45 10000 3.09 0 11:45 11.03.2021
1590 Clouds 6 1013 45 10000 3.09 0 11:27 11.03.2021
1591 Clouds 6 1013 42 10000 6.69 220 10:48 11.03.2021
1592 Clouds 6 1013 42 10000 6.69 220 10:22 11.03.2021
1593 Clouds 7 1012 42 10000 8.23 220 09:45 11.03.2021
1594 Clouds 7 1012 42 10000 8.23 220 09:25 11.03.2021
1595 Clouds 7 1012 42 10000 8.23 230 08:48 11.03.2021
1596 Clouds 7 1012 42 10000 8.23 230 08:23 11.03.2021
1597 Clouds 8 1012 43 10000 6.17 230 07:44 11.03.2021
1598 Clouds 8 1012 43 10000 4.12 200 06:50 11.03.2021
1599 Clouds 8 1012 43 10000 4.12 200 06:31 11.03.2021
1600 Clouds 8 1011 46 10000 6.69 240 04:45 11.03.2021
1601 Clouds 11 1011 28 10000 7.72 240 01:23 11.03.2021
1602 Clouds 12 1011 30 10000 7.72 230 23:52 10.03.2021
1603 Clouds 12 1011 30 10000 7.72 230 23:51 10.03.2021
1604 Clouds 12 1011 30 10000 7.72 230 23:20 10.03.2021
1605 Clouds 12 1012 40 10000 4.63 200 22:39 10.03.2021
1606 Clouds 11 1014 53 10000 8.75 180 21:47 10.03.2021
1607 Clouds 11 1014 53 10000 8.75 180 21:26 10.03.2021
1608 Clouds 11 1014 37 10000 6.69 230 20:58 10.03.2021
1609 Clouds 11 1014 37 10000 6.69 230 20:37 10.03.2021
1610 Clouds 11 1014 37 10000 6.69 230 20:19 10.03.2021
1611 Clouds 12 1013 35 10000 6.17 230 19:39 10.03.2021
1612 Clouds 12 1013 35 10000 6.17 230 19:20 10.03.2021
1613 Clouds 10 1014 43 10000 3.09 160 18:37 10.03.2021
1614 Clouds 11 1014 43 10000 3.09 160 18:18 10.03.2021
1615 Clouds 10 1014 37 10000 5.14 190 17:41 10.03.2021
1616 Clouds 9 1014 37 10000 5.14 190 17:19 10.03.2021
1617 Clouds 8 1013 39 10000 5.14 200 16:52 10.03.2021
1618 Clouds 8 1013 39 10000 5.14 200 16:29 10.03.2021
1619 Clouds 8 1013 42 10000 5.14 200 15:54 10.03.2021
1620 Clouds 7 1013 42 10000 5.14 200 15:36 10.03.2021
1621 Clouds 7 1013 42 10000 5.14 200 15:18 10.03.2021
1622 Clouds 8 1013 39 10000 5.14 210 14:23 10.03.2021
1623 Clouds 8 1013 42 10000 6.69 200 13:58 10.03.2021
1624 Clouds 8 1013 42 10000 6.69 200 13:31 10.03.2021
1625 Clouds 8 1013 43 10000 8.23 200 12:48 10.03.2021
1626 Clouds 8 1013 43 10000 8.23 200 12:28 10.03.2021
1627 Clear 8 1013 34 10000 5.66 200 11:53 10.03.2021
1628 Clear 8 1013 34 10000 5.66 200 11:28 10.03.2021
1629 Clear 9 1013 34 10000 4.12 200 10:51 10.03.2021
1630 Clear 9 1013 34 10000 4.12 200 10:33 10.03.2021
1631 Clear 9 1013 27 10000 5.14 220 09:56 10.03.2021
1632 Clear 9 1013 27 10000 5.14 220 09:38 10.03.2021
1633 Clear 10 1013 27 10000 5.14 220 09:18 10.03.2021
1634 Clouds 10 1013 20 10000 6.17 220 08:44 10.03.2021
1635 Clouds 10 1013 20 10000 6.17 220 08:26 10.03.2021
1636 Clouds 10 1014 24 10000 4.63 210 07:44 10.03.2021
1637 Clouds 10 1014 24 10000 4.63 210 07:24 10.03.2021
1638 Clouds 11 1013 22 10000 6.17 230 06:52 10.03.2021
1639 Clouds 15 1011 17 10000 9.77 260 02:44 10.03.2021
1640 Clouds 16 1011 17 10000 6.69 270 00:31 10.03.2021
1641 Clouds 17 1012 17 10000 7.2 260 23:33 09.03.2021
1642 Clouds 16 1012 18 10000 6.69 220 22:52 09.03.2021
1643 Clouds 16 1012 18 10000 6.69 220 22:34 09.03.2021
1644 Clouds 15 1013 20 10000 5.14 220 21:58 09.03.2021
1645 Clouds 15 1013 20 10000 5.14 220 21:38 09.03.2021
1646 Clouds 15 1013 20 10000 5.14 220 21:19 09.03.2021
1647 Clouds 14 1014 22 10000 5.66 210 20:45 09.03.2021
1648 Clouds 14 1014 22 10000 5.66 210 20:23 09.03.2021
1649 Clouds 13 1014 22 10000 5.14 200 19:59 09.03.2021
1650 Clouds 13 1014 22 10000 5.14 200 19:29 09.03.2021
1651 Clouds 13 1014 26 10000 5.66 180 18:55 09.03.2021
1652 Clouds 13 1014 26 10000 5.66 180 18:31 09.03.2021
1653 Clouds 12 1014 26 10000 7.2 190 17:59 09.03.2021
1654 Clouds 12 1014 26 10000 7.2 190 17:39 09.03.2021
1655 Clouds 11 1014 26 10000 7.2 190 17:20 09.03.2021
1656 Clouds 10 1014 28 10000 3.6 200 16:40 09.03.2021
1657 Clouds 10 1014 28 10000 3.6 200 16:21 09.03.2021
1658 Clouds 9 1014 27 10000 2.57 220 15:47 09.03.2021
1659 Clouds 8 1014 27 10000 2.57 220 15:24 09.03.2021
1660 Clouds 9 1014 25 10000 1.54 0 14:46 09.03.2021
1661 Clouds 9 1014 25 10000 1.54 0 14:24 09.03.2021
1662 Clouds 10 1013 25 10000 5.66 220 13:39 09.03.2021
1663 Clouds 10 1013 25 10000 5.66 220 13:21 09.03.2021
1664 Clouds 11 1014 22 10000 3.09 230 12:46 09.03.2021
1665 Clouds 11 1014 22 10000 3.09 230 12:27 09.03.2021
1666 Clouds 12 1013 19 10000 10.8 230 11:42 09.03.2021
1667 Clouds 12 1013 19 10000 10.8 230 11:22 09.03.2021
1668 Clouds 12 1014 18 10000 10.8 220 10:57 09.03.2021
1669 Clouds 12 1014 18 10000 10.8 220 10:39 09.03.2021
1670 Clouds 12 1014 18 10000 10.8 220 10:20 09.03.2021
1671 Clouds 13 1014 16 10000 6.69 220 09:45 09.03.2021
1672 Clouds 13 1014 16 10000 6.69 220 09:26 09.03.2021
1673 Clouds 13 1014 14 10000 7.72 240 08:48 09.03.2021
1674 Clouds 14 1014 14 10000 7.72 240 08:29 09.03.2021
1675 Clouds 14 1015 17 10000 7.2 250 07:41 09.03.2021
1676 Clouds 14 1015 17 10000 7.2 250 07:22 09.03.2021
1677 Clouds 15 1015 18 10000 4.63 200 06:44 09.03.2021
1678 Clouds 16 1014 20 10000 9.26 230 05:48 09.03.2021
1679 Clouds 22 1013 13 10000 6.69 220 00:43 09.03.2021
1680 Clouds 23 1013 9 10000 7.72 210 23:45 08.03.2021
1681 Clouds 23 1013 9 10000 7.72 210 23:27 08.03.2021
1682 Clear 22 1014 13 10000 6.17 200 22:58 08.03.2021
1683 Clear 23 1014 13 10000 6.17 200 22:39 08.03.2021
1684 Clear 23 1014 13 10000 6.17 200 22:20 08.03.2021
1685 Clouds 22 1015 23 10000 5.66 210 21:40 08.03.2021
1686 Clouds 22 1015 23 10000 5.66 210 21:20 08.03.2021
1687 Clear 21 1015 19 10000 7.2 200 20:38 08.03.2021
1688 Clear 21 1015 19 10000 7.2 200 20:18 08.03.2021
1689 Clear 20 1015 24 10000 8.75 180 19:38 08.03.2021
1690 Clear 19 1015 25 10000 7.2 170 18:48 08.03.2021
1691 Clear 19 1015 25 10000 7.2 170 18:23 08.03.2021
1692 Clear 18 1015 25 10000 6.69 190 17:57 08.03.2021
1693 Clear 17 1015 25 10000 6.69 190 17:38 08.03.2021
1694 Clear 16 1014 26 10000 3.09 170 16:58 08.03.2021
1695 Clear 15 1014 26 10000 3.09 170 16:33 08.03.2021
1696 Clear 14 1014 26 10000 5.14 180 15:59 08.03.2021
1697 Clear 14 1014 26 10000 5.14 180 15:31 08.03.2021
1698 Clouds 14 1013 23 10000 5.14 180 14:59 08.03.2021
1699 Clouds 15 1013 23 10000 5.14 180 14:21 08.03.2021
1700 Clouds 14 1013 25 10000 3.09 180 13:44 08.03.2021
1701 Clouds 13 1013 25 10000 3.09 180 13:22 08.03.2021
1702 Clouds 14 1013 23 10000 2.06 210 12:49 08.03.2021
1703 Clouds 14 1013 23 10000 2.06 210 12:29 08.03.2021
1704 Clouds 15 1013 21 10000 1.54 180 11:45 08.03.2021
1705 Clouds 15 1013 21 10000 1.54 180 11:20 08.03.2021
1706 Clouds 15 1013 19 10000 1.54 190 10:45 08.03.2021
1707 Clouds 15 1013 19 10000 1.54 190 10:27 08.03.2021
1708 Clouds 16 1013 17 10000 2.57 180 09:45 08.03.2021
1709 Clouds 16 1013 17 10000 2.57 180 09:23 08.03.2021
1710 Clouds 17 1014 17 10000 2.06 160 08:30 08.03.2021
1711 Clouds 17 1014 16 10000 1.54 210 07:48 08.03.2021
1712 Clouds 18 1014 16 10000 1.54 210 07:20 08.03.2021
1713 Clouds 18 1014 18 10000 3.21 200 05:18 08.03.2021
1714 Clouds 22 1014 13 10000 2.06 360 01:26 08.03.2021
1715 Clouds 22 1014 14 10000 2.06 90 00:33 08.03.2021
1716 Clouds 22 1015 13 10000 3.03 167 23:41 07.03.2021
1717 Clouds 22 1015 13 10000 1.42 141 23:20 07.03.2021
1718 Clouds 22 1015 13 10000 2.57 50 22:44 07.03.2021
1719 Clouds 22 1015 13 10000 2.57 50 22:44 07.03.2021
1720 Clouds 22 1015 13 10000 2.57 50 22:44 07.03.2021
1721 Clouds 21 1015 13 10000 2.57 50 22:26 07.03.2021
1722 Clouds 21 1016 12 10000 2.57 0 21:46 07.03.2021
1723 Clouds 21 1016 12 10000 2.57 0 21:26 07.03.2021
1724 Clouds 20 1017 14 10000 2.57 90 20:50 07.03.2021
1725 Clouds 20 1017 14 10000 2.57 90 20:31 07.03.2021
1726 Clouds 19 1017 15 10000 1.54 50 19:58 07.03.2021
1727 Clouds 19 1017 15 10000 1.54 50 19:39 07.03.2021
1728 Clouds 19 1017 15 10000 1.54 50 19:20 07.03.2021
1729 Clouds 17 1017 17 10000 1.27 105 18:47 07.03.2021
1730 Clouds 17 1017 17 10000 0.87 84 18:20 07.03.2021
1731 Clouds 16 1017 21 10000 0.87 84 17:44 07.03.2021
1732 Clouds 15 1017 21 10000 0.46 124 17:21 07.03.2021
1733 Clouds 15 1017 21 10000 0.46 124 17:21 07.03.2021
1734 Clouds 13 1016 24 10000 0.46 124 16:59 07.03.2021
1735 Clouds 12 1016 24 10000 0.46 124 16:39 07.03.2021
1736 Clouds 12 1016 24 10000 0.46 124 16:39 07.03.2021
1737 Clouds 12 1016 24 10000 0.18 58 16:19 07.03.2021
1738 Clouds 11 1015 24 10000 2.06 250 15:45 07.03.2021
1739 Clouds 10 1015 24 10000 2.06 250 15:24 07.03.2021
1740 Clouds 10 1015 22 10000 2.06 210 14:39 07.03.2021
1741 Clouds 10 1015 22 10000 2.06 210 14:20 07.03.2021
1742 Clouds 10 1015 20 10000 2.57 200 13:41 07.03.2021
1743 Clouds 11 1015 20 10000 2.57 200 13:21 07.03.2021
1744 Clouds 11 1014 22 10000 2.57 210 12:47 07.03.2021
1745 Clouds 11 1014 22 10000 2.57 210 12:47 07.03.2021
1746 Clouds 11 1014 22 10000 2.57 210 12:28 07.03.2021
1747 Clear 12 1014 19 10000 2.06 220 11:49 07.03.2021
1748 Clear 12 1014 19 10000 2.06 220 11:22 07.03.2021
1749 Clear 12 1014 18 10000 1.54 230 10:44 07.03.2021
1750 Clear 13 1014 18 10000 1.54 230 10:26 07.03.2021
1751 Clear 13 1014 19 10000 1.54 220 09:44 07.03.2021
1752 Clear 13 1014 19 10000 1.54 220 09:25 07.03.2021
1753 Clear 14 1013 19 10000 2.06 280 08:46 07.03.2021
1754 Clear 14 1013 19 10000 2.06 280 08:24 07.03.2021
1755 Clear 15 1013 16 10000 2.57 220 07:51 07.03.2021
1756 Clouds 23 1010 7 10000 6.69 230 02:43 07.03.2021
1757 Clouds 25 1010 6 10000 6.17 240 01:19 07.03.2021
1758 Clouds 25 1011 8 10000 5.66 210 23:50 06.03.2021
1759 Clouds 25 1011 8 10000 5.66 210 23:30 06.03.2021
1760 Clouds 25 1012 9 10000 4.12 220 22:48 06.03.2021
1761 Clouds 25 1012 9 10000 4.12 220 22:29 06.03.2021
1762 Clouds 25 1013 10 10000 6.17 200 21:58 06.03.2021
1763 Clouds 24 1013 10 10000 6.17 200 21:22 06.03.2021
1764 Clouds 23 1013 11 10000 5.66 200 20:53 06.03.2021
1765 Clouds 24 1013 11 10000 5.66 200 20:33 06.03.2021
1766 Clouds 22 1014 14 10000 5.66 190 19:50 06.03.2021
1767 Clouds 21 1014 14 10000 5.66 190 19:22 06.03.2021
1768 Clouds 19 1015 16 10000 4.12 120 18:56 06.03.2021
1769 Clouds 18 1015 16 10000 4.12 120 18:37 06.03.2021
1770 Clouds 18 1015 16 10000 4.12 120 18:18 06.03.2021
1771 Clouds 16 1014 20 10000 2.06 0 17:44 06.03.2021
1772 Clouds 15 1014 20 10000 2.06 0 17:22 06.03.2021
1773 Clouds 13 1014 25 10000 1.79 168 16:43 06.03.2021
1774 Clouds 13 1014 25 10000 1.31 194 16:24 06.03.2021
1775 Clouds 11 1014 27 10000 2.57 220 15:51 06.03.2021
1776 Clouds 10 1014 27 10000 2.57 220 15:31 06.03.2021
1777 Clouds 10 1014 27 10000 2.06 180 14:53 06.03.2021
1778 Clouds 10 1014 27 10000 2.06 180 14:29 06.03.2021
1779 Clouds 10 1014 27 10000 2.06 180 14:29 06.03.2021
1780 Clouds 10 1014 24 10000 2.06 180 13:42 06.03.2021
1781 Clouds 11 1014 24 10000 2.06 180 13:20 06.03.2021
1782 Clouds 11 1014 24 10000 1.43 156 12:44 06.03.2021
1783 Clouds 11 1014 24 10000 1.1 171 12:20 06.03.2021
1784 Clouds 11 1015 22 10000 2.06 200 11:55 06.03.2021
1785 Clouds 11 1015 22 10000 2.06 200 11:22 06.03.2021
1786 Clouds 11 1016 21 10000 0.73 173 10:49 06.03.2021
1787 Clouds 11 1016 21 10000 0.64 202 10:24 06.03.2021
1788 Clouds 11 1016 18 10000 2.57 200 09:47 06.03.2021
1789 Clouds 12 1016 18 10000 2.57 200 09:20 06.03.2021
1790 Clouds 12 1016 17 10000 2.06 210 08:46 06.03.2021
1791 Clouds 13 1017 18 10000 1.54 200 07:59 06.03.2021
1792 Clouds 13 1017 18 10000 1.54 200 07:41 06.03.2021
1793 Clouds 13 1017 18 10000 1.54 200 07:20 06.03.2021
1794 Clouds 15 1017 16 10000 2.57 240 05:38 06.03.2021
1795 Clouds 21 1018 11 10000 1.32 308 02:39 06.03.2021
1796 Clouds 23 1018 12 10000 2.06 350 01:20 06.03.2021
1797 Clouds 23 1020 13 10000 1.04 58 00:36 06.03.2021
1798 Clouds 23 1020 15 10000 2.06 30 23:31 05.03.2021
1799 Clouds 21 1022 18 10000 2.06 350 22:50 05.03.2021
1800 Clouds 21 1022 18 10000 2.06 350 22:25 05.03.2021
1801 Clouds 21 1023 22 10000 1.54 0 21:57 05.03.2021
1802 Clouds 21 1023 22 10000 1.54 0 21:39 05.03.2021
1803 Clouds 19 1024 24 10000 2.06 0 20:59 05.03.2021
1804 Clouds 19 1024 24 10000 2.06 0 20:41 05.03.2021
1805 Clouds 19 1024 24 10000 2.06 0 20:23 05.03.2021
1806 Clear 18 1025 23 10000 1.91 66 19:43 05.03.2021
1807 Clear 17 1025 23 10000 1.33 64 19:21 05.03.2021
1808 Clear 16 1026 26 10000 1.33 64 18:43 05.03.2021
1809 Clear 15 1026 26 10000 0.76 35 18:25 05.03.2021
1810 Clouds 13 1026 32 10000 0.76 35 17:39 05.03.2021
1811 Clouds 13 1026 32 10000 0.56 350 17:20 05.03.2021
1812 Clear 9 1026 37 10000 2.06 230 16:41 05.03.2021
1813 Clear 9 1026 37 10000 2.06 230 16:22 05.03.2021
1814 Clear 8 1025 39 10000 2.06 210 15:53 05.03.2021
1815 Clear 7 1025 39 10000 2.06 210 15:26 05.03.2021
1816 Clear 7 1025 42 10000 1.54 230 14:39 05.03.2021
1817 Clear 7 1025 42 10000 1.54 230 14:19 05.03.2021
1818 Clear 7 1025 36 10000 2.06 220 13:40 05.03.2021
1819 Clear 8 1025 36 10000 2.06 220 13:19 05.03.2021
1820 Clear 8 1025 37 10000 2.06 230 12:30 05.03.2021
1821 Clear 9 1025 37 10000 1.54 220 11:37 05.03.2021
1822 Clear 9 1025 37 10000 1.54 220 11:18 05.03.2021
1823 Clear 9 1026 35 10000 1.54 260 10:42 05.03.2021
1824 Clear 9 1026 35 10000 1.54 260 10:24 05.03.2021
1825 Clear 10 1025 32 10000 1.23 7 09:50 05.03.2021
1826 Clear 10 1025 32 10000 0.33 15 09:27 05.03.2021
1827 Clear 10 1025 28 10000 2.06 240 08:46 05.03.2021
1828 Clear 10 1025 28 10000 2.06 240 08:27 05.03.2021
1829 Clear 11 1025 30 10000 1.54 220 07:58 05.03.2021
1830 Clear 11 1025 30 10000 1.54 220 07:29 05.03.2021
1831 Clear 12 1024 30 10000 1.54 240 06:33 05.03.2021
1832 Clear 13 1024 27 10000 1.54 220 05:32 05.03.2021
1833 Clear 19 1023 20 10000 3.6 60 00:53 05.03.2021
1834 Clear 19 1023 24 10000 2.06 50 23:44 04.03.2021
1835 Clear 19 1023 24 10000 2.06 50 23:19 04.03.2021
1836 Clear 18 1023 25 10000 2.06 0 22:28 04.03.2021
1837 Clear 17 1023 27 10000 3.09 40 21:52 04.03.2021
1838 Clear 17 1023 27 10000 3.09 40 21:29 04.03.2021
1839 Clear 16 1023 31 10000 2.06 30 20:42 04.03.2021
1840 Clear 15 1023 31 10000 2.06 30 20:24 04.03.2021
1841 Clear 15 1024 33 10000 0.63 117 19:58 04.03.2021
1842 Clear 15 1024 33 10000 0.63 117 19:39 04.03.2021
1843 Clear 14 1024 33 10000 0.53 168 19:21 04.03.2021
1844 Clear 13 1023 40 10000 0.6 106 18:45 04.03.2021
1845 Clear 12 1023 40 10000 0.61 127 18:24 04.03.2021
1846 Clear 11 1023 40 10000 0.61 127 17:46 04.03.2021
1847 Clear 11 1023 40 10000 0.92 180 17:28 04.03.2021
1848 Clear 9 1021 49 10000 2.06 240 16:47 04.03.2021
1849 Clear 8 1021 49 10000 2.06 240 16:28 04.03.2021
1850 Clouds 6 1020 53 10000 2.57 240 15:50 04.03.2021
1851 Clouds 6 1020 53 10000 2.57 240 15:31 04.03.2021
1852 Clear 7 1019 49 10000 2.57 210 14:49 04.03.2021
1853 Clear 7 1019 49 10000 2.57 210 14:26 04.03.2021
1854 Clear 7 1018 49 10000 2.06 240 13:48 04.03.2021
1855 Clear 8 1018 49 10000 2.06 240 13:30 04.03.2021
1856 Clouds 8 1017 46 10000 3.09 220 12:53 04.03.2021
1857 Clouds 8 1017 46 10000 3.09 220 12:35 04.03.2021
1858 Clouds 8 1016 46 10000 4.12 180 11:47 04.03.2021
1859 Clouds 9 1016 46 10000 4.12 180 11:25 04.03.2021
1860 Clouds 9 1015 43 10000 4.63 180 10:47 04.03.2021
1861 Clouds 10 1015 43 10000 4.63 180 10:26 04.03.2021
1862 Clouds 10 1015 43 10000 3.09 200 09:39 04.03.2021
1863 Clouds 10 1014 40 10000 5.14 200 08:59 04.03.2021
1864 Clouds 10 1014 40 10000 5.14 200 08:35 04.03.2021
1865 Clouds 10 1013 40 10000 5.14 200 07:53 04.03.2021
1866 Clouds 11 1013 40 10000 5.14 200 07:28 04.03.2021
1867 Clouds 11 1012 37 10000 5.14 200 06:24 04.03.2021
1868 Clouds 14 1008 28 10000 4.12 170 03:25 04.03.2021
1869 Clouds 18 1006 10 10000 7.72 190 01:41 04.03.2021
1870 Clouds 18 1008 11 10000 2.06 320 22:44 03.03.2021
1871 Clouds 18 1008 11 10000 2.06 320 22:26 03.03.2021
1872 Clouds 18 1009 12 10000 8.08 160 21:44 03.03.2021
1873 Clouds 18 1009 12 10000 5.23 149 21:24 03.03.2021
1874 Clouds 18 1010 11 10000 4.12 60 20:59 03.03.2021
1875 Clouds 18 1010 11 10000 4.12 60 20:41 03.03.2021
1876 Clouds 16 1011 11 10000 3.62 116 19:59 03.03.2021
1877 Clouds 16 1011 11 10000 3.62 116 19:40 03.03.2021
1878 Clouds 16 1011 11 10000 2.48 93 19:21 03.03.2021
1879 Clear 15 1012 14 10000 2.48 93 18:46 03.03.2021
1880 Clear 14 1012 14 10000 1.89 54 18:25 03.03.2021
1881 Clear 13 1012 16 10000 1.89 54 17:50 03.03.2021
1882 Clear 12 1012 16 10000 1.34 23 17:18 03.03.2021
1883 Clear 9 1012 21 10000 2.06 290 16:44 03.03.2021
1884 Clear 8 1012 21 10000 2.06 290 16:23 03.03.2021
1885 Clear 6 1012 23 10000 2.57 270 15:34 03.03.2021
1886 Clear 6 1012 23 10000 2.06 240 14:58 03.03.2021
1887 Clear 6 1012 23 10000 2.06 240 14:30 03.03.2021
1888 Clear 6 1012 23 10000 2.06 220 13:53 03.03.2021
1889 Clear 6 1012 23 10000 2.06 220 13:33 03.03.2021
1890 Clear 7 1012 21 10000 2.06 270 12:46 03.03.2021
1891 Clear 7 1012 21 10000 2.06 270 12:46 03.03.2021
1892 Clear 7 1012 21 10000 2.06 270 12:28 03.03.2021
1893 Clear 7 1012 21 10000 2.57 220 11:48 03.03.2021
1894 Clear 8 1012 21 10000 2.57 220 11:28 03.03.2021
1895 Clouds 8 1013 18 10000 1.54 240 10:50 03.03.2021
1896 Clouds 8 1013 18 10000 1.54 240 10:31 03.03.2021
1897 Clouds 9 1013 18 10000 2.57 210 09:50 03.03.2021
1898 Clouds 9 1013 18 10000 2.57 210 09:31 03.03.2021
1899 Clouds 9 1013 17 10000 0.44 17 08:44 03.03.2021
1900 Clouds 9 1013 17 10000 0.35 344 08:22 03.03.2021
1901 Clouds 10 1013 16 10000 0.35 344 07:50 03.03.2021
1902 Clouds 11 1013 15 10000 2.06 220 06:51 03.03.2021
1903 Clouds 12 1013 14 10000 2.57 240 05:49 03.03.2021
1904 Clear 13 1011 12 10000 1.54 290 04:59 03.03.2021
1905 Clear 13 1011 12 10000 1.54 290 04:35 03.03.2021
1906 Clouds 15 1012 9 10000 1.33 318 03:51 03.03.2021
1907 Clouds 19 1015 7 10000 2.57 360 23:59 02.03.2021
1908 Clouds 19 1015 7 10000 2.57 360 23:31 02.03.2021
1909 Clouds 19 1016 9 10000 1.54 40 22:42 02.03.2021
1910 Clouds 18 1016 9 10000 1.54 40 22:19 02.03.2021
1911 Clouds 18 1018 9 10000 3.09 0 21:41 02.03.2021
1912 Clouds 18 1018 9 10000 3.09 0 21:22 02.03.2021
1913 Clouds 17 1019 11 10000 3.6 40 20:47 02.03.2021
1914 Clouds 16 1019 11 10000 3.6 40 20:22 02.03.2021
1915 Clouds 15 1020 12 10000 1.54 100 19:56 02.03.2021
1916 Clouds 15 1020 12 10000 1.54 100 19:38 02.03.2021
1917 Clouds 14 1020 12 10000 1.54 100 19:18 02.03.2021
1918 Clouds 13 1020 16 10000 1.61 43 18:40 02.03.2021
1919 Clouds 13 1020 16 10000 1.27 20 18:21 02.03.2021
1920 Clouds 11 1020 21 10000 1.27 20 17:49 02.03.2021
1921 Clouds 11 1020 21 10000 1.27 20 17:30 02.03.2021
1922 Clouds 11 1020 21 10000 1.27 20 17:30 02.03.2021
1923 Clouds 11 1020 21 10000 1.27 20 17:30 02.03.2021
1924 Clouds 6 1020 21 10000 1.54 220 16:54 02.03.2021
1925 Clouds 5 1020 21 10000 1.54 220 16:22 02.03.2021
1926 Clouds 4 1020 22 10000 2.57 220 15:49 02.03.2021
1927 Clouds 4 1020 22 10000 2.57 220 15:22 02.03.2021
1928 Clouds 4 1020 26 10000 2.06 220 14:23 02.03.2021
1929 Clouds 4 1020 24 10000 2.06 250 13:49 02.03.2021
1930 Clouds 4 1020 24 10000 2.06 250 13:30 02.03.2021
1931 Clear 5 1020 19 10000 2.06 230 12:51 02.03.2021
1932 Clear 5 1020 19 10000 2.06 230 12:51 02.03.2021
1933 Clear 5 1020 19 10000 2.06 230 12:29 02.03.2021
1934 Clear 5 1021 21 10000 2.06 200 11:53 02.03.2021
1935 Clear 5 1021 21 10000 2.06 200 11:30 02.03.2021
1936 Clear 6 1022 18 10000 1.54 250 10:57 02.03.2021
1937 Clear 6 1022 18 10000 1.54 250 10:31 02.03.2021
1938 Clear 7 1022 19 10000 2.06 240 09:44 02.03.2021
1939 Clear 7 1022 19 10000 2.06 240 09:25 02.03.2021
1940 Clear 7 1022 17 10000 2.06 210 08:56 02.03.2021
1941 Clear 7 1022 17 10000 2.06 210 08:35 02.03.2021
1942 Clear 8 1023 18 10000 0.62 344 07:52 02.03.2021
1943 Clear 8 1023 15 10000 2.06 240 06:50 02.03.2021
1944 Clear 9 1021 15 10000 1.54 280 05:54 02.03.2021
1945 Clear 9 1021 15 10000 1.54 280 05:33 02.03.2021
1946 Clouds 11 1022 10 10000 1.08 355 04:58 02.03.2021
1947 Clouds 15 1023 9 10000 1.54 0 01:43 02.03.2021
1948 Clouds 15 1023 9 10000 1.54 0 01:43 02.03.2021
1949 Clouds 15 1023 9 10000 1.54 0 01:43 02.03.2021
1950 Clouds 15 1023 9 10000 1.54 0 01:43 02.03.2021
1951 Clouds 16 1023 9 10000 1.54 0 01:22 02.03.2021
1952 Clear 15 1024 10 10000 0.97 89 23:40 01.03.2021
1953 Clear 15 1024 10 10000 1.52 65 23:19 01.03.2021
1954 Clear 14 1025 12 10000 1.54 0 22:38 01.03.2021
1955 Clear 13 1025 12 10000 1.54 0 22:19 01.03.2021
1956 Clear 14 1027 12 10000 2.06 80 21:42 01.03.2021
1957 Clear 13 1027 12 10000 2.06 80 21:23 01.03.2021
1958 Clear 13 1027 12 10000 2.06 80 21:23 01.03.2021
1959 Clear 12 1028 13 10000 3.09 80 20:45 01.03.2021
1960 Clear 12 1028 13 10000 3.09 80 20:26 01.03.2021
1961 Clear 12 1029 13 10000 3.6 30 19:45 01.03.2021
1962 Clear 11 1029 13 10000 3.6 30 19:26 01.03.2021
1963 Clear 10 1029 14 10000 1.85 42 18:44 01.03.2021
1964 Clear 10 1029 14 10000 1.39 47 18:23 01.03.2021
1965 Clear 9 1028 17 10000 1.54 130 17:48 01.03.2021
1966 Clear 8 1028 17 10000 1.54 130 17:23 01.03.2021
1967 Clear 5 1028 20 10000 0.27 40 16:47 01.03.2021
1968 Clear 5 1028 20 10000 0.27 40 16:47 01.03.2021
1969 Clear 4 1028 20 10000 0.25 330 16:29 01.03.2021
1970 Clear 3 1027 22 10000 0.25 330 15:56 01.03.2021
1971 Clear 3 1027 22 10000 0.25 330 15:36 01.03.2021
1972 Clear 2 1027 22 10000 0.67 38 15:18 01.03.2021
1973 Clear 2 1027 20 10000 0.67 38 14:39 01.03.2021
1974 Clear 3 1026 20 10000 1.16 50 13:57 01.03.2021
1975 Clear 3 1026 20 10000 1.16 50 13:37 01.03.2021
1976 Clear 3 1026 20 10000 1.01 51 13:19 01.03.2021
1977 Clear 4 1026 20 10000 2.57 260 12:42 01.03.2021
1978 Clear 3 1026 20 10000 2.57 260 12:24 01.03.2021
1979 Clear 3 1027 22 10000 2.57 270 11:49 01.03.2021
1980 Clear 4 1027 22 10000 2.57 270 11:23 01.03.2021
1981 Clear 4 1027 22 10000 2.57 270 11:23 01.03.2021
1982 Clear 4 1027 19 10000 2.06 240 10:37 01.03.2021
1983 Clear 4 1027 19 10000 2.06 240 10:19 01.03.2021
1984 Clear 4 1027 16 10000 1.54 300 09:50 01.03.2021
1985 Clear 4 1027 16 10000 1.54 300 09:28 01.03.2021
1986 Clear 5 1026 16 10000 2.06 200 08:55 01.03.2021
1987 Clear 5 1026 16 10000 2.06 200 08:55 01.03.2021
1988 Clear 5 1026 16 10000 2.06 200 08:22 01.03.2021
1989 Clear 6 1026 14 10000 3.09 230 07:19 01.03.2021
1990 Clear 6 1026 15 10000 2.06 250 06:24 01.03.2021
1991 Clouds 11 1025 10 10000 4.63 60 02:38 01.03.2021
1992 Clouds 13 1026 12 10000 2.06 0 23:44 28.02.2021
1993 Clouds 12 1026 13 10000 2.57 20 22:57 28.02.2021
1994 Clouds 12 1026 13 10000 2.57 20 22:37 28.02.2021
1995 Clouds 11 1026 13 10000 2.57 20 22:18 28.02.2021
1996 Clouds 11 1027 15 10000 7.72 10 21:37 28.02.2021
1997 Clouds 11 1027 15 10000 7.72 10 21:18 28.02.2021
1998 Clouds 10 1027 18 10000 6.69 330 20:39 28.02.2021
1999 Clouds 10 1027 18 10000 6.69 330 20:18 28.02.2021
2000 Clouds 9 1027 19 10000 6.17 350 19:46 28.02.2021
2001 Clouds 9 1027 19 10000 6.17 350 19:24 28.02.2021
2002 Clouds 8 1027 21 10000 6.69 10 18:44 28.02.2021
2003 Clouds 7 1027 21 10000 6.69 10 18:26 28.02.2021
2004 Clouds 6 1027 22 10000 7.72 350 17:51 28.02.2021
2005 Clouds 6 1027 22 10000 7.72 350 17:28 28.02.2021
2006 Clouds 6 1027 22 10000 7.72 350 17:28 28.02.2021
2007 Clear 5 1026 22 10000 8.23 360 16:56 28.02.2021
2008 Clear 5 1026 22 10000 8.23 360 16:38 28.02.2021
2009 Clear 5 1026 22 10000 8.23 360 16:18 28.02.2021
2010 Clear 4 1025 24 10000 8.75 340 15:47 28.02.2021
2011 Clear 4 1025 24 10000 8.75 340 15:24 28.02.2021
2012 Clouds 4 1024 24 10000 6.69 340 14:52 28.02.2021
2013 Clouds 4 1024 24 10000 6.69 340 14:29 28.02.2021
2014 Clouds 4 1024 22 10000 7.2 340 13:52 28.02.2021
2015 Clouds 5 1024 22 10000 7.2 340 13:21 28.02.2021
2016 Clouds 5 1023 22 10000 8.23 350 12:57 28.02.2021
2017 Clouds 5 1023 22 10000 8.23 350 12:39 28.02.2021
2018 Clouds 5 1023 22 10000 8.23 350 12:20 28.02.2021
2019 Clouds 5 1023 22 10000 6.69 340 11:52 28.02.2021
2020 Clouds 5 1023 22 10000 6.69 340 11:26 28.02.2021
2021 Clouds 5 1022 21 10000 5.14 340 10:57 28.02.2021
2022 Clouds 6 1022 21 10000 5.14 340 10:29 28.02.2021
2023 Clouds 6 1022 19 10000 5.66 340 09:56 28.02.2021
2024 Clouds 6 1022 19 10000 5.66 340 09:34 28.02.2021
2025 Clouds 7 1021 19 10000 9.77 330 08:52 28.02.2021
2026 Clouds 7 1021 19 10000 9.77 330 08:33 28.02.2021
2027 Clouds 7 1021 18 10000 5.66 360 07:57 28.02.2021
2028 Clouds 8 1021 18 10000 5.66 360 07:39 28.02.2021
2029 Clouds 8 1021 18 10000 5.66 360 07:18 28.02.2021
2030 Clouds 8 1020 14 10000 5.66 30 06:23 28.02.2021
2031 Clouds 11 1015 13 10000 9.26 360 03:46 28.02.2021
2032 Clouds 13 1014 9 10000 8.23 360 02:20 28.02.2021
2033 Clouds 14 1013 11 10000 6.69 50 00:58 28.02.2021
2034 Clouds 14 1013 11 10000 6.69 50 00:58 28.02.2021
2035 Clouds 15 1013 11 10000 6.69 50 00:37 28.02.2021
2036 Clouds 15 1013 12 10000 5.14 20 23:48 27.02.2021
2037 Clouds 15 1013 12 10000 5.14 20 23:20 27.02.2021
2038 Clouds 15 1014 13 10000 3.6 360 22:49 27.02.2021
2039 Clouds 15 1014 13 10000 3.6 30 22:23 27.02.2021
2040 Clouds 14 1015 15 10000 6.17 40 21:51 27.02.2021
2041 Clouds 14 1015 15 10000 6.17 40 21:33 27.02.2021
2042 Clouds 13 1016 16 10000 3.09 0 20:54 27.02.2021
2043 Clouds 13 1016 16 10000 3.09 0 20:34 27.02.2021
2044 Clear 12 1017 17 10000 5.14 70 19:55 27.02.2021
2045 Clear 12 1017 17 10000 5.14 70 19:37 27.02.2021
2046 Clear 12 1017 17 10000 5.14 70 19:19 27.02.2021
2047 Clear 10 1016 18 10000 6.69 70 18:37 27.02.2021
2048 Clear 10 1016 18 10000 6.69 70 18:18 27.02.2021
2049 Clouds 9 1016 21 10000 8.23 60 17:42 27.02.2021
2050 Clouds 9 1016 21 10000 8.23 60 17:19 27.02.2021
2051 Clouds 8 1015 25 10000 7.72 50 16:50 27.02.2021
2052 Clouds 8 1015 25 10000 7.72 50 16:30 27.02.2021
2053 Clouds 8 1015 25 10000 7.72 50 16:30 27.02.2021
2054 Clouds 7 1014 27 10000 8.23 60 15:47 27.02.2021
2055 Clouds 7 1014 27 10000 8.23 60 15:20 27.02.2021
2056 Clouds 8 1013 23 10000 10.29 20 14:41 27.02.2021
2057 Clouds 8 1013 23 10000 10.29 20 14:22 27.02.2021
2058 Clouds 9 1012 23 10000 6.17 60 13:47 27.02.2021
2059 Clouds 9 1012 23 10000 6.17 60 13:22 27.02.2021
2060 Clouds 10 1011 17 10000 9.26 360 12:49 27.02.2021
2061 Clouds 10 1011 17 10000 9.26 360 12:26 27.02.2021
2062 Clouds 11 1010 14 10000 10.29 340 11:54 27.02.2021
2063 Clouds 11 1010 14 10000 10.29 340 11:31 27.02.2021
2064 Clouds 11 1010 14 10000 6.69 350 10:53 27.02.2021
2065 Clouds 11 1010 14 10000 6.69 350 10:35 27.02.2021
2066 Clouds 12 1009 12 10000 7.2 340 09:54 27.02.2021
2067 Clouds 12 1009 12 10000 7.2 340 09:33 27.02.2021
2068 Clouds 13 1008 9 10000 8.75 350 08:44 27.02.2021
2069 Clouds 13 1008 9 10000 8.75 350 08:24 27.02.2021
2070 Clouds 13 1008 10 10000 3.12 344 07:59 27.02.2021
2071 Clouds 13 1008 10 10000 3.12 344 07:31 27.02.2021
2072 Clouds 19 1008 5 10000 6.17 220 02:31 27.02.2021
2073 Clear 19 1010 7 10000 2.57 40 00:32 27.02.2021
2074 Clear 18 1013 8 10000 3.6 100 23:41 26.02.2021
2075 Clear 18 1013 8 10000 3.6 100 23:23 26.02.2021
2076 Clear 17 1015 9 10000 3.09 80 22:38 26.02.2021
2077 Clear 16 1015 9 10000 3.09 80 22:19 26.02.2021
2078 Clear 15 1017 9 10000 2.06 30 21:36 26.02.2021
2079 Clear 14 1018 9 10000 1.67 159 20:57 26.02.2021
2080 Clear 14 1018 9 10000 1.67 159 20:38 26.02.2021
2081 Clear 13 1018 9 10000 1.84 160 20:19 26.02.2021
2082 Clear 13 1018 9 10000 1.84 160 20:19 26.02.2021
2083 Clear 12 1019 11 10000 1.54 0 19:27 26.02.2021
2084 Clear 11 1020 12 10000 1.6 130 18:57 26.02.2021
2085 Clear 11 1020 12 10000 1.47 132 18:36 26.02.2021
2086 Clear 10 1020 12 10000 1.45 100 18:18 26.02.2021
2087 Clear 8 1020 16 10000 2.06 310 17:38 26.02.2021
2088 Clear 8 1020 16 10000 2.06 310 17:19 26.02.2021
2089 Clear 3 1019 20 10000 1.54 200 16:46 26.02.2021
2090 Clear 3 1019 20 10000 1.54 200 16:28 26.02.2021
2091 Clouds 2 1019 20 10000 2.57 220 15:45 26.02.2021
2092 Clouds 2 1019 20 10000 2.57 220 15:27 26.02.2021
2093 Clear 2 1019 18 10000 1.54 240 14:58 26.02.2021
2094 Clear 2 1019 18 10000 1.54 240 14:36 26.02.2021
2095 Clear 3 1019 20 10000 1.54 200 13:59 26.02.2021
2096 Clear 3 1019 20 10000 1.54 200 13:39 26.02.2021
2097 Clear 3 1019 20 10000 1.54 180 12:58 26.02.2021
2098 Clear 3 1019 20 10000 1.54 180 12:31 26.02.2021
2099 Clear 4 1019 17 10000 2.06 220 11:47 26.02.2021
2100 Clear 4 1019 17 10000 2.06 220 11:20 26.02.2021
2101 Clear 4 1019 17 10000 2.06 220 11:20 26.02.2021
2102 Clear 4 1019 14 10000 2.06 190 10:44 26.02.2021
2103 Clear 5 1019 13 10000 1.54 0 09:49 26.02.2021
2104 Clear 6 1019 13 10000 1.54 0 09:29 26.02.2021
2105 Clear 6 1019 14 10000 4.12 220 08:41 26.02.2021
2106 Clouds 6 1020 13 10000 2.06 200 07:59 26.02.2021
2107 Clouds 6 1020 13 10000 2.06 200 07:59 26.02.2021
2108 Clouds 6 1020 13 10000 2.06 200 07:27 26.02.2021
2109 Clouds 8 1020 12 10000 2.06 220 06:35 26.02.2021
2110 Clouds 8 1020 11 10000 2.57 260 05:20 26.02.2021
2111 Clouds 12 1020 7 10000 4.12 30 02:54 26.02.2021
2112 Clouds 14 1021 9 10000 4.63 340 00:36 26.02.2021
2113 Clear 14 1022 9 10000 2.57 70 23:41 25.02.2021
2114 Clear 14 1022 9 10000 2.57 70 23:21 25.02.2021
2115 Clouds 13 1023 11 10000 6.17 40 22:42 25.02.2021
2116 Clouds 13 1025 11 10000 6.69 10 21:56 25.02.2021
2117 Clouds 12 1025 11 10000 6.69 10 21:35 25.02.2021
2118 Clouds 11 1026 11 10000 7.72 340 20:58 25.02.2021
2119 Clouds 11 1026 11 10000 7.72 340 20:38 25.02.2021
2120 Clouds 11 1026 11 10000 7.72 340 20:20 25.02.2021
2121 Clear 10 1027 14 10000 7.72 360 19:49 25.02.2021
2122 Clear 10 1027 14 10000 7.72 360 19:21 25.02.2021
2123 Clear 9 1027 15 10000 7.2 350 18:48 25.02.2021
2124 Clear 8 1027 15 10000 7.2 350 18:18 25.02.2021
2125 Clear 7 1028 18 10000 8.23 340 17:42 25.02.2021
2126 Clear 7 1028 18 10000 8.23 340 17:23 25.02.2021
2127 Clear 6 1027 22 10000 9.77 340 16:38 25.02.2021
2128 Clear 5 1027 22 10000 9.77 340 16:20 25.02.2021
2129 Clear 5 1027 22 10000 10.29 340 15:29 25.02.2021
2130 Clear 5 1027 24 10000 9.26 340 14:41 25.02.2021
2131 Clear 5 1027 24 10000 9.26 340 14:21 25.02.2021
2132 Clear 6 1027 26 10000 9.26 350 13:49 25.02.2021
2133 Clear 6 1027 26 10000 9.26 350 13:24 25.02.2021
2134 Clear 6 1026 24 10000 11.83 340 12:46 25.02.2021
2135 Clear 6 1026 24 10000 11.83 340 12:21 25.02.2021
2136 Clear 6 1026 24 10000 11.32 340 11:43 25.02.2021
2137 Clear 7 1026 23 10000 8.75 340 10:58 25.02.2021
2138 Clear 7 1026 23 10000 8.75 340 10:37 25.02.2021
2139 Clear 7 1025 19 10000 10.8 360 09:53 25.02.2021
2140 Clear 7 1025 19 10000 10.8 360 09:34 25.02.2021
2141 Clear 8 1024 15 10000 13.89 340 08:46 25.02.2021
2142 Clear 8 1024 15 10000 13.89 340 08:21 25.02.2021
2143 Clear 9 1023 14 10000 16.46 360 07:43 25.02.2021
2144 Clear 9 1023 14 10000 16.46 360 07:19 25.02.2021
2145 Clear 12 1019 16 10000 14.4 350 05:55 25.02.2021
2146 Clear 21 1013 6 10000 3.09 350 01:52 25.02.2021
2147 Clear 22 1012 6 10000 5.14 240 01:27 25.02.2021
2148 Clear 22 1014 6 10000 5.14 230 00:33 25.02.2021
2149 Clear 22 1013 7 10000 2.57 0 23:40 24.02.2021
2150 Clear 21 1015 7 10000 3.1 318 22:56 24.02.2021
2151 Clear 21 1015 7 10000 1.76 313 22:30 24.02.2021
2152 Clear 20 1016 9 10000 2.06 0 21:52 24.02.2021
2153 Clear 20 1016 9 10000 2.06 0 21:33 24.02.2021
2154 Clear 19 1017 11 10000 0.53 317 20:50 24.02.2021
2155 Clear 19 1017 11 10000 0.45 349 20:28 24.02.2021
2156 Clear 17 1018 12 10000 0.45 349 19:51 24.02.2021
2157 Clear 17 1018 12 10000 0.37 51 19:21 24.02.2021
2158 Clear 16 1018 15 10000 0.65 68 18:54 24.02.2021
2159 Clear 15 1018 15 10000 0.65 68 18:32 24.02.2021
2160 Clear 13 1018 20 10000 0.64 10 17:45 24.02.2021
2161 Clear 13 1018 20 10000 1.1 332 17:25 24.02.2021
2162 Clear 10 1018 20 10000 1.1 332 16:48 24.02.2021
2163 Clear 9 1018 20 10000 1.07 338 16:21 24.02.2021
2164 Clouds 8 1017 20 10000 2.06 210 15:56 24.02.2021
2165 Clouds 8 1017 20 10000 2.06 210 15:35 24.02.2021
2166 Clear 8 1017 23 10000 2.06 250 14:52 24.02.2021
2167 Clear 8 1017 23 10000 2.06 250 14:30 24.02.2021
2168 Clear 9 1017 20 10000 2.06 290 13:55 24.02.2021
2169 Clear 9 1017 20 10000 2.06 290 13:37 24.02.2021
2170 Clear 9 1017 20 10000 2.06 290 13:18 24.02.2021
2171 Clear 9 1017 18 10000 2.57 190 12:41 24.02.2021
2172 Clear 10 1017 18 10000 2.57 190 12:23 24.02.2021
2173 Clear 10 1017 15 10000 1.54 200 11:36 24.02.2021
2174 Clouds 12 1017 15 10000 2.06 0 10:47 24.02.2021
2175 Clouds 12 1017 15 10000 2.06 0 10:26 24.02.2021
2176 Clouds 11 1017 17 10000 1.54 260 09:30 24.02.2021
2177 Clouds 13 1017 17 10000 3.09 180 08:51 24.02.2021
2178 Clouds 13 1017 17 10000 3.09 180 08:32 24.02.2021
2179 Clouds 15 1017 10 10000 2.06 330 07:42 24.02.2021
2180 Clouds 15 1017 10 10000 2.06 330 07:18 24.02.2021
2181 Clouds 17 1016 11 10000 3.09 300 05:27 24.02.2021
2182 Clouds 21 1015 14 10000 4.63 80 02:22 24.02.2021
2183 Clouds 23 1016 14 10000 1.54 50 23:39 23.02.2021
2184 Clouds 22 1016 14 10000 2.06 30 22:50 23.02.2021
2185 Clouds 22 1016 14 10000 2.06 30 22:23 23.02.2021
2186 Clouds 20 1018 16 10000 2.06 0 21:49 23.02.2021
2187 Clouds 20 1018 16 10000 2.06 0 21:26 23.02.2021
2188 Clouds 19 1019 17 10000 2.06 110 20:59 23.02.2021
2189 Clouds 19 1019 17 10000 2.06 110 20:38 23.02.2021
2190 Clouds 18 1019 17 10000 2.06 110 20:19 23.02.2021
2191 Clouds 18 1019 20 10000 3.09 70 19:44 23.02.2021
2192 Clouds 17 1019 20 10000 3.09 70 19:26 23.02.2021
2193 Clouds 16 1020 23 10000 0.63 243 18:44 23.02.2021
2194 Clouds 15 1020 23 10000 1.22 339 18:25 23.02.2021
2195 Clouds 14 1020 26 10000 1.54 180 17:52 23.02.2021
2196 Clouds 13 1020 26 10000 1.54 180 17:27 23.02.2021
2197 Clouds 10 1019 34 10000 1.17 329 16:46 23.02.2021
2198 Clouds 8 1019 34 10000 1.22 334 16:23 23.02.2021
2199 Clouds 8 1019 34 10000 2.06 220 15:49 23.02.2021
2200 Clouds 8 1019 34 10000 2.06 220 15:29 23.02.2021
2201 Clouds 8 1019 34 10000 2.57 200 14:50 23.02.2021
2202 Clouds 8 1019 34 10000 2.57 200 14:28 23.02.2021
2203 Clear 8 1019 29 10000 1.54 230 13:59 23.02.2021
2204 Clear 8 1019 29 10000 1.54 230 13:36 23.02.2021
2205 Clear 8 1019 29 10000 2.06 210 12:57 23.02.2021
2206 Clear 8 1019 29 10000 2.06 210 12:28 23.02.2021
2207 Clear 9 1019 27 10000 2.06 210 11:58 23.02.2021
2208 Clear 9 1019 27 10000 2.06 210 11:26 23.02.2021
2209 Clear 9 1020 27 10000 2.57 210 10:55 23.02.2021
2210 Clear 9 1020 27 10000 2.57 210 10:37 23.02.2021
2211 Clear 10 1021 25 10000 2.57 210 09:57 23.02.2021
2212 Clear 10 1021 25 10000 2.57 210 09:36 23.02.2021
2213 Clear 10 1021 25 10000 2.57 210 09:36 23.02.2021
2214 Clear 10 1021 25 10000 2.57 210 09:18 23.02.2021
2215 Clear 11 1021 25 10000 2.06 200 08:43 23.02.2021
2216 Clear 11 1021 25 10000 2.06 200 08:20 23.02.2021
2217 Clear 12 1022 21 10000 2.06 210 06:52 23.02.2021
2218 Clear 13 1022 20 10000 2.06 240 05:25 23.02.2021
2219 Clouds 17 1022 14 10000 2.57 330 02:37 23.02.2021
2220 Clear 18 1023 14 10000 3.09 360 01:55 23.02.2021
2221 Clear 19 1024 14 10000 3.09 30 00:19 23.02.2021
2222 Clear 18 1025 15 10000 2.06 40 23:28 22.02.2021
2223 Clouds 17 1026 16 10000 3.09 0 22:42 22.02.2021
2224 Clouds 17 1026 16 10000 3.09 0 22:21 22.02.2021
2225 Clouds 17 1028 16 10000 2.06 0 21:56 22.02.2021
2226 Clouds 16 1028 16 10000 2.06 0 21:37 22.02.2021
2227 Clouds 16 1028 16 10000 2.06 0 21:19 22.02.2021
2228 Clouds 16 1029 18 10000 2.06 80 20:42 22.02.2021
2229 Clouds 15 1029 18 10000 2.06 80 20:23 22.02.2021
2230 Clouds 14 1030 19 10000 3.6 40 19:39 22.02.2021
2231 Clouds 14 1030 19 10000 3.6 40 19:21 22.02.2021
2232 Clouds 13 1030 21 10000 6.17 340 18:46 22.02.2021
2233 Clouds 12 1030 21 10000 6.17 340 18:28 22.02.2021
2234 Clouds 10 1030 25 10000 1.63 10 17:43 22.02.2021
2235 Clouds 10 1030 25 10000 1.45 356 17:18 22.02.2021
2236 Clouds 8 1030 28 10000 3.09 210 16:47 22.02.2021
2237 Clouds 6 1030 28 10000 3.09 210 16:25 22.02.2021
2238 Clear 5 1029 30 10000 1.54 260 15:31 22.02.2021
2239 Clear 4 1029 28 10000 3.09 220 14:49 22.02.2021
2240 Clear 5 1029 28 10000 3.09 220 14:30 22.02.2021
2241 Clear 5 1029 28 10000 2.57 240 13:50 22.02.2021
2242 Clear 5 1029 28 10000 2.57 240 13:25 22.02.2021
2243 Clear 6 1029 28 10000 3.09 170 12:44 22.02.2021
2244 Clear 6 1029 28 10000 3.09 170 12:22 22.02.2021
2245 Clear 6 1030 26 10000 1.54 210 11:45 22.02.2021
2246 Clear 6 1030 26 10000 1.54 210 11:25 22.02.2021
2247 Clear 7 1030 26 10000 2.06 210 10:50 22.02.2021
2248 Clear 7 1030 26 10000 2.06 210 10:28 22.02.2021
2249 Clear 7 1029 25 10000 3.09 270 09:50 22.02.2021
2250 Clear 7 1029 25 10000 3.09 270 09:30 22.02.2021
2251 Clear 7 1029 23 10000 3.09 240 08:57 22.02.2021
2252 Clear 7 1029 23 10000 3.09 240 08:38 22.02.2021
2253 Clear 8 1029 23 10000 2.18 349 07:59 22.02.2021
2254 Clear 8 1029 23 10000 2.38 347 07:27 22.02.2021
2255 Clear 8 1029 23 10000 2.06 280 06:46 22.02.2021
2256 Clear 9 1028 19 10000 2.57 270 05:46 22.02.2021
2257 Clear 12 1027 17 10000 1.54 110 03:44 22.02.2021
2258 Clear 13 1027 15 10000 2.06 110 02:52 22.02.2021
2259 Clouds 15 1028 15 10000 1.54 40 00:49 22.02.2021
2260 Clouds 15 1028 15 10000 1.54 40 00:24 22.02.2021
2261 Clouds 16 1028 14 10000 3.6 20 23:35 21.02.2021
2262 Clouds 15 1029 18 10000 3.6 360 22:54 21.02.2021
2263 Clouds 15 1029 18 10000 3.6 360 22:24 21.02.2021
2264 Clouds 14 1030 21 10000 3.6 30 21:48 21.02.2021
2265 Clouds 13 1030 21 10000 3.6 30 21:30 21.02.2021
2266 Clouds 13 1030 21 10000 4.63 20 20:49 21.02.2021
2267 Clouds 13 1030 21 10000 4.63 20 20:20 21.02.2021
2268 Clouds 12 1031 22 10000 4.63 30 19:57 21.02.2021
2269 Clouds 12 1031 22 10000 4.63 30 19:36 21.02.2021
2270 Clouds 12 1031 22 10000 4.63 30 19:18 21.02.2021
2271 Clouds 11 1031 25 10000 4.12 50 18:26 21.02.2021
2272 Clouds 10 1030 29 10000 4.63 40 17:47 21.02.2021
2273 Clouds 9 1030 29 10000 4.63 40 17:20 21.02.2021
2274 Clear 8 1029 29 10000 6.17 20 16:47 21.02.2021
2275 Clear 7 1029 29 10000 6.17 20 16:26 21.02.2021
2276 Clear 6 1028 31 10000 5.66 30 15:25 21.02.2021
2277 Clear 6 1028 31 10000 5.66 30 15:25 21.02.2021
2278 Clear 7 1028 27 10000 6.69 340 14:58 21.02.2021
2279 Clear 7 1028 27 10000 6.69 340 14:37 21.02.2021
2280 Clear 7 1028 27 10000 6.69 340 14:37 21.02.2021
2281 Clear 7 1027 27 10000 5.66 340 13:57 21.02.2021
2282 Clear 8 1027 27 10000 5.66 340 13:29 21.02.2021
2283 Clear 8 1027 23 10000 7.72 340 12:49 21.02.2021
2284 Clear 8 1027 23 10000 7.72 340 12:26 21.02.2021
2285 Clear 8 1026 25 10000 6.17 340 11:42 21.02.2021
2286 Clear 9 1026 25 10000 8.75 340 10:48 21.02.2021
2287 Clear 9 1026 25 10000 8.75 340 10:22 21.02.2021
2288 Clear 9 1025 25 10000 7.2 340 09:47 21.02.2021
2289 Clear 10 1025 25 10000 7.2 340 09:25 21.02.2021
2290 Clear 10 1024 25 10000 6.17 350 08:37 21.02.2021
2291 Clouds 9 1024 25 10000 2.57 330 07:58 21.02.2021
2292 Clouds 10 1024 25 10000 2.57 330 07:23 21.02.2021
2293 Clouds 10 1023 24 10000 5.14 350 06:24 21.02.2021
2294 Clouds 10 1023 24 10000 5.14 350 06:24 21.02.2021
2295 Clouds 12 1019 26 10000 8.23 330 02:42 21.02.2021
2296 Clouds 14 1017 15 10000 9.77 340 01:20 21.02.2021
2297 Clouds 15 1016 14 10000 12.86 330 00:21 21.02.2021
2298 Clouds 15 1015 18 10000 8.23 330 23:47 20.02.2021
2299 Clouds 14 1015 21 10000 10.8 340 22:58 20.02.2021
2300 Clouds 14 1015 21 10000 10.8 340 22:32 20.02.2021
2301 Clouds 15 1014 18 10000 11.32 340 21:48 20.02.2021
2302 Clouds 15 1014 16 10000 5.66 20 21:29 20.02.2021
2303 Clouds 16 1014 16 10000 8.23 20 20:57 20.02.2021
2304 Clouds 16 1013 23 10000 9.26 260 20:36 20.02.2021
2305 Clouds 15 1013 23 10000 9.26 260 20:18 20.02.2021
2306 Clouds 15 1014 25 10000 9.77 260 19:40 20.02.2021
2307 Clouds 13 1014 21 10000 5.14 280 18:54 20.02.2021
2308 Clouds 13 1014 21 10000 5.14 280 18:31 20.02.2021
2309 Clear 10 1013 23 10000 4.63 20 17:47 20.02.2021
2310 Clear 9 1013 23 10000 4.63 20 17:28 20.02.2021
2311 Clear 9 1012 28 10000 1.54 230 16:48 20.02.2021
2312 Clear 5 1012 28 10000 1.54 230 16:23 20.02.2021
2313 Clear 4 1014 28 10000 2.06 290 15:41 20.02.2021
2314 Clear 4 1014 30 10000 1.54 260 14:52 20.02.2021
2315 Clear 4 1014 30 10000 1.54 260 14:25 20.02.2021
2316 Clear 5 1015 28 10000 0.48 156 13:58 20.02.2021
2317 Clear 5 1015 28 10000 0.48 156 13:39 20.02.2021
2318 Clear 5 1015 28 10000 0.54 154 13:20 20.02.2021
2319 Clear 5 1016 26 10000 0.54 154 12:36 20.02.2021
2320 Clear 6 1017 26 10000 2.57 270 11:51 20.02.2021
2321 Clear 6 1017 26 10000 2.57 270 11:31 20.02.2021
2322 Clear 6 1017 26 10000 2.57 270 11:31 20.02.2021
2323 Clear 6 1017 24 10000 1.54 300 10:50 20.02.2021
2324 Clear 6 1017 24 10000 1.54 300 10:21 20.02.2021
2325 Clear 7 1018 24 10000 2.06 200 09:46 20.02.2021
2326 Clear 7 1019 25 10000 1.54 240 08:53 20.02.2021
2327 Clear 7 1019 25 10000 1.54 240 08:23 20.02.2021
2328 Clouds 10 1020 16 10000 0.21 117 05:45 20.02.2021
2329 Clouds 14 1020 13 10000 3.09 90 02:32 20.02.2021
2330 Clouds 14 1021 12 10000 3.09 70 01:56 20.02.2021
2331 Clouds 16 1021 11 10000 2.06 20 00:59 20.02.2021
2332 Clouds 16 1021 11 10000 2.06 20 00:36 20.02.2021
2333 Clouds 15 1022 12 10000 1.15 86 23:27 19.02.2021
2334 Clouds 15 1023 13 10000 1.54 0 22:45 19.02.2021
2335 Clouds 14 1023 13 10000 1.54 0 22:20 19.02.2021
2336 Clouds 13 1025 15 10000 0.92 65 21:44 19.02.2021
2337 Clouds 13 1025 15 10000 0.8 68 21:23 19.02.2021
2338 Clouds 12 1026 16 10000 1.54 0 20:42 19.02.2021
2339 Clouds 12 1026 16 10000 1.54 0 20:24 19.02.2021
2340 Clouds 11 1027 18 10000 0.76 69 19:45 19.02.2021
2341 Clouds 11 1027 18 10000 0.55 71 19:20 19.02.2021
2342 Clouds 10 1027 21 10000 1.54 20 18:50 19.02.2021
2343 Clouds 10 1027 21 10000 1.54 20 18:26 19.02.2021
2344 Clouds 8 1027 24 10000 0.56 25 17:36 19.02.2021
2345 Clouds 5 1026 30 10000 2.06 220 16:41 19.02.2021
2346 Clouds 4 1026 30 10000 2.06 220 16:22 19.02.2021
2347 Clouds 4 1026 30 10000 2.06 280 15:54 19.02.2021
2348 Clouds 3 1026 30 10000 2.06 280 15:27 19.02.2021
2349 Clouds 3 1026 30 10000 1 2 14:48 19.02.2021
2350 Clouds 3 1026 30 10000 0.8 31 14:27 19.02.2021
2351 Clouds 3 1025 28 10000 1.54 210 13:54 19.02.2021
2352 Clouds 3 1025 28 10000 1.54 210 13:35 19.02.2021
2353 Clouds 4 1025 28 10000 0.42 59 12:52 19.02.2021
2354 Clouds 4 1025 28 10000 0.35 68 12:25 19.02.2021
2355 Clouds 4 1026 26 10000 0.35 68 11:54 19.02.2021
2356 Clouds 4 1026 26 10000 0.05 29 11:26 19.02.2021
2357 Clouds 5 1026 24 10000 0.05 29 10:55 19.02.2021
2358 Clouds 5 1026 24 10000 0.05 29 10:32 19.02.2021
2359 Clouds 5 1027 22 10000 0.27 203 09:52 19.02.2021
2360 Clouds 5 1027 22 10000 0.4 225 09:27 19.02.2021
2361 Clouds 6 1027 23 10000 0.4 225 08:55 19.02.2021
2362 Clouds 6 1027 23 10000 0.67 212 08:26 19.02.2021
2363 Clouds 7 1027 21 10000 2.57 270 07:54 19.02.2021
2364 Clouds 6 1027 21 10000 2.57 270 07:35 19.02.2021
2365 Clouds 7 1027 21 10000 2.06 220 06:55 19.02.2021
2366 Clouds 7 1027 21 10000 2.06 220 06:29 19.02.2021
2367 Clouds 8 1028 17 10000 1.54 130 04:41 19.02.2021
2368 Clouds 8 1028 17 10000 1.54 130 04:41 19.02.2021
2369 Clouds 11 1027 15 10000 1.54 0 01:49 19.02.2021
2370 Clouds 12 1028 15 10000 1.54 100 00:38 19.02.2021
2371 Clear 12 1028 15 10000 1.54 0 23:56 18.02.2021
2372 Clear 12 1028 15 10000 1.54 0 23:35 18.02.2021
2373 Clear 12 1029 15 10000 2.06 40 22:51 18.02.2021
2374 Clear 12 1029 15 10000 2.06 40 22:30 18.02.2021
2375 Clouds 11 1029 17 10000 4.12 70 21:56 18.02.2021
2376 Clouds 11 1029 17 10000 4.12 70 21:28 18.02.2021
2377 Clouds 10 1030 18 10000 2.06 0 20:57 18.02.2021
2378 Clouds 10 1030 18 10000 2.06 0 20:38 18.02.2021
2379 Clouds 10 1030 18 10000 2.06 0 20:18 18.02.2021
2380 Clear 10 1030 18 10000 4.63 20 19:41 18.02.2021
2381 Clear 9 1030 20 10000 5.14 40 19:19 18.02.2021
2382 Clear 8 1030 21 10000 7.72 340 18:43 18.02.2021
2383 Clear 8 1030 21 10000 7.72 340 18:25 18.02.2021
2384 Clouds 7 1030 23 10000 7.72 350 17:43 18.02.2021
2385 Clouds 7 1030 23 10000 7.72 350 17:23 18.02.2021
2386 Clear 5 1029 24 10000 6.17 350 16:42 18.02.2021
2387 Clear 5 1029 24 10000 6.17 350 16:42 18.02.2021
2388 Clear 5 1029 24 10000 6.17 350 16:22 18.02.2021
2389 Clear 4 1028 24 10000 5.66 340 15:41 18.02.2021
2390 Clear 4 1028 24 10000 5.66 340 15:22 18.02.2021
2391 Clear 5 1027 24 10000 8.75 340 14:50 18.02.2021
2392 Clear 4 1027 24 10000 8.75 340 14:30 18.02.2021
2393 Clear 5 1026 22 10000 7.72 340 13:49 18.02.2021
2394 Clear 5 1026 22 10000 7.72 340 13:20 18.02.2021
2395 Clear 5 1026 21 10000 6.69 350 12:53 18.02.2021
2396 Clear 5 1026 21 10000 6.69 350 12:28 18.02.2021
2397 Clear 6 1025 19 10000 6.69 350 11:47 18.02.2021
2398 Clear 6 1025 19 10000 6.69 350 11:27 18.02.2021
2399 Clear 6 1025 19 10000 6.69 340 10:52 18.02.2021
2400 Clear 6 1025 19 10000 6.69 340 10:34 18.02.2021
2401 Clear 6 1024 17 10000 7.2 340 09:57 18.02.2021
2402 Clear 7 1024 17 10000 7.2 340 09:27 18.02.2021
2403 Clear 7 1023 17 10000 5.14 330 08:48 18.02.2021
2404 Clear 7 1023 17 10000 5.14 330 08:29 18.02.2021
2405 Clouds 7 1023 17 10000 6.17 320 07:37 18.02.2021
2406 Clouds 8 1022 18 10000 4.63 40 06:59 18.02.2021
2407 Clouds 9 1019 12 10000 7.2 30 04:48 18.02.2021
2408 Clouds 13 1016 16 10000 10.29 340 23:57 17.02.2021
2409 Clouds 13 1016 16 10000 10.29 340 23:37 17.02.2021
2410 Clouds 13 1016 16 10000 8.75 360 22:56 17.02.2021
2411 Clouds 13 1016 16 10000 8.75 360 22:29 17.02.2021
2412 Clouds 13 1017 16 10000 10.29 350 21:58 17.02.2021
2413 Clouds 13 1017 16 10000 10.29 350 21:23 17.02.2021
2414 Clouds 12 1017 17 10000 7.2 340 20:56 17.02.2021
2415 Clouds 12 1017 17 10000 7.2 340 20:37 17.02.2021
2416 Clouds 12 1017 19 10000 6.17 360 19:55 17.02.2021
2417 Clouds 12 1017 19 10000 6.17 360 19:35 17.02.2021
2418 Clouds 11 1017 25 10000 4.63 60 18:52 17.02.2021
2419 Clouds 10 1017 25 10000 4.63 60 18:33 17.02.2021
2420 Clear 9 1017 27 10000 4.12 20 17:46 17.02.2021
2421 Clear 9 1017 27 10000 4.12 20 17:21 17.02.2021
2422 Clouds 7 1016 31 10000 4.12 30 16:51 17.02.2021
2423 Clouds 6 1016 31 10000 4.12 30 16:29 17.02.2021
2424 Clear 6 1016 31 10000 3.6 80 15:46 17.02.2021
2425 Clear 6 1016 31 10000 3.6 80 15:28 17.02.2021
2426 Clear 7 1016 29 10000 3.09 60 14:59 17.02.2021
2427 Clear 7 1016 29 10000 3.09 60 14:39 17.02.2021
2428 Clear 7 1016 29 10000 3.09 60 14:21 17.02.2021
2429 Clear 8 1015 27 10000 5.14 60 13:40 17.02.2021
2430 Clear 8 1015 27 10000 3.09 20 12:58 17.02.2021
2431 Clear 8 1015 27 10000 3.09 20 12:26 17.02.2021
2432 Clear 8 1015 27 10000 10.8 10 11:48 17.02.2021
2433 Clear 8 1015 27 10000 10.8 10 11:29 17.02.2021
2434 Clouds 9 1015 24 10000 6.69 350 10:57 17.02.2021
2435 Clouds 9 1015 24 10000 6.69 350 10:39 17.02.2021
2436 Clouds 9 1015 24 10000 6.69 350 10:20 17.02.2021
2437 Clouds 10 1014 20 10000 5.14 340 09:40 17.02.2021
2438 Clouds 10 1014 20 10000 5.66 360 08:58 17.02.2021
2439 Clouds 10 1014 20 10000 5.66 360 08:37 17.02.2021
2440 Clouds 10 1014 20 10000 5.66 360 08:18 17.02.2021
2441 Clouds 11 1012 19 10000 8.23 320 06:48 17.02.2021
2442 Clouds 13 1011 15 10000 5.14 320 03:53 17.02.2021
2443 Clouds 15 1010 14 10000 6.69 330 02:33 17.02.2021
2444 Clouds 16 1010 14 10000 4.63 10 01:37 17.02.2021
2445 Clouds 17 1010 14 10000 7.72 350 00:28 17.02.2021
2446 Clouds 17 1010 13 10000 9.26 360 23:43 16.02.2021
2447 Clouds 17 1010 13 10000 9.26 360 23:23 16.02.2021
2448 Clouds 17 1011 13 10000 6.69 350 22:41 16.02.2021
2449 Clouds 17 1011 13 10000 6.69 350 22:21 16.02.2021
2450 Clouds 16 1012 14 10000 9.77 20 21:40 16.02.2021
2451 Clouds 16 1012 14 10000 9.77 20 21:22 16.02.2021
2452 Clouds 16 1012 14 10000 7.72 10 20:57 16.02.2021
2453 Clouds 16 1012 14 10000 7.72 10 20:38 16.02.2021
2454 Clouds 16 1012 14 10000 7.72 10 20:19 16.02.2021
2455 Clouds 15 1013 18 10000 6.69 350 19:39 16.02.2021
2456 Clouds 14 1013 18 10000 6.69 350 19:20 16.02.2021
2457 Clouds 14 1012 17 10000 8.23 340 18:38 16.02.2021
2458 Clouds 14 1012 17 10000 8.23 340 18:19 16.02.2021
2459 Clouds 13 1012 16 10000 7.72 340 17:48 16.02.2021
2460 Clouds 13 1012 16 10000 7.72 340 17:23 16.02.2021
2461 Clouds 12 1011 17 10000 8.23 340 16:45 16.02.2021
2462 Clouds 12 1011 17 10000 8.23 340 16:24 16.02.2021
2463 Clouds 12 1010 22 10000 8.75 340 15:44 16.02.2021
2464 Clouds 12 1010 22 10000 8.75 340 15:26 16.02.2021
2465 Clouds 12 1009 19 10000 10.29 320 14:47 16.02.2021
2466 Clouds 13 1009 19 10000 10.29 320 14:28 16.02.2021
2467 Clouds 13 1008 16 10000 10.29 330 13:53 16.02.2021
2468 Clouds 13 1008 16 10000 10.29 330 13:30 16.02.2021
2469 Clouds 11 1008 40 10000 2.06 70 12:44 16.02.2021
2470 Clouds 11 1008 40 10000 2.06 70 12:22 16.02.2021
2471 Clouds 10 1008 46 10000 3.76 6 11:48 16.02.2021
2472 Clouds 11 1008 46 10000 3.54 321 11:23 16.02.2021
2473 Clouds 11 1008 37 10000 3.09 240 10:51 16.02.2021
2474 Clouds 11 1008 37 10000 3.09 240 10:32 16.02.2021
2475 Clouds 11 1007 37 10000 1.54 180 09:56 16.02.2021
2476 Clouds 11 1007 37 10000 1.54 180 09:36 16.02.2021
2477 Clouds 11 1007 37 10000 1.54 180 09:18 16.02.2021
2478 Clouds 12 1008 35 10000 2.57 260 08:39 16.02.2021
2479 Clouds 12 1008 35 10000 2.57 260 08:18 16.02.2021
2480 Clouds 13 1007 30 10000 2.57 320 07:20 16.02.2021
2481 Clouds 15 1008 26 10000 2.57 290 04:33 16.02.2021
2482 Clouds 17 1010 23 10000 3.09 70 00:44 16.02.2021
2483 Clouds 17 1011 23 10000 1.54 110 23:31 15.02.2021
2484 Clouds 15 1012 23 10000 1.54 90 22:59 15.02.2021
2485 Clouds 15 1012 23 10000 1.54 90 22:40 15.02.2021
2486 Clouds 14 1013 24 10000 2.57 80 21:59 15.02.2021
2487 Clouds 14 1013 24 10000 2.57 80 21:38 15.02.2021
2488 Clouds 14 1013 24 10000 2.57 80 21:19 15.02.2021
2489 Clouds 13 1015 24 10000 2.06 60 20:44 15.02.2021
2490 Clouds 13 1015 24 10000 2.06 60 20:24 15.02.2021
2491 Clouds 13 1015 24 10000 2.06 60 20:24 15.02.2021
2492 Clouds 12 1015 25 10000 1.54 20 19:43 15.02.2021
2493 Clouds 12 1015 25 10000 1.54 20 19:22 15.02.2021
2494 Clouds 10 1015 29 10000 1.21 139 18:44 15.02.2021
2495 Clouds 10 1015 29 10000 0.73 115 18:25 15.02.2021
2496 Clouds 8 1015 36 10000 0.73 115 17:41 15.02.2021
2497 Clouds 7 1015 36 10000 0.28 135 17:22 15.02.2021
2498 Clouds 6 1015 36 10000 1.54 200 16:53 15.02.2021
2499 Clouds 5 1015 36 10000 1.54 200 16:26 15.02.2021
2500 Clouds 5 1014 39 10000 0.29 121 15:49 15.02.2021
2501 Clouds 5 1014 39 10000 0.58 168 15:22 15.02.2021
2502 Clouds 5 1014 33 10000 1.54 310 14:54 15.02.2021
2503 Clouds 5 1014 33 10000 1.54 310 14:22 15.02.2021
2504 Clouds 5 1014 33 10000 1.54 210 13:58 15.02.2021
2505 Clouds 5 1014 33 10000 1.54 210 13:58 15.02.2021
2506 Clouds 5 1014 33 10000 1.54 210 13:39 15.02.2021
2507 Clouds 5 1014 33 10000 1.54 210 13:18 15.02.2021
2508 Clouds 5 1014 31 10000 2.57 230 12:39 15.02.2021
2509 Clouds 5 1014 31 10000 2.57 230 12:19 15.02.2021
2510 Clouds 5 1015 36 10000 1.54 290 11:41 15.02.2021
2511 Clouds 5 1015 36 10000 1.54 290 11:19 15.02.2021
2512 Clouds 6 1015 33 10000 1.54 210 10:46 15.02.2021
2513 Clouds 6 1015 33 10000 1.54 210 10:22 15.02.2021
2514 Clouds 6 1015 31 10000 2.06 270 09:53 15.02.2021
2515 Clouds 6 1015 31 10000 2.06 270 09:33 15.02.2021
2516 Clouds 7 1015 31 10000 2.57 20 08:41 15.02.2021
2517 Clouds 7 1015 27 10000 2.06 330 07:38 15.02.2021
2518 Clouds 8 1014 20 10000 1.54 0 06:45 15.02.2021
2519 Clouds 9 1014 20 10000 1.54 0 06:27 15.02.2021
2520 Clouds 13 1012 15 10000 8.23 350 02:28 15.02.2021
2521 Clouds 15 1012 14 10000 6.17 340 00:35 15.02.2021
2522 Clouds 15 1012 15 10000 6.17 330 23:33 14.02.2021
2523 Clouds 14 1013 18 10000 5.66 330 22:54 14.02.2021
2524 Clouds 14 1013 18 10000 5.66 330 22:54 14.02.2021
2525 Clouds 14 1013 18 10000 5.66 330 22:35 14.02.2021
2526 Clouds 14 1013 18 10000 6.17 310 21:58 14.02.2021
2527 Clouds 14 1013 18 10000 6.17 310 21:38 14.02.2021
2528 Clouds 13 1013 18 10000 6.17 310 21:19 14.02.2021
2529 Clouds 13 1013 18 10000 7.2 360 20:39 14.02.2021
2530 Clouds 13 1013 18 10000 7.2 360 20:20 14.02.2021
2531 Clouds 12 1013 19 10000 7.72 350 19:40 14.02.2021
2532 Clouds 11 1013 22 10000 9.26 350 18:49 14.02.2021
2533 Clouds 11 1013 22 10000 9.26 350 18:29 14.02.2021
2534 Clouds 10 1012 27 10000 5.66 350 17:49 14.02.2021
2535 Clouds 9 1012 27 10000 5.66 350 17:30 14.02.2021
2536 Clouds 8 1011 29 10000 7.2 340 16:43 14.02.2021
2537 Clouds 8 1011 29 10000 7.2 340 16:24 14.02.2021
2538 Clear 8 1010 29 10000 9.26 340 15:46 14.02.2021
2539 Clear 8 1010 29 10000 9.26 340 15:26 14.02.2021
2540 Clear 8 1009 29 10000 7.2 340 14:42 14.02.2021
2541 Clear 8 1009 29 10000 7.2 340 14:20 14.02.2021
2542 Clouds 8 1009 27 10000 8.23 340 13:38 14.02.2021
2543 Clouds 8 1009 27 10000 8.23 340 13:20 14.02.2021
2544 Clouds 9 1009 27 10000 3.09 330 12:23 14.02.2021
2545 Clouds 9 1008 23 10000 6.17 320 11:52 14.02.2021
2546 Clouds 9 1008 23 10000 6.17 320 11:28 14.02.2021
2547 Clouds 9 1008 23 10000 8.75 320 10:59 14.02.2021
2548 Clouds 10 1008 23 10000 8.75 320 10:21 14.02.2021
2549 Clouds 10 1007 24 10000 8.23 310 09:40 14.02.2021
2550 Clouds 10 1007 24 10000 8.23 310 09:21 14.02.2021
2551 Clouds 11 1007 28 10000 9.77 340 08:52 14.02.2021
2552 Clouds 11 1006 30 10000 9.77 330 07:58 14.02.2021
2553 Clouds 12 1005 26 10000 7.2 330 06:54 14.02.2021
2554 Clouds 13 1004 24 10000 10.29 330 05:43 14.02.2021
2555 Clouds 14 1003 21 10000 7.72 340 03:33 14.02.2021
2556 Clouds 15 1003 26 10000 3.09 0 02:29 14.02.2021
2557 Clouds 14 1003 33 10000 5.14 320 00:49 14.02.2021
2558 Clouds 14 1003 33 10000 5.14 320 00:31 14.02.2021
2559 Dust 13 1003 35 8047 19.03 350 23:42 13.02.2021
2560 Dust 14 1003 35 8047 19.03 350 23:23 13.02.2021
2561 Clouds 17 1001 27 10000 1.54 0 22:47 13.02.2021
2562 Clouds 18 1001 27 10000 1.54 0 22:20 13.02.2021
2563 Clouds 18 1003 29 10000 2.57 70 21:44 13.02.2021
2564 Clouds 18 1003 29 10000 2.57 70 21:22 13.02.2021
2565 Clouds 17 1004 27 10000 2.57 360 20:30 13.02.2021
2566 Clouds 16 1005 29 10000 5.66 350 19:58 13.02.2021
2567 Clouds 16 1005 29 10000 5.66 350 19:39 13.02.2021
2568 Clouds 16 1005 29 10000 5.66 350 19:21 13.02.2021
2569 Clouds 16 1004 26 10000 2.06 290 18:44 13.02.2021
2570 Clouds 15 1004 26 10000 2.06 290 18:23 13.02.2021
2571 Clouds 14 1003 24 10000 5.14 200 17:43 13.02.2021
2572 Clouds 13 1003 24 10000 5.14 200 17:23 13.02.2021
2573 Clouds 12 1005 28 10000 6.69 200 16:44 13.02.2021
2574 Clouds 12 1005 28 10000 6.69 200 16:26 13.02.2021
2575 Clouds 13 1007 38 10000 4.12 190 15:40 13.02.2021
2576 Clouds 13 1008 44 10000 3.1 173 14:58 13.02.2021
2577 Clouds 13 1008 44 10000 3.1 173 14:32 13.02.2021
2578 Clouds 13 1007 41 10000 4.12 200 13:48 13.02.2021
2579 Clouds 13 1007 41 10000 4.12 200 13:25 13.02.2021
2580 Clouds 12 1008 44 10000 3.09 180 12:46 13.02.2021
2581 Clouds 12 1008 44 10000 3.09 180 12:19 13.02.2021
2582 Clouds 12 1008 44 10000 6.17 200 11:45 13.02.2021
2583 Clouds 12 1008 44 10000 6.17 200 11:20 13.02.2021
2584 Clouds 12 1008 47 10000 4.63 200 10:46 13.02.2021
2585 Clouds 12 1008 47 10000 4.63 200 10:25 13.02.2021
2586 Clouds 12 1009 47 10000 4.63 200 09:56 13.02.2021
2587 Clouds 13 1009 47 10000 4.63 200 09:30 13.02.2021
2588 Clouds 13 1009 44 10000 3.6 200 08:56 13.02.2021
2589 Clouds 13 1009 44 10000 3.6 200 08:35 13.02.2021
2590 Clouds 14 1010 44 10000 3.6 190 07:52 13.02.2021
2591 Clouds 15 1010 39 10000 5.14 200 06:41 13.02.2021
2592 Clouds 15 1010 39 10000 4.12 220 05:27 13.02.2021
2593 Clouds 16 1009 36 10000 2.57 220 03:58 13.02.2021
2594 Clouds 19 1008 28 10000 1.54 50 01:48 13.02.2021
2595 Clouds 19 1008 30 10000 3.57 318 00:42 13.02.2021
2596 Clouds 20 1008 32 10000 2.57 30 23:54 12.02.2021
2597 Clouds 20 1008 32 10000 2.57 30 23:26 12.02.2021
2598 Clouds 19 1009 30 10000 6.69 360 22:44 12.02.2021
2599 Clouds 19 1009 30 10000 6.69 360 22:25 12.02.2021
2600 Clouds 18 1009 39 10000 4.12 260 21:46 12.02.2021
2601 Clouds 17 1009 39 10000 4.12 260 21:27 12.02.2021
2602 Clouds 17 1009 44 10000 3.09 250 20:46 12.02.2021
2603 Clouds 16 1009 44 10000 3.09 250 20:28 12.02.2021
2604 Clouds 15 1009 67 10000 5.14 280 19:57 12.02.2021
2605 Clouds 14 1009 67 10000 5.14 280 19:37 12.02.2021
2606 Clouds 14 1008 44 10000 8.23 340 18:57 12.02.2021
2607 Rain 14 1008 44 10000 8.23 340 18:30 12.02.2021
2608 Clouds 14 1007 41 10000 2.57 340 17:44 12.02.2021
2609 Clouds 14 1007 41 10000 2.57 340 17:21 12.02.2021
2610 Clouds 13 1006 44 10000 5.66 240 16:28 12.02.2021
2611 Clouds 13 1005 41 10000 5.66 240 15:46 12.02.2021
2612 Clouds 12 1005 41 10000 5.66 240 15:21 12.02.2021
2613 Clouds 13 1005 44 10000 4.63 210 14:42 12.02.2021
2614 Clouds 13 1005 44 10000 4.63 210 14:23 12.02.2021
2615 Clear 14 1004 41 10000 7.2 200 13:40 12.02.2021
2616 Clouds 15 1005 33 10000 3.6 160 12:56 12.02.2021
2617 Clouds 15 1005 33 10000 3.6 160 12:37 12.02.2021
2618 Clouds 15 1005 33 10000 3.6 160 12:18 12.02.2021
2619 Clouds 15 1006 29 10000 7.72 200 11:38 12.02.2021
2620 Clouds 15 1006 29 10000 7.72 200 11:19 12.02.2021
2621 Clouds 16 1007 27 10000 4.12 220 10:41 12.02.2021
2622 Clear 16 1008 27 10000 3.09 200 09:49 12.02.2021
2623 Clear 17 1008 27 10000 3.09 200 09:25 12.02.2021
2624 Clouds 18 1008 25 10000 2.57 0 08:49 12.02.2021
2625 Clouds 18 1008 25 10000 2.57 0 08:28 12.02.2021
2626 Clouds 18 1009 22 10000 4.12 200 07:53 12.02.2021
2627 Clouds 18 1009 22 10000 4.12 200 07:31 12.02.2021
2628 Clouds 18 1009 22 10000 4.12 200 06:55 12.02.2021
2629 Clouds 18 1010 20 10000 2.57 200 05:47 12.02.2021
2630 Clouds 18 1011 20 10000 1.54 210 04:30 12.02.2021
2631 Clouds 21 1012 21 10000 3.09 90 01:28 12.02.2021
2632 Clouds 21 1013 22 10000 3.6 70 23:40 11.02.2021
2633 Clouds 21 1013 22 10000 3.6 70 23:22 11.02.2021
2634 Clouds 21 1014 22 10000 3.09 70 22:46 11.02.2021
2635 Clouds 21 1014 22 10000 3.09 70 22:24 11.02.2021
2636 Clouds 20 1016 24 10000 3.09 70 21:54 11.02.2021
2637 Clouds 20 1016 24 10000 3.09 70 21:36 11.02.2021
2638 Clouds 19 1016 24 10000 3.09 70 21:18 11.02.2021
2639 Clouds 19 1016 24 10000 3.09 70 21:18 11.02.2021
2640 Clouds 18 1017 27 10000 2.06 90 20:41 11.02.2021
2641 Clouds 18 1017 27 10000 2.06 90 20:21 11.02.2021
2642 Clouds 17 1018 29 10000 1.54 80 19:47 11.02.2021
2643 Clouds 17 1018 29 10000 1.54 80 19:27 11.02.2021
2644 Clouds 15 1018 35 10000 0.77 145 18:47 11.02.2021
2645 Clouds 15 1018 35 10000 0.1 323 18:25 11.02.2021
2646 Clouds 13 1017 40 10000 0.1 323 17:50 11.02.2021
2647 Clouds 12 1017 40 10000 0.53 288 17:22 11.02.2021
2648 Clouds 10 1017 46 10000 0.53 288 16:49 11.02.2021
2649 Clouds 9 1017 46 10000 0.53 288 16:30 11.02.2021
2650 Clouds 9 1016 43 10000 1.54 240 15:48 11.02.2021
2651 Clouds 9 1016 43 10000 1.54 240 15:29 11.02.2021
2652 Clouds 10 1016 40 10000 2.06 210 14:58 11.02.2021
2653 Clouds 10 1016 40 10000 2.06 210 14:32 11.02.2021
2654 Clear 10 1016 43 10000 2.06 210 13:45 11.02.2021
2655 Clear 10 1016 43 10000 2.06 210 13:21 11.02.2021
2656 Clear 10 1016 43 10000 2.06 210 12:58 11.02.2021
2657 Clear 10 1016 43 10000 2.06 210 12:36 11.02.2021
2658 Clear 10 1016 40 10000 1.54 220 11:57 11.02.2021
2659 Clear 10 1016 40 10000 1.54 220 11:57 11.02.2021
2660 Clear 11 1016 40 10000 1.54 220 11:39 11.02.2021
2661 Clear 11 1016 40 10000 1.54 220 11:18 11.02.2021
2662 Clear 10 1016 40 10000 1.54 200 10:39 11.02.2021
2663 Clear 11 1016 40 10000 1.54 200 10:21 11.02.2021
2664 Clear 12 1016 37 10000 2.06 240 09:41 11.02.2021
2665 Clear 12 1016 37 10000 2.06 240 09:19 11.02.2021
2666 Clear 12 1016 37 10000 2.06 240 09:19 11.02.2021
2667 Clear 11 1016 37 10000 1.54 200 08:46 11.02.2021
2668 Clouds 12 1015 33 10000 1.1 255 07:53 11.02.2021
2669 Clouds 13 1015 30 10000 2.06 260 06:46 11.02.2021
2670 Clouds 13 1015 30 10000 2.06 260 06:23 11.02.2021
2671 Clouds 15 1014 24 10000 1.54 120 03:46 11.02.2021
2672 Clouds 18 1013 22 10000 1.2 9 02:25 11.02.2021
2673 Clouds 20 1013 21 10000 1.47 349 00:24 11.02.2021
2674 Clouds 20 1013 21 10000 1.47 349 00:24 11.02.2021
2675 Clouds 20 1013 22 10000 1.54 0 23:59 10.02.2021
2676 Clouds 20 1013 22 10000 1.54 0 23:28 10.02.2021
2677 Clouds 19 1014 20 10000 1.28 2 22:48 10.02.2021
2678 Clouds 19 1014 20 10000 0.82 13 22:24 10.02.2021
2679 Clouds 19 1015 22 10000 0.82 13 21:40 10.02.2021
2680 Clouds 19 1015 22 10000 0.6 19 21:21 10.02.2021
2681 Clouds 18 1016 25 10000 1.54 0 20:52 10.02.2021
2682 Clouds 17 1016 25 10000 1.54 0 20:29 10.02.2021
2683 Clouds 17 1016 25 10000 0.67 38 19:57 10.02.2021
2684 Clouds 17 1016 25 10000 0.67 38 19:39 10.02.2021
2685 Clouds 16 1016 25 10000 0.44 21 19:18 10.02.2021
2686 Clouds 15 1016 30 10000 0.55 19 18:36 10.02.2021
2687 Clouds 15 1016 30 10000 0.51 360 18:18 10.02.2021
2688 Clouds 12 1015 37 10000 0.51 360 17:44 10.02.2021
2689 Clouds 12 1015 37 10000 0.5 349 17:20 10.02.2021
2690 Clouds 10 1015 40 10000 1.54 230 16:48 10.02.2021
2691 Clouds 9 1015 40 10000 1.54 230 16:28 10.02.2021
2692 Clouds 8 1014 40 10000 2.06 200 15:39 10.02.2021
2693 Clouds 9 1014 40 10000 2.06 200 15:21 10.02.2021
2694 Clouds 9 1013 37 10000 1.54 220 14:39 10.02.2021
2695 Clouds 10 1013 35 10000 2.06 210 13:55 10.02.2021
2696 Clouds 10 1013 35 10000 2.06 210 13:31 10.02.2021
2697 Clouds 10 1013 35 10000 0.55 346 12:56 10.02.2021
2698 Clouds 10 1013 35 10000 0.55 346 12:37 10.02.2021
2699 Clouds 11 1013 35 10000 0.52 345 12:18 10.02.2021
2700 Clouds 11 1013 32 10000 1.54 250 11:41 10.02.2021
2701 Clouds 11 1013 32 10000 1.54 250 11:22 10.02.2021
2702 Clouds 12 1014 30 10000 3.09 230 10:37 10.02.2021
2703 Clouds 12 1014 30 10000 3.09 230 10:18 10.02.2021
2704 Clouds 12 1014 30 10000 2.06 200 09:37 10.02.2021
2705 Clouds 12 1014 30 10000 2.06 200 09:18 10.02.2021
2706 Clouds 13 1014 30 10000 1.54 10 08:42 10.02.2021
2707 Clouds 13 1014 30 10000 3.09 280 07:52 10.02.2021
2708 Clouds 13 1014 30 10000 1.54 300 06:51 10.02.2021
2709 Clouds 15 1012 25 10000 3.09 360 02:45 10.02.2021
2710 Clouds 17 1013 23 10000 0.5 278 00:25 10.02.2021
2711 Clouds 16 1013 23 10000 2.06 100 23:34 09.02.2021
2712 Clouds 16 1013 21 10000 0.65 285 22:54 09.02.2021
2713 Clouds 16 1013 21 10000 0.61 277 22:24 09.02.2021
2714 Clouds 16 1014 25 10000 3.09 30 21:52 09.02.2021
2715 Clouds 16 1014 25 10000 3.09 30 21:32 09.02.2021
2716 Clouds 15 1014 26 10000 2.57 10 20:49 09.02.2021
2717 Clouds 15 1014 26 10000 2.57 10 20:26 09.02.2021
2718 Clouds 15 1015 26 10000 1.05 157 19:58 09.02.2021
2719 Clouds 14 1015 26 10000 1.05 157 19:36 09.02.2021
2720 Clouds 13 1014 32 10000 1.22 127 18:58 09.02.2021
2721 Clouds 13 1014 32 10000 1.12 115 18:58 09.02.2021
2722 Clouds 13 1014 32 10000 1.12 115 18:58 09.02.2021
2723 Clouds 13 1014 32 10000 1.12 115 18:58 09.02.2021
2724 Clouds 13 1014 32 10000 1.12 115 18:36 09.02.2021
2725 Clouds 12 1014 35 10000 0.82 74 17:57 09.02.2021
2726 Clouds 11 1014 35 10000 0.82 74 17:37 09.02.2021
2727 Clouds 11 1014 35 10000 0.9 66 17:19 09.02.2021
2728 Clouds 10 1013 34 10000 2.06 280 16:41 09.02.2021
2729 Clouds 9 1013 34 10000 2.06 280 16:18 09.02.2021
2730 Clouds 9 1013 34 10000 0.77 73 15:48 09.02.2021
2731 Clouds 9 1013 34 10000 0.67 92 15:25 09.02.2021
2732 Clouds 10 1013 32 10000 1.54 230 14:53 09.02.2021
2733 Clouds 10 1013 32 10000 1.54 230 14:27 09.02.2021
2734 Clouds 10 1012 32 10000 2.06 240 13:51 09.02.2021
2735 Clouds 10 1012 32 10000 2.06 240 13:25 09.02.2021
2736 Clouds 10 1013 32 10000 2.06 280 12:51 09.02.2021
2737 Clouds 10 1013 32 10000 2.06 280 12:32 09.02.2021
2738 Clouds 10 1013 30 10000 0.46 110 11:56 09.02.2021
2739 Clouds 11 1013 30 10000 0.46 110 11:38 09.02.2021
2740 Clouds 11 1013 30 10000 0.54 114 11:20 09.02.2021
2741 Clouds 11 1013 30 10000 1.54 240 10:43 09.02.2021
2742 Clouds 11 1013 30 10000 1.54 240 10:18 09.02.2021
2743 Clouds 12 1013 28 10000 1.54 250 09:42 09.02.2021
2744 Clouds 12 1013 28 10000 1.54 250 09:24 09.02.2021
2745 Clouds 12 1013 26 10000 2.06 290 08:42 09.02.2021
2746 Clouds 12 1013 26 10000 2.06 290 08:22 09.02.2021
2747 Clouds 13 1013 24 10000 2.06 230 06:18 09.02.2021
2748 Clouds 15 1012 19 10000 1.54 350 03:51 09.02.2021
2749 Clouds 17 1012 16 10000 1.54 360 02:31 09.02.2021
2750 Clouds 19 1012 15 10000 1.54 100 00:33 09.02.2021
2751 Clouds 19 1012 16 10000 2.06 40 23:57 08.02.2021
2752 Clouds 19 1012 16 10000 2.06 40 23:20 08.02.2021
2753 Clouds 18 1013 16 10000 1.54 50 22:43 08.02.2021
2754 Clouds 18 1013 16 10000 1.54 50 22:24 08.02.2021
2755 Clouds 17 1014 18 10000 1.54 0 21:54 08.02.2021
2756 Clouds 17 1014 18 10000 1.54 0 21:31 08.02.2021
2757 Clouds 16 1015 21 10000 2.06 50 20:59 08.02.2021
2758 Clouds 16 1015 21 10000 2.06 50 20:38 08.02.2021
2759 Clouds 16 1015 21 10000 2.06 50 20:19 08.02.2021
2760 Clouds 15 1015 21 10000 1.06 108 19:42 08.02.2021
2761 Clouds 15 1015 21 10000 1.16 77 19:22 08.02.2021
2762 Clouds 14 1015 24 10000 1.16 77 18:46 08.02.2021
2763 Clouds 13 1015 24 10000 0.93 84 18:19 08.02.2021
2764 Clouds 10 1014 31 10000 2.06 290 17:44 08.02.2021
2765 Clouds 10 1014 31 10000 2.06 290 17:24 08.02.2021
2766 Clouds 6 1013 33 10000 1.54 280 16:44 08.02.2021
2767 Clouds 6 1013 33 10000 1.54 280 16:21 08.02.2021
2768 Clouds 6 1013 33 10000 1.54 260 15:43 08.02.2021
2769 Clouds 6 1013 33 10000 1.54 260 15:20 08.02.2021
2770 Clouds 6 1012 33 10000 2.57 280 14:52 08.02.2021
2771 Clouds 7 1012 33 10000 2.57 280 14:31 08.02.2021
2772 Clouds 7 1012 33 10000 1.54 280 13:57 08.02.2021
2773 Clouds 7 1012 33 10000 1.54 280 13:33 08.02.2021
2774 Clouds 8 1012 33 10000 0.54 95 12:55 08.02.2021
2775 Clouds 7 1012 33 10000 0.54 95 12:37 08.02.2021
2776 Clear 8 1012 36 10000 1.54 220 11:49 08.02.2021
2777 Clear 8 1012 36 10000 1.54 220 11:22 08.02.2021
2778 Clear 8 1012 29 10000 2.06 260 10:45 08.02.2021
2779 Clear 8 1012 29 10000 2.06 260 10:24 08.02.2021
2780 Clear 8 1012 29 10000 1.54 230 09:53 08.02.2021
2781 Clear 8 1012 29 10000 1.54 230 09:35 08.02.2021
2782 Clear 10 1012 25 10000 1.54 250 08:47 08.02.2021
2783 Clear 10 1012 25 10000 1.54 250 08:21 08.02.2021
2784 Clear 10 1013 25 10000 2.57 220 07:34 08.02.2021
2785 Clear 11 1012 24 10000 2.06 220 06:29 08.02.2021
2786 Clouds 17 1012 16 10000 2.57 100 02:37 08.02.2021
2787 Clouds 19 1012 14 10000 2.57 60 01:48 08.02.2021
2788 Clouds 20 1012 13 10000 1.07 94 00:21 08.02.2021
2789 Clouds 19 1012 15 10000 1.54 80 23:50 07.02.2021
2790 Clouds 19 1012 15 10000 1.54 80 23:50 07.02.2021
2791 Clouds 20 1012 15 10000 1.54 80 23:21 07.02.2021
2792 Clouds 19 1013 16 10000 1.54 90 22:45 07.02.2021
2793 Clouds 19 1013 16 10000 1.54 90 22:27 07.02.2021
2794 Clouds 18 1014 17 10000 1.54 0 21:53 07.02.2021
2795 Clouds 17 1014 17 10000 1.54 0 21:28 07.02.2021
2796 Clouds 16 1015 18 10000 1.54 60 20:59 07.02.2021
2797 Clouds 16 1015 18 10000 1.54 60 20:40 07.02.2021
2798 Clouds 16 1015 18 10000 1.54 60 20:22 07.02.2021
2799 Clouds 16 1015 18 10000 1.54 60 20:22 07.02.2021
2800 Clouds 15 1016 23 10000 2.06 60 19:39 07.02.2021
2801 Clouds 14 1016 23 10000 2.06 60 19:20 07.02.2021
2802 Clouds 13 1016 26 10000 1.34 84 18:40 07.02.2021
2803 Clouds 13 1016 26 10000 0.93 75 18:22 07.02.2021
2804 Clouds 10 1016 31 10000 1.54 250 17:44 07.02.2021
2805 Clouds 10 1016 31 10000 1.54 250 17:21 07.02.2021
2806 Clouds 7 1015 36 10000 0.44 54 16:50 07.02.2021
2807 Clouds 6 1015 36 10000 0.44 54 16:30 07.02.2021
2808 Clear 6 1014 33 10000 2.06 270 15:59 07.02.2021
2809 Clear 6 1014 33 10000 2.06 270 15:40 07.02.2021
2810 Clear 6 1014 33 10000 2.06 270 15:21 07.02.2021
2811 Clear 7 1014 36 10000 2.06 250 14:40 07.02.2021
2812 Clear 7 1014 36 10000 2.06 250 14:22 07.02.2021
2813 Clear 7 1014 36 10000 0.49 57 13:37 07.02.2021
2814 Clear 8 1014 36 10000 0.22 70 13:19 07.02.2021
2815 Clear 8 1014 33 10000 1.54 240 12:39 07.02.2021
2816 Clear 7 1014 33 10000 1.54 240 12:19 07.02.2021
2817 Clear 8 1014 29 10000 2.06 240 11:39 07.02.2021
2818 Clear 7 1014 29 10000 2.06 240 11:18 07.02.2021
2819 Clear 9 1015 27 10000 3.09 200 10:29 07.02.2021
2820 Clear 9 1015 27 10000 3.09 200 09:51 07.02.2021
2821 Clear 9 1015 27 10000 3.09 200 09:25 07.02.2021
2822 Clear 9 1016 27 10000 1.54 250 08:48 07.02.2021
2823 Clear 10 1016 25 10000 2.06 230 07:49 07.02.2021
2824 Clear 11 1016 24 10000 2.06 220 05:58 07.02.2021
2825 Clear 12 1016 21 10000 0.22 203 04:34 07.02.2021
2826 Clear 16 1016 16 10000 3.6 80 02:25 07.02.2021
2827 Clear 18 1017 16 10000 1.12 117 00:37 07.02.2021
2828 Clear 18 1017 17 10000 1.31 138 23:51 06.02.2021
2829 Clear 17 1018 19 10000 1.03 116 22:54 06.02.2021
2830 Clear 16 1020 20 10000 0.74 106 21:57 06.02.2021
2831 Clear 16 1020 20 10000 0.74 106 21:36 06.02.2021
2832 Clear 16 1020 20 10000 0.9 69 21:18 06.02.2021
2833 Clear 15 1021 24 10000 0.9 69 20:43 06.02.2021
2834 Clear 15 1021 24 10000 0.91 61 20:21 06.02.2021
2835 Clear 14 1021 26 10000 2.06 310 19:45 06.02.2021
2836 Clear 13 1021 26 10000 2.06 310 19:22 06.02.2021
2837 Clear 12 1021 32 10000 0.83 32 18:43 06.02.2021
2838 Clear 12 1021 32 10000 1.22 13 18:24 06.02.2021
2839 Clear 10 1021 39 10000 2.06 280 17:41 06.02.2021
2840 Clear 9 1021 39 10000 2.06 280 17:21 06.02.2021
2841 Clear 7 1020 42 10000 1.54 230 16:50 06.02.2021
2842 Clear 6 1020 42 10000 1.54 230 16:30 06.02.2021
2843 Clear 7 1020 39 10000 2.06 280 15:52 06.02.2021
2844 Clear 6 1020 39 10000 2.06 280 15:33 06.02.2021
2845 Clear 7 1019 34 10000 3.6 60 14:57 06.02.2021
2846 Clear 7 1019 34 10000 3.6 60 14:37 06.02.2021
2847 Clear 7 1019 34 10000 3.6 60 14:18 06.02.2021
2848 Clear 7 1019 36 10000 2.57 180 13:43 06.02.2021
2849 Clear 7 1019 36 10000 2.57 210 12:36 06.02.2021
2850 Clear 8 1019 36 10000 2.57 210 12:18 06.02.2021
2851 Clear 7 1019 36 10000 3.6 150 11:40 06.02.2021
2852 Clear 7 1019 36 10000 3.6 150 11:20 06.02.2021
2853 Clear 7 1019 36 10000 2.06 210 10:52 06.02.2021
2854 Clear 8 1019 36 10000 2.06 210 10:25 06.02.2021
2855 Clear 8 1019 34 10000 2.06 220 09:38 06.02.2021
2856 Clear 8 1019 34 10000 2.06 220 09:38 06.02.2021
2857 Clear 8 1019 34 10000 2.06 220 09:19 06.02.2021
2858 Clear 8 1019 32 10000 2.06 230 08:58 06.02.2021
2859 Clear 9 1019 32 10000 2.06 230 08:29 06.02.2021
2860 Clear 10 1017 28 10000 1.54 250 06:51 06.02.2021
2861 Clear 10 1017 28 10000 2.06 140 05:41 06.02.2021
2862 Clear 14 1015 20 10000 3.09 100 02:50 06.02.2021
2863 Clear 18 1015 16 10000 3.09 210 00:58 06.02.2021
2864 Clear 18 1015 16 10000 3.09 210 00:40 06.02.2021
2865 Clear 18 1015 16 10000 3.09 210 00:18 06.02.2021
2866 Clear 18 1015 17 10000 2.06 230 23:34 05.02.2021
2867 Clear 17 1017 18 10000 3.09 260 22:51 05.02.2021
2868 Clear 16 1017 18 10000 3.09 260 22:25 05.02.2021
2869 Clear 16 1019 21 10000 1.54 0 21:57 05.02.2021
2870 Clear 16 1019 21 10000 1.54 0 21:37 05.02.2021
2871 Clear 14 1021 22 10000 1.54 330 20:56 05.02.2021
2872 Clear 13 1021 22 10000 1.54 330 20:20 05.02.2021
2873 Clear 12 1021 24 10000 1.54 60 19:45 05.02.2021
2874 Clear 12 1021 24 10000 1.54 60 19:18 05.02.2021
2875 Clear 11 1022 29 10000 1.54 180 18:40 05.02.2021
2876 Clear 10 1022 29 10000 1.54 180 18:19 05.02.2021
2877 Clear 9 1022 31 10000 1.54 270 17:38 05.02.2021
2878 Clear 8 1022 31 10000 1.54 270 17:19 05.02.2021
2879 Clear 6 1022 38 10000 1.54 220 16:43 05.02.2021
2880 Clear 4 1022 38 10000 1.54 220 16:21 05.02.2021
2881 Clear 4 1022 38 10000 1.54 230 15:50 05.02.2021
2882 Clear 4 1022 38 10000 1.54 230 15:23 05.02.2021
2883 Clear 4 1022 38 10000 2.57 240 14:39 05.02.2021
2884 Clear 4 1022 38 10000 2.57 240 14:21 05.02.2021
2885 Clear 4 1022 38 10000 0.7 336 13:52 05.02.2021
2886 Clear 4 1022 38 10000 0.43 328 13:32 05.02.2021
2887 Clear 5 1022 36 10000 2.06 180 12:44 05.02.2021
2888 Clear 5 1022 36 10000 2.06 180 12:23 05.02.2021
2889 Clear 5 1023 36 10000 2.57 200 11:39 05.02.2021
2890 Clear 5 1023 36 10000 2.57 200 11:20 05.02.2021
2891 Clear 6 1023 33 10000 1.58 1 10:49 05.02.2021
2892 Clear 6 1023 33 10000 1.21 2 10:25 05.02.2021
2893 Clear 6 1023 31 10000 2.06 260 09:43 05.02.2021
2894 Clear 6 1023 31 10000 2.06 260 09:24 05.02.2021
2895 Clear 7 1023 29 10000 1.54 330 08:45 05.02.2021
2896 Clear 7 1023 27 10000 2.08 326 07:45 05.02.2021
2897 Clear 8 1023 27 10000 3.13 332 07:26 05.02.2021
2898 Clear 9 1023 24 10000 3.6 20 06:41 05.02.2021
2899 Clouds 9 1022 18 10000 5.66 350 05:35 05.02.2021
2900 Clouds 13 1021 17 10000 6.69 340 02:26 05.02.2021
2901 Clear 13 1021 17 10000 3.6 20 01:55 05.02.2021
2902 Clear 14 1021 15 10000 7.72 10 00:38 05.02.2021
2903 Clear 14 1021 15 10000 7.72 10 00:19 05.02.2021
2904 Clear 14 1021 17 10000 6.69 360 23:44 04.02.2021
2905 Clear 15 1021 17 10000 6.69 360 23:25 04.02.2021
2906 Clear 14 1022 19 10000 7.2 360 22:55 04.02.2021
2907 Clear 14 1022 19 10000 7.2 360 22:37 04.02.2021
2908 Clear 14 1022 19 10000 7.2 360 22:18 04.02.2021
2909 Clear 14 1023 21 10000 4.12 10 21:41 04.02.2021
2910 Clear 13 1023 21 10000 3.09 350 20:58 04.02.2021
2911 Clear 13 1023 21 10000 3.09 350 20:34 04.02.2021
2912 Clear 13 1023 21 10000 3.09 350 20:34 04.02.2021
2913 Clear 12 1023 24 10000 7.72 10 19:53 04.02.2021
2914 Clear 12 1023 24 10000 7.72 10 19:32 04.02.2021
2915 Clear 11 1023 25 10000 7.72 360 18:51 04.02.2021
2916 Clear 11 1023 25 10000 7.72 360 18:24 04.02.2021
2917 Clear 10 1022 27 10000 8.23 340 17:50 04.02.2021
2918 Clear 9 1022 27 10000 8.23 340 17:24 04.02.2021
2919 Clear 8 1021 34 10000 4.63 30 16:51 04.02.2021
2920 Clear 7 1021 34 10000 4.63 30 16:21 04.02.2021
2921 Clear 8 1020 29 10000 8.75 360 15:58 04.02.2021
2922 Clear 8 1020 29 10000 8.75 360 15:38 04.02.2021
2923 Clear 8 1020 29 10000 8.75 360 15:20 04.02.2021
2924 Clear 9 1020 27 10000 7.72 360 14:40 04.02.2021
2925 Clear 8 1020 27 10000 7.72 360 14:20 04.02.2021
2926 Clear 9 1019 25 10000 7.2 360 13:44 04.02.2021
2927 Clear 9 1019 25 10000 7.2 30 12:58 04.02.2021
2928 Clear 9 1019 25 10000 7.2 30 12:34 04.02.2021
2929 Clear 10 1019 24 10000 7.2 30 11:53 04.02.2021
2930 Clear 10 1019 24 10000 7.2 30 11:33 04.02.2021
2931 Clouds 11 1018 22 10000 7.2 40 10:50 04.02.2021
2932 Clouds 11 1018 22 10000 7.2 40 10:19 04.02.2021
2933 Clouds 11 1018 24 10000 5.66 50 09:44 04.02.2021
2934 Clouds 12 1018 24 10000 5.66 50 09:19 04.02.2021
2935 Clouds 12 1017 18 10000 9.26 350 08:48 04.02.2021
2936 Clouds 12 1017 18 10000 9.26 350 08:24 04.02.2021
2937 Clouds 13 1015 20 10000 6.69 330 07:43 04.02.2021
2938 Clouds 13 1015 20 10000 6.69 330 07:22 04.02.2021
2939 Clouds 14 1014 17 10000 8.75 330 06:43 04.02.2021
2940 Clouds 17 1011 24 10000 5.14 340 03:54 04.02.2021
2941 Clouds 18 1011 22 10000 5.66 310 02:27 04.02.2021
2942 Clouds 21 1009 15 10000 8.75 270 00:57 04.02.2021
2943 Clouds 22 1009 15 10000 6.69 260 23:44 03.02.2021
2944 Clouds 22 1009 15 10000 6.69 260 23:24 03.02.2021
2945 Clouds 21 1009 17 10000 8.23 260 22:24 03.02.2021
2946 Clouds 20 1011 19 10000 9.77 240 21:59 03.02.2021
2947 Clouds 20 1011 19 10000 9.77 240 21:41 03.02.2021
2948 Clouds 20 1011 19 10000 9.77 240 21:21 03.02.2021
2949 Clouds 19 1013 20 10000 6.17 200 20:46 03.02.2021
2950 Clouds 19 1013 20 10000 6.17 200 20:26 03.02.2021
2951 Clouds 18 1013 22 10000 7.72 200 19:51 03.02.2021
2952 Clouds 18 1013 22 10000 7.72 200 19:23 03.02.2021
2953 Clouds 17 1013 25 10000 4.12 180 18:51 03.02.2021
2954 Clouds 17 1013 25 10000 4.12 180 18:21 03.02.2021
2955 Clouds 16 1013 31 10000 2.06 180 17:57 03.02.2021
2956 Clouds 16 1013 31 10000 2.06 180 17:36 03.02.2021
2957 Clouds 15 1013 31 10000 2.06 180 17:18 03.02.2021
2958 Clouds 14 1013 38 10000 4.12 200 16:35 03.02.2021
2959 Clouds 14 1013 44 10000 4.12 190 15:50 03.02.2021
2960 Clouds 14 1013 44 10000 4.12 190 15:30 03.02.2021
2961 Clouds 14 1014 44 10000 3.6 170 14:59 03.02.2021
2962 Clouds 14 1014 44 10000 3.6 170 14:40 03.02.2021
2963 Clouds 14 1014 44 10000 3.09 170 13:59 03.02.2021
2964 Clouds 15 1014 44 10000 3.09 170 13:30 03.02.2021
2965 Clouds 14 1015 44 10000 2.57 170 12:56 03.02.2021
2966 Clouds 14 1015 44 10000 2.57 170 12:37 03.02.2021
2967 Clouds 14 1015 44 10000 2.57 170 12:18 03.02.2021
2968 Clouds 15 1015 41 10000 2.57 200 11:38 03.02.2021
2969 Clouds 14 1015 41 10000 2.57 200 11:19 03.02.2021
2970 Clouds 15 1015 44 10000 4.12 200 10:27 03.02.2021
2971 Clouds 14 1016 42 10000 4.12 220 09:54 03.02.2021
2972 Clouds 14 1016 42 10000 4.12 220 09:35 03.02.2021
2973 Clouds 14 1016 47 10000 2.38 216 08:55 03.02.2021
2974 Clouds 14 1016 47 10000 2.38 216 08:37 03.02.2021
2975 Clouds 14 1016 41 10000 2.57 130 07:48 03.02.2021
2976 Clouds 13 1016 44 10000 1.54 180 06:42 03.02.2021
2977 Clouds 15 1017 39 10000 2.57 290 04:55 03.02.2021
2978 Clouds 15 1017 39 10000 2.57 290 04:37 03.02.2021
2979 Clouds 15 1016 36 10000 0.56 30 03:49 03.02.2021
2980 Clouds 17 1016 34 10000 3.09 80 02:38 03.02.2021
2981 Clouds 19 1016 30 10000 2.57 80 01:21 03.02.2021
2982 Clouds 19 1016 27 10000 3.6 80 00:23 03.02.2021
2983 Clouds 19 1017 27 10000 2.06 90 23:41 02.02.2021
2984 Clouds 19 1017 27 10000 2.06 90 23:41 02.02.2021
2985 Clouds 19 1017 27 10000 2.06 90 23:22 02.02.2021
2986 Clouds 19 1018 27 10000 3.09 70 22:39 02.02.2021
2987 Clouds 18 1018 27 10000 3.09 70 22:19 02.02.2021
2988 Clouds 17 1019 27 10000 1.54 0 21:44 02.02.2021
2989 Clouds 17 1019 27 10000 1.54 0 21:22 02.02.2021
2990 Clouds 16 1021 29 10000 1.49 96 20:48 02.02.2021
2991 Clouds 16 1021 29 10000 1.36 83 20:21 02.02.2021
2992 Clouds 14 1021 38 10000 2.06 80 19:49 02.02.2021
2993 Clouds 14 1021 38 10000 2.06 80 19:30 02.02.2021
2994 Clouds 13 1021 35 10000 1.54 70 18:48 02.02.2021
2995 Clouds 12 1021 37 10000 0.52 48 18:26 02.02.2021
2996 Clouds 11 1021 46 10000 0.52 48 17:59 02.02.2021
2997 Clouds 10 1021 46 10000 0.52 48 17:36 02.02.2021
2998 Clouds 10 1021 46 10000 0.41 17 17:18 02.02.2021
2999 Clouds 9 1020 53 10000 0.41 17 16:42 02.02.2021
3000 Clouds 8 1020 53 10000 0.3 20 16:23 02.02.2021
3001 Clouds 8 1020 53 10000 1.54 230 15:42 02.02.2021
3002 Clouds 8 1020 53 10000 1.54 230 15:22 02.02.2021
3003 Clouds 8 1020 49 10000 2.57 210 14:49 02.02.2021
3004 Clouds 7 1020 49 10000 2.57 210 14:28 02.02.2021
3005 Clouds 7 1020 49 10000 0.83 23 13:55 02.02.2021
3006 Clouds 7 1020 49 10000 0.83 23 13:37 02.02.2021
3007 Clouds 8 1020 49 10000 0.95 24 13:18 02.02.2021
3008 Clouds 8 1020 49 10000 0.95 24 12:36 02.02.2021
3009 Clouds 8 1021 49 10000 2.06 220 11:45 02.02.2021
3010 Clouds 8 1021 49 10000 2.06 220 11:22 02.02.2021
3011 Clouds 8 1021 49 10000 2.06 220 11:22 02.02.2021
3012 Clouds 8 1021 53 10000 1.54 230 10:55 02.02.2021
3013 Clouds 8 1021 53 10000 1.54 230 10:27 02.02.2021
3014 Clouds 9 1021 49 10000 2.06 210 09:47 02.02.2021
3015 Clouds 9 1021 49 10000 2.06 210 09:25 02.02.2021
3016 Clouds 10 1021 43 10000 1.54 230 08:54 02.02.2021
3017 Clouds 10 1021 43 10000 1.54 230 08:28 02.02.2021
3018 Clouds 10 1021 40 10000 0.29 357 07:31 02.02.2021
3019 Clouds 11 1021 35 10000 0.46 348 06:43 02.02.2021
3020 Clouds 12 1020 30 10000 0.96 345 05:53 02.02.2021
3021 Clouds 12 1020 30 10000 1.05 9 04:57 02.02.2021
3022 Clouds 14 1020 28 10000 2.06 120 02:26 02.02.2021
3023 Clouds 15 1020 26 10000 2.57 80 01:55 02.02.2021
3024 Clouds 15 1020 26 10000 1.44 72 00:34 02.02.2021
3025 Clouds 15 1021 26 10000 1.72 78 23:20 01.02.2021
3026 Clouds 15 1021 26 10000 1.72 78 22:50 01.02.2021
3027 Clouds 15 1021 26 10000 1.72 78 22:50 01.02.2021
3028 Clouds 15 1021 26 10000 1.72 78 22:32 01.02.2021
3029 Clouds 15 1022 28 10000 1.54 40 21:49 01.02.2021
3030 Clouds 15 1022 28 10000 1.54 40 21:30 01.02.2021
3031 Clouds 15 1022 28 10000 1.54 40 21:30 01.02.2021
3032 Clouds 14 1023 28 10000 1.74 76 20:56 01.02.2021
3033 Clouds 14 1023 28 10000 1.74 76 20:36 01.02.2021
3034 Clouds 14 1023 28 10000 1.34 64 20:18 01.02.2021
3035 Clouds 13 1023 33 10000 1.34 64 19:38 01.02.2021
3036 Clouds 13 1023 33 10000 1.08 33 19:18 01.02.2021
3037 Clouds 12 1023 35 10000 1.5 31 18:46 01.02.2021
3038 Clouds 12 1023 35 10000 0.64 356 18:26 01.02.2021
3039 Clouds 11 1022 40 10000 0.64 356 17:47 01.02.2021
3040 Clouds 10 1022 40 10000 0.49 357 17:23 01.02.2021
3041 Clouds 9 1022 40 10000 2.06 160 16:46 01.02.2021
3042 Clouds 9 1022 40 10000 2.06 160 16:28 01.02.2021
3043 Clouds 9 1022 40 10000 1.54 220 15:42 01.02.2021
3044 Clouds 9 1022 40 10000 1.54 220 15:19 01.02.2021
3045 Clouds 9 1022 43 10000 1.54 220 14:51 01.02.2021
3046 Clouds 8 1022 43 10000 1.54 220 14:24 01.02.2021
3047 Clouds 8 1022 46 10000 1.54 250 13:46 01.02.2021
3048 Clouds 8 1022 46 10000 1.54 250 13:26 01.02.2021
3049 Clouds 9 1023 43 10000 1.54 190 12:45 01.02.2021
3050 Clouds 9 1023 43 10000 1.54 190 12:25 01.02.2021
3051 Clouds 9 1023 43 10000 1.54 190 12:25 01.02.2021
3052 Clouds 9 1023 43 10000 0.57 8 11:47 01.02.2021
3053 Clouds 9 1023 43 10000 0.82 12 11:21 01.02.2021
3054 Clouds 9 1023 40 10000 1.54 210 10:52 01.02.2021
3055 Clouds 9 1023 40 10000 1.54 210 10:22 01.02.2021
3056 Clouds 10 1023 43 10000 0.55 318 09:54 01.02.2021
3057 Clouds 10 1023 43 10000 0.55 318 09:35 01.02.2021
3058 Clouds 10 1024 37 10000 1.05 330 08:56 01.02.2021
3059 Clouds 10 1024 37 10000 1 321 08:26 01.02.2021
3060 Clouds 10 1024 37 10000 1 321 07:30 01.02.2021
3061 Clouds 11 1024 32 10000 2.06 290 04:34 01.02.2021
3062 Clouds 12 1024 26 10000 1.54 20 02:40 01.02.2021
3063 Clouds 14 1024 26 10000 3.09 30 00:18 01.02.2021
3064 Clouds 14 1025 30 10000 4.63 30 22:57 31.01.2021
3065 Clouds 14 1025 30 10000 4.63 30 22:38 31.01.2021
3066 Clouds 14 1025 30 10000 4.63 30 22:19 31.01.2021
3067 Clouds 13 1026 33 10000 1.54 0 21:46 31.01.2021
3068 Clouds 13 1026 33 10000 1.54 0 21:19 31.01.2021
3069 Clouds 12 1027 37 10000 1.88 38 20:43 31.01.2021
3070 Clouds 12 1027 37 10000 2.26 32 20:21 31.01.2021
3071 Clouds 11 1028 43 10000 2.26 32 19:39 31.01.2021
3072 Clouds 11 1028 43 10000 1.26 22 19:21 31.01.2021
3073 Clouds 11 1028 43 10000 1.26 22 19:21 31.01.2021
3074 Clouds 9 1028 57 10000 1.31 16 18:55 31.01.2021
3075 Clouds 9 1028 57 10000 1.31 16 18:37 31.01.2021
3076 Clouds 8 1028 57 10000 1.05 7 18:18 31.01.2021
3077 Clouds 8 1028 57 10000 1.05 7 18:18 31.01.2021
3078 Clouds 7 1027 56 10000 1.05 7 17:39 31.01.2021
3079 Clouds 6 1027 56 10000 0.71 348 17:20 31.01.2021
3080 Clouds 3 1026 70 10000 2.06 230 16:41 31.01.2021
3081 Clouds 3 1026 70 10000 2.06 230 16:20 31.01.2021
3082 Clouds 3 1026 70 10000 1.54 210 15:49 31.01.2021
3083 Clouds 3 1026 70 10000 1.54 210 15:25 31.01.2021
3084 Clouds 3 1026 70 10000 1.54 240 14:36 31.01.2021
3085 Clouds 3 1026 70 10000 1.54 240 14:18 31.01.2021
3086 Clear 3 1025 70 10000 1.05 7 13:41 31.01.2021
3087 Clear 3 1025 70 10000 0.41 23 13:18 31.01.2021
3088 Clear 3 1026 65 10000 1.54 240 12:45 31.01.2021
3089 Clear 4 1026 65 10000 1.54 240 12:20 31.01.2021
3090 Clear 4 1026 70 10000 1.54 190 11:39 31.01.2021
3091 Clear 4 1026 70 10000 1.54 190 11:20 31.01.2021
3092 Clear 4 1025 60 10000 0.44 17 10:45 31.01.2021
3093 Clear 4 1025 60 10000 0.93 7 10:26 31.01.2021
3094 Clear 5 1026 61 10000 0.93 7 09:41 31.01.2021
3095 Clear 6 1026 53 10000 2.06 270 08:53 31.01.2021
3096 Clear 6 1026 53 10000 2.06 270 08:31 31.01.2021
3097 Clouds 7 1025 49 10000 2.06 270 06:47 31.01.2021
3098 Clouds 9 1024 40 10000 1.79 36 03:53 31.01.2021
3099 Clouds 13 1023 35 10000 2.06 130 00:28 31.01.2021
3100 Clouds 12 1022 37 10000 1.54 40 23:59 30.01.2021
3101 Clouds 13 1022 37 10000 1.54 40 23:28 30.01.2021
3102 Clouds 12 1023 40 10000 2.06 0 22:43 30.01.2021
3103 Clouds 12 1023 40 10000 2.06 0 22:22 30.01.2021
3104 Clouds 11 1023 43 10000 2.06 50 21:39 30.01.2021
3105 Clouds 11 1023 43 10000 2.06 50 21:18 30.01.2021
3106 Clouds 10 1024 53 10000 1.08 49 20:39 30.01.2021
3107 Clouds 9 1024 57 10000 1.49 47 20:00 30.01.2021
3108 Clouds 9 1024 57 10000 1.49 47 19:40 30.01.2021
3109 Clouds 9 1024 57 10000 1.49 47 19:40 30.01.2021
3110 Clouds 9 1024 57 10000 1.14 46 19:19 30.01.2021
3111 Clear 8 1023 61 10000 1.54 50 18:40 30.01.2021
3112 Clear 7 1023 61 10000 1.54 50 18:20 30.01.2021
3113 Clouds 6 1023 60 10000 2.57 290 17:47 30.01.2021
3114 Clouds 5 1023 60 10000 2.57 290 17:19 30.01.2021
3115 Clouds 4 1022 65 10000 2.06 260 16:41 30.01.2021
3116 Clouds 3 1022 65 10000 2.06 260 16:22 30.01.2021
3117 Clear 2 1021 65 10000 3.6 290 15:49 30.01.2021
3118 Clear 3 1021 65 10000 3.6 290 15:25 30.01.2021
3119 Clear 2 1020 70 10000 0.87 34 14:58 30.01.2021
3120 Clear 2 1020 70 10000 0.87 34 14:38 30.01.2021
3121 Clear 3 1020 70 10000 0.07 311 14:18 30.01.2021
3122 Clear 3 1019 65 10000 1.54 260 13:23 30.01.2021
3123 Clear 4 1018 65 10000 1.54 260 12:46 30.01.2021
3124 Clear 4 1018 65 10000 1.54 260 12:27 30.01.2021
3125 Clear 4 1017 60 10000 1.39 240 11:53 30.01.2021
3126 Clear 4 1017 60 10000 1.8 237 11:21 30.01.2021
3127 Clear 6 1017 56 10000 2.57 200 10:29 30.01.2021
3128 Clear 6 1016 53 10000 3.09 220 09:43 30.01.2021
3129 Clear 6 1016 53 10000 3.09 220 09:24 30.01.2021
3130 Clouds 6 1016 53 10000 2.57 270 08:45 30.01.2021
3131 Clouds 7 1015 57 10000 3.6 200 07:44 30.01.2021
3132 Clouds 7 1014 49 10000 4.12 230 06:33 30.01.2021
3133 Clouds 10 1012 37 10000 3.6 270 03:53 30.01.2021
3134 Clouds 10 1012 37 10000 3.6 270 03:31 30.01.2021
3135 Clouds 10 1011 37 10000 5.66 250 02:22 30.01.2021
3136 Clouds 12 1010 37 10000 6.69 230 00:56 30.01.2021
3137 Clouds 12 1010 37 10000 6.69 230 00:27 30.01.2021
3138 Clouds 12 1009 37 10000 7.2 220 23:54 29.01.2021
3139 Clouds 12 1009 37 10000 7.2 220 23:28 29.01.2021
3140 Clouds 12 1009 40 10000 7.2 220 22:52 29.01.2021
3141 Clouds 12 1009 40 10000 7.2 220 22:32 29.01.2021
3142 Clouds 11 1010 50 10000 3.6 230 21:59 29.01.2021
3143 Clouds 10 1010 50 10000 3.6 230 21:27 29.01.2021
3144 Clouds 9 1011 53 10000 7.72 240 20:43 29.01.2021
3145 Clouds 9 1011 53 10000 7.72 240 20:24 29.01.2021
3146 Clouds 11 1011 53 10000 6.17 200 19:40 29.01.2021
3147 Clouds 11 1011 53 10000 6.17 200 19:21 29.01.2021
3148 Clouds 10 1011 62 10000 3.09 210 18:56 29.01.2021
3149 Clouds 9 1010 66 10000 4.12 190 17:51 29.01.2021
3150 Clouds 8 1010 66 10000 4.12 190 17:23 29.01.2021
3151 Clouds 9 1010 61 10000 2.06 190 16:58 29.01.2021
3152 Clouds 8 1010 61 10000 2.06 190 16:38 29.01.2021
3153 Clouds 8 1010 61 10000 2.06 190 16:19 29.01.2021
3154 Clouds 9 1010 61 10000 6.17 220 15:41 29.01.2021
3155 Clouds 9 1010 61 10000 6.17 220 15:41 29.01.2021
3156 Clouds 9 1010 61 10000 6.17 220 15:21 29.01.2021
3157 Clouds 10 1009 43 10000 5.14 230 14:23 29.01.2021
3158 Clouds 11 1009 43 10000 4.63 210 13:57 29.01.2021
3159 Clouds 11 1009 43 10000 4.63 210 13:33 29.01.2021
3160 Clouds 10 1009 43 10000 2.57 280 12:43 29.01.2021
3161 Clouds 10 1009 43 10000 2.57 280 12:19 29.01.2021
3162 Clouds 9 1009 49 10000 3.09 310 11:45 29.01.2021
3163 Clouds 10 1009 49 10000 3.09 310 11:18 29.01.2021
3164 Clouds 10 1010 43 10000 1.54 340 10:46 29.01.2021
3165 Clouds 10 1010 43 10000 1.54 340 10:23 29.01.2021
3166 Clouds 9 1011 53 10000 2.57 300 09:39 29.01.2021
3167 Clouds 8 1012 53 10000 1.54 170 08:50 29.01.2021
3168 Clouds 8 1012 53 10000 1.54 170 08:27 29.01.2021
3169 Clouds 8 1012 49 10000 1.54 270 07:48 29.01.2021
3170 Clouds 8 1012 49 10000 1.54 270 07:30 29.01.2021
3171 Clouds 8 1012 53 10000 1.54 300 06:49 29.01.2021
3172 Clouds 9 1012 49 10000 1.54 80 04:53 29.01.2021
3173 Clouds 11 1014 37 10000 2.57 80 01:50 29.01.2021
3174 Clouds 12 1014 35 10000 3.09 80 00:37 29.01.2021
3175 Clouds 12 1014 35 10000 3.09 80 00:19 29.01.2021
3176 Clouds 12 1015 35 10000 2.57 100 23:39 28.01.2021
3177 Clouds 12 1015 35 10000 2.57 100 23:20 28.01.2021
3178 Clouds 12 1016 37 10000 1.54 40 22:42 28.01.2021
3179 Clouds 11 1016 37 10000 1.54 40 22:24 28.01.2021
3180 Clouds 11 1017 40 10000 1.54 0 21:45 28.01.2021
3181 Clouds 10 1017 40 10000 1.54 0 21:27 28.01.2021
3182 Clouds 10 1018 43 10000 1.19 83 20:47 28.01.2021
3183 Clouds 10 1018 43 10000 0.98 42 20:20 28.01.2021
3184 Clouds 9 1019 49 10000 1.2 44 19:57 28.01.2021
3185 Clouds 9 1019 49 10000 1.2 44 19:32 28.01.2021
3186 Clouds 7 1019 57 10000 1.17 22 18:54 28.01.2021
3187 Clouds 7 1019 57 10000 1.17 22 18:36 28.01.2021
3188 Clouds 7 1019 57 10000 0.95 357 18:18 28.01.2021
3189 Clouds 6 1019 61 10000 0.95 357 17:43 28.01.2021
3190 Clouds 5 1019 61 10000 0.71 358 17:24 28.01.2021
3191 Clouds 4 1019 70 10000 0.71 358 16:43 28.01.2021
3192 Clouds 4 1019 70 10000 0.55 36 16:21 28.01.2021
3193 Clouds 4 1019 70 10000 0.55 36 15:38 28.01.2021
3194 Clouds 4 1019 70 10000 1.54 220 14:58 28.01.2021
3195 Clouds 4 1019 70 10000 1.54 220 14:39 28.01.2021
3196 Clouds 4 1019 70 10000 1.54 220 14:39 28.01.2021
3197 Clouds 4 1019 70 10000 1.54 220 14:20 28.01.2021
3198 Clouds 4 1019 60 10000 1.54 250 13:40 28.01.2021
3199 Clouds 4 1019 60 10000 1.54 250 12:52 28.01.2021
3200 Clouds 4 1019 60 10000 1.54 250 12:33 28.01.2021
3201 Clouds 4 1020 61 10000 1.54 250 11:58 28.01.2021
3202 Clouds 4 1020 61 10000 1.54 250 11:39 28.01.2021
3203 Clouds 5 1020 61 10000 1.54 250 11:19 28.01.2021
3204 Clouds 4 1020 61 10000 1.06 30 10:49 28.01.2021
3205 Clouds 5 1020 61 10000 1.39 22 10:27 28.01.2021
3206 Clouds 5 1020 61 10000 1.39 22 09:44 28.01.2021
3207 Clouds 5 1020 61 10000 1.67 42 09:22 28.01.2021
3208 Clouds 5 1021 65 10000 1.67 42 08:48 28.01.2021
3209 Clouds 6 1021 57 10000 1.54 10 07:55 28.01.2021
3210 Clouds 6 1021 57 10000 1.54 10 07:37 28.01.2021
3211 Clouds 6 1021 57 10000 2.57 30 06:48 28.01.2021
3212 Clouds 6 1021 53 10000 3.09 20 05:28 28.01.2021
3213 Clouds 7 1021 49 10000 2.06 100 03:49 28.01.2021
3214 Clouds 9 1020 43 10000 2.06 0 00:57 28.01.2021
3215 Clouds 9 1021 46 10000 4.63 110 23:43 27.01.2021
3216 Clouds 9 1021 46 10000 4.63 110 23:23 27.01.2021
3217 Clouds 9 1022 46 10000 2.57 0 22:41 27.01.2021
3218 Clouds 9 1022 46 10000 2.57 0 22:21 27.01.2021
3219 Clouds 8 1022 53 10000 3.09 60 21:42 27.01.2021
3220 Clouds 8 1022 53 10000 3.09 60 21:22 27.01.2021
3221 Clouds 8 1023 57 10000 3.09 0 20:47 27.01.2021
3222 Clouds 7 1023 57 10000 3.09 0 20:20 27.01.2021
3223 Clouds 7 1023 56 10000 3.09 0 19:43 27.01.2021
3224 Clouds 6 1023 56 10000 3.09 0 19:21 27.01.2021
3225 Clouds 6 1023 56 10000 3.6 140 18:44 27.01.2021
3226 Rain 5 1023 56 10000 3.6 140 18:23 27.01.2021
3227 Clouds 4 1022 75 10000 2.57 10 17:51 27.01.2021
3228 Clouds 4 1022 75 10000 2.57 10 17:31 27.01.2021
3229 Clouds 4 1022 70 10000 2.32 124 16:54 27.01.2021
3230 Clouds 4 1022 70 10000 2.32 124 16:36 27.01.2021
3231 Clouds 3 1022 70 10000 1.31 118 16:18 27.01.2021
3232 Clouds 3 1021 70 10000 1.54 130 15:41 27.01.2021
3233 Clouds 3 1021 70 10000 1.54 130 15:23 27.01.2021
3234 Clouds 3 1021 70 10000 1.54 220 14:23 27.01.2021
3235 Clouds 3 1020 75 10000 2.05 132 13:49 27.01.2021
3236 Clouds 3 1020 75 10000 2.48 135 13:29 27.01.2021
3237 Clouds 3 1021 81 10000 2.48 135 12:42 27.01.2021
3238 Clouds 3 1021 81 10000 2.01 127 12:22 27.01.2021
3239 Clouds 3 1020 80 10000 2.01 127 11:46 27.01.2021
3240 Clouds 2 1020 80 10000 1.37 130 11:23 27.01.2021
3241 Clouds 2 1020 80 10000 1.37 130 10:41 27.01.2021
3242 Clouds 2 1020 80 10000 1.77 126 10:21 27.01.2021
3243 Clouds 2 1020 75 10000 1.77 126 09:50 27.01.2021
3244 Clouds 3 1020 75 10000 1.62 135 09:25 27.01.2021
3245 Clouds 3 1020 75 10000 2.06 220 08:39 27.01.2021
3246 Clouds 3 1020 75 10000 2.06 220 08:39 27.01.2021
3247 Clouds 3 1020 70 10000 3.09 210 07:45 27.01.2021
3248 Clouds 3 1020 70 10000 3.09 210 07:21 27.01.2021
3249 Clouds 3 1019 70 10000 3.09 200 06:21 27.01.2021
3250 Clouds 3 1018 70 10000 1.54 0 05:46 27.01.2021
3251 Clouds 4 1017 75 10000 3.09 100 03:37 27.01.2021
3252 Clouds 5 1016 61 10000 4.63 90 02:23 27.01.2021
3253 Clouds 5 1016 61 10000 5.14 80 01:51 27.01.2021
3254 Clouds 6 1015 61 10000 4.12 80 00:43 27.01.2021
3255 Clouds 5 1014 65 10000 2.57 60 23:50 26.01.2021
3256 Clouds 5 1014 65 10000 2.57 60 23:32 26.01.2021
3257 Clouds 5 1014 65 10000 3.6 70 22:51 26.01.2021
3258 Clouds 5 1014 65 10000 3.6 70 22:33 26.01.2021
3259 Clouds 5 1014 70 10000 2.57 100 21:57 26.01.2021
3260 Clouds 5 1014 70 10000 2.57 100 21:39 26.01.2021
3261 Clouds 5 1014 70 10000 2.57 100 21:21 26.01.2021
3262 Clouds 4 1014 75 10000 1.12 112 20:40 26.01.2021
3263 Clouds 4 1014 75 10000 1.5 99 20:21 26.01.2021
3264 Clouds 3 1013 87 10000 1.54 0 19:46 26.01.2021
3265 Clouds 3 1013 87 10000 1.54 0 19:24 26.01.2021
3266 Clouds 3 1012 87 10000 1.14 113 18:49 26.01.2021
3267 Clouds 2 1012 93 10000 1.54 90 18:28 26.01.2021
3268 Clouds 2 1011 93 10000 0.9 68 17:58 26.01.2021
3269 Clouds 2 1011 93 10000 1.54 100 17:40 26.01.2021
3270 Snow 2 1010 93 10000 2.06 60 17:19 26.01.2021
3271 Snow 1 1009 93 10000 2.06 50 16:40 26.01.2021
3272 Snow 1 1008 100 10000 2.06 0 16:19 26.01.2021
3273 Snow 1 1007 100 10000 3.09 10 15:47 26.01.2021
3274 Snow 1 1007 100 10000 2.57 20 15:26 26.01.2021
3275 Snow 1 1006 100 9656 1.99 56 14:48 26.01.2021
3276 Snow 1 1005 100 9656 1.54 70 14:29 26.01.2021
3277 Snow 1 1004 100 9656 1.69 67 13:37 26.01.2021
3278 Mist 1 1004 100 9656 1.56 94 13:18 26.01.2021
3279 Snow 1 1004 100 6437 1.12 55 12:43 26.01.2021
3280 Snow 1 1004 100 9656 2.06 180 12:22 26.01.2021
3281 Mist 1 1003 93 9656 1.54 170 11:51 26.01.2021
3282 Snow 2 1003 93 9656 1.54 170 11:30 26.01.2021
3283 Rain 2 1002 80 10000 2.06 200 10:44 26.01.2021
3284 Rain 2 1002 80 10000 2.06 200 10:25 26.01.2021
3285 Rain 3 1001 65 10000 3.09 190 09:40 26.01.2021
3286 Rain 3 1001 65 10000 3.09 190 09:22 26.01.2021
3287 Rain 3 1001 60 10000 2.57 170 08:50 26.01.2021
3288 Rain 3 1001 60 10000 3.09 180 08:20 26.01.2021
3289 Clouds 4 1000 60 10000 4.12 190 07:25 26.01.2021
3290 Clouds 3 1001 67 10000 0.89 167 05:58 26.01.2021
3291 Clouds 3 1001 74 10000 0.89 324 05:38 26.01.2021
3292 Clouds 4 999 70 10000 5.14 200 03:42 26.01.2021
3293 Clouds 5 999 56 10000 4.63 220 01:46 26.01.2021
3294 Rain 5 998 56 10000 4.63 210 00:36 26.01.2021
3295 Clouds 5 998 61 10000 6.17 210 23:34 25.01.2021
3296 Clouds 5 998 65 10000 5.66 210 22:52 25.01.2021
3297 Clouds 5 998 65 10000 5.66 210 22:33 25.01.2021
3298 Clouds 5 1000 87 10000 2.06 170 21:48 25.01.2021
3299 Clouds 5 1000 87 10000 2.06 170 21:22 25.01.2021
3300 Mist 4 1001 87 6437 5.14 190 20:46 25.01.2021
3301 Rain 5 1001 87 6437 5.14 190 20:28 25.01.2021
3302 Rain 5 1001 81 10000 2.57 170 19:50 25.01.2021
3303 Rain 5 1002 75 10000 2.57 170 19:27 25.01.2021
3304 Clouds 6 1002 65 10000 3.6 180 18:48 25.01.2021
3305 Clouds 6 1002 65 10000 3.6 180 18:27 25.01.2021
3306 Clouds 6 1002 70 10000 3.09 180 17:50 25.01.2021
3307 Clouds 5 1002 70 10000 3.09 180 17:31 25.01.2021
3308 Clouds 5 1002 70 10000 4.63 180 16:59 25.01.2021
3309 Clouds 5 1002 70 10000 4.63 180 16:40 25.01.2021
3310 Clouds 5 1002 70 10000 4.63 180 16:21 25.01.2021
3311 Clouds 5 1003 75 10000 2.57 150 15:43 25.01.2021
3312 Clouds 5 1003 75 10000 2.57 150 15:23 25.01.2021
3313 Clouds 5 1003 75 10000 4.63 190 14:40 25.01.2021
3314 Clouds 5 1003 75 10000 4.63 190 14:19 25.01.2021
3315 Clouds 5 1004 70 10000 4.12 170 13:45 25.01.2021
3316 Clouds 5 1004 70 10000 4.12 170 13:25 25.01.2021
3317 Clouds 5 1004 75 10000 5.66 200 12:45 25.01.2021
3318 Clouds 6 1004 75 10000 5.66 200 12:19 25.01.2021
3319 Clouds 6 1005 65 10000 4.63 210 11:31 25.01.2021
3320 Clouds 7 1005 49 10000 4.63 180 10:53 25.01.2021
3321 Clouds 8 1005 49 10000 4.63 180 10:23 25.01.2021
3322 Clouds 8 1005 43 10000 4.12 170 09:55 25.01.2021
3323 Clouds 8 1005 43 10000 4.12 170 09:37 25.01.2021
3324 Clouds 8 1006 43 10000 4.12 180 08:56 25.01.2021
3325 Clouds 8 1006 43 10000 4.12 180 08:23 25.01.2021
3326 Clouds 9 1006 43 10000 4.63 210 07:31 25.01.2021
3327 Clouds 8 1006 36 10000 3.6 180 06:53 25.01.2021
3328 Clouds 9 1006 24 10000 4.63 230 03:39 25.01.2021
3329 Clouds 12 1006 21 10000 3.09 250 01:22 25.01.2021
3330 Clouds 13 1006 30 10000 1.54 200 23:40 24.01.2021
3331 Clouds 13 1006 30 10000 1.54 200 23:19 24.01.2021
3332 Clouds 13 1007 32 10000 2.06 0 22:42 24.01.2021
3333 Clouds 12 1007 32 10000 2.06 0 22:20 24.01.2021
3334 Clouds 11 1008 32 10000 2.42 208 21:46 24.01.2021
3335 Clouds 11 1008 32 10000 1.78 191 21:23 24.01.2021
3336 Clouds 11 1009 37 10000 1.78 191 20:44 24.01.2021
3337 Clouds 10 1009 37 10000 1.12 182 20:21 24.01.2021
3338 Clouds 9 1010 46 10000 1.54 0 19:51 24.01.2021
3339 Clouds 9 1010 46 10000 1.54 0 19:26 24.01.2021
3340 Clouds 8 1010 56 10000 1.54 0 18:57 24.01.2021
3341 Clouds 7 1010 56 10000 1.54 0 18:38 24.01.2021
3342 Clouds 7 1010 56 10000 1.54 0 18:20 24.01.2021
3343 Clouds 6 1009 60 10000 2.06 210 17:49 24.01.2021
3344 Clouds 6 1009 60 10000 2.06 210 17:25 24.01.2021
3345 Clouds 4 1009 65 10000 2.57 210 16:43 24.01.2021
3346 Clouds 2 1009 65 10000 2.57 210 16:25 24.01.2021
3347 Clouds 2 1009 65 10000 3.09 220 15:58 24.01.2021
3348 Clouds 3 1009 65 10000 3.09 220 15:40 24.01.2021
3349 Clouds 3 1009 65 10000 3.09 220 15:18 24.01.2021
3350 Clouds 3 1009 65 10000 2.06 250 14:37 24.01.2021
3351 Clouds 3 1009 65 10000 2.57 270 13:45 24.01.2021
3352 Clouds 3 1009 65 10000 2.57 270 13:24 24.01.2021
3353 Clouds 3 1010 60 10000 1.54 210 12:43 24.01.2021
3354 Clouds 3 1010 60 10000 1.54 210 12:20 24.01.2021
3355 Clouds 3 1010 65 10000 3.09 210 11:49 24.01.2021
3356 Clouds 3 1010 65 10000 3.09 210 11:49 24.01.2021
3357 Clouds 3 1010 65 10000 3.09 210 11:24 24.01.2021
3358 Clouds 4 1010 65 10000 1.54 250 10:45 24.01.2021
3359 Clouds 4 1010 65 10000 1.54 250 10:18 24.01.2021
3360 Clouds 5 1010 61 10000 2.57 220 09:22 24.01.2021
3361 Clouds 5 1011 61 10000 1.54 240 08:56 24.01.2021
3362 Clouds 6 1011 65 10000 1.54 190 07:50 24.01.2021
3363 Clouds 8 1011 49 10000 4.12 120 02:41 24.01.2021
3364 Clouds 10 1010 35 10000 4.12 60 01:49 24.01.2021
3365 Clouds 11 1010 32 10000 2.57 50 00:25 24.01.2021
3366 Clouds 11 1010 35 10000 1.54 0 23:49 23.01.2021
3367 Clouds 11 1010 35 10000 1.54 0 23:26 23.01.2021
3368 Clouds 11 1010 37 10000 2.06 140 22:51 23.01.2021
3369 Clouds 11 1010 37 10000 2.06 140 22:33 23.01.2021
3370 Clouds 11 1011 40 10000 2.57 170 21:52 23.01.2021
3371 Clouds 10 1011 40 10000 2.57 170 21:22 23.01.2021
3372 Clouds 10 1012 40 10000 2.06 170 20:47 23.01.2021
3373 Clouds 10 1012 40 10000 2.06 170 20:25 23.01.2021
3374 Clouds 10 1012 46 10000 2.06 170 19:47 23.01.2021
3375 Clouds 10 1012 46 10000 2.06 170 19:23 23.01.2021
3376 Clouds 8 1012 49 10000 2.57 200 18:49 23.01.2021
3377 Clouds 8 1012 49 10000 2.57 200 18:26 23.01.2021
3378 Clouds 7 1011 53 10000 4.12 200 17:54 23.01.2021
3379 Clouds 6 1011 53 10000 4.12 200 17:27 23.01.2021
3380 Clouds 6 1010 53 10000 5.14 200 16:50 23.01.2021
3381 Clouds 6 1010 53 10000 5.14 200 16:30 23.01.2021
3382 Clouds 6 1010 53 10000 5.14 200 15:42 23.01.2021
3383 Clouds 6 1010 53 10000 5.14 200 15:24 23.01.2021
3384 Clouds 6 1009 49 10000 4.12 200 14:34 23.01.2021
3385 Clouds 7 1008 46 10000 3.6 210 13:56 23.01.2021
3386 Clouds 7 1008 46 10000 3.6 210 13:36 23.01.2021
3387 Clouds 7 1008 46 10000 3.6 200 12:57 23.01.2021
3388 Clouds 7 1008 46 10000 3.6 200 12:37 23.01.2021
3389 Clouds 7 1008 46 10000 3.6 200 12:18 23.01.2021
3390 Clouds 7 1008 46 10000 3.09 210 11:33 23.01.2021
3391 Clouds 8 1007 43 10000 7.2 220 10:52 23.01.2021
3392 Clouds 8 1007 43 10000 7.2 220 10:22 23.01.2021
3393 Clouds 8 1007 46 10000 7.2 220 09:49 23.01.2021
3394 Clouds 8 1007 49 10000 2.57 230 08:57 23.01.2021
3395 Clouds 9 1007 49 10000 2.57 230 08:31 23.01.2021
3396 Clouds 9 1006 40 10000 6.69 200 07:37 23.01.2021
3397 Clouds 11 1006 54 10000 5.14 200 05:32 23.01.2021
3398 Clouds 15 1007 51 10000 5.14 160 00:54 23.01.2021
3399 Clouds 16 1008 55 10000 5.66 160 23:51 22.01.2021
3400 Clouds 15 1008 55 10000 5.66 160 23:30 22.01.2021
3401 Clouds 16 1009 34 10000 3.09 180 22:40 22.01.2021
3402 Clouds 16 1010 33 10000 5.14 210 21:47 22.01.2021
3403 Clouds 16 1010 33 10000 5.14 210 21:29 22.01.2021
3404 Clouds 15 1011 36 10000 7.72 190 20:59 22.01.2021
3405 Clouds 15 1011 36 10000 7.72 190 20:38 22.01.2021
3406 Clouds 15 1012 41 10000 3.6 200 19:56 22.01.2021
3407 Clouds 15 1012 41 10000 3.6 200 19:25 22.01.2021
3408 Clouds 14 1012 47 10000 6.69 100 18:59 22.01.2021
3409 Clouds 13 1012 47 10000 6.69 100 18:39 22.01.2021
3410 Clouds 13 1012 47 10000 6.69 100 18:20 22.01.2021
3411 Clouds 12 1012 44 10000 3.6 170 17:43 22.01.2021
3412 Clouds 12 1012 44 10000 3.6 170 17:20 22.01.2021
3413 Clouds 11 1012 50 10000 4.12 170 16:39 22.01.2021
3414 Clouds 10 1012 50 10000 4.12 170 16:19 22.01.2021
3415 Clouds 10 1012 50 10000 3.6 180 15:28 22.01.2021
3416 Clouds 10 1012 50 10000 3.09 170 14:54 22.01.2021
3417 Clouds 10 1012 50 10000 3.09 170 14:29 22.01.2021
3418 Clouds 10 1012 47 10000 2.57 150 13:47 22.01.2021
3419 Clouds 9 1012 47 10000 2.57 150 13:27 22.01.2021
3420 Clouds 9 1013 57 10000 3.09 180 12:44 22.01.2021
3421 Clouds 9 1013 57 10000 3.09 180 12:21 22.01.2021
3422 Clouds 9 1014 57 10000 2.2 199 11:45 22.01.2021
3423 Clouds 9 1014 53 10000 1.54 200 10:54 22.01.2021
3424 Clouds 9 1014 53 10000 1.54 200 10:34 22.01.2021
3425 Clouds 10 1014 50 10000 2.58 211 09:55 22.01.2021
3426 Clouds 10 1014 50 10000 2.24 211 09:21 22.01.2021
3427 Clear 10 1015 50 10000 2.24 211 08:50 22.01.2021
3428 Clear 10 1015 50 10000 1.85 208 08:25 22.01.2021
3429 Clear 11 1015 47 10000 2.57 210 07:23 22.01.2021
3430 Clouds 14 1014 36 10000 2.06 110 02:42 22.01.2021
3431 Clouds 17 1015 32 10000 2.06 70 00:37 22.01.2021
3432 Clouds 17 1015 31 10000 2.06 60 23:50 21.01.2021
3433 Clouds 17 1015 31 10000 2.06 60 23:29 21.01.2021
3434 Clouds 17 1016 33 10000 1.04 215 22:48 21.01.2021
3435 Clouds 17 1016 33 10000 0.94 166 22:21 21.01.2021
3436 Clouds 17 1017 33 10000 0.94 166 21:43 21.01.2021
3437 Clouds 16 1017 33 10000 1.1 144 21:19 21.01.2021
3438 Clouds 16 1018 38 10000 1.1 144 20:47 21.01.2021
3439 Clouds 15 1018 38 10000 1.44 142 20:26 21.01.2021
3440 Clouds 14 1019 41 10000 1.44 142 19:51 21.01.2021
3441 Clouds 14 1019 41 10000 1.34 145 19:28 21.01.2021
3442 Clouds 12 1019 50 10000 1.34 145 18:55 21.01.2021
3443 Clouds 12 1019 50 10000 1.34 145 18:36 21.01.2021
3444 Clouds 12 1019 50 10000 0.62 159 18:18 21.01.2021
3445 Clouds 10 1019 57 10000 0.62 159 17:42 21.01.2021
3446 Clouds 9 1019 57 10000 0.3 289 17:18 21.01.2021
3447 Clouds 8 1019 57 10000 1.54 210 16:41 21.01.2021
3448 Clouds 7 1019 57 10000 1.54 210 16:23 21.01.2021
3449 Clouds 7 1019 53 10000 1.54 260 15:55 21.01.2021
3450 Clouds 7 1019 53 10000 1.54 260 15:28 21.01.2021
3451 Clouds 7 1018 53 10000 1.54 200 14:50 21.01.2021
3452 Clouds 7 1018 53 10000 1.54 200 14:31 21.01.2021
3453 Clouds 7 1018 57 10000 1.54 210 13:47 21.01.2021
3454 Clouds 7 1018 57 10000 1.54 210 13:26 21.01.2021
3455 Clouds 7 1018 53 10000 2.57 200 12:46 21.01.2021
3456 Clouds 7 1018 53 10000 2.57 200 12:26 21.01.2021
3457 Clouds 8 1019 53 10000 0.99 310 11:56 21.01.2021
3458 Clouds 8 1019 53 10000 0.99 310 11:35 21.01.2021
3459 Clouds 8 1019 49 10000 1.12 306 10:57 21.01.2021
3460 Clouds 8 1019 49 10000 1.12 306 10:39 21.01.2021
3461 Clouds 8 1019 49 10000 1.25 317 10:20 21.01.2021
3462 Clouds 9 1019 49 10000 2.06 220 09:39 21.01.2021
3463 Clouds 9 1019 49 10000 2.06 220 09:18 21.01.2021
3464 Clouds 10 1019 43 10000 0.98 341 08:34 21.01.2021
3465 Clouds 10 1020 43 10000 1.05 331 07:46 21.01.2021
3466 Clouds 10 1020 43 10000 1.03 319 07:26 21.01.2021
3467 Clouds 10 1020 43 10000 2.06 220 06:26 21.01.2021
3468 Clouds 11 1020 44 10000 1.69 337 04:55 21.01.2021
3469 Clouds 12 1020 38 10000 0.96 105 02:19 21.01.2021
3470 Clouds 15 1020 36 10000 1.54 80 00:42 21.01.2021
3471 Clouds 15 1020 33 10000 1.54 0 23:49 20.01.2021
3472 Clouds 15 1020 33 10000 1.54 0 23:25 20.01.2021
3473 Clouds 15 1021 31 10000 1.54 0 22:52 20.01.2021
3474 Clouds 15 1021 31 10000 1.54 0 22:30 20.01.2021
3475 Clouds 15 1022 29 10000 3.09 10 21:54 20.01.2021
3476 Clouds 15 1022 29 10000 3.09 10 21:23 20.01.2021
3477 Clouds 14 1023 30 10000 2.57 340 20:52 20.01.2021
3478 Clouds 14 1023 30 10000 2.57 340 20:24 20.01.2021
3479 Clouds 13 1024 37 10000 2.77 72 19:49 20.01.2021
3480 Clouds 13 1024 37 10000 2.77 72 19:31 20.01.2021
3481 Clouds 12 1024 35 10000 3.6 30 18:49 20.01.2021
3482 Clouds 11 1024 35 10000 3.6 30 18:30 20.01.2021
3483 Clouds 11 1023 37 10000 2.02 20 17:52 20.01.2021
3484 Clouds 11 1023 37 10000 2.02 20 17:34 20.01.2021
3485 Clouds 10 1023 40 10000 3.09 30 16:51 20.01.2021
3486 Clouds 10 1023 40 10000 3.09 30 16:24 20.01.2021
3487 Clouds 10 1023 37 10000 1.54 90 15:45 20.01.2021
3488 Clouds 10 1023 37 10000 1.54 90 15:19 20.01.2021
3489 Clouds 10 1022 35 10000 3.6 20 14:43 20.01.2021
3490 Clouds 10 1022 35 10000 3.6 20 14:21 20.01.2021
3491 Rain 10 1022 35 10000 3.6 360 13:40 20.01.2021
3492 Clouds 10 1022 32 10000 2.06 60 12:59 20.01.2021
3493 Clouds 11 1022 32 10000 2.06 60 12:27 20.01.2021
3494 Clouds 11 1022 35 10000 2.06 40 11:42 20.01.2021
3495 Clouds 10 1022 35 10000 2.06 40 11:22 20.01.2021
3496 Clouds 10 1022 35 10000 3.6 30 10:50 20.01.2021
3497 Clouds 10 1022 35 10000 3.6 30 10:27 20.01.2021
3498 Clouds 10 1022 35 10000 3.6 30 10:27 20.01.2021
3499 Clouds 10 1022 40 10000 3.6 10 09:41 20.01.2021
3500 Clouds 10 1022 40 10000 3.6 10 09:23 20.01.2021
3501 Clouds 10 1022 46 10000 2.57 320 08:45 20.01.2021
3502 Clouds 10 1022 46 10000 2.57 320 08:23 20.01.2021
3503 Clouds 10 1021 37 10000 5.14 360 07:55 20.01.2021
3504 Clouds 10 1021 37 10000 5.14 360 07:25 20.01.2021
3505 Clouds 11 1020 40 10000 6.69 50 04:50 20.01.2021
3506 Clouds 13 1019 33 10000 10.8 80 02:59 20.01.2021
3507 Clouds 14 1018 21 10000 10.29 20 00:59 20.01.2021
3508 Clouds 14 1018 21 10000 10.29 20 00:25 20.01.2021
3509 Clouds 14 1018 23 10000 8.23 30 23:42 19.01.2021
3510 Clouds 14 1018 23 10000 8.23 30 23:18 19.01.2021
3511 Clouds 14 1018 23 10000 9.26 30 22:41 19.01.2021
3512 Clouds 14 1018 23 10000 9.26 30 22:22 19.01.2021
3513 Clouds 13 1018 24 10000 9.77 20 21:58 19.01.2021
3514 Clouds 13 1018 24 10000 9.77 20 21:39 19.01.2021
3515 Clouds 12 1019 26 10000 8.75 20 20:55 19.01.2021
3516 Clouds 12 1019 26 10000 8.75 20 20:36 19.01.2021
3517 Clouds 12 1019 26 10000 8.75 20 20:18 19.01.2021
3518 Clouds 11 1018 25 10000 6.17 10 19:41 19.01.2021
3519 Clouds 11 1018 25 10000 6.17 10 19:19 19.01.2021
3520 Clouds 10 1018 27 10000 7.72 350 18:39 19.01.2021
3521 Clouds 9 1018 27 10000 7.72 350 18:21 19.01.2021
3522 Clouds 8 1016 29 10000 8.23 340 17:45 19.01.2021
3523 Clouds 8 1016 29 10000 8.23 340 17:23 19.01.2021
3524 Clouds 8 1015 29 10000 8.23 350 16:45 19.01.2021
3525 Clouds 7 1015 29 10000 8.23 350 16:25 19.01.2021
3526 Clouds 7 1015 29 10000 6.17 340 15:55 19.01.2021
3527 Clouds 7 1015 29 10000 6.17 340 15:34 19.01.2021
3528 Clouds 7 1014 29 10000 6.69 350 14:51 19.01.2021
3529 Clouds 7 1014 29 10000 6.69 350 14:31 19.01.2021
3530 Clouds 7 1014 31 10000 8.23 350 13:53 19.01.2021
3531 Clouds 7 1014 31 10000 8.23 350 13:28 19.01.2021
3532 Clouds 8 1014 29 10000 8.75 350 12:58 19.01.2021
3533 Clouds 8 1014 29 10000 8.75 350 12:35 19.01.2021
3534 Clouds 8 1014 29 10000 7.72 360 11:59 19.01.2021
3535 Clouds 8 1014 29 10000 7.72 360 11:40 19.01.2021
3536 Clouds 8 1014 29 10000 7.72 360 11:21 19.01.2021
3537 Clouds 8 1014 29 10000 9.26 10 10:47 19.01.2021
3538 Clouds 9 1014 29 10000 9.26 10 10:27 19.01.2021
3539 Clouds 9 1013 24 10000 6.69 40 09:51 19.01.2021
3540 Clouds 9 1013 24 10000 6.69 40 09:20 19.01.2021
3541 Clouds 10 1013 24 10000 8.23 40 08:35 19.01.2021
3542 Clouds 11 1013 24 10000 7.72 40 07:53 19.01.2021
3543 Clouds 11 1013 24 10000 7.72 40 07:18 19.01.2021
3544 Clouds 13 1011 19 10000 4.63 30 04:48 19.01.2021
3545 Clouds 17 1012 11 10000 7.2 50 02:23 19.01.2021
3546 Clouds 19 1012 10 10000 4.12 360 00:41 19.01.2021
3547 Clouds 19 1013 12 10000 5.66 360 23:55 18.01.2021
3548 Clouds 19 1013 12 10000 5.66 360 23:27 18.01.2021
3549 Clouds 19 1013 14 10000 6.69 360 22:44 18.01.2021
3550 Clouds 19 1013 14 10000 6.69 360 22:22 18.01.2021
3551 Clouds 19 1014 15 10000 5.14 20 21:47 18.01.2021
3552 Clouds 19 1014 15 10000 5.14 20 21:23 18.01.2021
3553 Clouds 18 1016 19 10000 8.23 10 20:57 18.01.2021
3554 Clouds 18 1016 19 10000 8.23 10 20:34 18.01.2021
3555 Clouds 17 1017 23 10000 1.54 0 19:54 18.01.2021
3556 Clouds 17 1017 23 10000 1.54 0 19:35 18.01.2021
3557 Clouds 15 1017 30 10000 1.54 120 18:48 18.01.2021
3558 Clouds 15 1017 30 10000 1.54 120 18:27 18.01.2021
3559 Clouds 13 1016 29 10000 2.57 210 17:50 18.01.2021
3560 Clouds 12 1016 29 10000 2.57 210 17:31 18.01.2021
3561 Clouds 11 1016 29 10000 2.57 190 16:51 18.01.2021
3562 Clouds 10 1016 29 10000 2.57 190 16:32 18.01.2021
3563 Clouds 8 1015 27 10000 1.54 0 15:56 18.01.2021
3564 Clouds 8 1015 27 10000 1.54 0 15:37 18.01.2021
3565 Clouds 8 1015 27 10000 1.54 0 15:18 18.01.2021
3566 Clouds 8 1015 25 10000 2.57 260 14:41 18.01.2021
3567 Clouds 7 1015 25 10000 2.57 260 14:22 18.01.2021
3568 Clouds 7 1015 25 10000 2.57 210 13:44 18.01.2021
3569 Clouds 8 1015 25 10000 2.57 210 13:20 18.01.2021
3570 Clouds 8 1016 29 10000 2.35 345 12:47 18.01.2021
3571 Clouds 8 1016 29 10000 2.02 353 12:19 18.01.2021
3572 Clouds 8 1016 31 10000 2.57 220 11:48 18.01.2021
3573 Clouds 8 1016 31 10000 2.57 220 11:27 18.01.2021
3574 Clouds 9 1016 29 10000 1.54 230 10:49 18.01.2021
3575 Clouds 9 1016 29 10000 1.54 230 10:30 18.01.2021
3576 Clouds 9 1016 27 10000 2.57 260 09:40 18.01.2021
3577 Clouds 9 1016 27 10000 2.57 260 09:18 18.01.2021
3578 Clouds 9 1016 29 10000 1.54 250 08:27 18.01.2021
3579 Clouds 10 1016 28 10000 2.06 280 07:54 18.01.2021
3580 Clouds 11 1016 26 10000 2.06 230 06:35 18.01.2021
3581 Clear 13 1017 23 10000 0.96 276 04:43 18.01.2021
3582 Clear 13 1017 23 10000 0.68 267 04:25 18.01.2021
3583 Clear 14 1017 20 10000 1.54 120 03:50 18.01.2021
3584 Clear 14 1017 20 10000 1.54 120 03:27 18.01.2021
3585 Clouds 18 1017 17 10000 0.39 207 02:57 18.01.2021
3586 Clouds 18 1017 17 10000 0.49 153 02:19 18.01.2021
3587 Clouds 19 1018 16 10000 1.54 70 00:41 18.01.2021
3588 Clouds 19 1019 18 10000 1.39 101 23:52 17.01.2021
3589 Clouds 19 1019 18 10000 1.27 114 23:27 17.01.2021
3590 Clouds 19 1020 19 10000 1.27 114 22:55 17.01.2021
3591 Clouds 18 1020 19 10000 0.91 85 22:23 17.01.2021
3592 Clouds 17 1021 20 10000 0.91 85 21:44 17.01.2021
3593 Clouds 17 1021 20 10000 1.34 42 21:26 17.01.2021
3594 Clouds 17 1023 21 10000 1.54 40 20:54 17.01.2021
3595 Clouds 16 1023 21 10000 1.54 40 20:36 17.01.2021
3596 Clouds 16 1023 21 10000 1.54 40 20:18 17.01.2021
3597 Clouds 15 1024 24 10000 1.5 32 19:40 17.01.2021
3598 Clouds 13 1024 28 10000 1.08 19 18:54 17.01.2021
3599 Clouds 13 1024 28 10000 1.18 358 18:29 17.01.2021
3600 Clouds 11 1024 34 10000 2.06 270 17:51 17.01.2021
3601 Clouds 10 1024 34 10000 2.06 270 17:29 17.01.2021
3602 Clouds 7 1023 42 10000 1.54 260 16:45 17.01.2021
3603 Clouds 7 1023 42 10000 1.54 260 16:45 17.01.2021
3604 Clouds 6 1023 42 10000 1.54 260 16:25 17.01.2021
3605 Clouds 6 1023 36 10000 0.92 334 15:54 17.01.2021
3606 Clouds 6 1023 36 10000 0.88 343 15:27 17.01.2021
3607 Clouds 6 1023 36 10000 2.57 240 14:59 17.01.2021
3608 Clouds 7 1023 36 10000 2.57 240 14:39 17.01.2021
3609 Clouds 6 1023 36 10000 2.57 240 14:21 17.01.2021
3610 Clouds 6 1023 39 10000 1.54 210 13:43 17.01.2021
3611 Clouds 7 1023 39 10000 1.54 210 13:24 17.01.2021
3612 Clouds 7 1023 36 10000 2.57 240 12:45 17.01.2021
3613 Clouds 8 1023 36 10000 2.57 240 12:25 17.01.2021
3614 Clouds 8 1023 36 10000 2.57 280 11:26 17.01.2021
3615 Clouds 8 1023 34 10000 3.09 210 10:54 17.01.2021
3616 Clouds 8 1023 34 10000 3.09 210 10:36 17.01.2021
3617 Clouds 9 1023 34 10000 3.09 210 10:18 17.01.2021
3618 Clouds 10 1023 30 10000 2.06 210 08:59 17.01.2021
3619 Clouds 10 1023 30 10000 2.06 210 08:41 17.01.2021
3620 Clouds 14 1022 20 10000 2.57 10 04:36 17.01.2021
3621 Clouds 15 1021 20 10000 3.6 40 03:44 17.01.2021
3622 Clouds 20 1021 17 10000 5.66 60 01:29 17.01.2021
3623 Clouds 20 1021 18 10000 5.14 60 00:21 17.01.2021
3624 Clouds 21 1021 17 10000 8.23 40 23:53 16.01.2021
3625 Clouds 21 1021 17 10000 8.23 40 23:25 16.01.2021
3626 Clouds 21 1021 17 10000 4.12 60 22:55 16.01.2021
3627 Clouds 21 1021 17 10000 4.12 60 22:21 16.01.2021
3628 Clouds 21 1022 18 10000 5.14 40 21:46 16.01.2021
3629 Clouds 21 1022 18 10000 5.14 40 21:23 16.01.2021
3630 Clouds 20 1024 18 10000 3.6 70 20:49 16.01.2021
3631 Clouds 19 1024 18 10000 3.6 70 20:27 16.01.2021
3632 Clouds 18 1024 20 10000 1.54 320 19:49 16.01.2021
3633 Clouds 18 1024 20 10000 1.54 320 19:30 16.01.2021
3634 Clouds 15 1024 21 10000 4.23 22 18:47 16.01.2021
3635 Clouds 15 1024 21 10000 2.96 19 18:27 16.01.2021
3636 Clouds 13 1023 25 10000 2.06 230 17:58 16.01.2021
3637 Clouds 12 1023 25 10000 2.06 230 17:39 16.01.2021
3638 Clouds 11 1023 25 10000 2.06 230 17:20 16.01.2021
3639 Clouds 10 1022 27 10000 2.57 220 16:41 16.01.2021
3640 Clouds 9 1022 27 10000 2.57 220 16:18 16.01.2021
3641 Clouds 8 1021 29 10000 2.28 7 15:41 16.01.2021
3642 Clouds 9 1020 27 10000 2.06 240 14:34 16.01.2021
3643 Clouds 10 1020 25 10000 2.06 240 13:53 16.01.2021
3644 Clouds 10 1020 25 10000 2.06 240 13:53 16.01.2021
3645 Clouds 10 1020 25 10000 2.06 240 13:31 16.01.2021
3646 Clouds 10 1020 25 10000 3.09 280 12:48 16.01.2021
3647 Clouds 10 1020 25 10000 3.09 280 12:27 16.01.2021
3648 Clouds 10 1021 27 10000 0.62 37 11:56 16.01.2021
3649 Clouds 11 1021 27 10000 0.97 35 11:27 16.01.2021
3650 Clouds 11 1020 25 10000 1.54 0 10:59 16.01.2021
3651 Clouds 10 1020 25 10000 1.54 0 10:41 16.01.2021
3652 Clouds 10 1021 28 10000 2.06 210 09:54 16.01.2021
3653 Clouds 10 1021 28 10000 2.06 210 09:20 16.01.2021
3654 Clouds 11 1021 25 10000 2.06 220 08:19 16.01.2021
3655 Clouds 11 1022 26 10000 2.06 230 06:49 16.01.2021
3656 Clouds 12 1022 21 10000 1.54 230 04:53 16.01.2021
3657 Clouds 14 1022 18 10000 0.49 240 03:18 16.01.2021
3658 Clouds 17 1023 16 10000 0.49 240 02:37 16.01.2021
3659 Clouds 18 1023 14 10000 0.54 184 00:45 16.01.2021
3660 Clouds 19 1023 14 10000 0.9 106 00:21 16.01.2021
3661 Clouds 19 1024 14 10000 1.54 0 23:37 15.01.2021
3662 Clouds 19 1026 14 10000 0.96 96 22:39 15.01.2021
3663 Clouds 18 1026 14 10000 0.81 86 22:21 15.01.2021
3664 Clouds 17 1027 16 10000 1.54 0 21:42 15.01.2021
3665 Clouds 16 1029 17 10000 1.54 60 20:48 15.01.2021
3666 Clouds 16 1029 17 10000 1.54 60 20:23 15.01.2021
3667 Clouds 15 1030 19 10000 2.57 10 19:48 15.01.2021
3668 Clouds 14 1030 19 10000 2.57 10 19:28 15.01.2021
3669 Clouds 13 1031 28 10000 1.54 200 18:47 15.01.2021
3670 Clouds 12 1031 28 10000 1.54 200 18:21 15.01.2021
3671 Clouds 11 1030 34 10000 2.57 210 17:59 15.01.2021
3672 Clouds 10 1030 34 10000 2.57 210 17:40 15.01.2021
3673 Clouds 10 1030 34 10000 2.57 210 17:40 15.01.2021
3674 Clouds 9 1030 34 10000 2.57 210 17:21 15.01.2021
3675 Clouds 9 1030 34 10000 2.57 210 17:21 15.01.2021
3676 Clouds 8 1030 34 10000 2.06 20 16:44 15.01.2021
3677 Clouds 6 1030 34 10000 2.06 20 16:23 15.01.2021
3678 Clouds 6 1030 34 10000 2.06 290 15:41 15.01.2021
3679 Clouds 6 1030 34 10000 2.06 290 15:21 15.01.2021
3680 Clouds 7 1030 31 10000 1.6 341 14:43 15.01.2021
3681 Clouds 7 1030 31 10000 1.75 0 14:24 15.01.2021
3682 Clouds 7 1030 39 10000 2.57 200 13:41 15.01.2021
3683 Clouds 7 1030 39 10000 2.57 200 13:21 15.01.2021
3684 Clouds 7 1030 39 10000 2.06 250 12:49 15.01.2021
3685 Clouds 7 1030 39 10000 2.06 250 12:31 15.01.2021
3686 Clouds 8 1030 36 10000 3.09 280 11:43 15.01.2021
3687 Clouds 8 1030 36 10000 3.09 280 11:23 15.01.2021
3688 Clouds 8 1030 34 10000 1.54 280 10:53 15.01.2021
3689 Clouds 8 1030 34 10000 1.54 280 10:33 15.01.2021
3690 Clouds 9 1030 30 10000 2.06 180 09:50 15.01.2021
3691 Clouds 9 1030 30 10000 2.06 180 09:30 15.01.2021
3692 Clouds 10 1030 26 10000 1.54 80 08:31 15.01.2021
3693 Clouds 11 1030 26 10000 1.49 352 07:47 15.01.2021
3694 Clouds 10 1030 26 10000 1.54 2 07:24 15.01.2021
3695 Clouds 12 1029 24 10000 1.54 20 06:52 15.01.2021
3696 Clouds 14 1027 25 10000 1.27 357 03:46 15.01.2021
3697 Clouds 19 1026 22 10000 2.08 56 00:57 15.01.2021
3698 Clouds 20 1026 24 10000 1.27 38 23:47 14.01.2021
3699 Clouds 19 1027 25 10000 3.09 150 22:59 14.01.2021
3700 Clouds 19 1027 25 10000 3.09 150 22:40 14.01.2021
3701 Clouds 19 1027 25 10000 3.09 150 22:22 14.01.2021
3702 Clouds 18 1027 25 10000 3.09 70 21:42 14.01.2021
3703 Clouds 18 1027 25 10000 3.09 70 21:21 14.01.2021
3704 Clouds 17 1028 27 10000 2.59 40 20:49 14.01.2021
3705 Clouds 17 1028 27 10000 2.06 28 20:25 14.01.2021
3706 Clouds 16 1029 29 10000 2.06 28 19:44 14.01.2021
3707 Clouds 15 1029 29 10000 1.74 7 19:26 14.01.2021
3708 Clouds 14 1029 32 10000 1.74 7 18:55 14.01.2021
3709 Clouds 13 1029 32 10000 1.61 3 18:27 14.01.2021
3710 Clouds 11 1028 42 10000 1.61 3 17:46 14.01.2021
3711 Clouds 9 1028 42 10000 1.57 10 17:27 14.01.2021
3712 Clouds 7 1027 42 10000 1.54 240 16:43 14.01.2021
3713 Clouds 7 1026 39 10000 2.57 220 15:58 14.01.2021
3714 Clouds 7 1026 39 10000 2.57 220 15:39 14.01.2021
3715 Clouds 6 1026 34 10000 1.54 0 14:59 14.01.2021
3716 Clouds 7 1026 34 10000 1.54 0 14:38 14.01.2021
3717 Clouds 6 1026 34 10000 1.54 0 14:19 14.01.2021
3718 Clouds 7 1026 33 10000 2.57 230 13:52 14.01.2021
3719 Clouds 6 1026 33 10000 2.57 230 13:21 14.01.2021
3720 Clouds 7 1025 33 10000 2.57 200 12:47 14.01.2021
3721 Clouds 7 1025 33 10000 2.57 200 12:19 14.01.2021
3722 Clouds 8 1026 31 10000 2.06 240 11:43 14.01.2021
3723 Clouds 7 1026 31 10000 2.06 240 11:21 14.01.2021
3724 Clouds 7 1026 29 10000 1.08 350 10:52 14.01.2021
3725 Clouds 7 1026 29 10000 1.17 40 10:27 14.01.2021
3726 Clouds 8 1025 27 10000 3.09 210 09:48 14.01.2021
3727 Clouds 8 1025 27 10000 3.09 210 09:23 14.01.2021
3728 Clouds 8 1025 25 10000 1.54 280 08:49 14.01.2021
3729 Clouds 8 1025 25 10000 1.54 280 08:27 14.01.2021
3730 Clouds 9 1025 23 10000 1.54 240 07:49 14.01.2021
3731 Clouds 9 1025 22 10000 0.29 312 06:53 14.01.2021
3732 Clouds 10 1024 20 10000 3.09 250 05:50 14.01.2021
3733 Clouds 16 1024 13 10000 0.77 72 00:46 14.01.2021
3734 Clouds 15 1024 14 10000 1.09 85 23:54 13.01.2021
3735 Clouds 16 1024 14 10000 1.29 109 23:23 13.01.2021
3736 Clouds 15 1025 17 10000 2.57 60 22:29 13.01.2021
3737 Clouds 14 1026 16 10000 1.54 50 21:57 13.01.2021
3738 Clouds 14 1026 16 10000 1.54 50 21:39 13.01.2021
3739 Clouds 13 1028 15 10000 0.66 112 20:59 13.01.2021
3740 Clouds 13 1028 15 10000 0.66 112 20:37 13.01.2021
3741 Clouds 13 1028 15 10000 0.65 81 20:18 13.01.2021
3742 Clouds 12 1029 19 10000 1.54 190 19:42 13.01.2021
3743 Clouds 11 1029 19 10000 1.54 190 19:20 13.01.2021
3744 Clouds 10 1029 25 10000 2.06 170 18:41 13.01.2021
3745 Clouds 8 1029 26 10000 0.32 329 17:51 13.01.2021
3746 Clouds 7 1029 26 10000 0.76 354 17:26 13.01.2021
3747 Clouds 5 1028 30 10000 1.54 200 16:58 13.01.2021
3748 Clouds 4 1028 30 10000 1.54 200 16:22 13.01.2021
3749 Clouds 4 1028 30 10000 1.54 200 16:22 13.01.2021
3750 Clouds 4 1028 28 10000 0.61 324 15:56 13.01.2021
3751 Clouds 4 1028 28 10000 0.61 324 15:38 13.01.2021
3752 Clouds 4 1028 30 10000 2.06 230 14:49 13.01.2021
3753 Clouds 4 1028 30 10000 2.06 210 13:58 13.01.2021
3754 Clouds 4 1028 30 10000 2.06 210 13:32 13.01.2021
3755 Clouds 5 1028 30 10000 2.06 280 12:59 13.01.2021
3756 Clouds 4 1028 30 10000 2.06 280 12:39 13.01.2021
3757 Clouds 4 1028 30 10000 2.06 280 12:19 13.01.2021
3758 Clouds 4 1028 28 10000 1.54 0 11:45 13.01.2021
3759 Clouds 4 1028 28 10000 1.54 0 11:22 13.01.2021
3760 Clouds 4 1028 30 10000 3.09 220 10:42 13.01.2021
3761 Clouds 4 1028 30 10000 3.09 220 10:24 13.01.2021
3762 Clouds 4 1028 28 10000 2.06 210 09:37 13.01.2021
3763 Clouds 5 1028 26 10000 1.54 260 08:57 13.01.2021
3764 Clouds 5 1028 26 10000 1.54 260 08:33 13.01.2021
3765 Clouds 5 1028 26 10000 1.54 260 08:33 13.01.2021
3766 Clouds 5 1027 26 10000 2.57 200 07:52 13.01.2021
3767 Clouds 5 1027 26 10000 2.57 200 07:24 13.01.2021
3768 Clouds 7 1027 23 10000 0.5 347 04:21 13.01.2021
3769 Clouds 8 1027 20 10000 0.5 347 03:49 13.01.2021
3770 Clouds 8 1027 20 10000 0.5 347 03:30 13.01.2021
3771 Clouds 10 1026 17 10000 0.7 337 02:46 13.01.2021
3772 Clouds 12 1026 16 10000 1.54 40 00:38 13.01.2021
3773 Clouds 13 1027 16 10000 1.54 0 23:31 12.01.2021
3774 Clouds 13 1028 17 10000 2.06 70 22:47 12.01.2021
3775 Clouds 13 1028 17 10000 2.06 70 22:25 12.01.2021
3776 Clouds 12 1028 17 10000 1.44 77 21:53 12.01.2021
3777 Clouds 12 1028 17 10000 1.44 77 21:34 12.01.2021
3778 Clouds 11 1029 22 10000 1.04 45 20:54 12.01.2021
3779 Clouds 11 1029 22 10000 1.04 45 20:36 12.01.2021
3780 Clouds 10 1030 25 10000 0.8 17 19:57 12.01.2021
3781 Clouds 9 1030 25 10000 0.8 17 19:37 12.01.2021
3782 Clouds 8 1030 31 10000 0.58 23 18:52 12.01.2021
3783 Clouds 7 1030 31 10000 0.31 329 18:25 12.01.2021
3784 Clouds 5 1029 35 10000 0.31 329 17:55 12.01.2021
3785 Clouds 3 1029 35 10000 0.31 329 17:31 12.01.2021
3786 Clouds 3 1029 35 10000 0.31 329 17:31 12.01.2021
3787 Clouds 2 1028 35 10000 2.06 210 16:44 12.01.2021
3788 Clouds 1 1028 35 10000 2.06 210 16:25 12.01.2021
3789 Clouds 1 1027 35 10000 3.09 220 15:45 12.01.2021
3790 Clouds 1 1027 35 10000 3.09 220 15:22 12.01.2021
3791 Clouds 1 1027 35 10000 2.57 220 14:47 12.01.2021
3792 Clouds 1 1027 35 10000 2.57 220 14:26 12.01.2021
3793 Clouds 2 1027 35 10000 2.06 190 13:53 12.01.2021
3794 Clouds 2 1027 35 10000 2.06 190 13:29 12.01.2021
3795 Clouds 2 1027 38 10000 1.54 270 12:29 12.01.2021
3796 Clouds 2 1027 35 10000 1.54 240 11:42 12.01.2021
3797 Clouds 3 1026 33 10000 3.6 280 10:55 12.01.2021
3798 Clouds 3 1026 33 10000 3.6 280 10:26 12.01.2021
3799 Clouds 3 1026 33 10000 0.48 31 09:59 12.01.2021
3800 Clouds 4 1026 33 10000 0.48 31 09:39 12.01.2021
3801 Clouds 3 1026 33 10000 0.94 314 09:20 12.01.2021
3802 Clouds 4 1027 30 10000 1.54 210 08:26 12.01.2021
3803 Clouds 5 1027 28 10000 2.06 200 07:37 12.01.2021
3804 Clouds 5 1027 28 10000 2.06 200 07:37 12.01.2021
3805 Clouds 6 1026 29 10000 2.06 210 06:59 12.01.2021
3806 Clouds 6 1026 29 10000 2.57 280 05:35 12.01.2021
3807 Clouds 8 1026 25 10000 1.01 293 03:33 12.01.2021
3808 Clouds 11 1025 19 10000 2.57 90 02:21 12.01.2021
3809 Clouds 13 1025 16 10000 2.57 50 01:31 12.01.2021
3810 Clouds 13 1025 15 10000 3.6 20 00:19 12.01.2021
3811 Clouds 13 1026 18 10000 3.14 61 23:37 11.01.2021
3812 Clouds 13 1026 18 10000 3.42 53 23:18 11.01.2021
3813 Clouds 13 1026 22 10000 2.57 80 22:45 11.01.2021
3814 Clouds 13 1026 22 10000 2.57 80 22:27 11.01.2021
3815 Clouds 12 1027 28 10000 2.06 70 21:43 11.01.2021
3816 Clouds 12 1027 28 10000 2.06 70 21:25 11.01.2021
3817 Clouds 11 1029 29 10000 2.57 37 20:49 11.01.2021
3818 Clouds 11 1029 29 10000 2.57 37 20:30 11.01.2021
3819 Clouds 9 1029 34 10000 2.47 29 19:58 11.01.2021
3820 Clouds 9 1029 34 10000 2.47 29 19:35 11.01.2021
3821 Clouds 8 1028 36 10000 2.06 30 18:47 11.01.2021
3822 Clouds 8 1028 36 10000 2.06 30 18:28 11.01.2021
3823 Clouds 6 1027 42 10000 2.57 340 17:57 11.01.2021
3824 Clouds 6 1027 42 10000 2.57 340 17:39 11.01.2021
3825 Clouds 5 1027 42 10000 2.57 340 17:20 11.01.2021
3826 Clouds 3 1027 44 10000 2.06 270 16:43 11.01.2021
3827 Clouds 2 1027 44 10000 2.06 270 16:24 11.01.2021
3828 Clear 2 1026 44 10000 1.54 230 15:50 11.01.2021
3829 Clear 2 1026 44 10000 1.54 230 15:31 11.01.2021
3830 Clear 2 1026 44 10000 1.54 220 14:41 11.01.2021
3831 Clear 2 1026 44 10000 1.54 220 14:41 11.01.2021
3832 Clear 2 1026 44 10000 1.54 220 14:19 11.01.2021
3833 Clear 2 1026 44 10000 2.06 150 13:44 11.01.2021
3834 Clear 2 1026 44 10000 2.06 150 13:20 11.01.2021
3835 Clear 2 1026 44 10000 1.54 230 12:41 11.01.2021
3836 Clear 2 1026 44 10000 1.54 230 12:21 11.01.2021
3837 Clear 3 1026 41 10000 2.06 210 11:44 11.01.2021
3838 Clear 3 1026 41 10000 2.06 230 10:55 11.01.2021
3839 Clear 4 1026 41 10000 2.06 230 10:28 11.01.2021
3840 Clouds 4 1026 41 10000 2.57 230 09:45 11.01.2021
3841 Clouds 4 1026 41 10000 2.57 230 09:24 11.01.2021
3842 Clouds 5 1026 36 10000 1.54 220 08:47 11.01.2021
3843 Clouds 5 1026 36 10000 1.54 220 08:21 11.01.2021
3844 Clouds 5 1026 33 10000 2.06 250 07:40 11.01.2021
3845 Clouds 5 1026 33 10000 2.06 250 07:19 11.01.2021
3846 Clouds 6 1025 36 10000 2.06 260 06:46 11.01.2021
3847 Clouds 12 1024 24 10000 3.09 360 01:53 11.01.2021
3848 Clouds 11 1024 24 10000 0.94 51 00:40 11.01.2021
3849 Clouds 11 1024 24 10000 1.54 0 23:45 10.01.2021
3850 Clouds 12 1025 25 10000 3.09 20 22:49 10.01.2021
3851 Clouds 11 1025 25 10000 3.09 20 22:28 10.01.2021
3852 Clouds 11 1026 28 10000 2.57 10 21:56 10.01.2021
3853 Clouds 11 1026 28 10000 2.57 10 21:36 10.01.2021
3854 Clouds 11 1026 28 10000 2.57 10 21:18 10.01.2021
3855 Clouds 10 1027 31 10000 1.54 100 20:37 10.01.2021
3856 Clouds 9 1027 31 10000 1.54 100 20:19 10.01.2021
3857 Clouds 8 1028 36 10000 1.62 45 19:38 10.01.2021
3858 Clouds 8 1028 36 10000 1.52 45 19:20 10.01.2021
3859 Clouds 8 1028 39 10000 1.52 45 18:43 10.01.2021
3860 Clouds 7 1028 39 10000 0.68 35 18:20 10.01.2021
3861 Clouds 4 1027 52 10000 2.06 220 17:23 10.01.2021
3862 Clouds 4 1026 42 10000 4.12 350 16:46 10.01.2021
3863 Clouds 3 1026 42 10000 4.12 350 16:27 10.01.2021
3864 Clouds 3 1026 42 10000 5.66 360 15:26 10.01.2021
3865 Clouds 3 1026 52 10000 2.06 200 14:56 10.01.2021
3866 Clouds 3 1026 52 10000 2.06 200 14:38 10.01.2021
3867 Clouds 3 1026 48 10000 1.63 347 13:56 10.01.2021
3868 Clouds 3 1026 48 10000 1.63 347 13:38 10.01.2021
3869 Clouds 4 1026 48 10000 1.69 339 13:20 10.01.2021
3870 Clouds 4 1026 48 10000 1.54 210 12:50 10.01.2021
3871 Clouds 4 1026 48 10000 1.54 210 12:32 10.01.2021
3872 Clear 4 1025 45 10000 1.54 130 11:54 10.01.2021
3873 Clear 5 1025 45 10000 1.54 130 11:20 10.01.2021
3874 Clear 5 1025 45 10000 1.83 359 10:47 10.01.2021
3875 Clear 5 1025 45 10000 1.89 341 10:22 10.01.2021
3876 Clear 6 1025 39 10000 2.57 130 09:36 10.01.2021
3877 Clouds 7 1025 42 10000 3.09 10 08:26 10.01.2021
3878 Clouds 7 1025 42 10000 3.09 30 07:38 10.01.2021
3879 Clouds 8 1024 40 10000 2.57 60 06:21 10.01.2021
3880 Clouds 8 1024 40 10000 3.6 50 05:42 10.01.2021
3881 Clouds 11 1022 24 10000 4.63 340 03:57 10.01.2021
3882 Clouds 14 1021 21 10000 6.17 340 01:30 10.01.2021
3883 Clouds 14 1022 21 10000 3.6 20 23:59 09.01.2021
3884 Clouds 14 1022 21 10000 3.6 20 23:41 09.01.2021
3885 Clouds 14 1022 21 10000 2.57 340 22:57 09.01.2021
3886 Clouds 14 1022 21 10000 2.57 340 22:19 09.01.2021
3887 Clouds 14 1023 21 10000 6.17 330 21:58 09.01.2021
3888 Clouds 14 1023 21 10000 6.17 330 21:39 09.01.2021
3889 Clouds 14 1023 21 10000 6.17 330 21:20 09.01.2021
3890 Clouds 13 1024 22 10000 7.72 350 20:46 09.01.2021
3891 Clouds 13 1024 22 10000 7.72 350 20:27 09.01.2021
3892 Clouds 12 1024 24 10000 6.69 330 19:39 09.01.2021
3893 Clouds 12 1024 24 10000 6.69 330 19:19 09.01.2021
3894 Clouds 11 1024 25 10000 8.75 350 18:36 09.01.2021
3895 Clouds 10 1023 25 10000 9.77 350 17:51 09.01.2021
3896 Clouds 9 1023 25 10000 9.77 350 17:32 09.01.2021
3897 Clear 8 1023 27 10000 10.8 350 16:55 09.01.2021
3898 Clear 8 1023 27 10000 10.8 350 16:22 09.01.2021
3899 Clear 9 1022 27 10000 9.26 350 15:41 09.01.2021
3900 Clear 9 1021 30 10000 8.75 340 14:56 09.01.2021
3901 Clear 10 1021 30 10000 8.75 340 14:36 09.01.2021
3902 Clear 10 1021 30 10000 8.75 340 14:18 09.01.2021
3903 Clear 9 1021 28 10000 7.72 350 13:43 09.01.2021
3904 Clear 8 1020 29 10000 2.57 0 13:24 09.01.2021
3905 Clear 9 1020 24 10000 7.2 30 12:28 09.01.2021
3906 Clear 9 1019 18 10000 4.12 70 11:58 09.01.2021
3907 Clear 9 1019 18 10000 4.12 70 11:37 09.01.2021
3908 Clear 8 1018 17 10000 6.17 30 10:57 09.01.2021
3909 Clear 8 1018 17 10000 6.17 30 10:38 09.01.2021
3910 Clear 8 1018 17 10000 6.17 30 10:19 09.01.2021
3911 Clear 7 1018 23 10000 2.57 220 09:43 09.01.2021
3912 Clear 6 1018 23 10000 2.57 220 09:19 09.01.2021
3913 Clear 7 1018 29 10000 2.57 220 07:48 09.01.2021
3914 Clouds 7 1018 25 10000 2.06 240 06:42 09.01.2021
3915 Clouds 7 1018 25 10000 2.06 240 06:23 09.01.2021
3916 Clouds 10 1019 22 10000 2.06 200 03:49 09.01.2021
3917 Clouds 12 1019 18 10000 0.11 142 02:40 09.01.2021
3918 Clouds 12 1019 18 10000 0.54 348 02:22 09.01.2021
3919 Clouds 14 1019 15 10000 0.28 29 01:24 09.01.2021
3920 Clouds 15 1018 15 10000 2.57 60 00:28 09.01.2021
3921 Clouds 15 1019 15 10000 1.54 40 23:41 08.01.2021
3922 Clouds 15 1020 17 10000 0.74 64 22:39 08.01.2021
3923 Clouds 14 1022 18 10000 1.54 0 21:52 08.01.2021
3924 Clouds 13 1023 20 10000 1.14 39 20:59 08.01.2021
3925 Clouds 13 1023 20 10000 1.14 39 20:33 08.01.2021
3926 Clouds 12 1024 22 10000 1.58 8 19:57 08.01.2021
3927 Clouds 11 1024 22 10000 1.61 5 19:24 08.01.2021
3928 Clouds 10 1024 27 10000 1.32 12 18:53 08.01.2021
3929 Clouds 10 1024 27 10000 1.32 12 18:31 08.01.2021
3930 Clouds 7 1024 36 10000 2.06 300 17:50 08.01.2021
3931 Clouds 6 1024 36 10000 2.06 300 17:24 08.01.2021
3932 Clouds 5 1023 33 10000 2.57 220 16:47 08.01.2021
3933 Clouds 3 1023 38 10000 1.54 230 15:45 08.01.2021
3934 Clouds 4 1023 38 10000 1.54 230 15:25 08.01.2021
3935 Clouds 4 1022 35 10000 1.54 220 14:36 08.01.2021
3936 Clouds 4 1022 35 10000 1.54 260 13:47 08.01.2021
3937 Clouds 4 1022 35 10000 1.54 260 13:21 08.01.2021
3938 Clouds 4 1022 35 10000 2.06 250 12:49 08.01.2021
3939 Clouds 4 1022 35 10000 2.06 250 12:20 08.01.2021
3940 Clouds 5 1022 28 10000 2.57 210 11:46 08.01.2021
3941 Clouds 5 1022 28 10000 2.57 210 11:27 08.01.2021
3942 Clouds 6 1022 31 10000 1.87 336 10:53 08.01.2021
3943 Clouds 6 1022 31 10000 1.87 336 10:34 08.01.2021
3944 Clouds 5 1022 36 10000 2.57 210 09:46 08.01.2021
3945 Clouds 6 1022 36 10000 2.57 210 09:28 08.01.2021
3946 Clouds 7 1022 33 10000 3.09 270 08:38 08.01.2021
3947 Clouds 6 1022 36 10000 1.97 338 07:27 08.01.2021
3948 Clouds 8 1022 34 10000 1.59 338 05:55 08.01.2021
3949 Clouds 14 1021 23 10000 2.06 70 23:48 07.01.2021
3950 Clouds 14 1021 23 10000 2.06 70 23:30 07.01.2021
3951 Clouds 14 1022 23 10000 2.57 50 22:47 07.01.2021
3952 Clouds 14 1022 23 10000 2.57 50 22:26 07.01.2021
3953 Clouds 14 1022 22 10000 1.3 55 21:45 07.01.2021
3954 Clouds 14 1022 22 10000 1.46 59 21:26 07.01.2021
3955 Clouds 13 1023 24 10000 1.54 40 20:47 07.01.2021
3956 Clouds 12 1023 24 10000 1.54 40 20:28 07.01.2021
3957 Clouds 11 1024 25 10000 1.54 360 19:45 07.01.2021
3958 Clouds 11 1024 25 10000 1.54 360 19:21 07.01.2021
3959 Clouds 10 1024 29 10000 2.57 160 18:30 07.01.2021
3960 Clouds 7 1023 36 10000 2.06 210 17:56 07.01.2021
3961 Clouds 7 1023 36 10000 2.06 210 17:28 07.01.2021
3962 Clouds 5 1023 45 10000 1.54 240 16:53 07.01.2021
3963 Clouds 4 1023 45 10000 1.54 240 16:27 07.01.2021
3964 Clouds 4 1022 42 10000 2.06 270 15:41 07.01.2021
3965 Clouds 4 1022 38 10000 2.57 310 14:57 07.01.2021
3966 Clouds 4 1022 38 10000 2.57 310 14:27 07.01.2021
3967 Clouds 5 1022 33 10000 3.09 210 13:45 07.01.2021
3968 Clouds 5 1022 33 10000 3.09 210 13:18 07.01.2021
3969 Clouds 5 1022 37 10000 2.24 230 12:42 07.01.2021
3970 Clouds 5 1022 38 10000 2.1 210 11:55 07.01.2021
3971 Clouds 5 1022 38 10000 2.1 210 11:36 07.01.2021
3972 Clouds 6 1022 35 10000 2.1 220 10:50 07.01.2021
3973 Clouds 5 1022 35 10000 2.1 220 10:27 07.01.2021
3974 Clouds 6 1021 36 10000 1.5 230 09:48 07.01.2021
3975 Clouds 6 1021 36 10000 1.5 230 09:19 07.01.2021
3976 Clouds 7 1022 31 10000 2.6 250 08:29 07.01.2021
3977 Clouds 8 1021 31 10000 0.91 306 07:51 07.01.2021
3978 Clouds 8 1021 31 10000 0.77 283 07:26 07.01.2021
3979 Clouds 9 1021 25 10000 1.5 210 04:31 07.01.2021
3980 Clouds 14 1021 22 10000 2.6 50 00:30 07.01.2021
3981 Clouds 14 1021 22 10000 2.6 50 23:48 06.01.2021
3982 Clouds 14 1022 24 10000 1.5 30 22:39 06.01.2021
3983 Clouds 13 1023 24 10000 1.5 0 21:44 06.01.2021
3984 Clouds 13 1023 24 10000 1.5 0 21:23 06.01.2021
3985 Clouds 12 1024 27 10000 1.48 43 20:58 06.01.2021
3986 Clouds 12 1024 27 10000 1.13 60 20:25 06.01.2021
3987 Clouds 11 1026 34 10000 1.13 60 19:59 06.01.2021
3988 Clouds 11 1026 34 10000 1.13 60 19:36 06.01.2021
3989 Clouds 11 1026 34 10000 1.01 55 19:18 06.01.2021
3990 Clouds 8 1026 39 10000 2.1 80 18:41 06.01.2021
3991 Clouds 8 1025 38 10000 1.5 230 18:22 06.01.2021
3992 Clouds 5 1025 38 10000 1.5 230 17:42 06.01.2021
3993 Clouds 5 1025 38 10000 1.5 230 17:23 06.01.2021
3994 Clouds 5 1025 44 10000 1.5 220 16:41 06.01.2021
3995 Clouds 4 1025 44 10000 1.5 220 16:19 06.01.2021
3996 Clouds 3 1025 44 10000 1.5 260 15:50 06.01.2021
3997 Clouds 3 1025 44 10000 1.5 260 15:31 06.01.2021
3998 Clouds 5 1024 41 10000 2.6 200 14:46 06.01.2021
3999 Clouds 5 1024 41 10000 2.6 200 14:20 06.01.2021
4000 Clouds 5 1024 41 10000 2.6 200 14:20 06.01.2021
4001 Clouds 4 1024 41 10000 2.1 240 13:42 06.01.2021
4002 Clouds 4 1024 41 10000 2.1 240 13:21 06.01.2021
4003 Clouds 4 1024 41 10000 1.5 280 12:47 06.01.2021
4004 Clouds 5 1025 38 10000 1.39 9 11:51 06.01.2021
4005 Clouds 6 1025 38 10000 0.94 346 11:25 06.01.2021
4006 Clouds 6 1024 38 10000 2.6 220 10:56 06.01.2021
4007 Clouds 6 1024 38 10000 2.6 220 10:18 06.01.2021
4008 Clouds 6 1024 38 10000 2.6 220 10:18 06.01.2021
4009 Clouds 7 1024 36 10000 1.1 324 09:47 06.01.2021
4010 Clouds 7 1024 33 10000 0.91 343 08:57 06.01.2021
4011 Clouds 7 1024 33 10000 0.99 351 08:26 06.01.2021
4012 Clouds 8 1024 33 10000 1.5 310 07:54 06.01.2021
4013 Clouds 8 1024 33 10000 2.1 230 06:46 06.01.2021
4014 Clouds 9 1024 29 10000 2.6 220 05:32 06.01.2021
4015 Clouds 10 1024 30 10000 1.5 250 04:32 06.01.2021
4016 Clouds 13 1022 26 10000 2.1 190 02:46 06.01.2021
4017 Clouds 14 1022 26 10000 2.1 190 02:23 06.01.2021
4018 Clouds 16 1021 23 10000 1.5 80 00:29 06.01.2021
4019 Clouds 16 1021 21 10000 3.1 70 23:23 05.01.2021
4020 Clouds 16 1021 26 10000 4.1 80 22:41 05.01.2021
4021 Clouds 16 1021 26 10000 4.1 80 22:20 05.01.2021
4022 Clouds 15 1022 26 10000 1.5 60 21:52 05.01.2021
4023 Clouds 14 1023 28 10000 1.5 60 20:41 05.01.2021
4024 Clouds 14 1023 28 10000 1.5 60 20:41 05.01.2021
4025 Clouds 14 1023 28 10000 1.5 60 20:23 05.01.2021
4026 Clouds 13 1024 32 10000 2.14 360 19:42 05.01.2021
4027 Clouds 12 1024 32 10000 1.26 19 19:21 05.01.2021
4028 Clouds 11 1024 37 10000 2.1 0 18:43 05.01.2021
4029 Clouds 11 1024 37 10000 2.1 0 18:24 05.01.2021
4030 Clouds 8 1023 45 10000 1.5 240 17:49 05.01.2021
4031 Clouds 7 1023 45 10000 1.5 240 17:27 05.01.2021
4032 Clouds 6 1022 48 10000 2.6 260 16:52 05.01.2021
4033 Clouds 5 1022 48 10000 2.6 260 16:21 05.01.2021
4034 Clear 5 1021 48 10000 2.1 290 15:50 05.01.2021
4035 Clear 5 1020 48 10000 4.1 240 14:56 05.01.2021
4036 Clear 5 1020 48 10000 4.1 240 14:26 05.01.2021
4037 Clear 5 1019 48 10000 2.6 200 13:49 05.01.2021
4038 Clear 5 1019 48 10000 2.6 200 13:23 05.01.2021
4039 Clear 6 1020 48 10000 2.1 200 12:48 05.01.2021
4040 Clear 6 1020 48 10000 2.1 200 12:24 05.01.2021
4041 Clouds 6 1019 45 10000 2.6 290 11:39 05.01.2021
4042 Clouds 6 1019 45 10000 2.6 290 11:39 05.01.2021
4043 Clouds 6 1019 45 10000 2.6 290 11:39 05.01.2021
4044 Clouds 6 1019 45 10000 2.6 290 11:39 05.01.2021
4045 -273 0 0 0 0 0 11:39 05.01.2021
4046 Clouds 6 1019 45 10000 2.6 290 11:39 05.01.2021
4047 Clouds 6 1019 45 10000 2.6 290 11:39 05.01.2021
4048 Clouds 6 1019 45 10000 2.6 290 11:38 05.01.2021
4049 Clouds 7 1018 45 10000 2.6 280 10:46 05.01.2021
4050 Clouds 7 1018 45 10000 2.6 280 10:26 05.01.2021
4051 Clouds 7 1018 48 10000 3.1 290 09:48 05.01.2021
4052 Clouds 7 1018 48 10000 3.1 290 09:28 05.01.2021
4053 Clouds 7 1018 42 10000 1.5 320 08:25 05.01.2021
4054 Clouds 8 1018 42 10000 1.5 260 06:47 05.01.2021
4055 Clouds 9 1018 34 10000 2.6 200 04:50 05.01.2021
4056 Clouds 14 1018 26 10000 3.1 60 00:50 05.01.2021
4057 Clouds 15 1018 28 10000 3.1 100 23:46 04.01.2021
4058 Clouds 15 1018 28 10000 3.1 100 23:25 04.01.2021
4059 Clouds 15 1019 26 10000 3.6 90 22:54 04.01.2021
4060 Clouds 14 1019 26 10000 3.6 90 22:34 04.01.2021
4061 Clouds 14 1021 28 10000 2.1 40 21:49 04.01.2021
4062 Clouds 14 1021 28 10000 2.1 40 21:31 04.01.2021
4063 Clouds 13 1022 28 10000 2.1 0 20:47 04.01.2021
4064 Clouds 13 1022 28 10000 2.1 0 20:29 04.01.2021
4065 Clouds 12 1024 34 10000 1.45 109 19:52 04.01.2021
4066 Clouds 12 1024 34 10000 0.91 83 19:25 04.01.2021
4067 Clouds 10 1024 42 10000 0.95 86 18:55 04.01.2021
4068 Clouds 10 1024 42 10000 0.22 94 18:24 04.01.2021
4069 Clouds 7 1024 45 10000 0.22 94 17:44 04.01.2021
4070 Clouds 7 1024 45 10000 0.11 287 17:25 04.01.2021
4071 Clouds 5 1023 41 10000 1.5 190 16:47 04.01.2021
4072 Clouds 5 1023 41 10000 1.5 190 16:27 04.01.2021
4073 Clouds 5 1023 44 10000 1.5 220 15:49 04.01.2021
4074 Clouds 5 1023 44 10000 1.5 220 15:28 04.01.2021
4075 Clouds 5 1022 48 10000 2.1 210 14:42 04.01.2021
4076 Clouds 5 1022 48 10000 1.5 240 13:47 04.01.2021
4077 Clouds 5 1022 48 10000 1.5 240 13:24 04.01.2021
4078 Clouds 5 1023 45 10000 0.47 286 12:42 04.01.2021
4079 Clouds 5 1023 41 10000 3.1 270 11:58 04.01.2021
4080 Clouds 5 1023 41 10000 3.1 270 11:22 04.01.2021
4081 Clouds 5 1023 41 10000 2.6 210 10:49 04.01.2021
4082 Clouds 5 1023 41 10000 2.6 210 10:28 04.01.2021
4083 Clouds 6 1023 39 10000 1.5 220 09:53 04.01.2021
4084 Clouds 6 1023 39 10000 1.5 220 09:20 04.01.2021
4085 Clouds 6 1023 39 10000 0.48 318 08:45 04.01.2021
4086 Clouds 7 1023 36 10000 1.5 210 07:55 04.01.2021
4087 Clouds 7 1023 36 10000 1.5 210 07:31 04.01.2021
4088 Clouds 7 1023 36 10000 1.5 200 05:32 04.01.2021
4089 Clouds 10 1022 30 10000 0.3 221 02:45 04.01.2021
4090 Clouds 12 1022 27 10000 0.65 56 00:40 04.01.2021
4091 Clouds 13 1022 28 10000 1.5 30 23:49 03.01.2021
4092 Clouds 13 1022 28 10000 1.5 30 23:21 03.01.2021
4093 Clouds 13 1022 30 10000 1.04 86 22:52 03.01.2021
4094 Clouds 13 1022 30 10000 1.04 86 22:30 03.01.2021
4095 Clouds 12 1023 29 10000 1.1 103 21:48 03.01.2021
4096 Clouds 12 1023 29 10000 0.98 103 21:26 03.01.2021
4097 Clouds 11 1024 31 10000 1.5 150 20:45 03.01.2021
4098 Clouds 10 1024 31 10000 1.5 150 20:26 03.01.2021
4099 Clouds 10 1025 36 10000 1.5 200 19:55 03.01.2021
4100 Clouds 10 1025 36 10000 1.5 200 19:34 03.01.2021
4101 Clouds 9 1025 39 10000 0.44 58 18:56 03.01.2021
4102 Clouds 9 1025 39 10000 0.43 39 18:38 03.01.2021
4103 Clouds 6 1024 48 10000 2.1 260 17:59 03.01.2021
4104 Clouds 6 1024 48 10000 2.1 260 17:40 03.01.2021
4105 Clouds 5 1024 48 10000 2.1 260 17:22 03.01.2021
4106 Clouds 4 1023 51 10000 0.48 335 16:42 03.01.2021
4107 Clouds 3 1023 51 10000 0.92 334 16:19 03.01.2021
4108 Clouds 3 1023 51 10000 0.92 334 15:45 03.01.2021
4109 Clouds 3 1023 51 10000 0.42 44 15:23 03.01.2021
4110 Clouds 3 1022 51 10000 1.5 250 14:45 03.01.2021
4111 Clouds 3 1022 51 10000 1.5 250 14:24 03.01.2021
4112 Clouds 3 1022 48 10000 0.59 18 13:39 03.01.2021
4113 Clouds 3 1022 48 10000 0.11 334 13:21 03.01.2021
4114 Clouds 3 1023 55 10000 1.5 230 11:57 03.01.2021
4115 Clouds 3 1023 55 10000 1.5 230 11:39 03.01.2021
4116 Clouds 3 1023 55 10000 1.5 230 11:21 03.01.2021
4117 Clouds 3 1023 48 10000 1.5 10 10:34 03.01.2021
4118 Clear 4 1023 48 10000 3.6 210 09:55 03.01.2021
4119 Clear 4 1023 48 10000 3.6 210 09:33 03.01.2021
4120 Clear 4 1023 48 10000 0.27 290 08:34 03.01.2021
4121 Clear 4 1023 44 10000 2.6 220 07:24 03.01.2021
4122 Clouds 6 1023 39 10000 2.1 220 05:23 03.01.2021
4123 Clouds 9 1023 29 10000 1.5 90 02:26 03.01.2021
4124 Clouds 12 1023 27 10000 0.66 61 00:54 03.01.2021
4125 Clouds 11 1023 29 10000 1.5 0 23:53 02.01.2021
4126 Clouds 11 1023 29 10000 1.5 0 23:20 02.01.2021
4127 Clouds 11 1023 29 10000 3.1 70 22:48 02.01.2021
4128 Clouds 11 1023 29 10000 3.1 70 22:29 02.01.2021
4129 Clouds 10 1024 31 10000 3.1 60 21:49 02.01.2021
4130 Clouds 10 1024 31 10000 3.1 60 21:29 02.01.2021
4131 Clouds 10 1024 34 10000 2.1 70 20:45 02.01.2021
4132 Clouds 10 1024 34 10000 2.1 70 20:25 02.01.2021
4133 Clouds 9 1025 39 10000 2.1 190 19:47 02.01.2021
4134 Clouds 8 1025 39 10000 2.1 190 19:20 02.01.2021
4135 Clouds 7 1026 41 10000 0.8 69 18:47 02.01.2021
4136 Clouds 7 1026 41 10000 0.62 122 18:29 02.01.2021
4137 Clouds 4 1025 51 10000 1.5 200 17:46 02.01.2021
4138 Clouds 4 1025 51 10000 1.5 200 17:28 02.01.2021
4139 Clouds 3 1025 55 10000 1.5 180 16:44 02.01.2021
4140 Clouds 2 1025 55 10000 1.5 180 16:21 02.01.2021
4141 Clouds 2 1024 55 10000 2.6 200 15:44 02.01.2021
4142 Clouds 2 1024 55 10000 2.6 200 15:25 02.01.2021
4143 Clouds 2 1024 55 10000 1.5 240 14:39 02.01.2021
4144 Clouds 2 1024 55 10000 1.5 240 14:21 02.01.2021
4145 Clouds 2 1024 51 10000 0.48 19 13:40 02.01.2021
4146 Clouds 2 1024 51 10000 0.48 19 13:40 02.01.2021
4147 Clouds 3 1024 48 10000 0.59 29 12:54 02.01.2021
4148 Clouds 3 1024 48 10000 0.81 19 12:32 02.01.2021
4149 Clouds 3 1024 44 10000 2.1 350 11:59 02.01.2021
4150 Clouds 3 1024 44 10000 2.1 350 11:25 02.01.2021
4151 Clouds 4 1023 44 10000 2.1 210 10:58 02.01.2021
4152 Clouds 4 1023 44 10000 2.1 210 10:33 02.01.2021
4153 Clouds 4 1023 41 10000 2.1 280 09:54 02.01.2021
4154 Clouds 5 1023 41 10000 2.1 280 09:29 02.01.2021
4155 Clouds 5 1023 38 10000 0.37 360 08:53 02.01.2021
4156 Clouds 5 1023 38 10000 0.37 360 08:34 02.01.2021
4157 Clouds 5 1023 38 10000 2.1 220 07:53 02.01.2021
4158 Clouds 5 1023 38 10000 2.1 220 07:22 02.01.2021
4159 Clouds 5 1023 38 10000 2.1 190 06:56 02.01.2021
4160 Clouds 6 1023 36 10000 1.5 240 05:54 02.01.2021
4161 Clouds 12 1022 24 10000 2.6 60 01:00 02.01.2021
4162 Clouds 12 1022 24 10000 2.6 60 00:37 02.01.2021
4163 Clouds 12 1022 24 10000 2.6 60 00:37 02.01.2021
4164 Clear 13 1022 26 10000 3.1 10 23:58 01.01.2021
4165 Clear 13 1022 26 10000 3.1 10 23:23 01.01.2021
4166 Clear 13 1022 26 10000 4.1 350 22:50 01.01.2021
4167 Clear 13 1022 26 10000 4.1 350 22:27 01.01.2021
4168 Clouds 12 1023 27 10000 4.6 10 21:59 01.01.2021
4169 Clouds 13 1023 27 10000 4.6 10 21:41 01.01.2021
4170 Clouds 12 1023 27 10000 4.6 10 21:19 01.01.2021
4171 Clear 11 1023 29 10000 4.6 50 20:44 01.01.2021
4172 Clear 11 1023 29 10000 4.6 50 20:18 01.01.2021
4173 Clouds 11 1024 29 10000 7.2 20 19:41 01.01.2021
4174 Clouds 10 1024 29 10000 7.2 20 19:21 01.01.2021
4175 Clouds 9 1023 34 10000 6.7 360 18:45 01.01.2021
4176 Clouds 9 1023 34 10000 6.7 360 18:23 01.01.2021
4177 Clouds 8 1023 36 10000 4.6 10 17:46 01.01.2021
4178 Clouds 7 1023 36 10000 4.6 10 17:23 01.01.2021
4179 Clouds 6 1022 45 10000 3.6 40 16:48 01.01.2021
4180 Clouds 5 1022 45 10000 3.6 40 16:25 01.01.2021
4181 Clear 5 1021 36 10000 6.2 340 15:40 01.01.2021
4182 Clear 6 1020 39 10000 6.7 350 14:44 01.01.2021
4183 Clear 6 1020 39 10000 6.7 350 14:26 01.01.2021
4184 Clear 7 1019 42 10000 6.2 350 13:39 01.01.2021
4185 Clear 6 1019 45 10000 5.1 30 12:51 01.01.2021
4186 Clear 7 1019 45 10000 5.1 30 12:27 01.01.2021
4187 Clear 7 1019 48 10000 2.6 90 11:42 01.01.2021
4188 Clear 6 1019 48 10000 2.6 90 11:19 01.01.2021
4189 Clouds 7 1019 42 10000 7.7 350 10:56 01.01.2021
4190 Clouds 7 1019 42 10000 7.7 350 10:30 01.01.2021
4191 Clouds 8 1018 42 10000 7.7 360 09:39 01.01.2021
4192 Clouds 7 1018 45 10000 5.7 30 08:49 01.01.2021
4193 Clouds 7 1018 45 10000 5.7 30 08:25 01.01.2021
4194 Clouds 7 1017 61 10000 3.1 40 04:51 01.01.2021
4195 Clouds 9 1016 57 10000 4.6 60 01:58 01.01.2021
4196 Clouds 10 1016 43 10000 5.7 10 00:35 01.01.2021
4197 Clouds 11 1016 43 10000 6.7 340 23:43 31.12.2020
4198 Clouds 11 1016 43 10000 6.7 340 23:21 31.12.2020
4199 Clouds 11 1015 40 10000 6.7 10 22:55 31.12.2020
4200 Clouds 11 1015 40 10000 6.7 10 22:36 31.12.2020
4201 Clouds 11 1015 40 10000 6.7 10 22:18 31.12.2020
4202 Clouds 11 1015 37 10000 6.2 20 21:43 31.12.2020
4203 Clouds 11 1015 37 10000 6.2 20 21:20 31.12.2020
4204 Clouds 10 1016 23 10000 2.96 32 20:31 31.12.2020
4205 Clouds 8 1017 26 10000 1.7 57 19:52 31.12.2020
4206 Clouds 8 1017 26 10000 1.7 57 19:34 31.12.2020
4207 Clouds 7 1017 28 10000 1.5 0 18:58 31.12.2020
4208 Clouds 6 1017 28 10000 1.5 0 18:26 31.12.2020
4209 Clouds 6 1016 28 10000 2.88 334 17:59 31.12.2020
4210 Clouds 6 1016 28 10000 2.88 334 17:40 31.12.2020
4211 Clouds 6 1016 28 10000 2.22 352 17:21 31.12.2020
4212 Clouds 5 1016 30 10000 3.6 10 16:39 31.12.2020
4213 Clouds 5 1016 30 10000 3.6 10 16:20 31.12.2020
4214 Clouds 4 1015 29 10000 2.6 280 15:43 31.12.2020
4215 Clouds 4 1015 29 10000 2.6 280 15:20 31.12.2020
4216 Clouds 4 1015 32 10000 1.49 342 14:42 31.12.2020
4217 Clouds 4 1015 32 10000 1.56 20 14:23 31.12.2020
4218 Clouds 4 1015 29 10000 1.56 20 13:58 31.12.2020
4219 Clouds 4 1015 29 10000 1.56 20 13:37 31.12.2020
4220 Clouds 4 1015 29 10000 1.63 46 13:19 31.12.2020
4221 Clouds 4 1016 29 10000 1.63 46 12:46 31.12.2020
4222 Clouds 4 1016 29 10000 1.3 60 12:28 31.12.2020
4223 Clouds 5 1017 25 10000 1.3 60 11:47 31.12.2020
4224 Clouds 5 1017 25 10000 0.49 57 11:29 31.12.2020
4225 Clouds 5 1017 25 10000 1.5 260 10:42 31.12.2020
4226 Clouds 4 1017 25 10000 1.5 260 10:23 31.12.2020
4227 Clouds 4 1018 23 10000 1.5 260 09:49 31.12.2020
4228 Clouds 4 1018 23 10000 1.5 260 09:24 31.12.2020
4229 Clouds 4 1020 24 10000 2.6 190 08:48 31.12.2020
4230 Clouds 4 1020 24 10000 2.6 190 08:30 31.12.2020
4231 Clouds 5 1021 24 10000 1.5 250 07:56 31.12.2020
4232 Clouds 5 1021 24 10000 1.5 250 07:25 31.12.2020
4233 Clouds 6 1022 20 10000 1.5 230 05:30 31.12.2020
4234 Clouds 9 1022 16 10000 1.5 190 03:37 31.12.2020
4235 Clouds 9 1023 15 10000 0.92 111 02:37 31.12.2020
4236 Clouds 11 1022 13 10000 0.56 46 01:58 31.12.2020
4237 Clouds 11 1022 13 10000 0.56 46 01:39 31.12.2020
4238 Clouds 11 1022 13 10000 0.43 71 01:19 31.12.2020
4239 Clouds 12 1022 13 10000 0.43 71 00:39 31.12.2020
4240 Clouds 12 1023 14 10000 1.5 0 23:41 30.12.2020
4241 Clouds 12 1023 14 10000 1.5 0 23:18 30.12.2020
4242 Clouds 11 1024 17 10000 2.6 90 22:36 30.12.2020
4243 Clouds 11 1024 17 10000 2.1 80 21:55 30.12.2020
4244 Clouds 11 1024 17 10000 2.1 80 21:28 30.12.2020
4245 Clouds 10 1026 21 10000 1.5 50 20:57 30.12.2020
4246 Clouds 10 1026 21 10000 1.5 50 20:39 30.12.2020
4247 Clouds 9 1026 21 10000 1.5 50 20:19 30.12.2020
4248 Clouds 8 1027 22 10000 2.6 330 19:38 30.12.2020
4249 Clouds 8 1027 22 10000 2.6 330 19:19 30.12.2020
4250 Clouds 7 1027 26 10000 0.91 16 18:41 30.12.2020
4251 Clouds 6 1027 26 10000 0.67 21 18:22 30.12.2020
4252 Clouds 5 1027 32 10000 2.1 260 17:50 30.12.2020
4253 Clouds 4 1027 32 10000 2.1 260 17:30 30.12.2020
4254 Clouds 2 1026 37 10000 2.1 190 16:48 30.12.2020
4255 Clouds 1 1026 37 10000 2.1 190 16:20 30.12.2020
4256 Clear 2 1026 37 10000 0.96 331 15:42 30.12.2020
4257 Clear 2 1026 37 10000 1.5 349 15:24 30.12.2020
4258 Clouds 2 1025 37 10000 1.5 220 14:43 30.12.2020
4259 Clouds 2 1025 37 10000 1.5 220 14:22 30.12.2020
4260 Clouds 3 1025 32 10000 3.6 50 13:20 30.12.2020
4261 Clouds 4 1025 32 10000 1.5 350 12:27 30.12.2020
4262 Clouds 4 1025 32 10000 1.5 190 11:49 30.12.2020
4263 Clouds 4 1025 32 10000 1.5 190 11:23 30.12.2020
4264 Clouds 4 1025 32 10000 2.1 220 10:59 30.12.2020
4265 Clouds 5 1025 32 10000 2.1 220 10:39 30.12.2020
4266 Clouds 5 1025 32 10000 2.1 220 10:20 30.12.2020
4267 Clouds 6 1025 28 10000 5.1 10 09:46 30.12.2020
4268 Clear 7 1025 22 10000 6.7 340 08:55 30.12.2020
4269 Clear 7 1024 24 10000 3.6 40 07:59 30.12.2020
4270 Clear 7 1024 24 10000 3.6 40 07:28 30.12.2020
4271 Clear 7 1024 24 10000 6.7 20 06:42 30.12.2020
4272 Clear 9 1023 18 10000 8.2 350 05:50 30.12.2020
4273 Clear 9 1023 18 10000 8.2 350 05:30 30.12.2020
4274 Clear 10 1022 21 10000 8.7 350 03:44 30.12.2020
4275 Clear 10 1022 21 10000 8.7 350 03:24 30.12.2020
4276 Clear 11 1021 23 10000 9.8 340 02:36 30.12.2020
4277 Clear 12 1021 18 10000 8.7 350 01:49 30.12.2020
4278 Clear 11 1021 18 10000 8.7 350 01:30 30.12.2020
4279 Clouds 12 1020 19 10000 6.7 350 00:46 30.12.2020
4280 Clouds 12 1020 19 10000 6.7 350 00:26 30.12.2020
4281 Clouds 12 1020 20 10000 6.2 340 23:52 29.12.2020
4282 Clouds 12 1020 20 10000 6.2 340 23:34 29.12.2020
4283 Clouds 12 1020 25 10000 6.2 330 22:50 29.12.2020
4284 Clouds 12 1020 25 10000 6.2 330 22:31 29.12.2020
4285 Clouds 12 1020 32 10000 4.6 20 21:56 29.12.2020
4286 Clouds 11 1020 32 10000 4.6 20 21:37 29.12.2020
4287 Clouds 12 1020 32 10000 4.6 20 21:19 29.12.2020
4288 Clouds 11 1021 40 10000 3.6 40 20:42 29.12.2020
4289 Clouds 11 1021 40 10000 3.6 40 20:22 29.12.2020
4290 Clouds 10 1021 43 10000 7.2 10 19:45 29.12.2020
4291 Clouds 9 1021 43 10000 7.2 10 19:21 29.12.2020
4292 Clouds 9 1021 43 10000 7.2 10 19:21 29.12.2020
4293 Clouds 8 1020 49 10000 4.86 350 18:50 29.12.2020
4294 Clouds 8 1020 57 10000 3.05 332 18:28 29.12.2020
4295 Clouds 7 1019 57 10000 1.5 230 17:47 29.12.2020
4296 Clouds 6 1019 69 10000 1.5 230 17:21 29.12.2020
4297 Clouds 5 1018 70 10000 5.1 360 16:54 29.12.2020
4298 Clouds 5 1018 70 10000 5.1 360 16:26 29.12.2020
4299 Clouds 4 1017 82 10000 3.1 300 15:42 29.12.2020
4300 Clouds 4 1017 83 10000 3.1 300 15:23 29.12.2020
4301 Clouds 5 1016 65 10000 2.6 320 14:40 29.12.2020
4302 Clouds 4 1016 65 10000 2.6 320 14:20 29.12.2020
4303 Clouds 4 1015 65 10000 1.5 210 13:54 29.12.2020
4304 Clouds 3 1015 65 10000 1.5 210 13:23 29.12.2020
4305 Clouds 4 1015 60 10000 1.83 311 12:44 29.12.2020
4306 Clouds 4 1015 60 10000 1.72 308 12:25 29.12.2020
4307 Clouds 5 1014 60 10000 2.1 210 11:57 29.12.2020
4308 Clouds 5 1014 60 10000 2.1 210 11:31 29.12.2020
4309 Clouds 5 1014 81 10000 1.5 220 10:38 29.12.2020
4310 Clouds 4 1014 80 10000 1.24 305 09:50 29.12.2020
4311 Clouds 5 1014 80 10000 0.86 267 09:29 29.12.2020
4312 Clouds 5 1013 80 10000 1.5 180 08:56 29.12.2020
4313 Clouds 5 1013 80 10000 1.5 180 08:36 29.12.2020
4314 Clouds 5 1013 65 10000 0.95 258 07:30 29.12.2020
4315 Clouds 5 1013 65 10000 1.13 291 06:48 29.12.2020
4316 Clouds 6 1012 65 10000 2.6 40 05:32 29.12.2020
4317 Clouds 10 1009 43 10000 3.1 240 00:56 29.12.2020
4318 Clouds 10 1009 43 10000 3.1 240 00:23 29.12.2020
4319 Clouds 10 1008 53 10000 2.6 320 23:36 28.12.2020
4320 Clouds 10 1008 43 10000 7.2 260 22:30 28.12.2020
4321 Clouds 10 1008 43 10000 6.2 230 21:47 28.12.2020
4322 Clouds 10 1008 43 10000 6.2 230 21:28 28.12.2020
4323 Clouds 9 1009 46 10000 5.1 220 20:44 28.12.2020
4324 Clouds 9 1009 46 10000 5.1 220 20:44 28.12.2020
4325 Clouds 9 1009 46 10000 5.1 220 20:25 28.12.2020
4326 Clouds 7 1009 52 10000 3.1 220 19:50 28.12.2020
4327 Clouds 8 1009 52 10000 3.1 220 19:26 28.12.2020
4328 Clouds 7 1009 52 10000 2.6 180 18:59 28.12.2020
4329 Clouds 7 1009 52 10000 2.6 180 18:32 28.12.2020
4330 Rain 6 1009 48 10000 2.1 200 17:51 28.12.2020
4331 Clouds 6 1009 48 10000 2.1 200 17:33 28.12.2020
4332 Clouds 6 1008 52 10000 1.5 190 16:59 28.12.2020
4333 Clouds 5 1008 52 10000 1.5 190 16:31 28.12.2020
4334 Clouds 5 1008 52 10000 2.1 200 15:54 28.12.2020
4335 Clouds 5 1008 52 10000 2.1 200 15:33 28.12.2020
4336 Clouds 5 1008 52 10000 0.66 331 14:31 28.12.2020
4337 Clouds 4 1008 55 10000 1.5 190 13:47 28.12.2020
4338 Clouds 4 1008 55 10000 1.5 190 13:20 28.12.2020
4339 Clouds 4 1009 59 10000 0.7 4 12:27 28.12.2020
4340 Clouds 4 1010 55 10000 1.5 220 11:55 28.12.2020
4341 Clouds 4 1010 55 10000 1.5 220 11:36 28.12.2020
4342 Clouds 4 1010 55 10000 1.5 220 11:18 28.12.2020
4343 Clouds 5 1011 52 10000 1.03 358 10:29 28.12.2020
4344 Clear 5 1011 48 10000 2.1 270 09:57 28.12.2020
4345 Clear 5 1011 48 10000 2.1 270 09:37 28.12.2020
4346 Clear 5 1011 48 10000 2.1 270 09:18 28.12.2020
4347 Clouds 7 1014 42 10000 1.5 220 06:53 28.12.2020
4348 Clouds 7 1014 39 10000 2.1 280 05:18 28.12.2020
4349 Clouds 8 1014 29 10000 2.1 330 03:34 28.12.2020
4350 Clouds 11 1014 32 10000 3.1 20 01:54 28.12.2020
4351 Clouds 12 1015 23 10000 2.83 70 23:52 27.12.2020
4352 Clouds 12 1015 23 10000 2.32 68 23:27 27.12.2020
4353 Clouds 12 1016 23 10000 1.5 90 22:36 27.12.2020
4354 Clouds 12 1017 23 10000 2.6 40 21:49 27.12.2020
4355 Clouds 12 1017 23 10000 2.6 40 21:21 27.12.2020
4356 Clouds 11 1018 23 10000 1.5 60 20:25 27.12.2020
4357 Clouds 11 1019 25 10000 2.29 9 19:24 27.12.2020
4358 Clouds 10 1020 29 10000 2.1 200 18:50 27.12.2020
4359 Clouds 10 1020 29 10000 2.1 200 18:21 27.12.2020
4360 Clouds 9 1018 26 10000 2.42 341 17:57 27.12.2020
4361 Clouds 9 1018 26 10000 2.42 341 17:35 27.12.2020
4362 Clouds 9 1019 26 10000 1.5 200 16:57 27.12.2020
4363 Clouds 8 1019 26 10000 1.5 200 16:23 27.12.2020
4364 Clouds 8 1019 28 10000 2.1 230 15:34 27.12.2020
4365 Clouds 8 1018 30 10000 1.5 250 14:53 27.12.2020
4366 Clouds 8 1018 30 10000 1.5 250 14:35 27.12.2020
4367 Clouds 8 1018 30 10000 1.5 220 13:36 27.12.2020
4368 Clouds 7 1018 28 10000 1.5 230 12:56 27.12.2020
4369 Clouds 7 1018 28 10000 1.5 230 12:25 27.12.2020
4370 Clouds 7 1019 26 10000 2.1 230 11:42 27.12.2020
4371 Clouds 7 1019 26 10000 2.1 230 11:20 27.12.2020
4372 Clouds 7 1019 24 10000 2.6 220 10:40 27.12.2020
4373 Clouds 7 1019 24 10000 2.6 220 10:19 27.12.2020
4374 Clouds 6 1019 28 10000 1.45 349 09:36 27.12.2020
4375 Clouds 7 1018 24 10000 2.1 210 08:28 27.12.2020
4376 Clouds 7 1018 20 10000 2.1 230 07:28 27.12.2020
4377 Clouds 7 1018 20 10000 2.1 250 05:56 27.12.2020
4378 Clouds 7 1018 20 10000 2.1 250 05:38 27.12.2020
4379 Clouds 9 1017 16 10000 3.1 10 03:24 27.12.2020
4380 Clouds 10 1016 14 10000 1.61 337 01:56 27.12.2020
4381 Clouds 12 1016 12 10000 2.19 20 00:38 27.12.2020
4382 Clouds 12 1016 12 10000 2.1 20 23:43 26.12.2020
4383 Clouds 12 1016 12 10000 2.1 20 23:23 26.12.2020
4384 Clouds 12 1017 13 10000 2.6 40 22:45 26.12.2020
4385 Clouds 12 1017 13 10000 2.6 40 22:19 26.12.2020
4386 Clouds 11 1018 15 10000 2.6 30 21:53 26.12.2020
4387 Clouds 11 1018 15 10000 2.6 30 21:53 26.12.2020
4388 Clouds 11 1018 15 10000 2.6 30 21:26 26.12.2020
4389 Clouds 10 1019 16 10000 2.6 40 20:45 26.12.2020
4390 Clouds 10 1019 16 10000 2.6 40 20:24 26.12.2020
4391 Clouds 9 1020 15 10000 2.1 90 19:32 26.12.2020
4392 Clouds 8 1020 22 10000 1.6 85 18:59 26.12.2020
4393 Clouds 7 1020 22 10000 1.6 85 18:34 26.12.2020
4394 Clouds 3 1020 25 10000 1.24 58 17:47 26.12.2020
4395 Clouds 5 1020 25 10000 0.86 38 17:28 26.12.2020
4396 Clouds 2 1020 24 10000 1.5 230 16:40 26.12.2020
4397 Clouds 2 1020 24 10000 1.5 230 16:18 26.12.2020
4398 Clouds 2 1020 29 10000 0.73 71 15:21 26.12.2020
4399 Clouds 2 1020 24 10000 0.73 71 14:38 26.12.2020
4400 Clouds 2 1020 24 10000 0.81 85 14:20 26.12.2020
4401 Clouds 2 1020 24 10000 2.1 220 13:38 26.12.2020
4402 Clear 3 1020 23 10000 0.82 92 13:18 26.12.2020
4403 Clear 2 1020 23 10000 0.6 78 12:40 26.12.2020
4404 Clear 3 1020 23 10000 0.52 81 12:19 26.12.2020
4405 Clear 3 1021 23 10000 2.6 210 11:42 26.12.2020
4406 Clear 3 1021 23 10000 2.6 210 11:20 26.12.2020
4407 Clear 4 1021 23 10000 2.1 290 10:47 26.12.2020
4408 Clear 4 1021 23 10000 2.1 290 10:26 26.12.2020
4409 Clear 4 1021 19 10000 1.5 290 09:47 26.12.2020
4410 Clear 5 1022 17 10000 2.1 210 08:56 26.12.2020
4411 Clear 5 1022 17 10000 2.1 210 08:20 26.12.2020
4412 Clouds 5 1022 17 10000 2.6 210 07:21 26.12.2020
4413 Clouds 6 1022 17 10000 0.56 307 05:52 26.12.2020
4414 Clouds 10 1021 13 10000 1.02 336 02:48 26.12.2020
4415 Clouds 13 1022 10 10000 0.59 51 00:40 26.12.2020
4416 Clouds 13 1023 9 10000 1.19 77 23:56 25.12.2020
4417 Clouds 13 1023 9 10000 1.19 77 23:37 25.12.2020
4418 Clouds 13 1023 9 10000 1.42 67 23:19 25.12.2020
4419 Clouds 13 1023 10 10000 1.5 80 22:26 25.12.2020
4420 Clouds 12 1024 10 10000 1.25 61 21:46 25.12.2020
4421 Clouds 12 1024 10 10000 1.19 47 21:28 25.12.2020
4422 Clouds 11 1025 13 10000 1.19 47 20:47 25.12.2020
4423 Clouds 11 1025 13 10000 1.17 41 20:27 25.12.2020
4424 Clouds 10 1026 15 10000 1.17 41 19:43 25.12.2020
4425 Clouds 9 1026 22 10000 1.5 70 18:55 25.12.2020
4426 Clouds 8 1026 22 10000 1.5 70 18:35 25.12.2020
4427 Clouds 4 1025 27 10000 1.5 210 17:35 25.12.2020
4428 Clouds 3 1025 23 10000 2.1 300 16:56 25.12.2020
4429 Clouds 3 1025 23 10000 2.1 300 16:25 25.12.2020
4430 Clouds 3 1025 21 10000 0.65 344 15:50 25.12.2020
4431 Clouds 3 1025 21 10000 0.65 344 15:32 25.12.2020
4432 Clouds 3 1024 21 10000 2.6 200 14:38 25.12.2020
4433 Clouds 3 1024 21 10000 2.6 200 14:19 25.12.2020
4434 Clouds 2 1024 23 10000 0.87 353 13:38 25.12.2020
4435 Clouds 2 1024 23 10000 0.71 4 13:19 25.12.2020
4436 Clouds 2 1024 19 10000 3.1 210 12:28 25.12.2020
4437 Clouds 3 1025 29 10000 0.96 339 11:50 25.12.2020
4438 Clouds 3 1025 29 10000 0.6 324 11:25 25.12.2020
4439 Clouds 3 1025 29 10000 0.6 324 11:25 25.12.2020
4440 Clouds 4 1024 27 10000 2.1 260 10:49 25.12.2020
4441 Clouds 4 1024 27 10000 2.1 260 10:21 25.12.2020
4442 Clouds 4 1025 27 10000 2.1 210 09:27 25.12.2020
4443 Clouds 4 1026 26 10000 1.5 230 08:45 25.12.2020
4444 Clouds 5 1026 22 10000 0.75 30 07:45 25.12.2020
4445 Clouds 6 1027 20 10000 0.46 342 06:44 25.12.2020
4446 Clouds 7 1027 19 10000 2.1 220 02:36 25.12.2020
4447 Clouds 8 1028 16 10000 1.5 150 00:38 25.12.2020
4448 Clouds 9 1028 16 10000 1.5 240 23:40 24.12.2020
4449 Clouds 9 1028 16 10000 1.5 240 23:21 24.12.2020
4450 Clouds 8 1029 16 10000 1.5 0 22:26 24.12.2020
4451 Clouds 8 1030 16 10000 1.5 50 21:54 24.12.2020
4452 Clouds 8 1030 16 10000 1.5 50 21:27 24.12.2020
4453 Clouds 7 1033 20 10000 2.1 210 20:18 24.12.2020
4454 Clouds 5 1033 25 10000 1.5 200 18:22 24.12.2020
4455 Clouds 3 1033 29 10000 2.1 210 17:45 24.12.2020
4456 Clouds 2 1033 29 10000 2.1 210 17:26 24.12.2020
4457 Clouds 1 1033 34 10000 0.82 7 16:26 24.12.2020
4458 Clouds 1 1033 31 10000 0.82 7 15:49 24.12.2020
4459 Clouds 1 1033 31 10000 1.06 343 15:26 24.12.2020
4460 Clouds 1 1033 31 10000 3.1 220 14:57 24.12.2020
4461 Clouds 1 1033 31 10000 3.1 220 14:38 24.12.2020
4462 Clouds 1 1033 31 10000 3.1 220 14:38 24.12.2020
4463 Clouds 1 1033 31 10000 3.1 220 14:20 24.12.2020
4464 Clouds 1 1033 29 10000 2.1 210 13:39 24.12.2020
4465 Clouds 1 1033 29 10000 2.1 210 13:19 24.12.2020
4466 Clouds 1 1033 31 10000 1.5 230 12:40 24.12.2020
4467 Clouds 1 1033 31 10000 1.5 230 12:19 24.12.2020
4468 Clouds 1 1034 31 10000 0.67 342 11:39 24.12.2020
4469 Clouds 1 1034 31 10000 0.71 4 11:20 24.12.2020
4470 Clear 2 1034 29 10000 0.71 4 10:46 24.12.2020
4471 Clear 2 1034 29 10000 1.03 11 10:27 24.12.2020
4472 Clouds 2 1034 29 10000 1.5 230 09:50 24.12.2020
4473 Clouds 2 1034 29 10000 1.5 230 09:23 24.12.2020
4474 Clouds 3 1034 27 10000 1.5 220 07:57 24.12.2020
4475 Clouds 3 1034 27 10000 1.5 220 07:37 24.12.2020
4476 Clouds 4 1033 25 10000 2.6 260 06:34 24.12.2020
4477 Clouds 4 1032 20 10000 1.5 230 04:24 24.12.2020
4478 Clouds 9 1030 15 10000 4.6 60 01:53 24.12.2020
4479 Clouds 9 1030 15 10000 4.6 60 01:53 24.12.2020
4480 Clouds 9 1030 15 10000 4.6 60 01:28 24.12.2020
4481 Clouds 10 1030 14 10000 6.7 60 00:44 24.12.2020
4482 Clouds 10 1030 14 10000 6.7 60 00:19 24.12.2020
4483 Clouds 11 1030 13 10000 8.7 50 23:40 23.12.2020
4484 Clouds 11 1030 13 10000 8.7 50 23:21 23.12.2020
4485 Clouds 11 1030 14 10000 10.3 50 22:48 23.12.2020
4486 Clouds 11 1030 14 10000 10.3 50 22:27 23.12.2020
4487 Clouds 11 1030 15 10000 10.8 60 21:48 23.12.2020
4488 Clouds 11 1030 15 10000 10.8 60 21:23 23.12.2020
4489 Clouds 10 1031 16 10000 9.8 40 20:46 23.12.2020
4490 Clouds 10 1031 16 10000 9.8 40 20:28 23.12.2020
4491 Clouds 9 1031 18 10000 10.3 50 19:58 23.12.2020
4492 Clouds 9 1031 18 10000 10.3 50 19:37 23.12.2020
4493 Clouds 9 1031 18 10000 10.3 50 19:19 23.12.2020
4494 Clouds 8 1030 19 10000 9.3 50 18:40 23.12.2020
4495 Clouds 7 1029 22 10000 8.7 40 17:58 23.12.2020
4496 Clouds 7 1029 22 10000 8.7 40 17:36 23.12.2020
4497 Clouds 6 1028 22 10000 8.7 40 17:18 23.12.2020
4498 Clouds 6 1028 22 10000 8.7 40 16:40 23.12.2020
4499 Clouds 6 1028 22 10000 8.7 40 16:22 23.12.2020
4500 Clouds 7 1027 20 10000 11.8 60 15:46 23.12.2020
4501 Clouds 7 1027 20 10000 11.8 60 15:26 23.12.2020
4502 Clouds 7 1025 22 10000 8.2 60 14:58 23.12.2020
4503 Clouds 7 1025 22 10000 8.2 60 14:37 23.12.2020
4504 Clouds 7 1025 22 10000 8.2 60 14:18 23.12.2020
4505 Clear 7 1023 20 10000 6.2 60 13:43 23.12.2020
4506 Clear 8 1022 21 10000 5.1 50 13:19 23.12.2020
4507 Clear 8 1022 21 10000 5.1 50 12:46 23.12.2020
4508 Clear 8 1022 21 10000 5.1 50 12:21 23.12.2020
4509 Clear 9 1021 16 10000 5.7 60 11:46 23.12.2020
4510 Clear 10 1021 18 10000 6.2 60 10:59 23.12.2020
4511 Clear 9 1021 18 10000 6.2 60 10:41 23.12.2020
4512 Clear 9 1021 18 10000 6.2 60 10:22 23.12.2020
4513 Clear 10 1019 14 10000 2.6 90 09:28 23.12.2020
4514 Clear 10 1019 11 10000 3.6 100 08:44 23.12.2020
4515 Clear 11 1019 11 10000 3.6 100 08:19 23.12.2020
4516 Clear 11 1018 13 10000 4.6 300 07:27 23.12.2020
4517 Clear 10 1017 17 10000 5.7 290 06:39 23.12.2020
4518 Clear 11 1016 20 10000 2.6 220 05:26 23.12.2020
4519 Clouds 13 1015 17 10000 2.1 0 04:53 23.12.2020
4520 Clear 21 1014 12 10000 3.49 321 00:34 23.12.2020
4521 Clear 20 1014 15 10000 3.73 318 23:48 22.12.2020
4522 Clear 20 1014 15 10000 3.13 326 23:28 22.12.2020
4523 Clear 19 1014 22 10000 2.1 0 22:44 22.12.2020
4524 Clear 18 1014 22 10000 2.1 0 22:25 22.12.2020
4525 Clear 17 1015 25 10000 2.1 0 21:57 22.12.2020
4526 Clear 17 1015 25 10000 2.1 0 21:38 22.12.2020
4527 Clear 17 1015 25 10000 2.1 0 21:38 22.12.2020
4528 Clear 17 1015 25 10000 2.1 0 21:18 22.12.2020
4529 Clear 16 1016 30 10000 1.5 200 20:43 22.12.2020
4530 Clear 15 1016 30 10000 1.5 200 20:20 22.12.2020
4531 Clear 14 1016 32 10000 1.19 2 19:42 22.12.2020
4532 Clear 13 1016 32 10000 0.79 27 19:21 22.12.2020
4533 Clouds 12 1015 37 10000 1.5 200 18:48 22.12.2020
4534 Clouds 12 1015 37 10000 1.5 200 18:28 22.12.2020
4535 Clouds 9 1014 42 10000 0.49 350 17:51 22.12.2020
4536 Clouds 10 1014 42 10000 1.12 205 17:24 22.12.2020
4537 Clouds 9 1013 48 10000 3.1 330 16:55 22.12.2020
4538 Clouds 8 1013 48 10000 3.1 330 16:36 22.12.2020
4539 Clouds 7 1012 48 10000 1.5 240 16:18 22.12.2020
4540 Clouds 7 1012 48 10000 1.5 240 15:42 22.12.2020
4541 Clouds 7 1012 48 10000 1.5 240 15:20 22.12.2020
4542 Clouds 7 1013 52 10000 2.6 250 14:43 22.12.2020
4543 Clouds 7 1013 52 10000 2.6 250 14:25 22.12.2020
4544 Clouds 7 1014 48 10000 1.5 290 13:47 22.12.2020
4545 Clouds 7 1015 48 10000 0.88 188 13:19 22.12.2020
4546 Clouds 7 1015 48 10000 0.88 188 12:56 22.12.2020
4547 Clouds 7 1015 48 10000 0.79 181 12:38 22.12.2020
4548 Clouds 8 1015 48 10000 0.71 191 12:19 22.12.2020
4549 Clear 8 1015 49 10000 1.5 0 11:41 22.12.2020
4550 Clear 8 1015 49 10000 1.5 0 11:21 22.12.2020
4551 Clear 8 1015 49 10000 3.1 260 10:55 22.12.2020
4552 Clear 8 1015 49 10000 3.1 260 10:27 22.12.2020
4553 Clear 8 1016 42 10000 2.1 220 09:58 22.12.2020
4554 Clear 8 1016 42 10000 2.1 220 09:30 22.12.2020
4555 Clear 9 1016 39 10000 1.5 260 08:57 22.12.2020
4556 Clear 9 1016 39 10000 1.5 260 08:38 22.12.2020
4557 Clear 9 1016 39 10000 2.1 220 07:57 22.12.2020
4558 Clear 10 1016 39 10000 2.1 220 07:26 22.12.2020
4559 Clear 11 1016 34 10000 2.1 210 05:54 22.12.2020
4560 Clear 11 1016 34 10000 2.1 210 05:25 22.12.2020
4561 Clear 19 1017 22 10000 0.57 310 01:48 22.12.2020
4562 Clear 19 1017 22 10000 0.23 71 00:21 22.12.2020
4563 Clear 19 1017 22 10000 2.1 90 23:41 21.12.2020
4564 Clear 19 1018 22 10000 2.1 40 23:18 21.12.2020
4565 Clear 18 1018 22 10000 2.1 40 22:36 21.12.2020
4566 Clear 18 1018 22 10000 2.1 40 22:18 21.12.2020
4567 Clear 18 1019 20 10000 1.17 46 21:45 21.12.2020
4568 Clear 18 1019 20 10000 1.09 36 21:26 21.12.2020
4569 Clear 17 1021 21 10000 1.5 40 20:43 21.12.2020
4570 Clear 16 1021 21 10000 1.5 40 20:20 21.12.2020
4571 Clear 15 1022 24 10000 1.5 70 19:46 21.12.2020
4572 Clear 15 1022 24 10000 1.5 70 19:20 21.12.2020
4573 Clear 14 1022 27 10000 0.58 50 18:55 21.12.2020
4574 Clear 14 1022 27 10000 0.54 81 18:37 21.12.2020
4575 Clear 12 1022 33 10000 1.5 230 18:18 21.12.2020
4576 Clear 9 1022 33 10000 1.5 230 17:42 21.12.2020
4577 Clear 9 1022 33 10000 1.5 230 17:22 21.12.2020
4578 Clear 6 1021 38 10000 2.1 220 16:39 21.12.2020
4579 Clear 6 1021 36 10000 0.69 358 16:19 21.12.2020
4580 Clear 6 1021 36 10000 0.69 358 15:41 21.12.2020
4581 Clear 6 1021 33 10000 2.1 230 14:58 21.12.2020
4582 Clear 6 1021 33 10000 2.1 230 14:22 21.12.2020
4583 Clear 6 1021 33 10000 2.1 200 13:52 21.12.2020
4584 Clear 7 1021 33 10000 2.1 200 13:33 21.12.2020
4585 Clear 7 1022 33 10000 1.5 270 12:57 21.12.2020
4586 Clear 7 1022 33 10000 1.5 270 12:57 21.12.2020
4587 Clear 7 1022 33 10000 1.5 270 12:37 21.12.2020
4588 Clear 7 1022 33 10000 1.5 270 12:18 21.12.2020
4589 Clear 7 1022 33 10000 1.23 358 11:42 21.12.2020
4590 Clear 7 1022 33 10000 0.65 340 11:22 21.12.2020
4591 Clear 8 1022 31 10000 3.1 220 10:55 21.12.2020
4592 Clear 8 1022 31 10000 3.1 220 10:37 21.12.2020
4593 Clear 7 1022 31 10000 2.6 220 09:55 21.12.2020
4594 Clear 7 1022 31 10000 2.6 220 09:37 21.12.2020
4595 Clear 8 1022 31 10000 2.6 220 09:18 21.12.2020
4596 Clear 8 1023 31 10000 1.5 240 08:18 21.12.2020
4597 Clear 9 1023 31 10000 1.5 240 06:48 21.12.2020
4598 Clear 10 1023 27 10000 1.5 280 04:59 21.12.2020
4599 Clear 10 1022 27 10000 0.64 288 03:46 21.12.2020
4600 Clear 16 1023 17 10000 0.29 257 00:35 21.12.2020
4601 Clear 16 1023 18 10000 0.83 70 23:39 20.12.2020
4602 Clear 16 1023 18 10000 1.65 89 23:20 20.12.2020
4603 Clouds 15 1024 19 10000 1.65 89 22:43 20.12.2020
4604 Clouds 15 1024 19 10000 1.33 84 22:22 20.12.2020
4605 Clouds 14 1025 22 10000 1.33 84 21:41 20.12.2020
4606 Clouds 14 1025 22 10000 0.84 46 21:22 20.12.2020
4607 Clouds 14 1027 24 10000 0.84 46 20:54 20.12.2020
4608 Clouds 13 1027 24 10000 0.9 47 20:26 20.12.2020
4609 Clouds 12 1028 27 10000 0.9 47 19:58 20.12.2020
4610 Clouds 12 1028 27 10000 0.9 47 19:38 20.12.2020
4611 Clouds 12 1028 27 10000 0.63 5 19:20 20.12.2020
4612 Clouds 9 1028 33 10000 0.63 5 18:42 20.12.2020
4613 Clouds 9 1028 33 10000 0.63 5 18:42 20.12.2020
4614 Clouds 9 1028 33 10000 0.61 349 18:23 20.12.2020
4615 Clouds 7 1028 44 10000 0.61 349 17:46 20.12.2020
4616 Clouds 7 1028 44 10000 0.69 322 17:28 20.12.2020
4617 Clouds 7 1028 44 10000 0.69 322 17:28 20.12.2020
4618 Clouds 3 1028 44 10000 1.5 210 16:47 20.12.2020
4619 Clouds 3 1028 44 10000 1.5 210 16:28 20.12.2020
4620 Clear 3 1028 44 10000 1.5 210 15:50 20.12.2020
4621 Clear 3 1028 44 10000 1.5 210 15:26 20.12.2020
4622 Clear 3 1027 47 10000 2.1 210 14:56 20.12.2020
4623 Clear 3 1027 47 10000 2.1 210 14:34 20.12.2020
4624 Clear 3 1027 44 10000 2.6 220 13:48 20.12.2020
4625 Clear 3 1027 44 10000 2.6 220 13:29 20.12.2020
4626 Clear 3 1028 47 10000 2.1 220 12:59 20.12.2020
4627 Clear 4 1028 47 10000 2.1 220 12:39 20.12.2020
4628 Clear 4 1028 47 10000 2.1 220 12:21 20.12.2020
4629 Clear 4 1028 48 10000 3.1 300 11:44 20.12.2020
4630 Clear 4 1028 48 10000 3.1 300 11:25 20.12.2020
4631 Clear 4 1028 44 10000 0.43 13 10:48 20.12.2020
4632 Clear 4 1028 44 10000 0.49 69 10:20 20.12.2020
4633 Clear 4 1028 41 10000 1.5 240 09:46 20.12.2020
4634 Clear 4 1028 41 10000 1.5 240 09:27 20.12.2020
4635 Clear 4 1028 41 10000 0.71 46 08:59 20.12.2020
4636 Clear 5 1028 41 10000 0.71 46 08:39 20.12.2020
4637 Clear 5 1028 35 10000 1.5 240 07:27 20.12.2020
4638 Clear 6 1028 39 10000 0.46 251 05:52 20.12.2020
4639 Clear 10 1026 27 10000 1.5 130 02:23 20.12.2020
4640 Clouds 13 1026 24 10000 0.66 55 00:39 20.12.2020
4641 Clouds 13 1027 24 10000 1.5 30 23:22 19.12.2020
4642 Clouds 13 1027 25 10000 1.79 106 22:57 19.12.2020
4643 Clouds 13 1027 25 10000 1.79 106 22:39 19.12.2020
4644 Clouds 13 1027 25 10000 1.29 101 22:19 19.12.2020
4645 Clouds 12 1028 25 10000 2.6 50 21:43 19.12.2020
4646 Clouds 12 1028 25 10000 2.6 50 21:25 19.12.2020
4647 Clouds 11 1029 29 10000 0.87 117 20:46 19.12.2020
4648 Clouds 11 1029 29 10000 0.64 68 20:22 19.12.2020
4649 Clouds 10 1030 31 10000 0.64 68 19:55 19.12.2020
4650 Clouds 10 1030 31 10000 0.64 68 19:36 19.12.2020
4651 Clouds 10 1030 31 10000 0.76 62 19:18 19.12.2020
4652 Clouds 8 1030 39 10000 1.5 210 18:31 19.12.2020
4653 Clouds 6 1029 48 10000 0.18 298 17:50 19.12.2020
4654 Clouds 5 1029 48 10000 0.9 342 17:29 19.12.2020
4655 Clouds 4 1029 47 10000 2.1 220 16:56 19.12.2020
4656 Clouds 3 1029 47 10000 2.1 220 16:37 19.12.2020
4657 Clouds 3 1029 47 10000 2.1 220 16:37 19.12.2020
4658 Clouds 3 1029 47 10000 2.1 220 16:19 19.12.2020
4659 Clear 2 1028 47 10000 2.1 240 15:47 19.12.2020
4660 Clear 2 1028 47 10000 3.6 210 14:52 19.12.2020
4661 Clear 3 1028 47 10000 3.6 210 14:26 19.12.2020
4662 Clear 2 1028 51 10000 1.5 150 13:42 19.12.2020
4663 Clear 3 1028 51 10000 1.5 150 13:21 19.12.2020
4664 Clear 3 1028 48 10000 2.1 270 12:55 19.12.2020
4665 Clear 3 1028 48 10000 2.1 270 12:37 19.12.2020
4666 Clear 3 1028 48 10000 2.1 270 12:19 19.12.2020
4667 Clear 3 1028 44 10000 1.5 320 11:42 19.12.2020
4668 Clear 5 1028 39 10000 1.5 90 10:48 19.12.2020
4669 Clear 5 1028 39 10000 1.5 90 10:29 19.12.2020
4670 Clear 5 1028 39 10000 2.6 320 10:00 19.12.2020
4671 Clear 5 1028 39 10000 2.6 320 09:41 19.12.2020
4672 Clear 5 1026 36 10000 3.1 10 08:58 19.12.2020
4673 Clear 6 1026 36 10000 3.1 10 08:18 19.12.2020
4674 Clear 7 1027 36 10000 2.6 50 07:19 19.12.2020
4675 Clouds 7 1027 34 10000 3.1 60 06:44 19.12.2020
4676 Clouds 9 1027 31 10000 2.1 80 05:21 19.12.2020
4677 Clouds 10 1025 25 10000 7.2 340 03:40 19.12.2020
4678 Clouds 13 1024 26 10000 3.6 340 00:41 19.12.2020
4679 Clouds 13 1024 26 10000 3.6 340 00:21 19.12.2020
4680 Clouds 13 1024 26 10000 2.6 30 23:49 18.12.2020
4681 Clouds 13 1024 26 10000 2.6 30 23:29 18.12.2020
4682 Clouds 13 1024 26 10000 5.7 340 22:57 18.12.2020
4683 Clouds 13 1024 26 10000 5.7 340 22:39 18.12.2020
4684 Clouds 13 1024 26 10000 5.7 340 22:19 18.12.2020
4685 Clear 13 1024 27 10000 7.2 340 21:43 18.12.2020
4686 Clouds 13 1025 25 10000 7.7 350 21:22 18.12.2020
4687 Clouds 12 1025 25 10000 7.7 350 20:25 18.12.2020
4688 Clear 12 1025 29 10000 8.7 350 19:51 18.12.2020
4689 Clear 12 1025 29 10000 8.7 350 19:24 18.12.2020
4690 Clouds 11 1024 34 10000 8.2 350 18:47 18.12.2020
4691 Clouds 10 1024 34 10000 8.2 350 18:28 18.12.2020
4692 Clouds 10 1023 34 10000 9.3 350 17:52 18.12.2020
4693 Clouds 9 1023 34 10000 9.3 350 17:21 18.12.2020
4694 Clouds 9 1022 39 10000 8.7 350 16:48 18.12.2020
4695 Clouds 6 1022 39 10000 8.7 350 16:22 18.12.2020
4696 Clouds 6 1021 42 10000 5.1 340 15:54 18.12.2020
4697 Clouds 6 1021 42 10000 5.1 340 15:34 18.12.2020
4698 Clouds 7 1020 45 10000 7.2 350 14:58 18.12.2020
4699 Clouds 7 1020 45 10000 7.2 350 14:39 18.12.2020
4700 Clouds 6 1019 70 10000 2.1 190 14:19 18.12.2020
4701 Clouds 6 1019 70 10000 2.1 190 13:42 18.12.2020
4702 Clouds 5 1019 70 10000 2.1 190 13:23 18.12.2020
4703 Clouds 6 1018 64 10000 2.1 250 12:44 18.12.2020
4704 Clouds 5 1017 70 10000 2.1 250 11:31 18.12.2020
4705 Clouds 6 1016 70 10000 2.1 230 10:59 18.12.2020
4706 Clouds 6 1016 70 10000 2.1 230 10:37 18.12.2020
4707 Clouds 6 1016 70 10000 2.1 230 10:19 18.12.2020
4708 Clouds 6 1016 65 10000 1.5 200 09:38 18.12.2020
4709 Clouds 6 1016 65 10000 1.5 200 09:20 18.12.2020
4710 Clouds 6 1015 65 10000 0.43 342 08:52 18.12.2020
4711 Clouds 6 1015 65 10000 0.34 339 08:22 18.12.2020
4712 Clouds 7 1014 70 10000 3.6 300 07:20 18.12.2020
4713 Clouds 7 1013 75 10000 2.6 280 06:59 18.12.2020
4714 Clouds 8 1013 70 10000 2.1 210 05:45 18.12.2020
4715 Clouds 8 1013 70 10000 2.1 210 05:27 18.12.2020
4716 Clouds 8 1012 66 10000 1.5 210 04:43 18.12.2020
4717 Clouds 15 1008 29 10000 5.1 220 01:47 18.12.2020
4718 Clouds 15 1008 29 10000 5.1 220 01:47 18.12.2020
4719 Clouds 15 1008 29 10000 5.1 220 01:47 18.12.2020
4720 Clouds 15 1008 29 10000 5.1 220 01:47 18.12.2020
4721 Clouds 15 1008 26 10000 2.6 360 00:55 18.12.2020
4722 Clouds 15 1008 26 10000 3.6 90 23:55 17.12.2020
4723 Clouds 16 1008 26 10000 3.6 90 23:25 17.12.2020
4724 Clouds 16 1008 26 10000 3.6 90 23:25 17.12.2020
4725 Clouds 15 1009 28 10000 4.6 20 22:49 17.12.2020
4726 Clouds 15 1009 28 10000 4.6 20 22:28 17.12.2020
4727 Clouds 14 1010 32 10000 2.1 40 21:47 17.12.2020
4728 Clouds 14 1010 32 10000 2.1 40 21:25 17.12.2020
4729 Clouds 11 1012 42 10000 4.1 90 20:55 17.12.2020
4730 Clouds 10 1012 42 10000 4.1 90 20:37 17.12.2020
4731 Clouds 10 1014 45 10000 2.6 60 20:18 17.12.2020
4732 Clouds 7 1014 45 10000 2.6 60 19:44 17.12.2020
4733 Clouds 8 1014 45 10000 2.6 60 19:22 17.12.2020
4734 Clouds 7 1015 42 10000 2.1 170 18:41 17.12.2020
4735 Clouds 7 1015 42 10000 2.1 170 18:22 17.12.2020
4736 Clouds 7 1015 42 10000 2.1 170 18:22 17.12.2020
4737 Clouds 6 1015 45 10000 1.5 40 17:51 17.12.2020
4738 Clouds 6 1015 45 10000 1.5 40 17:32 17.12.2020
4739 Clouds 6 1015 45 10000 1.5 40 17:32 17.12.2020
4740 Clouds 6 1015 45 10000 1.5 40 17:32 17.12.2020
4741 Clouds 5 1015 44 10000 1.96 117 16:44 17.12.2020
4742 Clouds 5 1015 44 10000 0.73 135 16:24 17.12.2020
4743 Clouds 5 1015 41 10000 2.6 140 15:52 17.12.2020
4744 Clouds 5 1015 41 10000 2.6 140 15:30 17.12.2020
4745 Clouds 4 1016 44 10000 0.82 105 14:54 17.12.2020
4746 Clouds 5 1016 44 10000 0.82 105 14:30 17.12.2020
4747 Clouds 5 1016 41 10000 0.97 114 13:51 17.12.2020
4748 Clouds 5 1016 41 10000 0.81 109 13:28 17.12.2020
4749 Clouds 5 1017 41 10000 2.1 210 12:44 17.12.2020
4750 Clouds 5 1017 41 10000 2.1 210 12:25 17.12.2020
4751 Clouds 5 1018 41 10000 1.5 230 11:45 17.12.2020
4752 Clouds 5 1018 41 10000 1.5 230 11:24 17.12.2020
4753 Clouds 4 1018 44 10000 1.5 230 10:55 17.12.2020
4754 Clouds 4 1018 44 10000 1.5 230 10:18 17.12.2020
4755 Clouds 5 1019 41 10000 1.5 230 09:26 17.12.2020
4756 Clouds 5 1020 36 10000 1.5 240 07:54 17.12.2020
4757 Clouds 5 1020 36 10000 1.5 240 07:54 17.12.2020
4758 Clouds 6 1020 36 10000 1.5 240 07:34 17.12.2020
4759 Clouds 6 1021 36 10000 1.5 340 06:54 17.12.2020
4760 Clouds 6 1021 36 10000 1.5 340 06:32 17.12.2020
4761 Clear 6 1021 41 10000 3.1 200 05:33 17.12.2020
4762 Clouds 12 1021 22 10000 0.33 235 00:38 17.12.2020
4763 Clouds 13 1022 22 10000 0.68 120 23:52 16.12.2020
4764 Clouds 13 1022 22 10000 0.88 79 23:20 16.12.2020
4765 Clouds 13 1023 22 10000 0.88 79 22:54 16.12.2020
4766 Clouds 13 1023 22 10000 0.88 79 22:34 16.12.2020
4767 Clouds 12 1024 23 10000 2.1 70 21:50 16.12.2020
4768 Clouds 12 1024 23 10000 2.1 70 21:32 16.12.2020
4769 Clouds 11 1025 23 10000 2.1 10 20:55 16.12.2020
4770 Clouds 11 1025 23 10000 2.1 10 20:21 16.12.2020
4771 Clouds 10 1026 26 10000 2.6 70 19:52 16.12.2020
4772 Clouds 10 1026 26 10000 2.6 70 19:19 16.12.2020
4773 Clear 9 1026 30 10000 0.81 50 18:53 16.12.2020
4774 Clear 8 1026 30 10000 0.54 359 18:27 16.12.2020
4775 Clouds 6 1026 38 10000 0.54 359 17:44 16.12.2020
4776 Clouds 5 1025 37 10000 1.5 210 17:18 16.12.2020
4777 Clouds 2 1025 37 10000 1.5 210 16:39 16.12.2020
4778 Clear 2 1025 34 10000 0.55 13 16:20 16.12.2020
4779 Clear 2 1025 34 10000 0.55 13 15:49 16.12.2020
4780 Clear 2 1025 34 10000 0.57 34 15:26 16.12.2020
4781 Clear 2 1024 37 10000 1.5 230 14:47 16.12.2020
4782 Clear 2 1024 37 10000 1.5 230 14:28 16.12.2020
4783 Clear 3 1025 37 10000 0.7 4 13:46 16.12.2020
4784 Clear 2 1025 37 10000 0.78 356 13:27 16.12.2020
4785 Clear 3 1025 40 10000 0.78 356 12:55 16.12.2020
4786 Clear 3 1025 40 10000 1.05 351 12:34 16.12.2020
4787 Clear 3 1025 38 10000 2.1 200 11:39 16.12.2020
4788 Clear 3 1025 38 10000 2.1 200 11:20 16.12.2020
4789 Clouds 3 1025 35 10000 1.5 230 10:43 16.12.2020
4790 Clouds 3 1025 35 10000 1.5 230 10:19 16.12.2020
4791 Clouds 3 1025 32 10000 1 14 09:40 16.12.2020
4792 Clouds 4 1025 35 10000 2.1 200 08:27 16.12.2020
4793 Clouds 4 1026 33 10000 1.5 200 07:49 16.12.2020
4794 Clouds 4 1026 33 10000 1.5 200 07:30 16.12.2020
4795 Clouds 5 1025 30 10000 0.78 298 06:41 16.12.2020
4796 Clouds 9 1025 25 10000 2.1 20 02:24 16.12.2020
4797 Clouds 11 1024 22 10000 3.6 360 00:20 16.12.2020
4798 Clouds 12 1025 22 10000 3.6 20 23:42 15.12.2020
4799 Clouds 11 1026 23 10000 3.1 70 22:44 15.12.2020
4800 Clouds 11 1026 23 10000 3.1 70 22:24 15.12.2020
4801 Clouds 11 1026 25 10000 4.6 30 21:50 15.12.2020
4802 Clouds 11 1026 25 10000 4.6 30 21:24 15.12.2020
4803 Clouds 10 1027 29 10000 4.1 20 20:57 15.12.2020
4804 Clouds 10 1027 29 10000 4.1 20 20:37 15.12.2020
4805 Clouds 10 1027 29 10000 4.1 20 20:37 15.12.2020
4806 Clouds 9 1027 29 10000 6.2 10 20:18 15.12.2020
4807 Clouds 9 1027 29 10000 6.2 10 19:35 15.12.2020
4808 Clear 8 1027 31 10000 5.7 60 18:59 15.12.2020
4809 Clear 8 1027 31 10000 5.7 60 18:39 15.12.2020
4810 Clear 8 1027 31 10000 5.7 60 18:20 15.12.2020
4811 Clear 6 1027 35 10000 5.1 90 17:42 15.12.2020
4812 Clear 6 1027 35 10000 5.1 90 17:22 15.12.2020
4813 Clear 5 1026 38 10000 4.6 40 16:38 15.12.2020
4814 Clear 5 1026 38 10000 4.6 40 16:19 15.12.2020
4815 Clear 6 1025 33 10000 7.2 20 15:37 15.12.2020
4816 Clouds 6 1024 33 10000 9.3 350 14:59 15.12.2020
4817 Clouds 6 1024 33 10000 9.3 350 14:41 15.12.2020
4818 Clear 7 1024 33 10000 7.7 350 14:19 15.12.2020
4819 Clear 7 1024 33 10000 7.7 350 13:47 15.12.2020
4820 Clear 7 1024 33 10000 7.7 350 13:22 15.12.2020
4821 Clear 7 1023 33 10000 9.8 350 12:44 15.12.2020
4822 Clear 7 1023 33 10000 9.8 350 12:19 15.12.2020
4823 Clear 7 1022 33 10000 9.8 340 11:49 15.12.2020
4824 Clear 7 1022 33 10000 9.8 340 11:49 15.12.2020
4825 Clear 6 1022 33 10000 9.8 340 11:20 15.12.2020
4826 Clear 6 1022 33 10000 6.2 10 10:45 15.12.2020
4827 Clear 6 1022 33 10000 6.2 10 10:19 15.12.2020
4828 Clear 7 1021 36 10000 5.1 360 09:41 15.12.2020
4829 Clear 7 1021 36 10000 5.1 360 09:22 15.12.2020
4830 Clear 7 1021 42 10000 1.5 352 08:39 15.12.2020
4831 Clear 7 1021 42 10000 1.43 13 08:20 15.12.2020
4832 Clear 7 1020 42 10000 1.5 50 07:41 15.12.2020
4833 Clear 8 1019 39 10000 3.1 30 06:51 15.12.2020
4834 Clouds 9 1019 31 10000 7.2 10 05:27 15.12.2020
4835 Clouds 13 1016 22 10000 6.2 40 00:38 15.12.2020
4836 Clouds 13 1016 24 10000 7.2 350 23:48 14.12.2020
4837 Clouds 14 1016 24 10000 7.2 350 23:19 14.12.2020
4838 Clouds 14 1016 24 10000 9.8 320 22:39 14.12.2020
4839 Clouds 13 1016 24 10000 10.3 340 21:56 14.12.2020
4840 Clouds 13 1016 24 10000 10.3 340 21:36 14.12.2020
4841 Clouds 13 1016 22 10000 6.7 350 20:57 14.12.2020
4842 Clouds 12 1016 22 10000 6.7 350 20:39 14.12.2020
4843 Clouds 12 1016 22 10000 6.7 350 20:18 14.12.2020
4844 Clouds 11 1017 19 10000 5.1 300 19:34 14.12.2020
4845 Clouds 9 1017 22 10000 1.5 0 18:57 14.12.2020
4846 Clouds 9 1017 22 10000 1.5 0 18:38 14.12.2020
4847 Clouds 8 1017 22 10000 1.5 0 18:18 14.12.2020
4848 Clouds 6 1017 24 10000 1.55 305 17:33 14.12.2020
4849 Clouds 5 1017 27 10000 2.1 180 16:56 14.12.2020
4850 Clouds 5 1017 27 10000 2.1 180 16:36 14.12.2020
4851 Clouds 5 1018 32 10000 1.5 170 16:18 14.12.2020
4852 Clouds 4 1018 32 10000 1.5 170 15:32 14.12.2020
4853 Clouds 4 1015 25 10000 5.1 350 14:46 14.12.2020
4854 Clouds 4 1015 25 10000 5.1 350 14:27 14.12.2020
4855 Clouds 4 1016 27 10000 1.5 350 13:55 14.12.2020
4856 Clouds 3 1016 27 10000 1.5 350 13:33 14.12.2020
4857 Clouds 3 1015 34 10000 1.5 230 12:55 14.12.2020
4858 Clouds 3 1015 34 10000 1.5 230 12:31 14.12.2020
4859 Clouds 4 1016 29 10000 1.67 4 11:39 14.12.2020
4860 Clouds 4 1016 29 10000 0.96 53 11:20 14.12.2020
4861 Clouds 5 1017 26 10000 1.3 56 10:27 14.12.2020
4862 Clouds 5 1018 26 10000 2.6 10 09:51 14.12.2020
4863 Clouds 5 1019 26 10000 0.95 69 08:52 14.12.2020
4864 Clouds 5 1019 26 10000 0.95 69 08:33 14.12.2020
4865 Clouds 5 1020 26 10000 0.68 73 07:52 14.12.2020
4866 Clouds 5 1020 26 10000 0.75 77 06:59 14.12.2020
4867 Clouds 5 1021 22 10000 2.1 90 05:55 14.12.2020
4868 Clouds 6 1023 22 10000 2.1 90 03:49 14.12.2020
4869 Clouds 8 1025 18 10000 2.1 30 00:57 14.12.2020
4870 Clouds 9 1025 18 10000 2.1 30 00:35 14.12.2020
4871 Clouds 9 1025 19 10000 2.1 0 23:59 13.12.2020
4872 Clouds 9 1025 19 10000 2.1 0 23:41 13.12.2020
4873 Clouds 9 1026 19 10000 3.6 20 22:51 13.12.2020
4874 Clouds 9 1026 19 10000 3.6 20 22:21 13.12.2020
4875 Clouds 8 1027 20 10000 1.5 10 21:56 13.12.2020
4876 Clouds 8 1027 20 10000 1.5 10 21:35 13.12.2020
4877 Clouds 7 1028 24 10000 3.1 50 20:49 13.12.2020
4878 Clouds 7 1028 24 10000 3.1 50 20:25 13.12.2020
4879 Smoke 6 1030 26 10000 2.6 60 19:45 13.12.2020
4880 Smoke 6 1030 26 10000 2.6 60 19:23 13.12.2020
4881 Smoke 5 1030 30 10000 1.5 50 18:44 13.12.2020
4882 Smoke 5 1030 30 10000 1.5 50 18:21 13.12.2020
4883 Smoke 4 1030 34 10000 1.5 130 17:59 13.12.2020
4884 Smoke 4 1030 34 10000 1.5 130 17:41 13.12.2020
4885 Smoke 4 1030 34 10000 1.5 130 17:41 13.12.2020
4886 Smoke 3 1030 34 10000 1.5 130 17:18 13.12.2020
4887 Smoke 1 1030 40 10000 0.97 43 16:39 13.12.2020
4888 Smoke 0 1030 40 10000 0.58 8 16:19 13.12.2020
4889 Smoke 0 1029 40 10000 0.58 8 15:45 13.12.2020
4890 Smoke 0 1029 40 10000 0.44 18 15:24 13.12.2020
4891 Smoke 0 1029 40 10000 0.44 18 15:24 13.12.2020
4892 Smoke 0 1029 43 10000 1.5 230 14:45 13.12.2020
4893 Smoke 0 1029 43 10000 1.5 230 14:27 13.12.2020
4894 Clouds 1 1028 40 10000 0.77 47 13:44 13.12.2020
4895 Clouds 1 1028 40 10000 0.93 16 13:25 13.12.2020
4896 Clouds 2 1029 37 10000 0.9 11 12:52 13.12.2020
4897 Clouds 2 1029 37 10000 1.35 341 12:23 13.12.2020
4898 Clouds 2 1028 35 10000 3.6 30 11:47 13.12.2020
4899 Clouds 2 1028 35 10000 3.6 30 11:22 13.12.2020
4900 Clear 3 1027 38 10000 3.6 30 10:40 13.12.2020
4901 Clear 3 1027 35 10000 4.1 10 09:58 13.12.2020
4902 Clear 3 1027 35 10000 4.1 10 09:28 13.12.2020
4903 Clear 4 1026 33 10000 4.6 30 08:35 13.12.2020
4904 Clear 6 1025 30 10000 6.2 20 07:52 13.12.2020
4905 Clear 8 1022 23 10000 4.1 340 05:36 13.12.2020
4906 Clouds 11 1019 18 10000 8.2 340 02:42 13.12.2020
4907 Clouds 12 1017 24 10000 8.2 40 01:58 13.12.2020
4908 Clouds 14 1016 22 10000 8.7 320 00:51 13.12.2020
4909 Clouds 14 1016 22 10000 8.7 320 00:33 13.12.2020
4910 Clouds 14 1015 26 10000 10.3 350 23:33 12.12.2020
4911 Clouds 14 1015 30 10000 2.6 10 22:56 12.12.2020
4912 Clouds 13 1015 30 10000 2.6 10 22:25 12.12.2020
4913 Clouds 13 1014 37 10000 7.2 50 21:44 12.12.2020
4914 Clouds 12 1014 37 10000 7.2 50 21:18 12.12.2020
4915 Clouds 12 1015 29 10000 5.7 40 20:41 12.12.2020
4916 Clouds 11 1015 29 10000 5.7 40 20:19 12.12.2020
4917 Clouds 11 1014 43 10000 5.7 20 19:46 12.12.2020
4918 Clouds 10 1014 43 10000 5.7 20 19:28 12.12.2020
4919 Clouds 9 1012 49 10000 1.5 100 18:47 12.12.2020
4920 Clouds 8 1012 49 10000 1.5 100 18:29 12.12.2020
4921 Clouds 7 1012 60 10000 1.5 220 17:47 12.12.2020
4922 Clouds 5 1012 60 10000 1.5 220 17:28 12.12.2020
4923 Clouds 3 1012 64 10000 2.1 230 16:24 12.12.2020
4924 Clouds 3 1012 64 10000 2.1 230 15:52 12.12.2020
4925 Clouds 3 1012 64 10000 2.1 230 15:34 12.12.2020
4926 Clouds 4 1013 69 10000 2.1 210 14:50 12.12.2020
4927 Clouds 4 1013 69 10000 2.6 290 13:58 12.12.2020
4928 Clouds 4 1013 69 10000 2.6 290 13:38 12.12.2020
4929 Clouds 4 1013 69 10000 2.6 290 13:19 12.12.2020
4930 Clouds 4 1014 64 10000 2.1 270 12:29 12.12.2020
4931 Clouds 4 1014 48 10000 1.5 310 10:55 12.12.2020
4932 Clouds 4 1015 44 10000 0.37 196 09:50 12.12.2020
4933 Clear 4 1015 64 10000 2.6 330 08:57 12.12.2020
4934 Clouds 8 1016 65 10000 1.5 260 03:33 12.12.2020
4935 Clouds 12 1016 37 10000 1.5 40 00:28 12.12.2020
4936 Clouds 12 1016 27 10000 3.1 60 22:47 11.12.2020
4937 Clouds 11 1017 23 10000 0.95 72 20:50 11.12.2020
4938 Clouds 11 1018 24 10000 1.5 0 18:46 11.12.2020
4939 Clouds 4 1017 30 10000 2.6 210 16:34 11.12.2020
4940 Clouds 5 1015 38 10000 3.6 290 14:18 11.12.2020
4941 Clouds 4 1015 35 10000 1.5 220 13:25 11.12.2020
4942 Clear 5 1015 28 10000 0.93 190 12:20 11.12.2020
4943 Clear 6 1015 26 10000 3.1 280 11:52 11.12.2020
4944 Clear 7 1014 24 10000 2.1 250 10:55 11.12.2020
4945 Clouds 8 1014 23 10000 1.5 200 09:41 11.12.2020
4946 Clouds 9 1014 21 10000 2.6 290 06:25 11.12.2020
4947 Clouds 10 1014 23 10000 2.6 230 05:20 11.12.2020
4948 Clouds 14 1012 19 10000 2.1 180 02:38 11.12.2020
4949 Clouds 17 1012 14 10000 1.9 231 00:34 11.12.2020
4950 Clouds 17 1012 15 10000 2.1 50 22:56 10.12.2020
4951 Clouds 16 1013 17 10000 0.21 252 21:37 10.12.2020
4952 Clouds 15 1014 16 10000 1.5 10 20:47 10.12.2020
4953 Clouds 14 1015 17 10000 1.06 144 19:46 10.12.2020
4954 Clouds 14 1015 17 10000 0.89 149 19:20 10.12.2020
4955 Clouds 13 1014 23 10000 0.4 210 18:24 10.12.2020
4956 Clouds 7 1013 26 10000 2.1 210 16:49 10.12.2020
4957 Clouds 6 1013 30 10000 1.11 150 15:50 10.12.2020
4958 Clouds 7 1013 28 10000 1.5 220 14:58 10.12.2020
4959 Clouds 6 1013 28 10000 1.5 220 14:37 10.12.2020
4960 Clouds 8 1013 26 10000 0.31 205 13:23 10.12.2020
4961 Clouds 8 1014 23 10000 0.28 317 11:43 10.12.2020
4962 Clouds 10 1014 17 10000 2.6 240 09:21 10.12.2020
4963 Clouds 11 1016 18 10000 0.32 226 07:59 10.12.2020
4964 Clouds 11 1015 16 10000 1.5 240 06:46 10.12.2020
4965 Clouds 13 1016 13 10000 2.1 210 03:40 10.12.2020
4966 Clouds 15 1016 12 10000 0.68 313 02:24 10.12.2020
4967 Clouds 17 1016 10 10000 0.73 16 00:23 10.12.2020
4968 Clouds 18 1018 10 10000 1.5 70 22:48 09.12.2020
4969 Clouds 17 1021 12 10000 1.21 56 20:30 09.12.2020
4970 Clouds 16 1023 15 10000 1.19 48 19:34 09.12.2020
4971 Clouds 9 1023 18 10000 0.5 2 17:44 09.12.2020
4972 Clouds 7 1023 20 10000 2.1 210 16:52 09.12.2020
4973 Clouds 6 1023 20 10000 2.1 210 16:23 09.12.2020
4974 Clouds 6 1023 20 10000 2.1 220 15:31 09.12.2020
4975 Clouds 6 1022 20 10000 3.1 230 14:40 09.12.2020
4976 Clouds 6 1022 20 10000 3.1 230 14:18 09.12.2020
4977 Clouds 6 1022 22 10000 2.1 290 13:19 09.12.2020
4978 Clouds 7 1023 19 10000 1 16 12:45 09.12.2020
4979 Clouds 7 1023 20 10000 2.6 220 11:53 09.12.2020
4980 Clouds 8 1023 18 10000 2.6 210 10:59 09.12.2020
4981 Clouds 9 1023 19 10000 2.1 260 09:38 09.12.2020
4982 Clouds 10 1023 15 10000 2.1 230 07:43 09.12.2020
4983 Clouds 12 1023 13 10000 2.1 200 05:53 09.12.2020
4984 Clouds 14 1023 13 10000 0.5 318 03:54 09.12.2020
4985 Clouds 17 1023 9 10000 1.5 240 01:56 09.12.2020
4986 Clouds 19 1024 8 10000 1.5 290 23:44 08.12.2020
4987 Clouds 19 1024 9 10000 1.2 76 22:56 08.12.2020
4988 Clouds 18 1026 10 10000 2.09 37 21:28 08.12.2020
4989 Clouds 15 1028 12 10000 1.5 10 19:34 08.12.2020
4990 Clouds 13 1028 14 10000 1.21 28 18:59 08.12.2020
4991 Clouds 10 1028 19 10000 2.1 210 17:55 08.12.2020
4992 Clouds 6 1027 24 10000 2.1 250 15:51 08.12.2020
4993 Clouds 6 1026 24 10000 2.6 230 14:28 08.12.2020
4994 Clouds 6 1026 20 10000 2.1 240 13:29 08.12.2020
4995 Clear 7 1026 22 10000 2.1 210 12:27 08.12.2020
4996 Clear 7 1026 22 10000 2.6 210 11:50 08.12.2020
4997 Clear 8 1025 20 10000 3.1 210 10:45 08.12.2020
4998 Clear 8 1025 20 10000 3.1 210 10:19 08.12.2020
4999 Clear 9 1026 12 10000 3.6 30 08:39 08.12.2020
5000 Clouds 12 1026 15 10000 3.6 80 06:52 08.12.2020
5001 Clouds 12 1026 15 10000 3.6 80 06:52 08.12.2020
5002 Clouds 16 1024 10 10000 4.1 360 03:34 08.12.2020
5003 Clouds 21 1023 9 10000 5.7 40 00:47 08.12.2020
5004 Clouds 20 1023 9 10000 5.7 40 00:22 08.12.2020
5005 Clouds 20 1023 9 10000 5.7 40 22:40 07.12.2020
5006 Clouds 19 1024 10 10000 2.1 40 21:51 07.12.2020
5007 Clouds 16 1025 14 10000 1.5 190 19:55 07.12.2020
5008 Clouds 14 1026 15 10000 1.5 190 18:42 07.12.2020
5009 Clouds 10 1025 18 10000 1.5 210 17:26 07.12.2020
5010 Clouds 9 1024 22 10000 2.1 220 16:54 07.12.2020
5011 Clouds 9 1024 21 10000 2.6 210 15:30 07.12.2020
5012 Clouds 9 1023 23 10000 2.6 210 14:48 07.12.2020
5013 Clouds 8 1022 26 10000 1.5 190 13:54 07.12.2020
5014 Clouds 8 1022 26 10000 1.5 190 13:20 07.12.2020
5015 Clouds 9 1022 19 10000 2.69 329 11:43 07.12.2020
5016 Clouds 9 1022 18 10000 2.1 210 11:19 07.12.2020
5017 Clouds 9 1022 19 10000 2.1 190 09:42 07.12.2020
5018 Clouds 8 1023 19 10000 1.5 250 08:21 07.12.2020
5019 Clouds 9 1023 19 10000 1.5 260 06:29 07.12.2020
5020 Clouds 9 1022 17 10000 1.04 328 04:48 07.12.2020
5021 Clouds 14 1022 11 10000 0.69 18 01:55 07.12.2020
5022 Clouds 15 1023 10 10000 1.5 30 23:50 06.12.2020
5023 Clouds 15 1024 10 10000 2.1 350 22:25 06.12.2020
5024 Clouds 14 1026 12 10000 1.51 99 20:56 06.12.2020
5025 Clouds 14 1026 12 10000 1.51 99 20:34 06.12.2020
5026 Clouds 13 1027 15 10000 0.94 31 19:54 06.12.2020
5027 Clouds 10 1027 15 10000 1.25 313 18:21 06.12.2020
5028 Clouds 4 1026 27 10000 0.21 258 16:52 06.12.2020
5029 Clouds 4 1026 21 10000 2.1 210 14:58 06.12.2020
5030 Clouds 5 1026 23 10000 2.1 200 13:45 06.12.2020
5031 Clouds 5 1026 23 10000 2.6 240 12:51 06.12.2020
5032 Clouds 5 1026 25 10000 1.5 220 11:58 06.12.2020
5033 Clouds 5 1026 25 10000 1.5 220 11:34 06.12.2020
5034 Clouds 5 1026 20 10000 1.5 270 10:47 06.12.2020
5035 Clouds 5 1026 17 10000 0.49 312 09:57 06.12.2020
5036 Clouds 6 1026 19 10000 2.1 230 08:29 06.12.2020
5037 Clear 7 1026 15 10000 2.6 210 06:37 06.12.2020
5038 Clear 16 1026 8 10000 0.27 304 00:58 06.12.2020
5039 Clear 16 1026 8 10000 0.27 304 00:39 06.12.2020
5040 Clear 16 1026 8 10000 0.33 17 00:21 06.12.2020
5041 Clear 16 1026 8 10000 0.66 44 22:43 05.12.2020
5042 Clear 16 1026 8 10000 0.99 52 22:20 05.12.2020
5043 Clear 15 1027 8 10000 1.5 0 21:47 05.12.2020
5044 Clear 15 1027 8 10000 1.5 0 21:23 05.12.2020
5045 Clear 13 1029 11 10000 0.83 60 19:21 05.12.2020
5046 Clear 13 1029 11 10000 0.83 60 19:21 05.12.2020
5047 Clouds 11 1029 17 10000 0.83 60 18:39 05.12.2020
5048 Clear 7 1028 17 10000 1.5 350 17:20 05.12.2020
5049 Clear 3 1027 19 10000 2.1 220 16:29 05.12.2020
5050 Clear 2 1027 19 10000 0.69 14 15:47 05.12.2020
5051 Clear 2 1026 21 10000 2.1 220 14:24 05.12.2020
5052 Clear 3 1026 21 10000 2.1 240 12:20 05.12.2020
5053 Clear 4 1026 16 10000 0.79 15 11:40 05.12.2020
5054 Clear 4 1026 18 10000 1.5 220 10:31 05.12.2020
5055 Clear 5 1025 15 10000 1.5 230 07:48 05.12.2020
5056 Clear 6 1025 14 10000 2.1 240 06:28 05.12.2020
5057 Clear 8 1024 12 10000 2.1 220 03:44 05.12.2020
5058 Clear 14 1024 9 10000 1.18 113 23:50 04.12.2020
5059 Clear 14 1024 9 10000 1.5 40 22:24 04.12.2020
5060 Clear 12 1026 10 10000 1.5 30 20:24 04.12.2020
5061 Clear 9 1028 17 10000 0.61 37 18:53 04.12.2020
5062 Clear 9 1028 17 10000 0.87 5 18:18 04.12.2020
5063 Clear 6 1027 23 10000 1.03 345 17:29 04.12.2020
5064 Clear 1 1027 24 10000 1.5 250 15:39 04.12.2020
5065 Clear 2 1027 22 10000 1.5 240 13:40 04.12.2020
5066 Clear 2 1027 22 10000 1.5 240 13:21 04.12.2020
5067 Clear 2 1027 22 10000 1.5 200 12:49 04.12.2020
5068 Clear 3 1028 27 10000 0.86 344 10:40 04.12.2020
5069 Clear 3 1028 25 10000 2.1 210 09:46 04.12.2020
5070 Clear 5 1027 22 10000 2.6 200 06:42 04.12.2020
5071 Clear 6 1027 20 10000 2.1 210 05:59 04.12.2020
5072 Smoke 13 1026 14 10000 0.25 229 01:56 04.12.2020
5073 Clear 12 1028 13 10000 1.21 57 22:52 03.12.2020
5074 Clear 13 1028 13 10000 1.63 48 22:27 03.12.2020
5075 Clear 11 1030 19 10000 1.5 0 20:49 03.12.2020
5076 Clear 9 1031 22 10000 1.95 30 19:29 03.12.2020
5077 Clear 8 1032 24 10000 1.76 33 18:51 03.12.2020
5078 Clear 6 1031 29 10000 1.5 210 17:41 03.12.2020
5079 Clear 5 1031 29 10000 1.5 210 17:18 03.12.2020
5080 Clear 1 1031 34 10000 2.6 210 15:52 03.12.2020
5081 Clear 1 1031 34 10000 2.6 210 15:30 03.12.2020
5082 Clear 2 1030 32 10000 2.1 210 14:35 03.12.2020
5083 Clear 2 1030 34 10000 1.5 140 13:36 03.12.2020
5084 Clear 3 1030 29 10000 1.5 90 12:26 03.12.2020
5085 Clear 4 1030 26 10000 1.5 60 11:24 03.12.2020
5086 Clear 5 1030 24 10000 3.6 40 09:33 03.12.2020
5087 Clear 9 1029 21 10000 7.7 20 05:23 03.12.2020
5088 Clear 11 1026 17 10000 6.7 60 02:27 03.12.2020
5089 Clear 13 1025 15 10000 8.7 50 00:48 03.12.2020
5090 Clear 13 1026 16 10000 8.7 50 22:47 02.12.2020
5091 Clear 13 1026 16 10000 8.7 50 22:26 02.12.2020
5092 Clear 13 1027 17 10000 10.3 60 21:18 02.12.2020
5093 Clear 13 1027 17 10000 10.3 60 20:44 02.12.2020
5094 Clear 13 1027 17 10000 10.3 60 20:26 02.12.2020
5095 Clear 10 1027 21 10000 5.1 50 18:37 02.12.2020
5096 Clear 9 1027 26 10000 2.6 50 17:45 02.12.2020
5097 Clear 8 1027 26 10000 2.6 50 17:27 02.12.2020
5098 Clear 3 1025 35 10000 2.04 26 15:21 02.12.2020
5099 Clear 5 1024 33 10000 1.98 8 12:45 02.12.2020
5100 Clear 6 1024 33 10000 2.1 200 10:29 02.12.2020
5101 Clear 7 1024 28 10000 1.5 210 09:22 02.12.2020
5102 Clouds 11 1023 23 10000 2.1 70 04:25 02.12.2020
5103 Clear 17 1022 13 10000 2.6 40 22:21 01.12.2020
5104 Clear 16 1022 14 10000 2.1 80 21:41 01.12.2020
5105 Clear 12 1024 21 10000 3.03 55 19:35 01.12.2020
5106 Clear 9 1023 26 10000 1.5 240 17:58 01.12.2020
5107 Clouds 6 1023 28 10000 1.54 22 16:36 01.12.2020
5108 Clouds 6 1022 28 10000 1.5 250 13:39 01.12.2020
5109 Clear 6 1021 28 10000 1.5 230 12:25 01.12.2020
5110 Clear 7 1021 28 10000 1.5 360 11:27 01.12.2020
5111 Clear 7 1021 26 10000 0.26 303 10:39 01.12.2020
5112 Clear 8 1021 24 10000 2.1 230 08:21 01.12.2020
5113 Clear 8 1021 23 10000 2.6 230 06:50 01.12.2020
5114 Clouds 17 1022 13 10000 0.66 352 01:53 01.12.2020
5115 Clouds 17 1022 13 10000 1.5 110 00:56 01.12.2020
5116 Clouds 17 1023 12 10000 1.09 66 23:21 30.11.2020
5117 Clouds 17 1023 14 10000 1.5 0 22:45 30.11.2020
5118 Clouds 16 1023 14 10000 1.5 0 22:25 30.11.2020
5119 Clouds 15 1025 19 10000 1.5 0 20:57 30.11.2020
5120 Clouds 14 1026 22 10000 1.5 60 19:42 30.11.2020
5121 Clouds 13 1027 22 10000 2.1 180 18:24 30.11.2020
5122 Clouds 11 1026 29 10000 0.74 36 17:48 30.11.2020
5123 Clouds 6 1026 33 10000 2.1 240 16:55 30.11.2020
5124 Clouds 5 1025 33 10000 1.5 270 15:59 30.11.2020
5125 Clouds 5 1025 33 10000 1.5 230 14:47 30.11.2020
5126 Clouds 6 1025 33 10000 2.1 230 13:53 30.11.2020
5127 Clouds 6 1025 30 10000 2.1 220 12:26 30.11.2020
5128 Clouds 7 1025 33 10000 3.1 280 11:58 30.11.2020
5129 Clouds 7 1025 28 10000 2.6 220 10:26 30.11.2020
5130 Clouds 7 1025 28 10000 0.98 20 09:50 30.11.2020
5131 Clouds 8 1024 26 10000 3.1 230 07:18 30.11.2020
5132 Clouds 18 1023 16 10000 1.25 54 00:41 30.11.2020
5133 Clear 16 1024 18 10000 2.91 53 21:52 29.11.2020
5134 Clear 16 1024 18 10000 2.91 53 21:31 29.11.2020
5135 Clear 14 1026 20 10000 2.41 49 19:58 29.11.2020
5136 Clear 8 1026 30 10000 0.96 30 17:47 29.11.2020
5137 Clear 4 1025 35 10000 2.6 220 16:24 29.11.2020
5138 Clear 4 1024 35 10000 3.1 210 13:23 29.11.2020
5139 Clear 4 1024 33 10000 2.6 250 11:41 29.11.2020
5140 Clear 5 1023 38 10000 1.5 250 10:34 29.11.2020
5141 Clear 5 1022 33 10000 0.68 343 08:38 29.11.2020
5142 Clear 7 1023 26 10000 2.1 210 06:32 29.11.2020
5143 Clear 14 1024 20 10000 1.5 0 23:52 28.11.2020
5144 Clear 13 1024 20 10000 1.5 0 22:56 28.11.2020
5145 Clear 12 1026 23 10000 1.5 60 20:47 28.11.2020
5146 Clear 11 1028 25 10000 1.5 40 19:48 28.11.2020
5147 Clear 11 1028 25 10000 1.5 40 19:22 28.11.2020
5148 Clear 9 1028 28 10000 0.68 15 18:27 28.11.2020
5149 Clear 7 1027 33 10000 0.68 15 17:47 28.11.2020
5150 Clear 3 1027 40 10000 2.1 220 16:40 28.11.2020
5151 Clear 2 1026 40 10000 2.1 210 14:52 28.11.2020
5152 Clear 3 1027 35 10000 0.58 18 11:31 28.11.2020
5153 Clear 4 1027 30 10000 2.1 240 10:28 28.11.2020
5154 Clear 7 1026 24 10000 2.6 280 06:36 28.11.2020
5155 Clear 9 1025 20 10000 2.06 353 03:26 28.11.2020
5156 Clear 13 1024 15 10000 6.7 70 01:34 28.11.2020
5157 Clear 14 1025 15 10000 3.6 80 22:55 27.11.2020
5158 Clear 13 1026 15 10000 3.6 340 21:33 27.11.2020
5159 Clear 12 1027 16 10000 5.1 360 20:30 27.11.2020
5160 Clear 11 1028 17 10000 3.1 60 19:25 27.11.2020
5161 Clear 10 1027 19 10000 5.7 360 18:28 27.11.2020
5162 Clear 6 1025 24 10000 9.3 340 14:47 27.11.2020
5163 Clear 6 1025 24 10000 7.2 350 13:26 27.11.2020
5164 Clear 7 1024 22 10000 7.7 360 12:47 27.11.2020
5165 Clear 7 1024 22 10000 9.8 350 11:47 27.11.2020
5166 Clear 7 1024 22 10000 9.3 350 10:50 27.11.2020
5167 Clear 7 1023 22 10000 9.3 360 09:57 27.11.2020
5168 Clear 7 1022 23 10000 9.05 350 07:26 27.11.2020
5169 Clear 13 1020 21 10000 5.36 355 22:28 26.11.2020
5170 Clear 13 1021 23 10000 5.36 0 21:56 26.11.2020
5171 Clouds 13 1022 20 10000 7.7 350 20:52 26.11.2020
5172 Clouds 11 1021 23 10000 8.7 10 18:59 26.11.2020
5173 Clouds 10 1021 23 10000 11.3 350 17:52 26.11.2020
5174 Clouds 7 1018 39 10000 3.1 0 14:57 26.11.2020
5175 Clouds 5 1017 41 10000 1.5 0 13:42 26.11.2020
5176 Clouds 6 1017 36 10000 2.6 130 12:42 26.11.2020
5177 Clouds 6 1017 39 10000 4.1 300 11:44 26.11.2020
5178 Clouds 6 1016 36 10000 2.1 210 10:35 26.11.2020
5179 Clouds 6 1017 36 10000 2.6 190 09:48 26.11.2020
5180 Clouds 6 1017 36 10000 2.6 190 09:29 26.11.2020
5181 Clouds 8 1016 36 10000 2.1 260 08:39 26.11.2020
5182 Clouds 8 1015 34 10000 2.6 290 06:49 26.11.2020
5183 Clouds 15 1017 24 10000 3.1 20 22:59 25.11.2020
5184 Clouds 14 1019 25 10000 2.17 143 20:43 25.11.2020
5185 Clouds 12 1020 27 10000 1.99 135 19:46 25.11.2020
5186 Clouds 10 1021 31 10000 1.5 100 18:27 25.11.2020
5187 Clear 5 1020 38 10000 2.1 360 16:34 25.11.2020
5188 Clear 4 1020 38 10000 2.1 220 15:36 25.11.2020
5189 Clear 4 1019 38 10000 1.5 220 13:56 25.11.2020
5190 Clear 4 1019 38 10000 1.5 220 13:37 25.11.2020
5191 Clear 5 1020 35 10000 0.8 9 11:44 25.11.2020
5192 Clear 6 1020 35 10000 0.7 359 11:18 25.11.2020
5193 Clear 6 1020 30 10000 2.6 210 09:18 25.11.2020
5194 Clear 7 1020 31 10000 2.6 240 08:41 25.11.2020
5195 Clear 10 1020 24 10000 1.5 180 03:59 25.11.2020
5196 Clear 16 1019 18 10000 2.1 100 01:52 25.11.2020
5197 Clear 16 1019 18 10000 4.2 12 00:22 25.11.2020
5198 Clear 16 1019 18 10000 2.6 360 23:36 24.11.2020
5199 Clear 16 1020 19 10000 3.1 350 22:57 24.11.2020
5200 Clear 16 1020 19 10000 2.6 0 21:51 24.11.2020
5201 Clear 16 1020 19 10000 2.6 0 21:29 24.11.2020
5202 Clear 15 1021 22 10000 6.2 350 20:19 24.11.2020
5203 Clear 13 1020 24 10000 7.2 360 18:39 24.11.2020
5204 Clear 11 1020 25 10000 7.2 340 17:30 24.11.2020
5205 Clear 10 1019 27 10000 6.7 350 16:39 24.11.2020
5206 Clear 9 1018 27 10000 6.7 350 15:58 24.11.2020
5207 Clear 9 1018 27 10000 6.7 350 15:40 24.11.2020
5208 Clear 9 1018 27 10000 6.7 350 15:18 24.11.2020
5209 Clear 10 1017 25 10000 8.7 340 14:33 24.11.2020
5210 Clear 11 1016 25 10000 8.7 350 12:44 24.11.2020
5211 Clear 10 1016 25 10000 8.7 350 12:21 24.11.2020
5212 Clear 11 1015 27 10000 3.6 80 11:38 24.11.2020
5213 Clear 12 1014 26 10000 8.2 340 10:39 24.11.2020
5214 Clear 12 1014 26 10000 8.2 340 10:19 24.11.2020
5215 Clouds 13 1014 26 10000 7.2 340 09:35 24.11.2020
5216 Clouds 14 1012 21 10000 1.5 350 07:37 24.11.2020
5217 Clouds 13 1010 26 10000 2.1 0 04:19 24.11.2020
5218 Clouds 18 1009 18 10000 2.6 50 22:29 23.11.2020
5219 Clouds 17 1009 19 10000 1.5 0 21:36 23.11.2020
5220 Clouds 15 1011 24 10000 0.26 215 20:50 23.11.2020
5221 Clouds 14 1011 24 10000 0.22 81 20:21 23.11.2020
5222 Clouds 13 1011 30 10000 1.5 170 19:20 23.11.2020
5223 Clouds 10 1011 34 10000 0.54 260 17:25 23.11.2020
5224 Clouds 8 1010 36 10000 2.1 200 16:28 23.11.2020
5225 Clouds 7 1009 39 10000 1.5 220 14:48 23.11.2020
5226 Clouds 8 1009 39 10000 1.5 210 13:20 23.11.2020
5227 Clouds 8 1009 36 10000 2.1 290 12:37 23.11.2020
5228 Clouds 8 1010 34 10000 1.5 220 11:48 23.11.2020
5229 Clouds 8 1010 34 10000 1.5 220 11:19 23.11.2020
5230 Smoke 9 1011 31 10000 1.5 210 09:31 23.11.2020
5231 Smoke 10 1011 27 10000 2.1 200 08:47 23.11.2020
5232 Smoke 10 1012 29 10000 1.5 210 07:28 23.11.2020
5233 Clouds 19 1013 16 10000 0.12 179 00:38 23.11.2020
5234 Clouds 19 1014 16 10000 0.88 118 23:36 22.11.2020
5235 Clouds 19 1015 17 10000 1.43 90 22:18 22.11.2020
5236 Clouds 18 1018 18 10000 1.46 67 20:54 22.11.2020
5237 Clouds 16 1019 21 10000 1.5 40 19:55 22.11.2020
5238 Clouds 14 1019 27 10000 1.69 15 18:54 22.11.2020
5239 Clouds 12 1020 29 10000 2.1 210 17:26 22.11.2020
5240 Clouds 9 1019 34 10000 1.51 350 15:53 22.11.2020
5241 Clouds 9 1019 31 10000 2.1 240 14:39 22.11.2020
5242 Clouds 11 1019 30 10000 2.1 210 12:50 22.11.2020
5243 Clouds 12 1020 28 10000 0.66 354 11:57 22.11.2020
5244 Clouds 12 1020 28 10000 0.87 357 11:21 22.11.2020
5245 Clouds 12 1020 30 10000 2.1 110 10:45 22.11.2020
5246 Clouds 11 1021 32 10000 1.23 22 09:32 22.11.2020
5247 Clouds 19 1020 19 10000 0.26 291 01:49 22.11.2020
5248 Clouds 20 1021 16 10000 1.67 44 23:40 21.11.2020
5249 Clouds 20 1022 18 10000 3.6 80 22:25 21.11.2020
5250 Clouds 19 1023 19 10000 3.1 90 21:30 21.11.2020
5251 Clouds 18 1024 22 10000 4.1 70 20:35 21.11.2020
5252 Clouds 17 1024 25 10000 1.87 26 19:57 21.11.2020
5253 Clouds 17 1024 25 10000 1.87 26 19:36 21.11.2020
5254 Clouds 15 1024 28 10000 1.5 20 18:28 21.11.2020
5255 Clouds 13 1024 32 10000 1.73 349 17:26 21.11.2020
5256 Clouds 10 1024 42 10000 1.5 220 16:39 21.11.2020
5257 Clouds 9 1023 37 10000 3.1 260 15:22 21.11.2020
5258 Clouds 9 1023 39 10000 2.6 210 14:43 21.11.2020
5259 Clouds 10 1023 39 10000 2.6 210 14:21 21.11.2020
5260 Clouds 10 1023 37 10000 1.7 341 12:29 21.11.2020
5261 Clouds 11 1022 34 10000 1.7 341 11:58 21.11.2020
5262 Clouds 12 1022 32 10000 2.1 220 10:41 21.11.2020
5263 Clouds 12 1022 33 10000 1.5 210 09:59 21.11.2020
5264 Clouds 14 1022 30 10000 2.1 210 08:51 21.11.2020
5265 Clouds 15 1022 29 10000 1.15 310 06:34 21.11.2020
5266 Clouds 16 1022 23 10000 0.88 280 04:33 21.11.2020
5267 Clouds 19 1022 19 10000 3.1 40 00:45 21.11.2020
5268 Clouds 20 1022 19 10000 2.6 40 23:44 20.11.2020
5269 Clouds 20 1022 19 10000 2.1 10 22:25 20.11.2020
5270 Clouds 19 1023 20 10000 3.1 50 21:41 20.11.2020
5271 Clouds 19 1023 20 10000 3.1 50 21:41 20.11.2020
5272 Clouds 19 1023 20 10000 3.1 50 21:20 20.11.2020
5273 Clouds 17 1024 27 10000 1.5 100 19:44 20.11.2020
5274 Clouds 17 1025 26 10000 1.36 32 18:37 20.11.2020
5275 Clouds 14 1024 37 10000 1.56 13 17:51 20.11.2020
5276 Clouds 13 1024 37 10000 1.59 343 17:24 20.11.2020
5277 Clouds 11 1023 40 10000 1.59 343 16:38 20.11.2020
5278 Clouds 10 1023 40 10000 2.1 200 15:56 20.11.2020
5279 Clouds 10 1022 40 10000 1.15 341 14:58 20.11.2020
5280 Clouds 10 1021 40 10000 1.5 230 13:44 20.11.2020
5281 Clouds 10 1021 40 10000 1.5 230 13:18 20.11.2020
5282 Clouds 11 1021 37 10000 2.6 210 12:34 20.11.2020
5283 Clouds 12 1021 37 10000 1.5 210 11:45 20.11.2020
5284 Clouds 12 1021 37 10000 2.1 210 10:53 20.11.2020
5285 Clouds 12 1020 35 10000 0.33 335 08:53 20.11.2020
5286 Clouds 12 1020 35 10000 0.13 305 08:24 20.11.2020
5287 Clear 15 1020 31 10000 2.1 230 05:43 20.11.2020
5288 Clear 16 1018 27 10000 0.94 303 03:43 20.11.2020
5289 Clear 21 1020 26 10000 1.05 105 22:35 19.11.2020
5290 Clear 21 1020 28 10000 1.11 85 21:55 19.11.2020
5291 Clear 21 1020 28 10000 1.11 85 21:34 19.11.2020
5292 Clouds 19 1021 29 10000 1.5 340 20:31 19.11.2020
5293 Clear 19 1022 34 10000 1.02 29 19:45 19.11.2020
5294 Clear 18 1022 34 10000 0.95 349 19:22 19.11.2020
5295 Clear 15 1021 47 10000 1.5 210 17:39 19.11.2020
5296 Clouds 13 1020 50 10000 2.1 160 16:48 19.11.2020
5297 Clear 11 1019 50 10000 1.1 268 15:32 19.11.2020
5298 Clear 12 1018 47 10000 1.5 230 14:39 19.11.2020
5299 Clear 13 1017 47 10000 2.1 260 13:45 19.11.2020
5300 Clear 14 1017 41 10000 3.6 240 12:58 19.11.2020
5301 Clear 14 1017 41 10000 3.6 240 12:34 19.11.2020
5302 Clear 15 1017 41 10000 4.6 200 11:44 19.11.2020
5303 Clear 15 1017 41 10000 4.6 200 11:23 19.11.2020
5304 Clear 16 1016 42 10000 6.7 200 10:52 19.11.2020
5305 Clear 17 1015 42 10000 6.2 180 09:55 19.11.2020
5306 Clear 17 1015 42 10000 6.2 180 09:36 19.11.2020
5307 Clear 17 1015 42 10000 6.2 180 09:18 19.11.2020
5308 Clear 18 1015 36 10000 6.2 200 07:59 19.11.2020
5309 Clouds 23 1013 11 10000 5.1 190 01:53 19.11.2020
5310 Clouds 24 1013 11 10000 7.2 200 00:56 19.11.2020
5311 Clouds 25 1013 10 10000 5.1 200 23:47 18.11.2020
5312 Clouds 25 1013 10 10000 5.1 200 23:24 18.11.2020
5313 Clouds 25 1014 13 10000 5.1 200 22:30 18.11.2020
5314 Clouds 25 1014 16 10000 8.2 200 21:45 18.11.2020
5315 Clouds 25 1014 16 10000 8.2 200 21:26 18.11.2020
5316 Clouds 24 1015 19 10000 6.7 220 20:40 18.11.2020
5317 Clouds 24 1015 19 10000 4.1 190 19:44 18.11.2020
5318 Clouds 24 1015 19 10000 4.1 190 19:24 18.11.2020
5319 Clouds 22 1015 21 10000 3.6 150 18:48 18.11.2020
5320 Clouds 21 1015 22 10000 4.1 160 17:52 18.11.2020
5321 Clouds 18 1015 25 10000 3.1 170 16:58 18.11.2020
5322 Clouds 17 1015 25 10000 3.1 170 16:21 18.11.2020
5323 Clouds 17 1014 23 10000 3.6 200 14:43 18.11.2020
5324 Clouds 17 1014 23 10000 3.6 200 14:25 18.11.2020
5325 Clouds 17 1014 22 10000 5.1 190 13:26 18.11.2020
5326 Clouds 17 1014 24 10000 5.1 190 12:44 18.11.2020
5327 Clouds 18 1015 22 10000 5.7 210 11:57 18.11.2020
5328 Clouds 17 1015 20 10000 4.1 200 10:58 18.11.2020
5329 Clear 16 1014 24 10000 2.1 40 10:30 18.11.2020
5330 Clouds 15 1015 23 10000 1.26 205 08:43 18.11.2020
5331 Clouds 18 1015 18 10000 2.1 210 07:29 18.11.2020
5332 Clouds 18 1016 22 10000 1.92 199 04:47 18.11.2020
5333 Clouds 24 1016 13 10000 2.1 60 00:21 18.11.2020
5334 Clouds 24 1016 13 10000 1.25 138 23:25 17.11.2020
5335 Clouds 23 1017 14 10000 2.6 60 22:44 17.11.2020
5336 Clouds 23 1017 14 10000 2.6 60 22:26 17.11.2020
5337 Clouds 22 1018 15 10000 2.1 130 21:47 17.11.2020
5338 Clouds 22 1018 15 10000 2.1 130 21:23 17.11.2020
5339 Clouds 22 1018 15 10000 2.1 130 21:23 17.11.2020
5340 Clouds 21 1020 18 10000 2.1 80 20:43 17.11.2020
5341 Clouds 21 1020 18 10000 2.1 80 20:23 17.11.2020
5342 Clouds 20 1020 20 10000 1.5 20 19:44 17.11.2020
5343 Clouds 18 1020 23 10000 0.81 84 18:23 17.11.2020
5344 Clouds 16 1020 28 10000 0.63 47 17:28 17.11.2020
5345 Clouds 11 1019 29 10000 2.6 210 16:35 17.11.2020
5346 Clouds 10 1019 27 10000 2.6 220 15:57 17.11.2020
5347 Clouds 11 1019 27 10000 2.6 220 15:35 17.11.2020
5348 Clouds 10 1019 27 10000 2.6 210 14:58 17.11.2020
5349 Clouds 10 1019 27 10000 2.6 210 14:29 17.11.2020
5350 Clear 10 1019 27 10000 3.1 210 13:45 17.11.2020
5351 Clear 11 1019 27 10000 3.1 210 13:20 17.11.2020
5352 Clear 11 1019 29 10000 1.5 230 12:41 17.11.2020
5353 Clear 11 1019 27 10000 2.6 220 11:44 17.11.2020
5354 Clear 12 1020 25 10000 2.6 200 10:56 17.11.2020
5355 Clear 12 1020 25 10000 2.6 200 10:36 17.11.2020
5356 Clear 12 1020 24 10000 0.47 3 09:51 17.11.2020
5357 Clear 12 1020 24 10000 0.17 43 09:29 17.11.2020
5358 Clear 13 1020 22 10000 2.6 220 08:25 17.11.2020
5359 Clear 13 1020 22 10000 0.37 270 07:49 17.11.2020
5360 Clear 14 1020 20 10000 2.6 220 06:54 17.11.2020
5361 Clear 16 1020 18 10000 1.5 240 04:20 17.11.2020
5362 Clear 19 1020 13 10000 1.14 301 02:53 17.11.2020
5363 Clear 21 1020 11 10000 1.5 330 01:25 17.11.2020
5364 Clear 23 1020 11 10000 1.5 20 00:55 17.11.2020
5365 Clear 23 1021 11 10000 2.6 10 23:49 16.11.2020
5366 Clear 23 1021 11 10000 2.6 10 23:29 16.11.2020
5367 Clear 22 1022 13 10000 1.32 37 22:47 16.11.2020
5368 Clear 22 1022 13 10000 1.02 36 22:20 16.11.2020
5369 Clear 21 1023 13 10000 2.6 60 21:46 16.11.2020
5370 Clear 21 1023 13 10000 2.6 60 21:24 16.11.2020
5371 Clear 20 1025 15 10000 2.6 50 20:38 16.11.2020
5372 Clear 20 1025 15 10000 2.6 50 20:20 16.11.2020
5373 Clear 19 1026 16 10000 1.5 140 19:38 16.11.2020
5374 Clear 19 1026 16 10000 1.5 140 19:19 16.11.2020
5375 Clear 17 1026 19 10000 0.69 18 18:31 16.11.2020
5376 Clear 13 1026 27 10000 0.45 327 17:47 16.11.2020
5377 Clear 14 1026 27 10000 0.89 310 17:21 16.11.2020
5378 Clear 8 1026 31 10000 1.5 210 16:53 16.11.2020
5379 Clear 8 1026 31 10000 1.5 210 16:28 16.11.2020
5380 Clear 8 1025 33 10000 1.5 230 15:51 16.11.2020
5381 Clear 7 1025 33 10000 1.5 230 15:29 16.11.2020
5382 Clear 8 1025 33 10000 1.15 327 14:55 16.11.2020
5383 Clear 8 1025 33 10000 1.16 344 14:28 16.11.2020
5384 Clear 9 1024 31 10000 1.5 230 13:30 16.11.2020
5385 Clear 9 1024 31 10000 2.1 210 12:33 16.11.2020
5386 Clear 9 1024 34 10000 2.6 210 11:43 16.11.2020
5387 Clear 9 1024 34 10000 2.6 210 11:24 16.11.2020
5388 Clear 10 1024 29 10000 2.1 220 10:46 16.11.2020
5389 Clear 10 1024 29 10000 2.1 220 10:26 16.11.2020
5390 Clear 10 1024 29 10000 1.5 230 09:53 16.11.2020
5391 Clear 10 1024 29 10000 1.5 230 09:34 16.11.2020
5392 Clear 10 1024 27 10000 2.6 220 08:48 16.11.2020
5393 Clear 10 1024 27 10000 2.6 220 08:22 16.11.2020
5394 Clear 11 1024 25 10000 0.92 311 07:34 16.11.2020
5395 Clear 11 1024 25 10000 1.5 210 06:46 16.11.2020
5396 Clear 12 1024 24 10000 2.1 210 05:49 16.11.2020
5397 Clear 14 1023 17 10000 1.5 250 03:54 16.11.2020
5398 Clouds 20 1022 14 10000 1.5 360 01:45 16.11.2020
5399 Clouds 18 1023 14 10000 0.84 38 00:42 16.11.2020
5400 Clouds 20 1023 15 10000 1.5 0 23:32 15.11.2020
5401 Clouds 19 1024 15 10000 1.45 39 22:58 15.11.2020
5402 Clouds 19 1024 15 10000 1.22 61 22:26 15.11.2020
5403 Clouds 19 1025 15 10000 1.5 0 21:56 15.11.2020
5404 Clouds 19 1025 15 10000 1.5 0 21:36 15.11.2020
5405 Clouds 17 1026 17 10000 2.1 30 20:58 15.11.2020
5406 Clouds 17 1026 17 10000 2.1 30 20:39 15.11.2020
5407 Clouds 16 1027 19 10000 2.1 60 19:57 15.11.2020
5408 Clouds 16 1027 19 10000 2.1 60 19:38 15.11.2020
5409 Clouds 16 1027 19 10000 2.1 60 19:20 15.11.2020
5410 Clouds 15 1026 22 10000 1.41 43 18:45 15.11.2020
5411 Clouds 14 1026 22 10000 0.95 39 18:25 15.11.2020
5412 Clouds 13 1026 29 10000 0.95 39 17:57 15.11.2020
5413 Clouds 13 1026 29 10000 0.95 39 17:39 15.11.2020
5414 Clouds 12 1026 29 10000 0.73 8 17:19 15.11.2020
5415 Clouds 8 1025 36 10000 2.1 200 16:39 15.11.2020
5416 Clouds 8 1025 36 10000 2.1 200 16:18 15.11.2020
5417 Clear 7 1025 36 10000 2.1 210 15:43 15.11.2020
5418 Clear 7 1025 36 10000 2.1 210 15:23 15.11.2020
5419 Clear 7 1025 39 10000 1.5 230 14:51 15.11.2020
5420 Clear 7 1025 39 10000 1.5 230 14:26 15.11.2020
5421 Clear 7 1024 36 10000 0.9 26 13:42 15.11.2020
5422 Clear 7 1024 36 10000 0.69 41 13:18 15.11.2020
5423 Clear 8 1024 34 10000 2.6 210 12:46 15.11.2020
5424 Clear 8 1024 34 10000 2.6 210 12:19 15.11.2020
5425 Clear 9 1024 34 10000 2.1 220 11:44 15.11.2020
5426 Clear 9 1024 34 10000 2.1 220 11:18 15.11.2020
5427 Clear 9 1024 34 10000 2.1 220 11:18 15.11.2020
5428 Clear 9 1024 31 10000 2.1 210 10:50 15.11.2020
5429 Clear 9 1024 31 10000 2.1 210 10:30 15.11.2020
5430 Clear 9 1024 29 10000 0.25 21 09:46 15.11.2020
5431 Clear 10 1024 29 10000 0.15 249 09:24 15.11.2020
5432 Clear 10 1024 32 10000 1.5 180 08:54 15.11.2020
5433 Clear 10 1024 32 10000 1.5 180 08:54 15.11.2020
5434 Clear 10 1024 32 10000 1.5 180 08:32 15.11.2020
5435 Clear 11 1024 27 10000 2.1 240 07:44 15.11.2020
5436 Clear 12 1023 26 10000 1.5 250 05:37 15.11.2020
5437 Clear 13 1023 25 10000 0.73 316 04:52 15.11.2020
5438 Clouds 19 1022 16 10000 3.1 90 01:37 15.11.2020
5439 Clouds 19 1021 17 10000 3.1 80 00:29 15.11.2020
5440 Clouds 19 1021 17 10000 3.86 60 23:42 14.11.2020
5441 Clouds 19 1021 17 10000 1.5 150 22:53 14.11.2020
5442 Clouds 19 1021 17 10000 1.5 150 22:33 14.11.2020
5443 Clouds 19 1022 17 10000 3.1 50 21:55 14.11.2020
5444 Clouds 19 1022 17 10000 3.1 50 21:36 14.11.2020
5445 Clouds 19 1022 17 10000 3.1 50 21:18 14.11.2020
5446 Clouds 19 1022 18 10000 5.7 60 20:34 14.11.2020
5447 Clouds 18 1022 18 10000 6.7 40 19:58 14.11.2020
5448 Clouds 18 1022 18 10000 6.7 40 19:36 14.11.2020
5449 Clouds 18 1022 18 10000 6.7 40 19:36 14.11.2020
5450 Clouds 18 1021 21 10000 7.7 340 18:55 14.11.2020
5451 Clouds 17 1021 21 10000 7.7 340 18:37 14.11.2020
5452 Clouds 17 1021 21 10000 7.7 340 18:19 14.11.2020
5453 Clouds 16 1020 25 10000 4.1 290 17:42 14.11.2020
5454 Clouds 15 1020 25 10000 4.1 290 17:23 14.11.2020
5455 Clouds 12 1019 34 10000 4.1 240 16:46 14.11.2020
5456 Clouds 11 1019 34 10000 4.1 240 16:26 14.11.2020
5457 Clear 10 1018 34 10000 2.1 140 15:53 14.11.2020
5458 Clear 10 1018 34 10000 2.1 140 15:30 14.11.2020
5459 Clear 9 1017 34 10000 3.1 280 14:50 14.11.2020
5460 Clear 9 1017 34 10000 3.1 280 14:26 14.11.2020
5461 Clear 10 1016 29 10000 2.1 240 13:49 14.11.2020
5462 Clear 10 1016 29 10000 2.1 240 13:27 14.11.2020
5463 Clear 11 1015 30 10000 2.1 360 12:48 14.11.2020
5464 Clear 12 1015 30 10000 2.1 360 12:30 14.11.2020
5465 Clear 12 1013 30 10000 1.5 260 11:48 14.11.2020
5466 Clear 12 1013 30 10000 1.5 260 11:30 14.11.2020
5467 Clear 14 1013 26 10000 2.6 290 10:50 14.11.2020
5468 Clear 14 1013 26 10000 2.6 290 10:27 14.11.2020
5469 Clear 14 1013 26 10000 2.6 290 10:27 14.11.2020
5470 Clear 14 1012 25 10000 3.6 190 09:56 14.11.2020
5471 Clear 14 1012 25 10000 3.6 190 09:38 14.11.2020
5472 Clear 14 1012 25 10000 3.6 190 09:19 14.11.2020
5473 Clear 15 1011 25 10000 5.7 200 08:39 14.11.2020
5474 Clouds 16 1011 23 10000 6.7 190 07:52 14.11.2020
5475 Clouds 16 1011 23 10000 6.7 190 07:31 14.11.2020
5476 Clouds 16 1011 21 10000 4.1 170 06:36 14.11.2020
5477 Clouds 17 1012 18 10000 5.7 190 05:52 14.11.2020
5478 Clouds 17 1013 18 10000 4.6 200 04:22 14.11.2020
5479 Clouds 19 1013 16 10000 4.1 220 01:25 14.11.2020
5480 Clouds 20 1015 17 10000 3.1 90 23:50 13.11.2020
5481 Clouds 20 1015 17 10000 3.1 90 23:29 13.11.2020
5482 Clouds 20 1016 20 10000 2.6 80 22:55 13.11.2020
5483 Clouds 20 1016 20 10000 2.6 80 22:55 13.11.2020
5484 Clouds 19 1016 20 10000 2.6 80 22:29 13.11.2020
5485 Clouds 17 1017 19 10000 3.1 70 21:59 13.11.2020
5486 Clouds 18 1017 19 10000 3.1 70 21:41 13.11.2020
5487 Clouds 17 1017 19 10000 3.1 70 21:22 13.11.2020
5488 Clouds 16 1019 19 10000 2.68 184 20:44 13.11.2020
5489 Clouds 16 1019 19 10000 2.47 163 20:23 13.11.2020
5490 Clear 14 1019 24 10000 1.5 40 19:46 13.11.2020
5491 Clear 14 1019 24 10000 1.5 40 19:24 13.11.2020
5492 Clear 14 1020 24 10000 1.33 136 18:58 13.11.2020
5493 Clear 13 1020 24 10000 0.69 104 18:26 13.11.2020
5494 Clear 11 1019 29 10000 0.69 104 17:43 13.11.2020
5495 Clear 11 1019 29 10000 0.69 104 17:43 13.11.2020
5496 Clear 11 1019 29 10000 0.48 91 17:20 13.11.2020
5497 Clear 8 1019 39 10000 1.5 270 16:50 13.11.2020
5498 Clear 7 1019 39 10000 1.5 270 16:24 13.11.2020
5499 Clear 6 1018 36 10000 0.67 62 15:55 13.11.2020
5500 Clear 6 1018 36 10000 0.67 62 15:32 13.11.2020
5501 Clear 6 1019 39 10000 2.1 240 14:52 13.11.2020
5502 Clear 6 1019 39 10000 2.1 240 14:28 13.11.2020
5503 Clear 6 1018 39 10000 0.58 30 13:54 13.11.2020
5504 Clear 6 1018 39 10000 0.5 32 13:29 13.11.2020
5505 Clear 6 1018 36 10000 1.5 270 12:51 13.11.2020
5506 Clear 7 1018 36 10000 1.5 270 12:25 13.11.2020
5507 Clear 7 1018 36 10000 2.1 210 11:52 13.11.2020
5508 Clear 7 1018 36 10000 2.1 210 11:33 13.11.2020
5509 Clear 8 1018 34 10000 2.6 210 10:59 13.11.2020
5510 Clear 8 1018 34 10000 2.6 210 10:40 13.11.2020
5511 Clear 8 1018 34 10000 2.6 210 10:22 13.11.2020
5512 Clear 8 1018 34 10000 2.1 280 09:44 13.11.2020
5513 Clear 8 1018 34 10000 2.1 280 09:24 13.11.2020
5514 Clouds 8 1018 29 10000 1.5 220 08:52 13.11.2020
5515 Clouds 9 1018 29 10000 1.5 220 08:21 13.11.2020
5516 Clouds 9 1018 31 10000 2.1 210 07:47 13.11.2020
5517 Clouds 9 1018 31 10000 2.1 210 07:26 13.11.2020
5518 Clouds 10 1018 25 10000 1.5 210 06:50 13.11.2020
5519 Clouds 11 1018 25 10000 1.5 210 06:19 13.11.2020
5520 Clouds 11 1018 24 10000 2.1 270 05:39 13.11.2020
5521 Clouds 14 1017 18 10000 0.87 37 02:22 13.11.2020
5522 Clouds 17 1017 17 10000 0.87 37 01:36 13.11.2020
5523 Clouds 17 1017 16 10000 2.1 0 00:34 13.11.2020
5524 Clouds 17 1018 16 10000 1.5 10 23:43 12.11.2020
5525 Clouds 18 1018 16 10000 1.5 10 23:20 12.11.2020
5526 Clouds 18 1018 18 10000 1.36 93 22:52 12.11.2020
5527 Clouds 17 1018 18 10000 1.36 93 22:33 12.11.2020
5528 Clouds 17 1018 18 10000 3.1 70 21:56 12.11.2020
5529 Clouds 17 1018 18 10000 3.1 70 21:38 12.11.2020
5530 Clouds 17 1018 18 10000 3.1 70 21:18 12.11.2020
5531 Clouds 16 1019 19 10000 1.5 0 20:40 12.11.2020
5532 Clouds 16 1019 19 10000 1.5 0 20:21 12.11.2020
5533 Clouds 15 1020 24 10000 2.1 60 19:50 12.11.2020
5534 Clouds 15 1020 24 10000 2.1 60 19:32 12.11.2020
5535 Clouds 14 1020 26 10000 2.1 70 18:52 12.11.2020
5536 Clouds 13 1020 26 10000 2.1 70 18:25 12.11.2020
5537 Clouds 12 1020 32 10000 0.37 41 17:59 12.11.2020
5538 Clouds 12 1020 32 10000 0.37 41 17:38 12.11.2020
5539 Clouds 12 1020 32 10000 0.47 313 17:20 12.11.2020
5540 Clouds 9 1019 34 10000 1.5 200 16:44 12.11.2020
5541 Clouds 9 1019 34 10000 1.5 200 16:22 12.11.2020
5542 Clouds 9 1018 34 10000 2.6 200 15:42 12.11.2020
5543 Clouds 8 1018 34 10000 2.6 200 15:23 12.11.2020
5544 Clouds 8 1018 31 10000 0.86 350 14:47 12.11.2020
5545 Clouds 9 1018 31 10000 0.7 9 14:27 12.11.2020
5546 Clouds 9 1018 29 10000 2.6 30 13:57 12.11.2020
5547 Clouds 9 1018 29 10000 2.6 30 13:37 12.11.2020
5548 Clouds 9 1018 29 10000 2.6 30 13:18 12.11.2020
5549 Clouds 9 1018 32 10000 2.6 10 12:43 12.11.2020
5550 Clouds 9 1018 32 10000 2.6 10 12:21 12.11.2020
5551 Clouds 9 1018 31 10000 1.07 24 11:47 12.11.2020
5552 Clouds 9 1018 31 10000 1.13 32 11:28 12.11.2020
5553 Clouds 9 1018 34 10000 1.5 200 10:43 12.11.2020
5554 Clouds 9 1018 34 10000 1.5 200 10:43 12.11.2020
5555 Clouds 9 1018 34 10000 1.5 200 10:24 12.11.2020
5556 Clouds 9 1017 34 10000 1.5 210 09:48 12.11.2020
5557 Clouds 9 1017 34 10000 1.5 210 09:23 12.11.2020
5558 Clouds 9 1017 34 10000 2.1 260 08:57 12.11.2020
5559 Clouds 9 1017 34 10000 2.1 260 08:39 12.11.2020
5560 Clouds 9 1017 34 10000 2.1 260 08:19 12.11.2020
5561 Clouds 9 1017 32 10000 0.91 23 07:48 12.11.2020
5562 Clouds 9 1017 32 10000 0.79 24 07:22 12.11.2020
5563 Clouds 10 1017 27 10000 1.5 290 06:49 12.11.2020
5564 Clouds 10 1017 27 10000 1.5 290 06:49 12.11.2020
5565 Clouds 11 1016 26 10000 0.13 73 05:31 12.11.2020
5566 Clouds 12 1016 26 10000 1.5 120 03:22 12.11.2020
5567 Clouds 12 1016 22 10000 1.5 110 02:24 12.11.2020
5568 Clouds 15 1015 21 10000 1.46 65 23:59 11.11.2020
5569 Clouds 15 1015 21 10000 1.54 84 23:25 11.11.2020
5570 Clouds 15 1016 22 10000 1.5 10 22:58 11.11.2020
5571 Clouds 15 1016 22 10000 1.5 10 22:39 11.11.2020
5572 Clouds 15 1016 22 10000 1.5 10 22:20 11.11.2020
5573 Clouds 14 1017 24 10000 2.1 40 21:43 11.11.2020
5574 Clouds 14 1017 24 10000 2.1 40 21:25 11.11.2020
5575 Clouds 13 1018 25 10000 1.5 0 20:58 11.11.2020
5576 Clouds 13 1018 25 10000 1.5 0 20:40 11.11.2020
5577 Clouds 13 1018 25 10000 1.5 0 20:21 11.11.2020
5578 Clouds 12 1019 27 10000 1.5 100 19:49 11.11.2020
5579 Clouds 12 1019 27 10000 1.5 100 19:30 11.11.2020
5580 Clouds 10 1019 31 10000 1.5 50 18:53 11.11.2020
5581 Clouds 10 1019 31 10000 1.5 50 18:33 11.11.2020
5582 Clouds 8 1019 36 10000 0.43 74 17:42 11.11.2020
5583 Clouds 8 1019 36 10000 0.83 10 17:23 11.11.2020
5584 Clouds 5 1019 44 10000 0.83 10 16:54 11.11.2020
5585 Clouds 5 1019 44 10000 0.83 10 16:33 11.11.2020
5586 Clouds 4 1018 48 10000 1.5 210 15:52 11.11.2020
5587 Clouds 3 1018 48 10000 1.5 210 15:27 11.11.2020
5588 Clouds 4 1018 48 10000 1.5 0 14:56 11.11.2020
5589 Clouds 4 1018 48 10000 1.5 0 14:37 11.11.2020
5590 Clouds 4 1018 41 10000 1.06 36 13:57 11.11.2020
5591 Clouds 4 1018 41 10000 1.06 36 13:57 11.11.2020
5592 Clouds 4 1018 41 10000 1.06 36 13:35 11.11.2020
5593 Clouds 5 1018 41 10000 2.6 220 12:50 11.11.2020
5594 Clouds 5 1018 41 10000 2.6 220 12:21 11.11.2020
5595 Clouds 5 1018 38 10000 0.81 51 11:50 11.11.2020
5596 Clouds 5 1018 38 10000 0.81 51 11:30 11.11.2020
5597 Clouds 5 1018 38 10000 1.5 260 10:43 11.11.2020
5598 Clouds 5 1018 38 10000 1.5 260 10:24 11.11.2020
5599 Clouds 5 1019 38 10000 2.1 220 09:49 11.11.2020
5600 Clouds 5 1019 38 10000 2.1 220 09:28 11.11.2020
5601 Clouds 5 1019 36 10000 3.1 200 08:51 11.11.2020
5602 Clouds 5 1019 36 10000 3.1 200 08:30 11.11.2020
5603 Clouds 6 1019 33 10000 0.36 319 07:58 11.11.2020
5604 Clouds 6 1019 33 10000 0.36 319 07:39 11.11.2020
5605 Clear 6 1019 33 10000 1.5 280 06:30 11.11.2020
5606 Clear 8 1019 27 10000 0.56 84 04:47 11.11.2020
5607 Clouds 12 1019 22 10000 2.1 60 01:35 11.11.2020
5608 Clouds 13 1019 22 10000 1.93 99 00:54 11.11.2020
5609 Clouds 13 1019 22 10000 1.88 78 00:22 11.11.2020
5610 Clouds 13 1019 22 10000 1.5 60 23:25 10.11.2020
5611 Clouds 13 1020 23 10000 1.5 0 22:58 10.11.2020
5612 Clouds 13 1020 23 10000 1.5 0 22:36 10.11.2020
5613 Clouds 13 1020 23 10000 1.5 0 22:18 10.11.2020
5614 Clouds 12 1021 23 10000 1.2 50 21:39 10.11.2020
5615 Clouds 12 1021 23 10000 1.18 41 21:19 10.11.2020
5616 Clouds 12 1022 27 10000 3.1 100 20:43 10.11.2020
5617 Clouds 11 1022 27 10000 3.1 100 20:23 10.11.2020
5618 Clouds 10 1023 27 10000 2.6 100 19:56 10.11.2020
5619 Clouds 11 1023 27 10000 2.6 100 19:38 10.11.2020
5620 Clouds 10 1023 27 10000 2.6 100 19:20 10.11.2020
5621 Clouds 9 1023 31 10000 1.5 270 18:41 10.11.2020
5622 Clouds 9 1023 31 10000 1.5 270 18:20 10.11.2020
5623 Clouds 7 1023 38 10000 1.5 160 17:45 10.11.2020
5624 Clouds 7 1023 38 10000 1.5 160 17:45 10.11.2020
5625 Clouds 7 1023 38 10000 1.5 160 17:27 10.11.2020
5626 Clouds 6 1022 44 10000 1.5 100 16:58 10.11.2020
5627 Clouds 5 1022 44 10000 1.5 100 16:39 10.11.2020
5628 Clouds 4 1022 44 10000 1.5 100 16:21 10.11.2020
5629 Clouds 4 1022 48 10000 1.37 320 15:47 10.11.2020
5630 Clouds 3 1022 48 10000 1.41 307 15:27 10.11.2020
5631 Clouds 3 1021 48 10000 1.5 210 14:43 10.11.2020
5632 Clouds 3 1021 48 10000 1.5 210 14:23 10.11.2020
5633 Clear 3 1021 44 10000 1.5 220 13:58 10.11.2020
5634 Clear 3 1021 44 10000 1.5 220 13:37 10.11.2020
5635 Clear 3 1021 44 10000 1.5 220 13:19 10.11.2020
5636 Clouds 4 1021 41 10000 1.5 350 12:44 10.11.2020
5637 Clouds 4 1021 41 10000 1.5 350 12:24 10.11.2020
5638 Clear 3 1022 44 10000 4.1 190 11:41 10.11.2020
5639 Clear 4 1021 41 10000 1.5 220 11:21 10.11.2020
5640 Clear 4 1021 41 10000 1.5 220 10:48 10.11.2020
5641 Clear 4 1021 41 10000 1.5 220 10:28 10.11.2020
5642 Clear 4 1021 41 10000 1.5 220 10:28 10.11.2020
5643 Clear 4 1021 41 10000 2.6 220 09:57 10.11.2020
5644 Clear 4 1021 41 10000 2.6 220 09:39 10.11.2020
5645 Clear 4 1021 41 10000 2.6 220 09:39 10.11.2020
5646 Clear 5 1021 41 10000 2.6 220 09:19 10.11.2020
5647 Clear 6 1022 31 10000 1.75 299 08:49 10.11.2020
5648 Clear 6 1022 31 10000 1.51 289 08:25 10.11.2020
5649 Clear 6 1021 31 10000 1.5 250 07:43 10.11.2020
5650 Clear 7 1021 31 10000 1.5 250 07:20 10.11.2020
5651 Clear 7 1021 33 10000 1.67 270 06:39 10.11.2020
5652 Clear 7 1020 34 10000 1.5 200 05:41 10.11.2020
5653 Clouds 9 1020 27 10000 2.1 220 04:39 10.11.2020
5654 Clouds 11 1018 23 10000 2.6 100 01:42 10.11.2020
5655 Clouds 12 1018 23 10000 1.5 90 00:59 10.11.2020
5656 Clouds 13 1018 25 10000 2.1 0 23:53 09.11.2020
5657 Clouds 13 1018 25 10000 2.1 0 23:24 09.11.2020
5658 Clouds 13 1018 25 10000 1.37 152 22:44 09.11.2020
5659 Clouds 13 1018 25 10000 1.37 152 22:44 09.11.2020
5660 Clouds 13 1018 25 10000 0.83 174 22:23 09.11.2020
5661 Clouds 12 1018 27 10000 2.1 0 21:45 09.11.2020
5662 Clouds 12 1018 27 10000 2.1 0 21:27 09.11.2020
5663 Clouds 12 1018 32 10000 3.6 280 20:45 09.11.2020
5664 Clouds 11 1018 32 10000 3.6 280 20:22 09.11.2020
5665 Clouds 10 1018 39 10000 0.42 333 19:57 09.11.2020
5666 Clouds 10 1018 39 10000 0.42 333 19:39 09.11.2020
5667 Clouds 10 1018 39 10000 1 307 19:19 09.11.2020
5668 Clouds 9 1017 45 10000 1.05 303 18:41 09.11.2020
5669 Clouds 9 1017 45 10000 1.05 303 18:41 09.11.2020
5670 Clouds 9 1017 45 10000 1.22 287 18:20 09.11.2020
5671 Clouds 7 1016 56 10000 1.22 287 17:44 09.11.2020
5672 Clouds 7 1016 56 10000 1.6 279 17:26 09.11.2020
5673 Clouds 5 1016 60 10000 1.6 279 16:45 09.11.2020
5674 Clouds 5 1016 60 10000 1.91 278 16:26 09.11.2020
5675 Clouds 4 1014 64 10000 2.1 180 15:50 09.11.2020
5676 Clouds 4 1014 64 10000 2.1 180 15:30 09.11.2020
5677 Clouds 4 1014 64 10000 2.1 180 15:30 09.11.2020
5678 Clouds 4 1013 60 10000 2.1 200 14:56 09.11.2020
5679 Clouds 4 1013 60 10000 2.1 200 14:37 09.11.2020
5680 Clouds 4 1013 60 10000 2.1 200 14:19 09.11.2020
5681 Clouds 5 1012 60 10000 2.13 278 13:42 09.11.2020
5682 Clouds 5 1012 60 10000 1.94 278 13:19 09.11.2020
5683 Clouds 5 1011 56 10000 1.5 170 12:45 09.11.2020
5684 Clouds 4 1010 56 10000 2.1 210 12:21 09.11.2020
5685 Clouds 5 1010 56 10000 2.1 210 11:43 09.11.2020
5686 Clouds 5 1010 56 10000 2.1 210 11:24 09.11.2020
5687 Clouds 5 1009 56 10000 1.5 230 10:58 09.11.2020
5688 Clouds 5 1009 56 10000 1.5 230 10:40 09.11.2020
5689 Clouds 5 1009 56 10000 1.5 230 10:21 09.11.2020
5690 Clouds 6 1009 52 10000 2.1 210 09:30 09.11.2020
5691 Clouds 6 1008 52 10000 2.1 180 08:55 09.11.2020
5692 Clouds 6 1008 52 10000 2.1 180 08:28 09.11.2020
5693 Rain 6 1007 49 10000 1.5 90 07:57 09.11.2020
5694 Rain 7 1007 49 10000 1.5 90 07:23 09.11.2020
5695 Rain 7 1006 33 10000 2.1 180 06:55 09.11.2020
5696 Clouds 7 1004 31 10000 4.1 250 04:55 09.11.2020
5697 Rain 10 1002 29 10000 7.2 230 01:59 09.11.2020
5698 Rain 10 1002 29 10000 7.2 230 01:40 09.11.2020
5699 Rain 11 1002 25 10000 8.2 240 00:55 09.11.2020
5700 Rain 12 1002 27 10000 8.7 240 23:46 08.11.2020
5701 Rain 12 1002 27 10000 8.7 240 23:24 08.11.2020
5702 Rain 12 1002 29 10000 8.2 230 22:43 08.11.2020
5703 Rain 12 1002 29 10000 8.2 230 22:21 08.11.2020
5704 Rain 12 1003 34 10000 8.7 200 21:47 08.11.2020
5705 Rain 11 1003 34 10000 8.7 200 21:22 08.11.2020
5706 Rain 11 1003 32 10000 9.8 220 20:57 08.11.2020
5707 Rain 11 1003 32 10000 9.8 220 20:38 08.11.2020
5708 Rain 11 1003 32 10000 9.8 220 20:19 08.11.2020
5709 Clouds 10 1004 43 10000 5.1 210 19:45 08.11.2020
5710 Clouds 10 1004 43 10000 5.1 210 19:22 08.11.2020
5711 Rain 10 1004 43 10000 6.2 200 18:56 08.11.2020
5712 Rain 10 1004 43 10000 6.2 200 18:38 08.11.2020
5713 Rain 10 1004 43 10000 6.2 200 18:38 08.11.2020
5714 Rain 10 1004 43 10000 6.2 200 18:20 08.11.2020
5715 Clouds 9 1004 45 10000 7.7 210 17:42 08.11.2020
5716 Clouds 9 1004 45 10000 7.7 210 17:20 08.11.2020
5717 Clouds 8 1004 49 10000 6.7 200 16:57 08.11.2020
5718 Clouds 8 1004 49 10000 6.7 200 16:37 08.11.2020
5719 Clouds 8 1004 49 10000 6.7 200 16:18 08.11.2020
5720 Clouds 8 1004 49 10000 5.7 210 15:44 08.11.2020
5721 Clouds 8 1004 49 10000 5.7 210 15:26 08.11.2020
5722 Clouds 8 1003 49 10000 5.1 210 14:42 08.11.2020
5723 Clouds 8 1003 49 10000 5.1 210 14:23 08.11.2020
5724 Clouds 8 1003 49 10000 3.1 190 13:56 08.11.2020
5725 Clouds 8 1003 49 10000 3.1 190 13:25 08.11.2020
5726 Clouds 8 1004 49 10000 5.1 210 12:47 08.11.2020
5727 Clouds 7 1004 49 10000 5.1 210 12:29 08.11.2020
5728 Clouds 8 1004 49 10000 5.1 220 11:59 08.11.2020
5729 Clouds 8 1004 49 10000 5.1 220 11:41 08.11.2020
5730 Clouds 7 1004 49 10000 5.1 220 11:22 08.11.2020
5731 Clouds 7 1004 49 10000 6.7 200 10:52 08.11.2020
5732 Clouds 7 1004 49 10000 6.7 200 10:20 08.11.2020
5733 Clouds 7 1004 49 10000 2.6 210 09:59 08.11.2020
5734 Clouds 7 1004 49 10000 2.6 210 09:41 08.11.2020
5735 Clouds 7 1004 49 10000 2.6 210 09:18 08.11.2020
5736 Clouds 7 1004 49 10000 4.1 170 08:42 08.11.2020
5737 Clouds 8 1004 49 10000 4.1 170 08:21 08.11.2020
5738 Clouds 8 1004 49 10000 4.1 170 08:21 08.11.2020
5739 Clouds 8 1003 45 10000 4.6 190 07:53 08.11.2020
5740 Clouds 8 1003 45 10000 4.6 190 07:30 08.11.2020
5741 Clouds 8 1002 45 10000 6.7 200 06:26 08.11.2020
5742 Clouds 9 1002 43 10000 6.2 220 05:53 08.11.2020
5743 Clouds 9 1002 46 10000 5.1 240 04:50 08.11.2020
5744 Rain 8 1002 65 10000 5.7 230 01:54 08.11.2020
5745 Rain 8 1002 65 10000 5.7 230 01:19 08.11.2020
5746 Rain 10 1001 47 10000 5.1 200 00:30 08.11.2020
5747 Clouds 9 1002 75 10000 7.7 270 23:50 07.11.2020
5748 Clouds 9 1002 75 10000 7.7 270 23:30 07.11.2020
5749 Rain 11 1002 54 10000 13.4 270 22:47 07.11.2020
5750 Rain 12 1002 45 10000 13.4 270 22:28 07.11.2020
5751 Dust 13 1002 28 10000 9.8 240 21:56 07.11.2020
5752 Dust 14 1002 28 10000 9.8 240 21:38 07.11.2020
5753 Rain 15 1002 28 10000 9.8 240 21:18 07.11.2020
5754 Dust 15 1002 21 10000 11.3 230 20:44 07.11.2020
5755 Dust 15 1002 21 10000 11.3 230 20:25 07.11.2020
5756 Dust 15 1002 30 10000 10.3 230 19:44 07.11.2020
5757 Dust 15 1002 30 10000 10.3 230 19:26 07.11.2020
5758 Dust 14 1002 33 10000 6.2 220 18:41 07.11.2020
5759 Dust 14 1002 33 10000 6.2 220 18:22 07.11.2020
5760 Dust 13 1002 35 10000 5.7 230 17:46 07.11.2020
5761 Dust 13 1002 35 10000 5.7 230 17:28 07.11.2020
5762 Clouds 13 1001 35 10000 5.7 220 16:46 07.11.2020
5763 Clouds 13 1001 35 10000 5.7 220 16:25 07.11.2020
5764 Clouds 12 1000 37 10000 5.7 240 15:53 07.11.2020
5765 Clouds 12 1000 37 10000 5.7 240 15:26 07.11.2020
5766 Clouds 14 1000 44 10000 4.1 230 15:00 07.11.2020
5767 Clouds 14 1000 44 10000 4.1 230 14:41 07.11.2020
5768 Clouds 14 1000 44 10000 4.1 230 14:21 07.11.2020
5769 Clouds 16 999 51 10000 6.2 230 13:43 07.11.2020
5770 Clouds 15 999 51 10000 6.2 230 13:23 07.11.2020
5771 Clouds 17 998 36 10000 1.5 170 12:40 07.11.2020
5772 Clouds 19 997 34 10000 2.6 250 11:56 07.11.2020
5773 Clouds 19 997 34 10000 2.6 250 11:37 07.11.2020
5774 Clouds 18 997 34 10000 2.6 250 11:18 07.11.2020
5775 Clouds 21 998 18 10000 4.1 180 10:42 07.11.2020
5776 Clouds 21 998 18 10000 4.1 180 10:23 07.11.2020
5777 Clouds 21 998 19 10000 4.1 220 09:49 07.11.2020
5778 Clouds 21 998 19 10000 4.1 220 09:24 07.11.2020
5779 Clouds 22 999 18 10000 6.2 200 08:51 07.11.2020
5780 Clouds 22 999 18 10000 6.2 200 08:31 07.11.2020
5781 Clouds 23 999 17 10000 2.6 190 07:48 07.11.2020
5782 Clouds 23 999 16 10000 4.6 180 06:55 07.11.2020
5783 Clouds 23 999 15 10000 4.6 180 05:55 07.11.2020
5784 Clouds 24 1000 16 10000 5.7 180 04:32 07.11.2020
5785 Clouds 26 999 9 10000 7.2 200 02:53 07.11.2020
5786 Clouds 27 999 10 10000 4.1 200 01:27 07.11.2020
5787 Clouds 28 1000 9 10000 6.2 190 00:39 07.11.2020
5788 Clouds 29 1001 10 10000 3.1 220 23:45 06.11.2020
5789 Clouds 29 1001 10 10000 3.1 220 23:19 06.11.2020
5790 Clouds 29 1001 9 10000 6.7 220 22:40 06.11.2020
5791 Clouds 29 1001 9 10000 6.7 220 22:18 06.11.2020
5792 Clouds 29 1003 13 10000 4.1 200 21:43 06.11.2020
5793 Clouds 28 1003 13 10000 4.1 200 21:21 06.11.2020
5794 Clouds 28 1004 21 10000 3.1 130 20:48 06.11.2020
5795 Clouds 27 1004 21 10000 3.1 130 20:20 06.11.2020
5796 Clouds 25 1005 14 10000 1.5 100 19:47 06.11.2020
5797 Clouds 25 1005 16 10000 1.5 100 19:29 06.11.2020
5798 Clouds 22 1006 21 10000 2.1 100 18:58 06.11.2020
5799 Clouds 23 1006 21 10000 2.1 100 18:40 06.11.2020
5800 Clouds 22 1006 21 10000 2.1 100 18:19 06.11.2020
5801 Clouds 21 1007 18 10000 1.9 143 17:48 06.11.2020
5802 Clouds 21 1007 20 10000 1.05 155 17:25 06.11.2020
5803 Clouds 18 1007 27 10000 1.5 270 16:47 06.11.2020
5804 Clouds 18 1007 27 10000 1.5 270 16:24 06.11.2020
5805 Clouds 18 1007 27 10000 2.1 260 15:47 06.11.2020
5806 Clouds 18 1007 27 10000 2.1 260 15:27 06.11.2020
5807 Clouds 17 1007 27 10000 1.5 210 14:51 06.11.2020
5808 Clouds 17 1007 27 10000 1.5 210 14:24 06.11.2020
5809 Clouds 17 1008 25 10000 0.56 129 13:44 06.11.2020
5810 Clouds 17 1008 25 10000 0.22 148 13:23 06.11.2020
5811 Clouds 18 1009 24 10000 0.08 335 12:44 06.11.2020
5812 Clouds 18 1009 24 10000 0.42 235 12:23 06.11.2020
5813 Clouds 18 1010 22 10000 1.5 260 11:43 06.11.2020
5814 Clouds 18 1010 22 10000 1.5 260 11:24 06.11.2020
5815 Clouds 18 1011 22 10000 1.5 220 10:39 06.11.2020
5816 Clouds 18 1011 22 10000 1.5 220 10:19 06.11.2020
5817 Clouds 18 1012 22 10000 1.5 230 09:48 06.11.2020
5818 Clouds 18 1012 22 10000 1.5 230 09:21 06.11.2020
5819 Clouds 19 1013 22 10000 2.1 230 08:49 06.11.2020
5820 Clouds 19 1013 22 10000 2.1 230 08:28 06.11.2020
5821 Clouds 19 1014 19 10000 2.1 220 07:49 06.11.2020
5822 Clouds 20 1014 19 10000 2.1 220 07:30 06.11.2020
5823 Clouds 20 1014 19 10000 1.5 210 06:51 06.11.2020
5824 Clouds 21 1015 19 10000 2.1 220 05:44 06.11.2020
5825 Clouds 23 1016 16 10000 2.1 230 03:46 06.11.2020
5826 Clouds 28 1017 13 10000 1.19 327 00:48 06.11.2020
5827 Clouds 29 1017 13 10000 0.97 41 00:19 06.11.2020
5828 Clouds 29 1018 13 10000 2.1 320 23:30 05.11.2020
5829 Clouds 29 1019 13 10000 1.5 40 22:57 05.11.2020
5830 Clouds 29 1019 13 10000 1.5 40 22:37 05.11.2020
5831 Clouds 29 1021 14 10000 2.6 0 22:18 05.11.2020
5832 Clouds 29 1021 14 10000 2.6 0 21:42 05.11.2020
5833 Clouds 29 1021 14 10000 2.6 0 21:42 05.11.2020
5834 Clouds 28 1021 14 10000 2.6 0 21:21 05.11.2020
5835 Clouds 27 1022 14 10000 1.5 20 20:48 05.11.2020
5836 Clouds 27 1022 14 10000 1.5 20 20:28 05.11.2020
5837 Clouds 26 1023 17 10000 2.19 69 19:59 05.11.2020
5838 Clouds 25 1023 17 10000 2.19 69 19:40 05.11.2020
5839 Clouds 25 1023 17 10000 1.58 65 19:22 05.11.2020
5840 Clouds 24 1024 19 10000 1.35 58 18:45 05.11.2020
5841 Clouds 23 1024 19 10000 1.22 36 18:26 05.11.2020
5842 Clouds 21 1024 21 10000 1.22 36 17:52 05.11.2020
5843 Clouds 21 1024 21 10000 0.94 354 17:29 05.11.2020
5844 Clear 17 1024 27 10000 2.6 220 16:58 05.11.2020
5845 Clear 17 1024 27 10000 2.6 220 16:40 05.11.2020
5846 Clear 17 1024 27 10000 2.6 220 16:19 05.11.2020
5847 Clear 15 1024 26 10000 2.6 210 15:43 05.11.2020
5848 Clear 15 1024 26 10000 2.6 210 15:21 05.11.2020
5849 Clear 15 1024 29 10000 2.1 210 14:45 05.11.2020
5850 Clear 15 1024 29 10000 2.1 210 14:25 05.11.2020
5851 Clear 16 1023 27 10000 2.6 270 13:42 05.11.2020
5852 Clear 16 1023 27 10000 2.6 270 13:23 05.11.2020
5853 Clear 16 1023 27 10000 3.1 200 12:50 05.11.2020
5854 Clear 16 1023 27 10000 3.1 200 12:25 05.11.2020
5855 Clear 16 1023 25 10000 2.6 210 11:54 05.11.2020
5856 Clear 16 1023 25 10000 2.6 210 11:28 05.11.2020
5857 Clear 17 1023 25 10000 3.1 200 10:53 05.11.2020
5858 Clear 17 1023 25 10000 3.1 200 10:33 05.11.2020
5859 Clear 18 1023 25 10000 2.1 250 09:59 05.11.2020
5860 Clear 18 1023 25 10000 2.1 250 09:41 05.11.2020
5861 Clear 18 1023 25 10000 2.1 250 09:21 05.11.2020
5862 Clear 18 1023 25 10000 2.6 220 08:43 05.11.2020
5863 Clear 19 1023 25 10000 2.6 220 08:25 05.11.2020
5864 Clear 20 1023 26 10000 2.6 230 07:29 05.11.2020
5865 Clear 20 1023 26 10000 2.1 180 06:52 05.11.2020
5866 Clear 20 1023 26 10000 2.1 180 06:34 05.11.2020
5867 Clear 22 1022 23 10000 2.6 270 04:19 05.11.2020
5868 Clear 28 1021 17 10000 3.6 20 01:22 05.11.2020
5869 Clear 29 1021 15 10000 1.37 75 00:29 05.11.2020
5870 Clear 29 1021 15 10000 1.37 75 23:44 04.11.2020
5871 Clear 29 1021 15 10000 1.28 77 23:25 04.11.2020
5872 Clear 28 1022 15 10000 1.28 77 22:45 04.11.2020
5873 Clear 28 1022 15 10000 1.13 72 22:23 04.11.2020
5874 Clear 28 1022 15 10000 1.13 72 21:48 04.11.2020
5875 Clear 28 1022 16 10000 1.14 58 21:29 04.11.2020
5876 Clear 27 1023 16 10000 1.14 58 20:56 04.11.2020
5877 Clear 26 1023 16 10000 1.14 58 20:38 04.11.2020
5878 Clear 26 1023 16 10000 0.93 55 20:19 04.11.2020
5879 Clear 25 1024 19 10000 0.93 55 19:44 04.11.2020
5880 Clear 25 1024 19 10000 0.93 55 19:44 04.11.2020
5881 Clear 25 1024 19 10000 0.93 55 19:44 04.11.2020
5882 Clear 25 1024 19 10000 0.93 55 19:44 04.11.2020
5883 Clear 25 1024 19 10000 0.77 42 19:26 04.11.2020
5884 Clear 24 1024 23 10000 0.82 49 18:43 04.11.2020
5885 Clear 24 1024 23 10000 1.12 18 18:25 04.11.2020
5886 Clear 21 1023 26 10000 1.12 18 17:56 04.11.2020
5887 Clear 22 1023 26 10000 1.12 18 17:38 04.11.2020
5888 Clear 21 1023 26 10000 0.95 357 17:19 04.11.2020
5889 Clear 17 1022 33 10000 2.1 230 16:38 04.11.2020
5890 Clear 17 1022 33 10000 2.1 230 16:19 04.11.2020
5891 Clear 16 1022 29 10000 1.02 5 15:44 04.11.2020
5892 Clear 15 1022 44 10000 0.74 0 15:24 04.11.2020
5893 Clear 15 1021 44 10000 1.5 230 14:47 04.11.2020
5894 Clear 15 1021 40 10000 1.5 230 14:26 04.11.2020
5895 Clear 15 1020 40 10000 2.6 210 13:56 04.11.2020
5896 Clear 16 1020 40 10000 2.6 210 13:37 04.11.2020
5897 Clear 16 1020 40 10000 2.6 210 13:19 04.11.2020
5898 Clear 16 1020 31 10000 2.6 220 12:47 04.11.2020
5899 Clear 16 1020 31 10000 2.6 220 12:24 04.11.2020
5900 Clear 16 1019 29 10000 1.5 220 11:48 04.11.2020
5901 Clear 16 1019 29 10000 1.5 220 11:24 04.11.2020
5902 Clear 17 1019 27 10000 0.93 323 10:52 04.11.2020
5903 Clear 17 1019 27 10000 0.82 319 10:24 04.11.2020
5904 Clear 17 1019 25 10000 1.5 220 09:58 04.11.2020
5905 Clear 17 1019 25 10000 1.5 220 09:40 04.11.2020
5906 Clear 18 1019 25 10000 1.5 220 09:20 04.11.2020
5907 Clear 18 1019 24 10000 3.6 200 08:41 04.11.2020
5908 Clear 18 1019 24 10000 3.6 200 08:18 04.11.2020
5909 Clear 19 1019 24 10000 3.1 210 07:42 04.11.2020
5910 Clear 19 1019 24 10000 3.1 210 07:23 04.11.2020
5911 Clear 19 1018 22 10000 2.6 220 06:40 04.11.2020
5912 Clear 21 1018 24 10000 0.76 300 05:39 04.11.2020
5913 Clouds 25 1016 18 10000 1.46 322 02:31 04.11.2020
5914 Clouds 29 1016 16 10000 2.1 60 01:39 04.11.2020
5915 Clouds 29 1016 16 10000 2.1 40 00:25 04.11.2020
5916 Clouds 29 1016 18 10000 1.5 0 23:30 03.11.2020
5917 Clouds 29 1017 18 10000 2.6 80 22:58 03.11.2020
5918 Clouds 28 1017 18 10000 2.6 80 22:39 03.11.2020
5919 Clouds 28 1017 18 10000 2.6 80 22:19 03.11.2020
5920 Clouds 27 1018 21 10000 1.45 120 21:43 03.11.2020
5921 Clouds 27 1018 21 10000 1.23 99 21:25 03.11.2020
5922 Clouds 27 1019 19 10000 1.5 40 20:49 03.11.2020
5923 Clouds 26 1019 19 10000 1.5 40 20:27 03.11.2020
5924 Clouds 26 1019 19 10000 1.5 40 20:27 03.11.2020
5925 Clouds 25 1019 22 10000 1.5 50 19:57 03.11.2020
5926 Clouds 25 1019 22 10000 1.5 50 19:38 03.11.2020
5927 Clouds 25 1019 22 10000 1.5 50 19:19 03.11.2020
5928 Clouds 24 1019 23 10000 1.5 180 18:41 03.11.2020
5929 Clouds 24 1019 23 10000 1.5 180 18:19 03.11.2020
5930 Clouds 22 1019 26 10000 1.5 220 17:47 03.11.2020
5931 Clouds 21 1019 26 10000 1.5 220 17:29 03.11.2020
5932 Clouds 19 1018 26 10000 0.45 2 16:52 03.11.2020
5933 Clouds 17 1018 26 10000 0.45 2 16:31 03.11.2020
5934 Clouds 17 1018 29 10000 3.1 210 15:58 03.11.2020
5935 Clouds 17 1018 29 10000 3.1 210 15:40 03.11.2020
5936 Clouds 16 1018 29 10000 2.1 230 15:19 03.11.2020
5937 Clouds 16 1018 29 10000 2.1 230 14:43 03.11.2020
5938 Clouds 16 1018 29 10000 2.1 230 14:25 03.11.2020
5939 Clouds 16 1018 29 10000 1.5 230 13:42 03.11.2020
5940 Clouds 17 1018 29 10000 1.5 230 13:21 03.11.2020
5941 Clouds 16 1018 29 10000 1.5 220 12:47 03.11.2020
5942 Clouds 17 1018 29 10000 1.5 220 12:26 03.11.2020
5943 Clouds 17 1018 27 10000 1.5 200 11:47 03.11.2020
5944 Clouds 18 1018 27 10000 1.5 200 11:26 03.11.2020
5945 Clouds 18 1018 25 10000 2.6 240 10:59 03.11.2020
5946 Clouds 18 1018 25 10000 2.6 240 10:38 03.11.2020
5947 Clouds 18 1018 25 10000 2.6 240 10:18 03.11.2020
5948 Clouds 18 1018 24 10000 2.1 210 09:45 03.11.2020
5949 Clouds 19 1018 24 10000 2.1 210 09:24 03.11.2020
5950 Clouds 19 1018 22 10000 2.6 200 08:49 03.11.2020
5951 Clouds 19 1018 22 10000 2.6 200 08:30 03.11.2020
5952 Clouds 20 1019 19 10000 3.1 210 07:41 03.11.2020
5953 Clouds 20 1019 19 10000 3.1 210 07:19 03.11.2020
5954 Clouds 21 1019 19 10000 1.01 303 06:22 03.11.2020
5955 Clouds 23 1018 17 10000 2.1 230 04:34 03.11.2020
5956 Clouds 28 1019 10 10000 0.36 190 00:45 03.11.2020
5957 Clouds 28 1019 10 10000 0.92 1 00:24 03.11.2020
5958 Clouds 28 1019 10 10000 1.5 350 23:43 02.11.2020
5959 Clouds 28 1019 10 10000 1.5 350 23:22 02.11.2020
5960 Clouds 28 1020 10 10000 1.43 26 22:43 02.11.2020
5961 Clouds 28 1020 10 10000 2.24 40 22:24 02.11.2020
5962 Clouds 27 1021 10 10000 1.5 310 21:39 02.11.2020
5963 Clouds 27 1021 10 10000 1.5 310 21:21 02.11.2020
5964 Clouds 27 1022 10 10000 1.5 310 20:56 02.11.2020
5965 Clouds 27 1022 10 10000 1.5 310 20:38 02.11.2020
5966 Clouds 26 1022 10 10000 1.5 310 20:18 02.11.2020
5967 Clouds 26 1022 10 10000 1.5 310 20:18 02.11.2020
5968 Clouds 26 1023 12 10000 1.5 80 19:43 02.11.2020
5969 Clouds 25 1023 12 10000 1.5 80 19:25 02.11.2020
5970 Clouds 24 1024 13 10000 2.1 160 18:43 02.11.2020
5971 Clouds 23 1024 13 10000 2.1 160 18:22 02.11.2020
5972 Clouds 22 1024 14 10000 2.1 200 17:58 02.11.2020
5973 Clouds 22 1024 14 10000 2.1 200 17:40 02.11.2020
5974 Clouds 21 1024 14 10000 2.1 200 17:20 02.11.2020
5975 Clouds 19 1023 16 10000 2.6 210 16:42 02.11.2020
5976 Clouds 18 1023 16 10000 2.6 210 16:23 02.11.2020
5977 Clouds 17 1023 17 10000 2.1 210 15:44 02.11.2020
5978 Clouds 17 1023 17 10000 2.1 210 15:24 02.11.2020
5979 Clouds 17 1023 17 10000 2.6 200 14:57 02.11.2020
5980 Clouds 17 1023 17 10000 2.6 200 14:21 02.11.2020
5981 Clouds 17 1023 17 10000 2.6 200 13:58 02.11.2020
5982 Clouds 17 1023 17 10000 2.6 200 13:40 02.11.2020
5983 Clouds 17 1023 17 10000 2.6 200 13:21 02.11.2020
5984 Clouds 17 1023 18 10000 1.19 358 12:33 02.11.2020
5985 Clouds 17 1022 22 10000 0.98 355 11:59 02.11.2020
5986 Clouds 17 1022 22 10000 0.98 355 11:59 02.11.2020
5987 Clouds 17 1022 22 10000 0.98 355 11:38 02.11.2020
5988 Clouds 17 1022 22 10000 1.2 8 11:19 02.11.2020
5989 Clouds 17 1022 18 10000 2.1 230 10:43 02.11.2020
5990 Clouds 17 1022 18 10000 2.1 230 10:21 02.11.2020
5991 Clouds 17 1022 17 10000 2.6 210 09:51 02.11.2020
5992 Clouds 17 1022 17 10000 2.6 210 09:24 02.11.2020
5993 Clouds 18 1022 16 10000 1.5 200 08:46 02.11.2020
5994 Clouds 18 1022 16 10000 1.5 200 08:26 02.11.2020
5995 Clouds 19 1023 15 10000 2.1 210 07:50 02.11.2020
5996 Clouds 19 1023 15 10000 2.1 210 07:22 02.11.2020
5997 Clouds 20 1022 14 10000 1.5 210 06:36 02.11.2020
5998 Clouds 23 1022 11 10000 2.1 260 03:35 02.11.2020
5999 Clouds 26 1022 8 10000 0.85 7 01:25 02.11.2020
6000 Clouds 27 1022 7 10000 2.1 10 00:36 02.11.2020
6001 Clouds 28 1023 8 10000 0.91 26 23:44 01.11.2020
6002 Clouds 28 1023 8 10000 1.78 37 23:25 01.11.2020
6003 Clouds 28 1023 7 10000 3.1 50 22:47 01.11.2020
6004 Clouds 28 1023 7 10000 3.1 50 22:27 01.11.2020
6005 Clouds 28 1024 8 10000 2.1 20 21:59 01.11.2020
6006 Clouds 28 1024 8 10000 2.1 20 21:39 01.11.2020
6007 Clouds 27 1024 8 10000 2.1 20 21:21 01.11.2020
6008 Clouds 26 1025 7 10000 2.6 20 20:42 01.11.2020
6009 Clouds 26 1025 7 10000 2.6 20 20:42 01.11.2020
6010 Clouds 26 1025 7 10000 2.6 20 20:24 01.11.2020
6011 Clouds 24 1026 10 10000 1.74 57 19:44 01.11.2020
6012 Clouds 24 1026 10 10000 1.68 70 19:26 01.11.2020
6013 Clouds 23 1026 10 10000 1.68 70 18:54 01.11.2020
6014 Clouds 23 1026 10 10000 1.84 59 18:36 01.11.2020
6015 Clouds 22 1026 10 10000 1.51 65 18:18 01.11.2020
6016 Clouds 22 1026 10 10000 1.51 65 18:18 01.11.2020
6017 Clouds 21 1026 14 10000 1.5 180 17:42 01.11.2020
6018 Clouds 20 1026 14 10000 1.5 180 17:22 01.11.2020
6019 Clouds 17 1025 17 10000 2.6 210 16:41 01.11.2020
6020 Clouds 16 1025 17 10000 2.6 210 16:21 01.11.2020
6021 Clouds 16 1025 18 10000 2.1 190 15:54 01.11.2020
6022 Clouds 15 1025 18 10000 2.1 190 15:36 01.11.2020
6023 Clouds 15 1025 18 10000 2.1 190 15:18 01.11.2020
6024 Clouds 15 1024 19 10000 0.97 13 14:43 01.11.2020
6025 Clouds 15 1024 19 10000 1.38 27 14:21 01.11.2020
6026 Clouds 15 1024 19 10000 2.1 230 13:49 01.11.2020
6027 Clouds 15 1024 19 10000 2.1 230 13:31 01.11.2020
6028 Clouds 16 1023 18 10000 2.1 310 12:44 01.11.2020
6029 Clouds 16 1023 18 10000 2.1 310 12:24 01.11.2020
6030 Clouds 16 1023 14 10000 3.1 220 11:53 01.11.2020
6031 Clouds 16 1023 14 10000 3.1 220 11:19 01.11.2020
6032 Clouds 15 1023 19 10000 2.6 210 10:59 01.11.2020
6033 Clouds 15 1023 19 10000 2.6 210 10:40 01.11.2020
6034 Clouds 15 1023 19 10000 2.6 210 10:40 01.11.2020
6035 Clouds 15 1023 19 10000 2.6 210 10:21 01.11.2020
6036 Clouds 16 1023 17 10000 3.6 220 09:46 01.11.2020
6037 Clouds 16 1022 17 10000 1.5 210 08:49 01.11.2020
6038 Clouds 16 1022 17 10000 1.5 210 08:24 01.11.2020
6039 Clouds 17 1022 17 10000 1.5 260 07:43 01.11.2020
6040 Clouds 18 1021 14 10000 1.12 312 05:23 01.11.2020
6041 Clouds 27 1020 10 10000 0.57 293 01:52 01.11.2020
6042 Clouds 26 1020 9 10000 0.43 356 00:53 01.11.2020
6043 Clouds 26 1020 10 10000 0.79 77 23:29 31.10.2020
6044 Clouds 26 1021 11 10000 1.5 0 22:59 31.10.2020
6045 Clouds 26 1021 11 10000 1.5 0 22:41 31.10.2020
6046 Clouds 25 1021 11 10000 1.5 0 22:22 31.10.2020
6047 Clouds 25 1021 12 10000 0.9 74 21:44 31.10.2020
6048 Clouds 25 1021 12 10000 0.93 65 21:20 31.10.2020
6049 Clouds 24 1022 12 10000 0.93 65 20:39 31.10.2020
6050 Clouds 23 1022 12 10000 1 50 20:19 31.10.2020
6051 Clouds 22 1023 13 10000 1 50 19:41 31.10.2020
6052 Clouds 22 1023 13 10000 0.95 35 19:23 31.10.2020
6053 Clouds 21 1023 16 10000 0.95 35 18:48 31.10.2020
6054 Clouds 20 1023 16 10000 0.91 49 18:30 31.10.2020
6055 Clouds 17 1022 21 10000 0.87 28 17:41 31.10.2020
6056 Clouds 17 1022 21 10000 0.91 13 17:23 31.10.2020
6057 Clouds 13 1021 26 10000 0.91 13 16:48 31.10.2020
6058 Clouds 13 1021 26 10000 0.81 359 16:29 31.10.2020
6059 Clouds 12 1021 25 10000 1.5 230 15:54 31.10.2020
6060 Clouds 11 1021 25 10000 1.5 230 15:25 31.10.2020
6061 Clear 11 1020 27 10000 0.87 4 14:53 31.10.2020
6062 Clear 11 1020 27 10000 0.87 4 14:31 31.10.2020
6063 Clear 12 1019 26 10000 2.1 250 13:52 31.10.2020
6064 Clear 12 1019 26 10000 2.1 250 13:28 31.10.2020
6065 Clear 12 1019 26 10000 2.6 230 12:48 31.10.2020
6066 Clear 12 1019 26 10000 2.6 230 12:21 31.10.2020
6067 Clear 13 1019 24 10000 2.1 220 11:40 31.10.2020
6068 Clear 13 1019 24 10000 2.1 220 11:21 31.10.2020
6069 Clear 13 1018 24 10000 2.1 230 10:40 31.10.2020
6070 Clear 14 1018 22 10000 1.5 270 09:56 31.10.2020
6071 Clear 14 1018 22 10000 1.5 270 09:37 31.10.2020
6072 Clear 14 1018 22 10000 1.5 270 09:18 31.10.2020
6073 Clear 15 1018 19 10000 0.64 252 08:22 31.10.2020
6074 Clear 16 1018 18 10000 1.5 220 07:29 31.10.2020
6075 Clear 16 1018 18 10000 1.5 240 06:56 31.10.2020
6076 Clear 16 1018 18 10000 1.5 240 06:36 31.10.2020
6077 Clouds 20 1017 17 10000 0.83 293 03:47 31.10.2020
6078 Clouds 24 1016 15 10000 0.33 249 02:27 31.10.2020
6079 Clear 25 1016 10 10000 0.3 148 00:51 31.10.2020
6080 Clear 26 1017 10 10000 0.65 103 23:54 30.10.2020
6081 Clear 26 1017 10 10000 0.78 107 23:29 30.10.2020
6082 Clear 25 1018 11 10000 2.6 30 22:59 30.10.2020
6083 Clear 25 1018 11 10000 2.6 30 22:37 30.10.2020
6084 Clear 25 1018 11 10000 2.6 30 22:18 30.10.2020
6085 Clear 25 1018 11 10000 2.6 30 22:18 30.10.2020
6086 Clear 25 1019 13 10000 1 103 21:42 30.10.2020
6087 Clear 24 1019 13 10000 1.23 97 21:22 30.10.2020
6088 Clear 23 1020 13 10000 1.23 97 20:44 30.10.2020
6089 Clear 23 1020 13 10000 1.27 81 20:25 30.10.2020
6090 Clear 22 1020 13 10000 1.27 81 19:54 30.10.2020
6091 Clear 22 1020 13 10000 1.27 66 19:22 30.10.2020
6092 Clear 21 1021 16 10000 1.27 66 18:53 30.10.2020
6093 Clear 20 1021 16 10000 1.11 72 18:34 30.10.2020
6094 Clear 19 1021 20 10000 0.83 42 17:59 30.10.2020
6095 Clear 19 1021 20 10000 0.83 42 17:40 30.10.2020
6096 Clear 18 1021 20 10000 0.83 359 17:20 30.10.2020
6097 Clear 14 1020 24 10000 0.83 359 16:49 30.10.2020
6098 Clear 13 1020 24 10000 1.03 360 16:24 30.10.2020
6099 Clear 12 1020 26 10000 2.6 220 15:41 30.10.2020
6100 Clear 11 1020 26 10000 2.6 220 15:20 30.10.2020
6101 Clear 11 1019 26 10000 2.1 220 14:46 30.10.2020
6102 Clear 12 1019 26 10000 2.1 220 14:28 30.10.2020
6103 Clear 12 1019 24 10000 1.5 240 13:57 30.10.2020
6104 Clear 12 1019 24 10000 1.5 240 13:39 30.10.2020
6105 Clear 12 1019 24 10000 1.5 240 13:19 30.10.2020
6106 Clear 12 1019 26 10000 2.6 200 12:40 30.10.2020
6107 Clear 12 1019 26 10000 2.6 200 12:21 30.10.2020
6108 Clear 13 1019 24 10000 1.5 250 11:43 30.10.2020
6109 Clear 13 1019 24 10000 1.5 250 11:20 30.10.2020
6110 Clear 14 1019 22 10000 3.1 220 10:47 30.10.2020
6111 Clear 13 1019 22 10000 3.1 220 10:23 30.10.2020
6112 Clear 14 1019 21 10000 1.5 230 09:46 30.10.2020
6113 Clear 15 1019 21 10000 1.5 230 09:24 30.10.2020
6114 Clear 15 1019 19 10000 2.1 200 08:46 30.10.2020
6115 Clear 15 1019 19 10000 2.1 200 08:26 30.10.2020
6116 Clear 15 1019 19 10000 2.6 210 07:50 30.10.2020
6117 Clear 15 1019 19 10000 2.6 210 07:31 30.10.2020
6118 Clear 16 1019 18 10000 1.5 210 06:40 30.10.2020
6119 Clear 17 1018 17 10000 2.6 210 05:19 30.10.2020
6120 Clear 23 1018 13 10000 0.9 307 02:27 30.10.2020
6121 Clear 25 1018 10 10000 0.33 340 00:40 30.10.2020
6122 Clear 25 1019 11 10000 0.9 18 23:49 29.10.2020
6123 Clear 25 1019 11 10000 0.9 18 23:31 29.10.2020
6124 Clear 25 1019 11 10000 1.5 0 22:58 29.10.2020
6125 Clear 25 1019 11 10000 1.5 0 22:40 29.10.2020
6126 Clear 25 1019 11 10000 1.5 0 22:21 29.10.2020
6127 Clear 24 1021 12 10000 2.6 350 21:37 29.10.2020
6128 Clear 24 1021 12 10000 2.6 350 21:18 29.10.2020
6129 Clear 23 1022 13 10000 3.6 20 20:41 29.10.2020
6130 Clear 23 1022 13 10000 3.6 20 20:19 29.10.2020
6131 Clear 22 1023 14 10000 1.58 74 19:43 29.10.2020
6132 Clear 21 1023 14 10000 1.5 77 19:22 29.10.2020
6133 Clear 20 1023 14 10000 1.7 68 18:49 29.10.2020
6134 Clear 20 1023 15 10000 1.24 64 18:29 29.10.2020
6135 Clear 18 1023 17 10000 1.24 64 17:57 29.10.2020
6136 Clear 18 1023 17 10000 1.24 64 17:38 29.10.2020
6137 Clear 18 1023 17 10000 0.77 35 17:19 29.10.2020
6138 Clear 13 1022 22 10000 1.5 210 16:45 29.10.2020
6139 Clear 12 1021 23 10000 2.6 220 16:19 29.10.2020
6140 Clear 11 1021 23 10000 2.6 220 15:56 29.10.2020
6141 Clear 11 1021 23 10000 2.6 220 15:37 29.10.2020
6142 Clear 10 1021 25 10000 2.6 230 15:18 29.10.2020
6143 Clear 11 1021 25 10000 2.6 230 14:42 29.10.2020
6144 Clear 11 1021 25 10000 2.6 230 14:21 29.10.2020
6145 Clear 10 1020 25 10000 1.5 220 13:46 29.10.2020
6146 Clear 11 1020 25 10000 1.5 220 13:27 29.10.2020
6147 Clear 11 1020 23 10000 2.1 220 12:44 29.10.2020
6148 Clear 11 1020 23 10000 2.1 220 12:20 29.10.2020
6149 Clear 11 1020 27 10000 1.5 260 11:54 29.10.2020
6150 Clear 11 1020 27 10000 1.5 260 11:36 29.10.2020
6151 Clear 12 1020 27 10000 1.5 260 11:18 29.10.2020
6152 Clear 12 1020 26 10000 0.52 34 10:37 29.10.2020
6153 Clear 12 1020 26 10000 0.52 34 10:37 29.10.2020
6154 Clear 12 1020 26 10000 1.16 43 10:18 29.10.2020
6155 Clear 13 1019 20 10000 2.1 220 09:47 29.10.2020
6156 Clear 13 1019 20 10000 2.1 220 09:24 29.10.2020
6157 Clear 13 1018 24 10000 2.6 280 08:41 29.10.2020
6158 Clear 13 1018 24 10000 2.6 280 08:23 29.10.2020
6159 Clear 14 1019 21 10000 2.6 210 07:49 29.10.2020
6160 Clear 15 1019 19 10000 1.5 220 06:59 29.10.2020
6161 Clear 15 1019 19 10000 1.5 220 06:28 29.10.2020
6162 Clear 17 1018 16 10000 0.82 334 04:48 29.10.2020
6163 Clear 23 1018 13 10000 1.5 100 02:19 29.10.2020
6164 Clear 22 1016 12 10000 1.34 140 00:38 29.10.2020
6165 Clear 23 1016 12 10000 1.34 140 00:19 29.10.2020
6166 Clear 23 1016 13 10000 1.6 197 23:40 28.10.2020
6167 Clear 23 1017 13 10000 1.26 188 23:19 28.10.2020
6168 Clear 23 1017 13 10000 1.26 188 22:42 28.10.2020
6169 Clear 22 1019 14 10000 1.17 123 22:23 28.10.2020
6170 Clear 21 1019 14 10000 1.17 123 21:45 28.10.2020
6171 Clear 21 1019 14 10000 1.78 79 21:25 28.10.2020
6172 Clear 20 1020 16 10000 1.5 0 20:44 28.10.2020
6173 Clear 20 1020 16 10000 1.5 0 20:23 28.10.2020
6174 Clear 19 1021 16 10000 2.1 130 19:55 28.10.2020
6175 Clear 19 1021 16 10000 2.1 130 19:36 28.10.2020
6176 Clear 18 1021 16 10000 2.1 130 19:18 28.10.2020
6177 Clear 17 1021 18 10000 1.84 64 18:42 28.10.2020
6178 Clear 16 1021 18 10000 1.36 44 18:18 28.10.2020
6179 Clear 14 1021 22 10000 1.36 44 17:41 28.10.2020
6180 Clear 14 1021 22 10000 0.94 20 17:21 28.10.2020
6181 Clear 12 1021 23 10000 3.1 210 16:47 28.10.2020
6182 Clear 11 1021 23 10000 3.1 210 16:28 28.10.2020
6183 Clear 9 1020 27 10000 2.1 230 15:43 28.10.2020
6184 Clear 8 1020 27 10000 2.1 230 15:20 28.10.2020
6185 Clear 8 1020 36 10000 0.99 17 14:49 28.10.2020
6186 Clear 8 1019 24 10000 2.1 200 14:31 28.10.2020
6187 Clear 8 1023 27 10000 2.24 293 13:59 28.10.2020
6188 Clear 9 1018 24 10000 1.21 17 12:37 28.10.2020
6189 Clear 10 1016 21 10000 0.45 309 12:19 28.10.2020
6190 Clear 1 1020 25 10000 1.01 21 11:42 28.10.2020
6191 Clear 10 1019 18 10000 1.5 230 11:22 28.10.2020
6192 Clear 10 1020 21 10000 3.6 350 10:53 28.10.2020
6193 Clear 10 1019 22 10000 2.6 160 10:34 28.10.2020
6194 Clear 11 1019 22 10000 2.6 160 09:56 28.10.2020
6195 Clear 11 1019 22 10000 2.6 160 09:37 28.10.2020
6196 Clear 11 1019 22 10000 2.6 160 09:19 28.10.2020
6197 Clear 11 1019 22 10000 3.1 290 08:43 28.10.2020
6198 Clear 11 1019 22 10000 3.1 290 08:23 28.10.2020
6199 Clear 13 1020 19 10000 3.1 280 07:44 28.10.2020
6200 Clear 13 1020 19 10000 3.1 280 07:26 28.10.2020
6201 Clear 13 1019 16 10000 1.5 230 06:40 28.10.2020
6202 Clear 14 1019 16 10000 2.1 150 05:48 28.10.2020
6203 Clear 15 1019 12 10000 1.5 220 04:52 28.10.2020
6204 Clear 15 1019 12 10000 1.5 220 04:24 28.10.2020
6205 Clouds 18 1018 12 10000 1.5 170 02:25 28.10.2020
6206 Clouds 18 1019 9 10000 2.1 90 00:51 28.10.2020
6207 Clouds 19 1019 9 10000 6.2 60 23:51 27.10.2020
6208 Clouds 19 1019 9 10000 6.2 60 23:22 27.10.2020
6209 Clear 19 1020 7 10000 2.1 100 22:52 27.10.2020
6210 Clear 18 1020 7 10000 2.1 100 22:26 27.10.2020
6211 Clear 18 1021 7 10000 2.1 0 21:58 27.10.2020
6212 Clear 18 1021 7 10000 2.1 0 21:39 27.10.2020
6213 Clear 17 1021 7 10000 2.1 0 21:20 27.10.2020
6214 Clear 16 1021 6 10000 1.5 0 20:54 27.10.2020
6215 Clear 16 1021 6 10000 1.5 0 20:36 27.10.2020
6216 Clear 16 1021 6 10000 1.5 0 20:18 27.10.2020
6217 Clear 15 1022 6 10000 4.6 70 19:39 27.10.2020
6218 Clear 15 1022 6 10000 4.6 70 19:20 27.10.2020
6219 Clear 13 1023 7 10000 7.2 70 18:57 27.10.2020
6220 Clear 13 1023 7 10000 7.2 70 18:39 27.10.2020
6221 Clear 13 1023 7 10000 7.2 70 18:18 27.10.2020
6222 Clear 12 1023 8 10000 6.7 70 17:40 27.10.2020
6223 Clear 12 1023 8 10000 6.7 70 17:20 27.10.2020
6224 Clouds 10 1022 8 10000 6.2 20 16:48 27.10.2020
6225 Clouds 10 1022 8 10000 6.2 20 16:25 27.10.2020
6226 Clouds 8 1021 9 10000 6.2 20 15:47 27.10.2020
6227 Clouds 9 1021 9 10000 6.2 20 15:29 27.10.2020
6228 Clear 9 1021 8 10000 5.7 30 14:55 27.10.2020
6229 Clear 9 1021 8 10000 5.7 30 14:36 27.10.2020
6230 Clear 9 1021 8 10000 5.7 30 14:18 27.10.2020
6231 Clouds 9 1020 7 10000 5.1 30 13:32 27.10.2020
6232 Clouds 9 1020 7 10000 7.7 40 12:57 27.10.2020
6233 Clouds 9 1020 7 10000 7.7 40 12:37 27.10.2020
6234 Clouds 10 1020 7 10000 7.7 40 12:19 27.10.2020
6235 Clouds 7 1021 11 10000 2.1 90 11:42 27.10.2020
6236 Clouds 8 1021 11 10000 2.1 90 11:22 27.10.2020
6237 Clouds 7 1021 14 10000 1.5 200 10:46 27.10.2020
6238 Clouds 7 1021 14 10000 1.5 200 10:24 27.10.2020
6239 Clouds 6 1021 12 10000 2.1 220 09:44 27.10.2020
6240 Clouds 6 1021 12 10000 2.1 220 09:23 27.10.2020
6241 Clear 6 1020 19 10000 2.6 320 08:36 27.10.2020
6242 Clear 6 1020 19 10000 2.6 320 08:18 27.10.2020
6243 Clouds 7 1021 9 10000 6.2 20 07:42 27.10.2020
6244 Clouds 7 1021 9 10000 6.2 20 07:24 27.10.2020
6245 Clear 8 1021 8 10000 5.7 360 06:22 27.10.2020
6246 Clear 8 1021 8 10000 3.6 350 05:51 27.10.2020
6247 Clear 8 1021 8 10000 3.6 350 05:32 27.10.2020
6248 Clear 9 1020 8 10000 3.6 20 04:43 27.10.2020
6249 Clouds 12 1019 7 10000 4.6 70 02:29 27.10.2020
6250 Clear 14 1019 4 10000 9.3 40 00:51 27.10.2020
6251 Clear 14 1019 5 10000 5.7 350 23:41 26.10.2020
6252 Clear 14 1019 5 10000 5.7 350 23:19 26.10.2020
6253 Clear 13 1021 6 10000 6.2 20 22:46 26.10.2020
6254 Clear 13 1021 6 10000 6.2 20 22:21 26.10.2020
6255 Clear 12 1022 7 10000 5.1 10 21:43 26.10.2020
6256 Clear 12 1022 7 10000 5.1 10 21:20 26.10.2020
6257 Clear 11 1023 9 10000 6.7 10 20:57 26.10.2020
6258 Clear 11 1023 9 10000 6.7 10 20:38 26.10.2020
6259 Clear 10 1024 11 10000 7.7 350 20:18 26.10.2020
6260 Clear 9 1024 11 10000 7.7 350 19:46 26.10.2020
6261 Clear 9 1024 11 10000 7.7 350 19:22 26.10.2020
6262 Clear 8 1024 13 10000 8.2 340 18:44 26.10.2020
6263 Clear 8 1024 13 10000 8.2 340 18:23 26.10.2020
6264 Clear 7 1023 16 10000 8.7 350 17:55 26.10.2020
6265 Clear 7 1023 16 10000 8.7 350 17:37 26.10.2020
6266 Clear 7 1023 16 10000 8.7 350 17:19 26.10.2020
6267 Clear 6 1023 17 10000 8.7 360 16:40 26.10.2020
6268 Clear 6 1023 17 10000 8.7 360 16:21 26.10.2020
6269 Clear 5 1022 18 10000 11.8 350 15:41 26.10.2020
6270 Clear 5 1022 18 10000 11.8 350 15:20 26.10.2020
6271 Clear 5 1022 18 10000 11.8 350 15:20 26.10.2020
6272 Clear 5 1021 18 10000 9.8 350 14:52 26.10.2020
6273 Clear 5 1021 18 10000 9.8 350 14:30 26.10.2020
6274 Clear 6 1021 18 10000 8.7 340 13:43 26.10.2020
6275 Clear 6 1021 18 10000 8.7 340 13:24 26.10.2020
6276 Clear 6 1020 20 10000 9.3 340 12:49 26.10.2020
6277 Clear 6 1020 20 10000 9.3 340 12:27 26.10.2020
6278 Dust 7 1020 19 10000 7.2 10 11:57 26.10.2020
6279 Dust 7 1020 19 10000 7.2 10 11:37 26.10.2020
6280 Dust 7 1020 19 10000 7.2 10 11:19 26.10.2020
6281 Dust 8 1019 19 10000 12.9 10 10:43 26.10.2020
6282 Dust 8 1019 19 10000 12.9 10 10:25 26.10.2020
6283 Dust 8 1018 18 10000 12.3 30 09:48 26.10.2020
6284 Dust 8 1018 18 10000 12.3 30 09:48 26.10.2020
6285 Dust 9 1018 18 10000 12.3 30 09:25 26.10.2020
6286 Dust 10 1017 15 10000 13.4 20 08:31 26.10.2020
6287 Dust 12 1016 16 10000 5.7 60 07:56 26.10.2020
6288 Dust 12 1016 16 10000 5.7 60 07:38 26.10.2020
6289 Dust 14 1014 7 10000 12.3 360 06:49 26.10.2020
6290 Dust 18 1009 10 10000 7.7 360 04:47 26.10.2020
6291 Dust 18 1009 10 10000 7.7 360 04:18 26.10.2020
6292 Dust 20 1005 12 10000 11.3 330 02:27 26.10.2020
6293 Dust 22 1004 12 10000 12.3 350 01:29 26.10.2020
6294 Dust 25 1003 15 10000 9.3 340 00:33 26.10.2020
6295 Clouds 26 1003 15 10000 6.2 350 23:42 25.10.2020
6296 Clouds 26 1003 15 10000 6.2 350 23:21 25.10.2020
6297 Clouds 26 1003 15 10000 5.7 320 22:41 25.10.2020
6298 Clouds 26 1003 15 10000 5.7 320 22:23 25.10.2020
6299 Clouds 25 1004 19 10000 2.6 140 21:45 25.10.2020
6300 Clouds 25 1004 19 10000 2.6 140 21:26 25.10.2020
6301 Clear 24 1005 19 10000 3.1 0 20:56 25.10.2020
6302 Clear 24 1005 19 10000 3.1 0 20:38 25.10.2020
6303 Clear 24 1005 19 10000 3.1 0 20:19 25.10.2020
6304 Clear 23 1006 26 10000 5.1 190 19:48 25.10.2020
6305 Clear 22 1006 26 10000 5.1 190 19:24 25.10.2020
6306 Clear 22 1006 24 10000 4.1 210 18:55 25.10.2020
6307 Clear 22 1006 24 10000 4.1 210 18:37 25.10.2020
6308 Clear 21 1006 24 10000 4.1 210 18:19 25.10.2020
6309 Clear 19 1006 30 10000 4.6 170 17:39 25.10.2020
6310 Clear 19 1006 30 10000 4.6 170 17:21 25.10.2020
6311 Clear 18 1006 29 10000 4.6 240 16:58 25.10.2020
6312 Clear 18 1006 29 10000 4.6 240 16:38 25.10.2020
6313 Clear 18 1006 29 10000 4.6 240 16:18 25.10.2020
6314 Clear 17 1005 25 10000 5.7 210 15:46 25.10.2020
6315 Clear 18 1005 25 10000 5.7 210 15:25 25.10.2020
6316 Clear 19 1005 24 10000 4.6 210 14:46 25.10.2020
6317 Clear 19 1005 24 10000 4.6 210 14:28 25.10.2020
6318 Clear 20 1006 22 10000 2.6 210 13:43 25.10.2020
6319 Clear 20 1006 22 10000 2.6 210 13:21 25.10.2020
6320 Clear 21 1006 22 10000 4.6 240 12:49 25.10.2020
6321 Clear 21 1006 22 10000 4.6 240 12:27 25.10.2020
6322 Clear 21 1006 22 10000 4.6 240 12:27 25.10.2020
6323 Clear 22 1006 24 10000 4.6 230 11:55 25.10.2020
6324 Clear 22 1006 24 10000 4.6 230 11:37 25.10.2020
6325 Clear 22 1006 24 10000 4.6 230 11:18 25.10.2020
6326 Clouds 23 1006 23 10000 5.1 190 10:44 25.10.2020
6327 Clouds 23 1006 23 10000 5.1 190 10:25 25.10.2020
6328 Clouds 23 1006 23 10000 5.1 210 09:48 25.10.2020
6329 Clouds 23 1006 23 10000 5.1 210 09:20 25.10.2020
6330 Clouds 23 1007 37 10000 4.1 210 08:47 25.10.2020
6331 Clouds 23 1007 34 10000 4.1 210 08:29 25.10.2020
6332 Clouds 23 1007 20 10000 4.6 190 07:50 25.10.2020
6333 Clouds 23 1007 20 10000 4.6 190 07:32 25.10.2020
6334 Clouds 24 1007 16 10000 4.1 170 06:50 25.10.2020
6335 Clouds 24 1007 14 10000 3.1 190 05:47 25.10.2020
6336 Clouds 25 1008 12 10000 3.1 190 04:52 25.10.2020
6337 Clouds 28 1008 18 10000 2.1 20 02:59 25.10.2020
6338 Clouds 28 1009 18 10000 2.6 30 01:20 25.10.2020
6339 Clouds 28 1009 18 10000 2.1 30 00:47 25.10.2020
6340 Clouds 28 1009 18 10000 2.1 30 00:19 25.10.2020
6341 Clouds 27 1011 14 10000 1.5 360 23:43 24.10.2020
6342 Clouds 26 1011 15 10000 1.5 360 23:24 24.10.2020
6343 Clouds 24 1012 19 10000 2.6 0 22:42 24.10.2020
6344 Clouds 24 1012 19 10000 2.6 0 22:24 24.10.2020
6345 Clouds 23 1013 21 10000 1.5 20 21:57 24.10.2020
6346 Clouds 23 1013 21 10000 1.5 20 21:38 24.10.2020
6347 Clouds 22 1013 21 10000 1.5 20 21:20 24.10.2020
6348 Clouds 21 1014 22 10000 1.56 188 20:46 24.10.2020
6349 Clouds 21 1014 22 10000 1.17 151 20:22 24.10.2020
6350 Clouds 19 1014 25 10000 2.1 60 19:45 24.10.2020
6351 Clouds 20 1014 25 10000 2.1 60 19:26 24.10.2020
6352 Clouds 18 1015 27 10000 1.18 128 18:55 24.10.2020
6353 Clouds 18 1015 27 10000 1.18 128 18:36 24.10.2020
6354 Clouds 16 1014 29 10000 0.87 84 17:57 24.10.2020
6355 Clouds 16 1014 29 10000 0.87 84 17:37 24.10.2020
6356 Clouds 16 1014 29 10000 0.25 51 17:19 24.10.2020
6357 Clouds 15 1014 30 10000 2.1 210 16:41 24.10.2020
6358 Clouds 14 1014 30 10000 2.1 210 16:18 24.10.2020
6359 Clouds 14 1014 30 10000 2.6 210 15:38 24.10.2020
6360 Clouds 14 1014 30 10000 2.6 210 15:19 24.10.2020
6361 Clouds 14 1014 30 10000 0.27 74 14:43 24.10.2020
6362 Clouds 14 1014 30 10000 0.43 21 14:23 24.10.2020
6363 Clouds 15 1014 29 10000 0.43 21 13:44 24.10.2020
6364 Clouds 15 1014 29 10000 0.34 17 13:22 24.10.2020
6365 Clouds 15 1014 26 10000 0.34 17 12:42 24.10.2020
6366 Clouds 15 1014 26 10000 0.17 335 12:21 24.10.2020
6367 Clouds 16 1014 25 10000 1.5 210 11:51 24.10.2020
6368 Clouds 16 1014 25 10000 1.5 210 11:27 24.10.2020
6369 Clouds 16 1014 25 10000 2.1 210 10:52 24.10.2020
6370 Clouds 16 1014 25 10000 2.1 210 10:32 24.10.2020
6371 Clouds 17 1014 22 10000 1.5 220 09:50 24.10.2020
6372 Clouds 17 1014 22 10000 1.5 220 09:28 24.10.2020
6373 Clear 17 1014 27 10000 1.5 0 08:58 24.10.2020
6374 Clouds 17 1015 22 10000 1.5 240 08:19 24.10.2020
6375 Clouds 17 1014 22 10000 2.1 220 07:53 24.10.2020
6376 Clouds 17 1014 22 10000 2.1 220 07:53 24.10.2020
6377 Clouds 18 1014 22 10000 2.1 220 07:24 24.10.2020
6378 Clouds 18 1014 21 10000 1.5 240 06:53 24.10.2020
6379 Clouds 18 1014 21 10000 1.5 240 06:53 24.10.2020
6380 Clouds 19 1014 21 10000 1.5 240 06:22 24.10.2020
6381 Clouds 24 1013 14 10000 1.5 10 02:30 24.10.2020
6382 Clouds 25 1013 14 10000 1.14 109 01:19 24.10.2020
6383 Clouds 25 1014 15 10000 2.1 110 00:40 24.10.2020
6384 Clouds 25 1014 15 10000 2.1 110 00:40 24.10.2020
6385 Clouds 25 1014 15 10000 2.1 110 00:21 24.10.2020
6386 Clouds 24 1015 15 10000 1.16 108 23:47 23.10.2020
6387 Clouds 24 1015 15 10000 1.16 96 23:25 23.10.2020
6388 Clouds 23 1016 13 10000 3.1 90 22:57 23.10.2020
6389 Clouds 23 1016 13 10000 3.1 90 22:37 23.10.2020
6390 Clouds 23 1016 13 10000 3.1 90 22:18 23.10.2020
6391 Smoke 22 1017 13 10000 3.6 50 21:42 23.10.2020
6392 Smoke 23 1017 13 10000 3.6 50 21:24 23.10.2020
6393 Smoke 22 1017 13 10000 3.6 60 20:40 23.10.2020
6394 Smoke 22 1017 13 10000 3.6 60 20:22 23.10.2020
6395 Smoke 20 1017 15 10000 2.1 70 19:50 23.10.2020
6396 Smoke 20 1017 15 10000 2.1 70 19:32 23.10.2020
6397 Smoke 19 1017 17 10000 3.1 30 18:55 23.10.2020
6398 Smoke 18 1017 17 10000 3.1 30 18:31 23.10.2020
6399 Smoke 17 1016 18 10000 2.6 40 17:50 23.10.2020
6400 Smoke 17 1016 18 10000 2.6 40 17:26 23.10.2020
6401 Smoke 15 1015 18 10000 2.1 70 16:56 23.10.2020
6402 Smoke 15 1015 18 10000 2.1 70 16:56 23.10.2020
6403 Smoke 15 1015 18 10000 2.1 70 16:37 23.10.2020
6404 Smoke 15 1015 18 10000 2.1 70 16:37 23.10.2020
6405 Smoke 15 1015 18 10000 2.1 70 16:18 23.10.2020
6406 Smoke 15 1014 18 10000 2.6 40 15:42 23.10.2020
6407 Smoke 15 1014 18 10000 2.6 40 15:23 23.10.2020
6408 Smoke 17 1013 18 10000 4.1 50 14:51 23.10.2020
6409 Smoke 16 1013 18 10000 4.1 50 14:33 23.10.2020
6410 Smoke 17 1013 17 10000 3.1 10 13:55 23.10.2020
6411 Smoke 17 1013 17 10000 3.1 10 13:37 23.10.2020
6412 Smoke 17 1013 17 10000 3.1 10 13:18 23.10.2020
6413 Smoke 17 1013 17 10000 3.1 10 13:18 23.10.2020
6414 Haze 19 1013 19 10000 5.1 40 12:42 23.10.2020
6415 Smoke 18 1013 19 10000 5.1 40 12:23 23.10.2020
6416 Smoke 19 1012 20 10000 4.1 20 11:42 23.10.2020
6417 Smoke 19 1012 20 10000 4.1 20 11:20 23.10.2020
6418 Smoke 19 1011 19 10000 2.6 200 10:43 23.10.2020
6419 Smoke 19 1011 19 10000 2.6 200 10:23 23.10.2020
6420 Smoke 20 1011 18 10000 1.37 12 09:43 23.10.2020
6421 Smoke 21 1011 18 10000 1.2 264 09:23 23.10.2020
6422 Smoke 21 1011 16 10000 2.1 200 08:52 23.10.2020
6423 Smoke 21 1011 16 10000 2.1 200 08:28 23.10.2020
6424 Smoke 23 1010 16 10000 2.1 190 07:28 23.10.2020
6425 Smoke 24 1009 14 10000 3.1 200 06:54 23.10.2020
6426 Smoke 24 1009 14 10000 3.1 200 06:20 23.10.2020
6427 Smoke 25 1008 8 10000 3.6 220 04:42 23.10.2020
6428 Smoke 31 1008 10 10000 2.6 100 02:32 23.10.2020
6429 Smoke 31 1008 10 10000 2.1 60 00:56 23.10.2020
6430 Smoke 31 1008 10 10000 2.1 60 00:33 23.10.2020
6431 Smoke 30 1009 10 10000 2.1 350 23:39 22.10.2020
6432 Smoke 30 1009 10 10000 2.1 350 23:19 22.10.2020
6433 Clear 29 1009 13 10000 2.1 10 22:46 22.10.2020
6434 Clear 29 1009 13 10000 2.1 10 22:26 22.10.2020
6435 Smoke 27 1010 13 10000 2.1 20 21:58 22.10.2020
6436 Smoke 27 1010 13 10000 2.1 20 21:38 22.10.2020
6437 Smoke 27 1010 13 10000 2.1 20 21:18 22.10.2020
6438 Smoke 26 1011 14 10000 1.03 111 20:43 22.10.2020
6439 Smoke 26 1011 14 10000 1.43 97 20:24 22.10.2020
6440 Smoke 24 1011 15 10000 1.43 97 19:43 22.10.2020
6441 Haze 24 1011 15 10000 1.38 99 19:21 22.10.2020
6442 Smoke 23 1011 18 10000 1.38 99 18:57 22.10.2020
6443 Smoke 22 1011 18 10000 1.38 99 18:36 22.10.2020
6444 Smoke 22 1011 18 10000 0.88 91 18:18 22.10.2020
6445 Haze 19 1009 22 10000 0.88 91 17:42 22.10.2020
6446 Haze 19 1009 22 10000 0.18 95 17:20 22.10.2020
6447 Haze 17 1009 27 10000 2.6 310 16:44 22.10.2020
6448 Smoke 17 1009 27 10000 2.6 310 16:24 22.10.2020
6449 Haze 17 1008 23 10000 2.6 290 15:49 22.10.2020
6450 Haze 17 1008 23 10000 2.6 290 15:27 22.10.2020
6451 Clouds 17 1008 25 10000 2.6 300 14:50 22.10.2020
6452 Clouds 17 1008 25 10000 2.6 300 14:29 22.10.2020
6453 Clouds 17 1008 23 10000 0.29 214 13:58 22.10.2020
6454 Clouds 17 1008 23 10000 0.29 214 13:39 22.10.2020
6455 Clouds 18 1008 23 10000 0.63 221 13:20 22.10.2020
6456 Clouds 18 1008 23 10000 2.1 300 12:29 22.10.2020
6457 Clouds 18 1008 24 10000 1.5 320 11:54 22.10.2020
6458 Clouds 18 1008 24 10000 1.5 320 11:36 22.10.2020
6459 Clouds 18 1008 24 10000 1.5 320 11:18 22.10.2020
6460 Clouds 19 1008 19 10000 1.75 235 10:44 22.10.2020
6461 Clouds 19 1008 19 10000 2.12 235 10:23 22.10.2020
6462 Clouds 20 1008 18 10000 1.5 160 09:42 22.10.2020
6463 Clouds 20 1008 18 10000 1.5 160 09:18 22.10.2020
6464 Smoke 21 1008 15 10000 1.5 210 08:39 22.10.2020
6465 Smoke 21 1008 15 10000 1.5 210 08:19 22.10.2020
6466 Smoke 22 1008 13 10000 3.6 210 07:43 22.10.2020
6467 Smoke 22 1008 13 10000 2.1 220 06:59 22.10.2020
6468 Smoke 22 1008 13 10000 2.1 220 06:37 22.10.2020
6469 Smoke 24 1008 16 10000 2.6 210 05:42 22.10.2020
6470 Smoke 25 1008 16 10000 2.6 210 05:22 22.10.2020
6471 Smoke 29 1008 10 10000 3.1 60 02:40 22.10.2020
6472 Smoke 31 1008 11 10000 1.5 80 00:36 22.10.2020
6473 Smoke 31 1008 11 10000 1.5 80 00:18 22.10.2020
6474 Smoke 30 1009 10 10000 1.5 0 23:38 21.10.2020
6475 Haze 28 1011 12 10000 2.1 90 22:58 21.10.2020
6476 Smoke 28 1011 12 10000 2.1 90 22:37 21.10.2020
6477 Smoke 28 1011 12 10000 2.1 90 22:18 21.10.2020
6478 Smoke 27 1012 11 10000 2.6 50 21:44 21.10.2020
6479 Smoke 27 1012 11 10000 2.6 50 21:19 21.10.2020
6480 Smoke 25 1012 14 10000 1.67 133 20:48 21.10.2020
6481 Smoke 26 1012 14 10000 1.07 113 20:19 21.10.2020
6482 Smoke 23 1013 16 10000 1.5 100 19:59 21.10.2020
6483 Smoke 24 1013 16 10000 1.5 100 19:39 21.10.2020
6484 Smoke 24 1013 16 10000 1.5 100 19:19 21.10.2020
6485 Smoke 22 1013 17 10000 0.8 115 18:47 21.10.2020
6486 Smoke 22 1013 17 10000 0.48 118 18:26 21.10.2020
6487 Clear 18 1012 22 10000 0.48 118 17:47 21.10.2020
6488 Clear 18 1012 22 10000 0.28 29 17:21 21.10.2020
6489 Clouds 17 1012 20 10000 2.1 210 16:56 21.10.2020
6490 Clouds 17 1012 20 10000 2.1 210 16:36 21.10.2020
6491 Clear 16 1011 20 10000 0.65 14 16:18 21.10.2020
6492 Clear 17 1011 20 10000 0.65 14 15:42 21.10.2020
6493 Clouds 16 1011 23 10000 1.5 200 15:20 21.10.2020
6494 Clouds 17 1011 23 10000 1.5 200 14:45 21.10.2020
6495 Clouds 17 1011 23 10000 1.5 200 14:27 21.10.2020
6496 Clouds 17 1011 18 10000 2.1 220 13:46 21.10.2020
6497 Clouds 17 1011 18 10000 2.1 220 13:26 21.10.2020
6498 Clouds 18 1011 22 10000 1.5 230 12:48 21.10.2020
6499 Clear 18 1011 16 10000 0.49 298 12:25 21.10.2020
6500 Clear 18 1011 16 10000 0.49 298 11:59 21.10.2020
6501 Clear 18 1011 16 10000 0.49 298 11:40 21.10.2020
6502 Clear 19 1011 16 10000 2.1 220 11:19 21.10.2020
6503 Clear 19 1011 16 10000 2.1 220 10:44 21.10.2020
6504 Clear 19 1011 16 10000 2.1 220 10:25 21.10.2020
6505 Clear 20 1011 14 10000 2.1 220 09:52 21.10.2020
6506 Clear 20 1011 14 10000 2.1 220 09:33 21.10.2020
6507 Clear 20 1011 13 10000 0.89 263 08:43 21.10.2020
6508 Clear 21 1011 12 10000 2.1 240 08:25 21.10.2020
6509 Clear 22 1011 12 10000 2.1 240 07:58 21.10.2020
6510 Clear 22 1011 12 10000 2.1 240 07:31 21.10.2020
6511 Clear 22 1011 13 10000 1.5 250 06:50 21.10.2020
6512 Clear 23 1011 13 10000 1.5 250 06:26 21.10.2020
6513 Clear 25 1010 13 10000 0.68 315 04:46 21.10.2020
6514 Smoke 31 1011 9 10000 1.4 143 00:51 21.10.2020
6515 Smoke 31 1012 10 10000 1.46 139 23:49 20.10.2020
6516 Smoke 30 1013 12 10000 1.5 50 22:53 20.10.2020
6517 Smoke 30 1013 12 10000 1.5 50 22:28 20.10.2020
6518 Haze 29 1014 13 10000 1.5 0 21:50 20.10.2020
6519 Smoke 28 1015 12 10000 1.5 20 21:20 20.10.2020
6520 Haze 28 1015 12 10000 1.5 20 20:45 20.10.2020
6521 Haze 27 1015 12 10000 1.5 20 20:26 20.10.2020
6522 Smoke 26 1015 15 10000 1.5 28 19:59 20.10.2020
6523 Smoke 26 1015 15 10000 1.58 28 19:41 20.10.2020
6524 Clouds 26 1015 18 10000 2.1 310 19:21 20.10.2020
6525 Clouds 24 1015 18 10000 2.1 310 18:47 20.10.2020
6526 Clouds 24 1015 18 10000 2.1 310 18:29 20.10.2020
6527 Clouds 19 1015 20 10000 1.5 250 17:47 20.10.2020
6528 Clouds 19 1015 20 10000 1.5 250 17:29 20.10.2020
6529 Clouds 18 1014 23 10000 2.1 200 16:48 20.10.2020
6530 Clouds 17 1014 23 10000 2.1 200 16:28 20.10.2020
6531 Clear 18 1014 22 10000 1.02 342 15:56 20.10.2020
6532 Clear 17 1014 22 10000 1.02 342 15:38 20.10.2020
6533 Clear 17 1013 23 10000 1.01 355 15:19 20.10.2020
6534 Clear 17 1013 23 10000 1.01 355 14:41 20.10.2020
6535 Clear 17 1013 22 10000 2.1 220 14:22 20.10.2020
6536 Clear 18 1013 22 10000 2.1 220 13:44 20.10.2020
6537 Clear 18 1013 18 10000 2.1 270 13:23 20.10.2020
6538 Clear 19 1013 18 10000 2.1 270 12:58 20.10.2020
6539 Clear 19 1013 18 10000 2.1 270 12:40 20.10.2020
6540 Clear 20 1013 18 10000 1.5 230 12:21 20.10.2020
6541 Clear 20 1013 18 10000 1.5 230 11:40 20.10.2020
6542 Clear 20 1013 16 10000 1.5 230 11:20 20.10.2020
6543 Clear 20 1013 16 10000 1.5 230 10:31 20.10.2020
6544 Clouds 21 1013 17 10000 2.1 220 09:51 20.10.2020
6545 Clouds 21 1013 17 10000 2.1 220 09:22 20.10.2020
6546 Clouds 21 1013 17 10000 2.1 220 08:58 20.10.2020
6547 Clouds 21 1013 17 10000 2.1 220 08:36 20.10.2020
6548 Clouds 23 1013 16 10000 1.5 250 07:52 20.10.2020
6549 Clouds 23 1013 16 10000 1.5 250 07:25 20.10.2020
6550 Clouds 23 1013 15 10000 1.5 210 06:30 20.10.2020
6551 Clouds 25 1013 13 10000 1.17 271 05:43 20.10.2020
6552 Clouds 29 1012 12 10000 1.5 120 03:55 20.10.2020
6553 Clouds 31 1013 9 10000 1.5 0 02:18 20.10.2020
6554 Clear 31 1013 8 10000 1.27 156 00:59 20.10.2020
6555 Clear 31 1013 8 10000 1.27 156 00:41 20.10.2020
6556 Clear 31 1014 9 10000 2.1 50 00:19 20.10.2020
6557 Clear 31 1014 9 10000 2.1 50 23:41 19.10.2020
6558 Clear 31 1015 11 10000 1.24 152 23:21 19.10.2020
6559 Clear 30 1015 11 10000 1.24 152 22:43 19.10.2020
6560 Clear 30 1016 13 10000 2.1 40 22:21 19.10.2020
6561 Clear 29 1016 13 10000 2.1 40 21:43 19.10.2020
6562 Clear 28 1017 12 10000 2.6 60 21:22 19.10.2020
6563 Clear 28 1017 12 10000 2.6 60 20:46 19.10.2020
6564 Clear 28 1017 12 10000 2.6 60 20:27 19.10.2020
6565 Clear 26 1017 14 10000 1.5 100 19:50 19.10.2020
6566 Clouds 26 1016 17 10000 0.84 33 19:24 19.10.2020
6567 Clouds 25 1016 17 10000 0.84 33 18:54 19.10.2020
6568 Clouds 24 1016 17 10000 0.84 33 18:36 19.10.2020
6569 Clouds 22 1016 20 10000 0.89 337 18:18 19.10.2020
6570 Clouds 21 1016 20 10000 0.89 337 17:43 19.10.2020
6571 Clouds 20 1015 22 10000 1 303 17:23 19.10.2020
6572 Clouds 19 1015 22 10000 1 303 16:43 19.10.2020
6573 Clear 18 1015 19 10000 1.5 220 16:24 19.10.2020
6574 Clear 16 1012 36 10000 0.45 288 15:43 19.10.2020
6575 Clear 17 1012 34 10000 0.45 288 15:24 19.10.2020
6576 Clear 17 1012 34 10000 0.45 286 14:51 19.10.2020
6577 Clear 17 1012 34 10000 0.45 288 14:24 19.10.2020
6578 Clear 17 1012 34 10000 0.45 321 13:52 19.10.2020
6579 Clear 18 1011 35 10000 1.06 340 13:32 19.10.2020
6580 Clear 18 1011 32 10000 1.17 341 12:51 19.10.2020
6581 Clear 19 1012 32 10000 1.17 341 12:33 19.10.2020
6582 Clear 19 1012 28 10000 1.07 334 11:51 19.10.2020
6583 Clouds 21 1014 17 10000 2.6 200 11:26 19.10.2020
6584 Clouds 21 1014 17 10000 2.6 200 10:56 19.10.2020
6585 Clouds 21 1014 17 10000 2.6 200 10:38 19.10.2020
6586 Clouds 21 1014 17 10000 2.6 200 10:19 19.10.2020
6587 Clouds 21 1014 16 10000 2.6 230 09:42 19.10.2020
6588 Clouds 22 1014 16 10000 2.6 230 09:19 19.10.2020
6589 Clouds 22 1014 16 10000 2.1 220 08:48 19.10.2020
6590 Clouds 22 1014 16 10000 2.1 220 08:23 19.10.2020
6591 Clouds 23 1014 15 10000 2.1 210 07:39 19.10.2020
6592 Clouds 23 1014 15 10000 2.1 210 07:18 19.10.2020
6593 Clouds 24 1014 13 10000 2.6 230 06:18 19.10.2020
6594 Clouds 29 1013 11 10000 1.78 230 03:48 19.10.2020
6595 Clouds 32 1013 9 10000 2.1 100 02:23 19.10.2020
6596 Smoke 32 1014 9 10000 0.77 206 00:49 19.10.2020
6597 Smoke 32 1014 9 10000 0.19 193 00:20 19.10.2020
6598 Smoke 31 1015 9 10000 1.5 0 23:45 18.10.2020
6599 Smoke 31 1015 9 10000 1.5 0 23:24 18.10.2020
6600 Smoke 30 1015 9 10000 2.1 120 22:48 18.10.2020
6601 Smoke 30 1015 9 10000 2.1 120 22:22 18.10.2020
6602 Smoke 30 1016 10 10000 2.6 70 21:53 18.10.2020
6603 Smoke 29 1016 10 10000 2.6 70 21:30 18.10.2020
6604 Smoke 28 1017 11 10000 1.11 125 20:58 18.10.2020
6605 Smoke 28 1017 11 10000 1.11 125 20:39 18.10.2020
6606 Smoke 28 1017 11 10000 1.07 131 20:19 18.10.2020
6607 Smoke 26 1017 13 10000 1.5 0 19:42 18.10.2020
6608 Smoke 26 1017 13 10000 1.5 0 19:20 18.10.2020
6609 Smoke 24 1017 12 10000 2.6 70 18:48 18.10.2020
6610 Smoke 24 1017 12 10000 2.6 70 18:25 18.10.2020
6611 Smoke 19 1016 17 10000 1.5 190 17:43 18.10.2020
6612 Smoke 19 1016 17 10000 1.5 190 17:25 18.10.2020
6613 Smoke 18 1016 17 10000 0.36 25 16:45 18.10.2020
6614 Smoke 17 1016 17 10000 0.04 75 16:26 18.10.2020
6615 Smoke 17 1015 16 10000 3.1 230 15:57 18.10.2020
6616 Smoke 17 1015 16 10000 3.1 230 15:39 18.10.2020
6617 Smoke 18 1015 16 10000 3.1 230 15:19 18.10.2020
6618 Smoke 18 1015 17 10000 1.5 240 14:50 18.10.2020
6619 Smoke 18 1015 17 10000 1.5 240 14:27 18.10.2020
6620 Smoke 18 1015 16 10000 2.1 270 13:55 18.10.2020
6621 Smoke 18 1015 16 10000 2.1 270 13:37 18.10.2020
6622 Smoke 19 1015 16 10000 2.1 270 13:18 18.10.2020
6623 Clear 19 1015 15 10000 1.5 220 12:41 18.10.2020
6624 Clear 19 1015 15 10000 1.5 220 12:20 18.10.2020
6625 Clear 20 1015 12 10000 2.1 240 11:41 18.10.2020
6626 Clear 20 1015 12 10000 2.1 240 11:22 18.10.2020
6627 Clear 20 1014 12 10000 3.1 240 10:40 18.10.2020
6628 Clear 20 1014 12 10000 3.1 240 10:40 18.10.2020
6629 Clear 20 1014 12 10000 3.1 240 10:20 18.10.2020
6630 Clear 21 1014 11 10000 3.1 220 09:50 18.10.2020
6631 Clear 21 1014 11 10000 3.1 220 09:23 18.10.2020
6632 Smoke 22 1015 11 10000 2.6 210 08:57 18.10.2020
6633 Smoke 22 1015 11 10000 2.6 210 08:37 18.10.2020
6634 Smoke 22 1015 11 10000 2.6 210 08:19 18.10.2020
6635 Smoke 24 1014 10 10000 3.6 230 06:57 18.10.2020
6636 Smoke 26 1013 12 10000 2.1 160 04:44 18.10.2020
6637 Smoke 32 1013 8 10000 2.1 90 02:56 18.10.2020
6638 Smoke 32 1014 8 10000 0.97 143 01:39 18.10.2020
6639 Smoke 32 1015 8 10000 1.25 151 00:50 18.10.2020
6640 Smoke 32 1015 8 10000 1.25 151 00:32 18.10.2020
6641 Smoke 31 1016 8 10000 2.1 90 23:45 17.10.2020
6642 Smoke 31 1016 8 10000 2.1 90 23:22 17.10.2020
6643 Smoke 30 1017 9 10000 2.1 0 22:59 17.10.2020
6644 Smoke 29 1017 9 10000 2.1 0 22:40 17.10.2020
6645 Smoke 29 1017 9 10000 2.1 0 22:19 17.10.2020
6646 Smoke 28 1018 11 10000 2.1 70 21:44 17.10.2020
6647 Smoke 28 1018 11 10000 2.1 70 21:22 17.10.2020
6648 Smoke 27 1018 10 10000 3.6 40 20:48 17.10.2020
6649 Smoke 27 1018 10 10000 3.6 40 20:21 17.10.2020
6650 Smoke 27 1018 10 10000 3.6 40 20:21 17.10.2020
6651 Smoke 25 1018 12 10000 2.1 190 19:46 17.10.2020
6652 Smoke 25 1018 12 10000 2.1 190 19:24 17.10.2020
6653 Clear 24 1018 15 10000 2.1 320 18:47 17.10.2020
6654 Clear 24 1018 15 10000 2.1 320 18:29 17.10.2020
6655 Clear 20 1017 17 10000 1.5 220 17:59 17.10.2020
6656 Clear